<?xml version="1.0" encoding="UTF-8" standalone="no" ?>
<gpx xmlns="http://www.topografix.com/GPX/1/1" xmlns:xsi="http://www.w3.org/2001/XMLSchema-instance" xsi:schemaLocation="http://www.topografix.com/GPX/1/1 http://www.topografix.com/GPX/1/1/gpx.xsd" version="1.1" creator="VisuGPX - https://www.visugpx.com">
  <metadata>
    <name>Ain - Boucle à Boissey</name>
  </metadata>
  <trk>
    <name><![CDATA[Ain - Boucle à Boissey_1]]></name>
    <trkseg>
      <trkpt lat="46.38177" lon="4.99616">
        <ele>196</ele>
        <time>2021-01-02T12:43:34.000Z</time>
      </trkpt>
      <trkpt lat="46.38177" lon="4.99616">
        <ele>196</ele>
        <time>2021-01-02T12:43:35.000Z</time>
      </trkpt>
      <trkpt lat="46.38176" lon="4.99616">
        <ele>196</ele>
        <time>2021-01-02T12:43:36.000Z</time>
      </trkpt>
      <trkpt lat="46.38175" lon="4.99617">
        <ele>196</ele>
        <time>2021-01-02T12:43:37.000Z</time>
      </trkpt>
      <trkpt lat="46.38173" lon="4.99617">
        <ele>197</ele>
        <time>2021-01-02T12:43:38.000Z</time>
      </trkpt>
      <trkpt lat="46.3817" lon="4.99618">
        <ele>197</ele>
        <time>2021-01-02T12:43:39.000Z</time>
      </trkpt>
      <trkpt lat="46.38168" lon="4.99618">
        <ele>197</ele>
        <time>2021-01-02T12:43:40.000Z</time>
      </trkpt>
      <trkpt lat="46.38165" lon="4.99619">
        <ele>197</ele>
        <time>2021-01-02T12:43:41.000Z</time>
      </trkpt>
      <trkpt lat="46.38163" lon="4.99619">
        <ele>198</ele>
        <time>2021-01-02T12:43:42.000Z</time>
      </trkpt>
      <trkpt lat="46.38161" lon="4.99619">
        <ele>198</ele>
        <time>2021-01-02T12:43:43.000Z</time>
      </trkpt>
      <trkpt lat="46.38158" lon="4.99619">
        <ele>198</ele>
        <time>2021-01-02T12:43:44.000Z</time>
      </trkpt>
      <trkpt lat="46.38156" lon="4.99619">
        <ele>198</ele>
        <time>2021-01-02T12:43:45.000Z</time>
      </trkpt>
      <trkpt lat="46.38153" lon="4.9962">
        <ele>199</ele>
        <time>2021-01-02T12:43:46.000Z</time>
      </trkpt>
      <trkpt lat="46.38149" lon="4.99619">
        <ele>199</ele>
        <time>2021-01-02T12:43:47.000Z</time>
      </trkpt>
      <trkpt lat="46.38146" lon="4.99619">
        <ele>199</ele>
        <time>2021-01-02T12:43:48.000Z</time>
      </trkpt>
      <trkpt lat="46.38142" lon="4.99619">
        <ele>199</ele>
        <time>2021-01-02T12:43:49.000Z</time>
      </trkpt>
      <trkpt lat="46.38138" lon="4.99619">
        <ele>199</ele>
        <time>2021-01-02T12:43:50.000Z</time>
      </trkpt>
      <trkpt lat="46.38134" lon="4.99619">
        <ele>199</ele>
        <time>2021-01-02T12:43:51.000Z</time>
      </trkpt>
      <trkpt lat="46.38129" lon="4.99619">
        <ele>199</ele>
        <time>2021-01-02T12:43:52.000Z</time>
      </trkpt>
      <trkpt lat="46.38124" lon="4.99619">
        <ele>199</ele>
        <time>2021-01-02T12:43:53.000Z</time>
      </trkpt>
      <trkpt lat="46.38119" lon="4.99619">
        <ele>199</ele>
        <time>2021-01-02T12:43:54.000Z</time>
      </trkpt>
      <trkpt lat="46.38114" lon="4.99618">
        <ele>199</ele>
        <time>2021-01-02T12:43:55.000Z</time>
      </trkpt>
      <trkpt lat="46.38108" lon="4.99616">
        <ele>199</ele>
        <time>2021-01-02T12:43:56.000Z</time>
      </trkpt>
      <trkpt lat="46.38103" lon="4.99615">
        <ele>200</ele>
        <time>2021-01-02T12:43:57.000Z</time>
      </trkpt>
      <trkpt lat="46.38098" lon="4.99612">
        <ele>200</ele>
        <time>2021-01-02T12:43:58.000Z</time>
      </trkpt>
      <trkpt lat="46.38093" lon="4.99609">
        <ele>200</ele>
        <time>2021-01-02T12:43:59.000Z</time>
      </trkpt>
      <trkpt lat="46.38088" lon="4.99605">
        <ele>200</ele>
        <time>2021-01-02T12:44:00.000Z</time>
      </trkpt>
      <trkpt lat="46.38084" lon="4.996">
        <ele>200</ele>
        <time>2021-01-02T12:44:01.000Z</time>
      </trkpt>
      <trkpt lat="46.3808" lon="4.99595">
        <ele>200</ele>
        <time>2021-01-02T12:44:02.000Z</time>
      </trkpt>
      <trkpt lat="46.38077" lon="4.99591">
        <ele>200</ele>
        <time>2021-01-02T12:44:03.000Z</time>
      </trkpt>
      <trkpt lat="46.38073" lon="4.99587">
        <ele>200</ele>
        <time>2021-01-02T12:44:04.000Z</time>
      </trkpt>
      <trkpt lat="46.3807" lon="4.99583">
        <ele>200</ele>
        <time>2021-01-02T12:44:05.000Z</time>
      </trkpt>
      <trkpt lat="46.38067" lon="4.99579">
        <ele>200</ele>
        <time>2021-01-02T12:44:06.000Z</time>
      </trkpt>
      <trkpt lat="46.38064" lon="4.99575">
        <ele>200</ele>
        <time>2021-01-02T12:44:07.000Z</time>
      </trkpt>
      <trkpt lat="46.38061" lon="4.99572">
        <ele>200</ele>
        <time>2021-01-02T12:44:08.000Z</time>
      </trkpt>
      <trkpt lat="46.38059" lon="4.99569">
        <ele>200</ele>
        <time>2021-01-02T12:44:09.000Z</time>
      </trkpt>
      <trkpt lat="46.38056" lon="4.99566">
        <ele>200</ele>
        <time>2021-01-02T12:44:10.000Z</time>
      </trkpt>
      <trkpt lat="46.38054" lon="4.99562">
        <ele>200</ele>
        <time>2021-01-02T12:44:11.000Z</time>
      </trkpt>
      <trkpt lat="46.38052" lon="4.99559">
        <ele>200</ele>
        <time>2021-01-02T12:44:12.000Z</time>
      </trkpt>
      <trkpt lat="46.3805" lon="4.99556">
        <ele>200</ele>
        <time>2021-01-02T12:44:13.000Z</time>
      </trkpt>
      <trkpt lat="46.38047" lon="4.99553">
        <ele>201</ele>
        <time>2021-01-02T12:44:14.000Z</time>
      </trkpt>
      <trkpt lat="46.38045" lon="4.9955">
        <ele>201</ele>
        <time>2021-01-02T12:44:15.000Z</time>
      </trkpt>
      <trkpt lat="46.38043" lon="4.99547">
        <ele>201</ele>
        <time>2021-01-02T12:44:16.000Z</time>
      </trkpt>
      <trkpt lat="46.38041" lon="4.99545">
        <ele>201</ele>
        <time>2021-01-02T12:44:17.000Z</time>
      </trkpt>
      <trkpt lat="46.38039" lon="4.99542">
        <ele>201</ele>
        <time>2021-01-02T12:44:18.000Z</time>
      </trkpt>
      <trkpt lat="46.38036" lon="4.9954">
        <ele>201</ele>
        <time>2021-01-02T12:44:19.000Z</time>
      </trkpt>
      <trkpt lat="46.38034" lon="4.99538">
        <ele>201</ele>
        <time>2021-01-02T12:44:20.000Z</time>
      </trkpt>
      <trkpt lat="46.38032" lon="4.99536">
        <ele>201</ele>
        <time>2021-01-02T12:44:21.000Z</time>
      </trkpt>
      <trkpt lat="46.38031" lon="4.99534">
        <ele>201</ele>
        <time>2021-01-02T12:44:22.000Z</time>
      </trkpt>
      <trkpt lat="46.38029" lon="4.99532">
        <ele>201</ele>
        <time>2021-01-02T12:44:23.000Z</time>
      </trkpt>
      <trkpt lat="46.38027" lon="4.99531">
        <ele>201</ele>
        <time>2021-01-02T12:44:24.000Z</time>
      </trkpt>
      <trkpt lat="46.38025" lon="4.9953">
        <ele>201</ele>
        <time>2021-01-02T12:44:25.000Z</time>
      </trkpt>
      <trkpt lat="46.38023" lon="4.99529">
        <ele>201</ele>
        <time>2021-01-02T12:44:26.000Z</time>
      </trkpt>
      <trkpt lat="46.3802" lon="4.99526">
        <ele>202</ele>
        <time>2021-01-02T12:44:27.000Z</time>
      </trkpt>
      <trkpt lat="46.38018" lon="4.99524">
        <ele>202</ele>
        <time>2021-01-02T12:44:28.000Z</time>
      </trkpt>
      <trkpt lat="46.38015" lon="4.99523">
        <ele>202</ele>
        <time>2021-01-02T12:44:29.000Z</time>
      </trkpt>
      <trkpt lat="46.38013" lon="4.99522">
        <ele>202</ele>
        <time>2021-01-02T12:44:30.000Z</time>
      </trkpt>
      <trkpt lat="46.38011" lon="4.9952">
        <ele>202</ele>
        <time>2021-01-02T12:44:31.000Z</time>
      </trkpt>
      <trkpt lat="46.38009" lon="4.99518">
        <ele>202</ele>
        <time>2021-01-02T12:44:32.000Z</time>
      </trkpt>
      <trkpt lat="46.38007" lon="4.99516">
        <ele>202</ele>
        <time>2021-01-02T12:44:33.000Z</time>
      </trkpt>
      <trkpt lat="46.38004" lon="4.99515">
        <ele>202</ele>
        <time>2021-01-02T12:44:34.000Z</time>
      </trkpt>
      <trkpt lat="46.38002" lon="4.99514">
        <ele>202</ele>
        <time>2021-01-02T12:44:35.000Z</time>
      </trkpt>
      <trkpt lat="46.38" lon="4.99513">
        <ele>202</ele>
        <time>2021-01-02T12:44:36.000Z</time>
      </trkpt>
      <trkpt lat="46.37998" lon="4.99511">
        <ele>202</ele>
        <time>2021-01-02T12:44:37.000Z</time>
      </trkpt>
      <trkpt lat="46.37996" lon="4.99509">
        <ele>202</ele>
        <time>2021-01-02T12:44:38.000Z</time>
      </trkpt>
      <trkpt lat="46.37994" lon="4.99507">
        <ele>202</ele>
        <time>2021-01-02T12:44:39.000Z</time>
      </trkpt>
      <trkpt lat="46.37992" lon="4.99505">
        <ele>202</ele>
        <time>2021-01-02T12:44:40.000Z</time>
      </trkpt>
      <trkpt lat="46.3799" lon="4.99502">
        <ele>202</ele>
        <time>2021-01-02T12:44:41.000Z</time>
      </trkpt>
      <trkpt lat="46.37987" lon="4.995">
        <ele>202</ele>
        <time>2021-01-02T12:44:42.000Z</time>
      </trkpt>
      <trkpt lat="46.37985" lon="4.99498">
        <ele>202</ele>
        <time>2021-01-02T12:44:43.000Z</time>
      </trkpt>
      <trkpt lat="46.37982" lon="4.99495">
        <ele>202</ele>
        <time>2021-01-02T12:44:44.000Z</time>
      </trkpt>
      <trkpt lat="46.3798" lon="4.99492">
        <ele>202</ele>
        <time>2021-01-02T12:44:45.000Z</time>
      </trkpt>
      <trkpt lat="46.37978" lon="4.99488">
        <ele>203</ele>
        <time>2021-01-02T12:44:46.000Z</time>
      </trkpt>
      <trkpt lat="46.37976" lon="4.99485">
        <ele>203</ele>
        <time>2021-01-02T12:44:47.000Z</time>
      </trkpt>
      <trkpt lat="46.37973" lon="4.99481">
        <ele>203</ele>
        <time>2021-01-02T12:44:48.000Z</time>
      </trkpt>
      <trkpt lat="46.37971" lon="4.99477">
        <ele>203</ele>
        <time>2021-01-02T12:44:49.000Z</time>
      </trkpt>
      <trkpt lat="46.37969" lon="4.99473">
        <ele>203</ele>
        <time>2021-01-02T12:44:50.000Z</time>
      </trkpt>
      <trkpt lat="46.37967" lon="4.9947">
        <ele>203</ele>
        <time>2021-01-02T12:44:51.000Z</time>
      </trkpt>
      <trkpt lat="46.37965" lon="4.99466">
        <ele>203</ele>
        <time>2021-01-02T12:44:52.000Z</time>
      </trkpt>
      <trkpt lat="46.37962" lon="4.99462">
        <ele>203</ele>
        <time>2021-01-02T12:44:53.000Z</time>
      </trkpt>
      <trkpt lat="46.3796" lon="4.99458">
        <ele>203</ele>
        <time>2021-01-02T12:44:54.000Z</time>
      </trkpt>
      <trkpt lat="46.37958" lon="4.99455">
        <ele>203</ele>
        <time>2021-01-02T12:44:55.000Z</time>
      </trkpt>
      <trkpt lat="46.37956" lon="4.99452">
        <ele>203</ele>
        <time>2021-01-02T12:44:56.000Z</time>
      </trkpt>
      <trkpt lat="46.37954" lon="4.99449">
        <ele>203</ele>
        <time>2021-01-02T12:44:57.000Z</time>
      </trkpt>
      <trkpt lat="46.37952" lon="4.99446">
        <ele>203</ele>
        <time>2021-01-02T12:44:58.000Z</time>
      </trkpt>
      <trkpt lat="46.3795" lon="4.99443">
        <ele>203</ele>
        <time>2021-01-02T12:44:59.000Z</time>
      </trkpt>
      <trkpt lat="46.37948" lon="4.9944">
        <ele>203</ele>
        <time>2021-01-02T12:45:00.000Z</time>
      </trkpt>
      <trkpt lat="46.37946" lon="4.99438">
        <ele>203</ele>
        <time>2021-01-02T12:45:01.000Z</time>
      </trkpt>
      <trkpt lat="46.37944" lon="4.99436">
        <ele>204</ele>
        <time>2021-01-02T12:45:02.000Z</time>
      </trkpt>
      <trkpt lat="46.37942" lon="4.99433">
        <ele>204</ele>
        <time>2021-01-02T12:45:03.000Z</time>
      </trkpt>
      <trkpt lat="46.37939" lon="4.99431">
        <ele>204</ele>
        <time>2021-01-02T12:45:04.000Z</time>
      </trkpt>
      <trkpt lat="46.37937" lon="4.99429">
        <ele>204</ele>
        <time>2021-01-02T12:45:05.000Z</time>
      </trkpt>
      <trkpt lat="46.37934" lon="4.99427">
        <ele>204</ele>
        <time>2021-01-02T12:45:06.000Z</time>
      </trkpt>
      <trkpt lat="46.37932" lon="4.99424">
        <ele>204</ele>
        <time>2021-01-02T12:45:07.000Z</time>
      </trkpt>
      <trkpt lat="46.37929" lon="4.99422">
        <ele>204</ele>
        <time>2021-01-02T12:45:08.000Z</time>
      </trkpt>
      <trkpt lat="46.37927" lon="4.9942">
        <ele>204</ele>
        <time>2021-01-02T12:45:09.000Z</time>
      </trkpt>
      <trkpt lat="46.37924" lon="4.99418">
        <ele>204</ele>
        <time>2021-01-02T12:45:10.000Z</time>
      </trkpt>
      <trkpt lat="46.37921" lon="4.99417">
        <ele>204</ele>
        <time>2021-01-02T12:45:11.000Z</time>
      </trkpt>
      <trkpt lat="46.37918" lon="4.99415">
        <ele>204</ele>
        <time>2021-01-02T12:45:12.000Z</time>
      </trkpt>
      <trkpt lat="46.37915" lon="4.99414">
        <ele>204</ele>
        <time>2021-01-02T12:45:13.000Z</time>
      </trkpt>
      <trkpt lat="46.37912" lon="4.99413">
        <ele>205</ele>
        <time>2021-01-02T12:45:14.000Z</time>
      </trkpt>
      <trkpt lat="46.37909" lon="4.99412">
        <ele>205</ele>
        <time>2021-01-02T12:45:15.000Z</time>
      </trkpt>
      <trkpt lat="46.37906" lon="4.99412">
        <ele>205</ele>
        <time>2021-01-02T12:45:16.000Z</time>
      </trkpt>
      <trkpt lat="46.37903" lon="4.99411">
        <ele>205</ele>
        <time>2021-01-02T12:45:17.000Z</time>
      </trkpt>
      <trkpt lat="46.379" lon="4.99411">
        <ele>205</ele>
        <time>2021-01-02T12:45:18.000Z</time>
      </trkpt>
      <trkpt lat="46.37897" lon="4.99411">
        <ele>205</ele>
        <time>2021-01-02T12:45:19.000Z</time>
      </trkpt>
      <trkpt lat="46.37893" lon="4.9941">
        <ele>205</ele>
        <time>2021-01-02T12:45:20.000Z</time>
      </trkpt>
      <trkpt lat="46.3789" lon="4.99411">
        <ele>205</ele>
        <time>2021-01-02T12:45:21.000Z</time>
      </trkpt>
      <trkpt lat="46.37887" lon="4.99411">
        <ele>205</ele>
        <time>2021-01-02T12:45:22.000Z</time>
      </trkpt>
      <trkpt lat="46.37883" lon="4.99411">
        <ele>205</ele>
        <time>2021-01-02T12:45:23.000Z</time>
      </trkpt>
      <trkpt lat="46.3788" lon="4.99412">
        <ele>205</ele>
        <time>2021-01-02T12:45:24.000Z</time>
      </trkpt>
      <trkpt lat="46.37876" lon="4.99412">
        <ele>205</ele>
        <time>2021-01-02T12:45:25.000Z</time>
      </trkpt>
      <trkpt lat="46.37873" lon="4.99413">
        <ele>205</ele>
        <time>2021-01-02T12:45:26.000Z</time>
      </trkpt>
      <trkpt lat="46.3787" lon="4.99413">
        <ele>205</ele>
        <time>2021-01-02T12:45:27.000Z</time>
      </trkpt>
      <trkpt lat="46.37866" lon="4.99413">
        <ele>205</ele>
        <time>2021-01-02T12:45:28.000Z</time>
      </trkpt>
      <trkpt lat="46.37863" lon="4.99413">
        <ele>205</ele>
        <time>2021-01-02T12:45:29.000Z</time>
      </trkpt>
      <trkpt lat="46.37859" lon="4.99413">
        <ele>205</ele>
        <time>2021-01-02T12:45:30.000Z</time>
      </trkpt>
      <trkpt lat="46.37855" lon="4.99413">
        <ele>205</ele>
        <time>2021-01-02T12:45:31.000Z</time>
      </trkpt>
      <trkpt lat="46.37852" lon="4.99412">
        <ele>205</ele>
        <time>2021-01-02T12:45:32.000Z</time>
      </trkpt>
      <trkpt lat="46.37849" lon="4.99412">
        <ele>205</ele>
        <time>2021-01-02T12:45:33.000Z</time>
      </trkpt>
      <trkpt lat="46.37845" lon="4.99412">
        <ele>205</ele>
        <time>2021-01-02T12:45:34.000Z</time>
      </trkpt>
      <trkpt lat="46.37842" lon="4.99411">
        <ele>205</ele>
        <time>2021-01-02T12:45:35.000Z</time>
      </trkpt>
      <trkpt lat="46.37838" lon="4.9941">
        <ele>205</ele>
        <time>2021-01-02T12:45:36.000Z</time>
      </trkpt>
      <trkpt lat="46.37835" lon="4.9941">
        <ele>205</ele>
        <time>2021-01-02T12:45:37.000Z</time>
      </trkpt>
      <trkpt lat="46.37831" lon="4.99409">
        <ele>205</ele>
        <time>2021-01-02T12:45:38.000Z</time>
      </trkpt>
      <trkpt lat="46.37828" lon="4.99408">
        <ele>205</ele>
        <time>2021-01-02T12:45:39.000Z</time>
      </trkpt>
      <trkpt lat="46.37825" lon="4.99407">
        <ele>205</ele>
        <time>2021-01-02T12:45:40.000Z</time>
      </trkpt>
      <trkpt lat="46.37822" lon="4.99406">
        <ele>205</ele>
        <time>2021-01-02T12:45:41.000Z</time>
      </trkpt>
      <trkpt lat="46.37819" lon="4.99405">
        <ele>205</ele>
        <time>2021-01-02T12:45:42.000Z</time>
      </trkpt>
      <trkpt lat="46.37816" lon="4.99403">
        <ele>205</ele>
        <time>2021-01-02T12:45:43.000Z</time>
      </trkpt>
      <trkpt lat="46.37813" lon="4.99402">
        <ele>205</ele>
        <time>2021-01-02T12:45:44.000Z</time>
      </trkpt>
      <trkpt lat="46.3781" lon="4.99401">
        <ele>205</ele>
        <time>2021-01-02T12:45:45.000Z</time>
      </trkpt>
      <trkpt lat="46.37807" lon="4.994">
        <ele>205</ele>
        <time>2021-01-02T12:45:46.000Z</time>
      </trkpt>
      <trkpt lat="46.37804" lon="4.99399">
        <ele>205</ele>
        <time>2021-01-02T12:45:47.000Z</time>
      </trkpt>
      <trkpt lat="46.378" lon="4.99398">
        <ele>205</ele>
        <time>2021-01-02T12:45:48.000Z</time>
      </trkpt>
      <trkpt lat="46.37797" lon="4.99398">
        <ele>205</ele>
        <time>2021-01-02T12:45:49.000Z</time>
      </trkpt>
      <trkpt lat="46.37794" lon="4.99399">
        <ele>205</ele>
        <time>2021-01-02T12:45:50.000Z</time>
      </trkpt>
      <trkpt lat="46.37791" lon="4.99402">
        <ele>205</ele>
        <time>2021-01-02T12:45:51.000Z</time>
      </trkpt>
      <trkpt lat="46.37788" lon="4.99405">
        <ele>205</ele>
        <time>2021-01-02T12:45:52.000Z</time>
      </trkpt>
      <trkpt lat="46.37787" lon="4.99408">
        <ele>205</ele>
        <time>2021-01-02T12:45:53.000Z</time>
      </trkpt>
      <trkpt lat="46.37786" lon="4.99413">
        <ele>205</ele>
        <time>2021-01-02T12:45:54.000Z</time>
      </trkpt>
      <trkpt lat="46.37785" lon="4.99417">
        <ele>205</ele>
        <time>2021-01-02T12:45:55.000Z</time>
      </trkpt>
      <trkpt lat="46.37784" lon="4.99422">
        <ele>205</ele>
        <time>2021-01-02T12:45:56.000Z</time>
      </trkpt>
      <trkpt lat="46.37783" lon="4.99427">
        <ele>205</ele>
        <time>2021-01-02T12:45:57.000Z</time>
      </trkpt>
      <trkpt lat="46.37782" lon="4.99432">
        <ele>205</ele>
        <time>2021-01-02T12:45:58.000Z</time>
      </trkpt>
      <trkpt lat="46.37781" lon="4.99436">
        <ele>205</ele>
        <time>2021-01-02T12:45:59.000Z</time>
      </trkpt>
      <trkpt lat="46.3778" lon="4.99441">
        <ele>205</ele>
        <time>2021-01-02T12:46:00.000Z</time>
      </trkpt>
      <trkpt lat="46.37779" lon="4.99446">
        <ele>205</ele>
        <time>2021-01-02T12:46:01.000Z</time>
      </trkpt>
      <trkpt lat="46.37779" lon="4.99451">
        <ele>205</ele>
        <time>2021-01-02T12:46:02.000Z</time>
      </trkpt>
      <trkpt lat="46.37778" lon="4.99456">
        <ele>205</ele>
        <time>2021-01-02T12:46:03.000Z</time>
      </trkpt>
      <trkpt lat="46.37777" lon="4.99461">
        <ele>205</ele>
        <time>2021-01-02T12:46:04.000Z</time>
      </trkpt>
      <trkpt lat="46.37777" lon="4.99466">
        <ele>205</ele>
        <time>2021-01-02T12:46:05.000Z</time>
      </trkpt>
      <trkpt lat="46.37776" lon="4.99471">
        <ele>205</ele>
        <time>2021-01-02T12:46:06.000Z</time>
      </trkpt>
      <trkpt lat="46.37775" lon="4.99476">
        <ele>205</ele>
        <time>2021-01-02T12:46:07.000Z</time>
      </trkpt>
      <trkpt lat="46.37775" lon="4.99481">
        <ele>205</ele>
        <time>2021-01-02T12:46:08.000Z</time>
      </trkpt>
      <trkpt lat="46.37774" lon="4.99485">
        <ele>205</ele>
        <time>2021-01-02T12:46:09.000Z</time>
      </trkpt>
      <trkpt lat="46.37774" lon="4.9949">
        <ele>205</ele>
        <time>2021-01-02T12:46:10.000Z</time>
      </trkpt>
      <trkpt lat="46.37773" lon="4.99494">
        <ele>205</ele>
        <time>2021-01-02T12:46:11.000Z</time>
      </trkpt>
      <trkpt lat="46.37773" lon="4.99498">
        <ele>205</ele>
        <time>2021-01-02T12:46:12.000Z</time>
      </trkpt>
      <trkpt lat="46.37773" lon="4.99503">
        <ele>205</ele>
        <time>2021-01-02T12:46:13.000Z</time>
      </trkpt>
      <trkpt lat="46.37772" lon="4.99507">
        <ele>205</ele>
        <time>2021-01-02T12:46:14.000Z</time>
      </trkpt>
      <trkpt lat="46.37772" lon="4.99511">
        <ele>205</ele>
        <time>2021-01-02T12:46:15.000Z</time>
      </trkpt>
      <trkpt lat="46.37772" lon="4.99516">
        <ele>205</ele>
        <time>2021-01-02T12:46:16.000Z</time>
      </trkpt>
      <trkpt lat="46.37772" lon="4.99521">
        <ele>205</ele>
        <time>2021-01-02T12:46:17.000Z</time>
      </trkpt>
      <trkpt lat="46.37772" lon="4.99525">
        <ele>205</ele>
        <time>2021-01-02T12:46:18.000Z</time>
      </trkpt>
      <trkpt lat="46.37772" lon="4.9953">
        <ele>205</ele>
        <time>2021-01-02T12:46:19.000Z</time>
      </trkpt>
      <trkpt lat="46.37772" lon="4.99534">
        <ele>205</ele>
        <time>2021-01-02T12:46:20.000Z</time>
      </trkpt>
      <trkpt lat="46.37772" lon="4.99539">
        <ele>205</ele>
        <time>2021-01-02T12:46:21.000Z</time>
      </trkpt>
      <trkpt lat="46.37772" lon="4.99543">
        <ele>205</ele>
        <time>2021-01-02T12:46:22.000Z</time>
      </trkpt>
      <trkpt lat="46.37771" lon="4.99548">
        <ele>205</ele>
        <time>2021-01-02T12:46:23.000Z</time>
      </trkpt>
      <trkpt lat="46.37771" lon="4.99553">
        <ele>205</ele>
        <time>2021-01-02T12:46:24.000Z</time>
      </trkpt>
      <trkpt lat="46.37771" lon="4.99557">
        <ele>205</ele>
        <time>2021-01-02T12:46:25.000Z</time>
      </trkpt>
      <trkpt lat="46.37771" lon="4.99562">
        <ele>205</ele>
        <time>2021-01-02T12:46:26.000Z</time>
      </trkpt>
      <trkpt lat="46.37771" lon="4.99567">
        <ele>205</ele>
        <time>2021-01-02T12:46:27.000Z</time>
      </trkpt>
      <trkpt lat="46.37771" lon="4.99571">
        <ele>205</ele>
        <time>2021-01-02T12:46:28.000Z</time>
      </trkpt>
      <trkpt lat="46.37771" lon="4.99576">
        <ele>205</ele>
        <time>2021-01-02T12:46:29.000Z</time>
      </trkpt>
      <trkpt lat="46.37771" lon="4.99581">
        <ele>204</ele>
        <time>2021-01-02T12:46:30.000Z</time>
      </trkpt>
      <trkpt lat="46.37771" lon="4.99586">
        <ele>204</ele>
        <time>2021-01-02T12:46:31.000Z</time>
      </trkpt>
      <trkpt lat="46.37771" lon="4.99591">
        <ele>204</ele>
        <time>2021-01-02T12:46:32.000Z</time>
      </trkpt>
      <trkpt lat="46.37771" lon="4.99596">
        <ele>204</ele>
        <time>2021-01-02T12:46:33.000Z</time>
      </trkpt>
      <trkpt lat="46.37771" lon="4.99601">
        <ele>204</ele>
        <time>2021-01-02T12:46:34.000Z</time>
      </trkpt>
      <trkpt lat="46.37771" lon="4.99606">
        <ele>204</ele>
        <time>2021-01-02T12:46:35.000Z</time>
      </trkpt>
      <trkpt lat="46.37771" lon="4.99611">
        <ele>204</ele>
        <time>2021-01-02T12:46:36.000Z</time>
      </trkpt>
      <trkpt lat="46.37771" lon="4.99616">
        <ele>204</ele>
        <time>2021-01-02T12:46:37.000Z</time>
      </trkpt>
      <trkpt lat="46.37771" lon="4.99621">
        <ele>204</ele>
        <time>2021-01-02T12:46:38.000Z</time>
      </trkpt>
      <trkpt lat="46.37771" lon="4.99626">
        <ele>204</ele>
        <time>2021-01-02T12:46:39.000Z</time>
      </trkpt>
      <trkpt lat="46.37771" lon="4.99632">
        <ele>204</ele>
        <time>2021-01-02T12:46:40.000Z</time>
      </trkpt>
      <trkpt lat="46.37772" lon="4.99638">
        <ele>204</ele>
        <time>2021-01-02T12:46:41.000Z</time>
      </trkpt>
      <trkpt lat="46.37772" lon="4.99644">
        <ele>204</ele>
        <time>2021-01-02T12:46:42.000Z</time>
      </trkpt>
      <trkpt lat="46.37772" lon="4.9965">
        <ele>204</ele>
        <time>2021-01-02T12:46:43.000Z</time>
      </trkpt>
      <trkpt lat="46.37773" lon="4.99656">
        <ele>203</ele>
        <time>2021-01-02T12:46:44.000Z</time>
      </trkpt>
      <trkpt lat="46.37773" lon="4.99662">
        <ele>203</ele>
        <time>2021-01-02T12:46:45.000Z</time>
      </trkpt>
      <trkpt lat="46.37773" lon="4.99669">
        <ele>203</ele>
        <time>2021-01-02T12:46:46.000Z</time>
      </trkpt>
      <trkpt lat="46.37774" lon="4.99675">
        <ele>203</ele>
        <time>2021-01-02T12:46:47.000Z</time>
      </trkpt>
      <trkpt lat="46.37775" lon="4.99682">
        <ele>203</ele>
        <time>2021-01-02T12:46:48.000Z</time>
      </trkpt>
      <trkpt lat="46.37775" lon="4.99688">
        <ele>203</ele>
        <time>2021-01-02T12:46:49.000Z</time>
      </trkpt>
      <trkpt lat="46.37776" lon="4.99694">
        <ele>203</ele>
        <time>2021-01-02T12:46:50.000Z</time>
      </trkpt>
      <trkpt lat="46.37777" lon="4.99701">
        <ele>203</ele>
        <time>2021-01-02T12:46:51.000Z</time>
      </trkpt>
      <trkpt lat="46.37778" lon="4.99707">
        <ele>203</ele>
        <time>2021-01-02T12:46:52.000Z</time>
      </trkpt>
      <trkpt lat="46.37779" lon="4.99714">
        <ele>203</ele>
        <time>2021-01-02T12:46:53.000Z</time>
      </trkpt>
      <trkpt lat="46.3778" lon="4.9972">
        <ele>203</ele>
        <time>2021-01-02T12:46:54.000Z</time>
      </trkpt>
      <trkpt lat="46.3778" lon="4.99727">
        <ele>203</ele>
        <time>2021-01-02T12:46:55.000Z</time>
      </trkpt>
      <trkpt lat="46.37781" lon="4.99733">
        <ele>203</ele>
        <time>2021-01-02T12:46:56.000Z</time>
      </trkpt>
      <trkpt lat="46.37782" lon="4.99739">
        <ele>202</ele>
        <time>2021-01-02T12:46:57.000Z</time>
      </trkpt>
      <trkpt lat="46.37783" lon="4.99745">
        <ele>202</ele>
        <time>2021-01-02T12:46:58.000Z</time>
      </trkpt>
      <trkpt lat="46.37784" lon="4.99751">
        <ele>202</ele>
        <time>2021-01-02T12:46:59.000Z</time>
      </trkpt>
      <trkpt lat="46.37785" lon="4.99757">
        <ele>202</ele>
        <time>2021-01-02T12:47:00.000Z</time>
      </trkpt>
      <trkpt lat="46.37786" lon="4.99763">
        <ele>202</ele>
        <time>2021-01-02T12:47:01.000Z</time>
      </trkpt>
      <trkpt lat="46.37786" lon="4.99768">
        <ele>202</ele>
        <time>2021-01-02T12:47:02.000Z</time>
      </trkpt>
      <trkpt lat="46.37787" lon="4.99774">
        <ele>202</ele>
        <time>2021-01-02T12:47:03.000Z</time>
      </trkpt>
      <trkpt lat="46.37788" lon="4.9978">
        <ele>202</ele>
        <time>2021-01-02T12:47:04.000Z</time>
      </trkpt>
      <trkpt lat="46.37789" lon="4.99786">
        <ele>201</ele>
        <time>2021-01-02T12:47:05.000Z</time>
      </trkpt>
      <trkpt lat="46.3779" lon="4.99792">
        <ele>201</ele>
        <time>2021-01-02T12:47:06.000Z</time>
      </trkpt>
      <trkpt lat="46.37791" lon="4.99798">
        <ele>201</ele>
        <time>2021-01-02T12:47:07.000Z</time>
      </trkpt>
      <trkpt lat="46.37792" lon="4.99803">
        <ele>201</ele>
        <time>2021-01-02T12:47:08.000Z</time>
      </trkpt>
      <trkpt lat="46.37794" lon="4.99808">
        <ele>201</ele>
        <time>2021-01-02T12:47:09.000Z</time>
      </trkpt>
      <trkpt lat="46.37796" lon="4.99811">
        <ele>201</ele>
        <time>2021-01-02T12:47:10.000Z</time>
      </trkpt>
      <trkpt lat="46.37798" lon="4.99813">
        <ele>201</ele>
        <time>2021-01-02T12:47:11.000Z</time>
      </trkpt>
      <trkpt lat="46.37802" lon="4.99811">
        <ele>200</ele>
        <time>2021-01-02T12:47:12.000Z</time>
      </trkpt>
      <trkpt lat="46.37805" lon="4.99809">
        <ele>200</ele>
        <time>2021-01-02T12:47:13.000Z</time>
      </trkpt>
      <trkpt lat="46.37809" lon="4.99807">
        <ele>200</ele>
        <time>2021-01-02T12:47:14.000Z</time>
      </trkpt>
      <trkpt lat="46.37812" lon="4.99803">
        <ele>200</ele>
        <time>2021-01-02T12:47:15.000Z</time>
      </trkpt>
      <trkpt lat="46.37815" lon="4.998">
        <ele>200</ele>
        <time>2021-01-02T12:47:16.000Z</time>
      </trkpt>
      <trkpt lat="46.37819" lon="4.99798">
        <ele>200</ele>
        <time>2021-01-02T12:47:17.000Z</time>
      </trkpt>
      <trkpt lat="46.37822" lon="4.99797">
        <ele>199</ele>
        <time>2021-01-02T12:47:18.000Z</time>
      </trkpt>
      <trkpt lat="46.37826" lon="4.99798">
        <ele>199</ele>
        <time>2021-01-02T12:47:19.000Z</time>
      </trkpt>
      <trkpt lat="46.37829" lon="4.998">
        <ele>199</ele>
        <time>2021-01-02T12:47:20.000Z</time>
      </trkpt>
      <trkpt lat="46.37833" lon="4.99802">
        <ele>199</ele>
        <time>2021-01-02T12:47:21.000Z</time>
      </trkpt>
      <trkpt lat="46.37836" lon="4.99804">
        <ele>198</ele>
        <time>2021-01-02T12:47:22.000Z</time>
      </trkpt>
      <trkpt lat="46.3784" lon="4.99807">
        <ele>198</ele>
        <time>2021-01-02T12:47:23.000Z</time>
      </trkpt>
      <trkpt lat="46.37843" lon="4.9981">
        <ele>198</ele>
        <time>2021-01-02T12:47:24.000Z</time>
      </trkpt>
      <trkpt lat="46.37845" lon="4.99814">
        <ele>198</ele>
        <time>2021-01-02T12:47:25.000Z</time>
      </trkpt>
      <trkpt lat="46.37848" lon="4.99819">
        <ele>197</ele>
        <time>2021-01-02T12:47:26.000Z</time>
      </trkpt>
      <trkpt lat="46.37849" lon="4.99825">
        <ele>197</ele>
        <time>2021-01-02T12:47:27.000Z</time>
      </trkpt>
      <trkpt lat="46.3785" lon="4.9983">
        <ele>197</ele>
        <time>2021-01-02T12:47:28.000Z</time>
      </trkpt>
      <trkpt lat="46.3785" lon="4.99837">
        <ele>196</ele>
        <time>2021-01-02T12:47:29.000Z</time>
      </trkpt>
      <trkpt lat="46.3785" lon="4.99844">
        <ele>196</ele>
        <time>2021-01-02T12:47:30.000Z</time>
      </trkpt>
      <trkpt lat="46.3785" lon="4.99851">
        <ele>195</ele>
        <time>2021-01-02T12:47:31.000Z</time>
      </trkpt>
      <trkpt lat="46.3785" lon="4.99859">
        <ele>195</ele>
        <time>2021-01-02T12:47:32.000Z</time>
      </trkpt>
      <trkpt lat="46.3785" lon="4.99867">
        <ele>195</ele>
        <time>2021-01-02T12:47:33.000Z</time>
      </trkpt>
      <trkpt lat="46.3785" lon="4.99875">
        <ele>195</ele>
        <time>2021-01-02T12:47:34.000Z</time>
      </trkpt>
      <trkpt lat="46.37849" lon="4.99884">
        <ele>194</ele>
        <time>2021-01-02T12:47:35.000Z</time>
      </trkpt>
      <trkpt lat="46.37849" lon="4.99893">
        <ele>194</ele>
        <time>2021-01-02T12:47:36.000Z</time>
      </trkpt>
      <trkpt lat="46.37849" lon="4.99902">
        <ele>194</ele>
        <time>2021-01-02T12:47:37.000Z</time>
      </trkpt>
      <trkpt lat="46.37849" lon="4.99911">
        <ele>194</ele>
        <time>2021-01-02T12:47:38.000Z</time>
      </trkpt>
      <trkpt lat="46.37849" lon="4.9992">
        <ele>194</ele>
        <time>2021-01-02T12:47:39.000Z</time>
      </trkpt>
      <trkpt lat="46.3785" lon="4.99929">
        <ele>193</ele>
        <time>2021-01-02T12:47:40.000Z</time>
      </trkpt>
      <trkpt lat="46.37851" lon="4.99937">
        <ele>193</ele>
        <time>2021-01-02T12:47:41.000Z</time>
      </trkpt>
      <trkpt lat="46.37853" lon="4.99945">
        <ele>193</ele>
        <time>2021-01-02T12:47:42.000Z</time>
      </trkpt>
      <trkpt lat="46.37855" lon="4.99952">
        <ele>193</ele>
        <time>2021-01-02T12:47:43.000Z</time>
      </trkpt>
      <trkpt lat="46.37856" lon="4.99959">
        <ele>193</ele>
        <time>2021-01-02T12:47:44.000Z</time>
      </trkpt>
      <trkpt lat="46.37858" lon="4.99966">
        <ele>193</ele>
        <time>2021-01-02T12:47:45.000Z</time>
      </trkpt>
      <trkpt lat="46.37859" lon="4.99973">
        <ele>193</ele>
        <time>2021-01-02T12:47:46.000Z</time>
      </trkpt>
      <trkpt lat="46.37861" lon="4.99979">
        <ele>192</ele>
        <time>2021-01-02T12:47:47.000Z</time>
      </trkpt>
      <trkpt lat="46.37862" lon="4.99985">
        <ele>192</ele>
        <time>2021-01-02T12:47:48.000Z</time>
      </trkpt>
      <trkpt lat="46.37863" lon="4.99989">
        <ele>192</ele>
        <time>2021-01-02T12:47:49.000Z</time>
      </trkpt>
      <trkpt lat="46.37863" lon="4.99993">
        <ele>192</ele>
        <time>2021-01-02T12:47:50.000Z</time>
      </trkpt>
      <trkpt lat="46.37863" lon="4.99997">
        <ele>192</ele>
        <time>2021-01-02T12:47:51.000Z</time>
      </trkpt>
      <trkpt lat="46.37864" lon="5.00001">
        <ele>192</ele>
        <time>2021-01-02T12:47:52.000Z</time>
      </trkpt>
      <trkpt lat="46.37864" lon="5.00005">
        <ele>192</ele>
        <time>2021-01-02T12:47:53.000Z</time>
      </trkpt>
      <trkpt lat="46.37864" lon="5.00009">
        <ele>192</ele>
        <time>2021-01-02T12:47:54.000Z</time>
      </trkpt>
      <trkpt lat="46.37864" lon="5.00013">
        <ele>192</ele>
        <time>2021-01-02T12:47:55.000Z</time>
      </trkpt>
      <trkpt lat="46.37864" lon="5.00018">
        <ele>192</ele>
        <time>2021-01-02T12:47:56.000Z</time>
      </trkpt>
      <trkpt lat="46.37864" lon="5.00023">
        <ele>192</ele>
        <time>2021-01-02T12:47:57.000Z</time>
      </trkpt>
      <trkpt lat="46.37864" lon="5.00027">
        <ele>192</ele>
        <time>2021-01-02T12:47:58.000Z</time>
      </trkpt>
      <trkpt lat="46.37864" lon="5.00032">
        <ele>191</ele>
        <time>2021-01-02T12:47:59.000Z</time>
      </trkpt>
      <trkpt lat="46.37863" lon="5.00036">
        <ele>191</ele>
        <time>2021-01-02T12:48:00.000Z</time>
      </trkpt>
      <trkpt lat="46.37863" lon="5.00041">
        <ele>191</ele>
        <time>2021-01-02T12:48:01.000Z</time>
      </trkpt>
      <trkpt lat="46.37862" lon="5.00045">
        <ele>191</ele>
        <time>2021-01-02T12:48:02.000Z</time>
      </trkpt>
      <trkpt lat="46.37862" lon="5.0005">
        <ele>191</ele>
        <time>2021-01-02T12:48:03.000Z</time>
      </trkpt>
      <trkpt lat="46.37861" lon="5.00054">
        <ele>191</ele>
        <time>2021-01-02T12:48:04.000Z</time>
      </trkpt>
      <trkpt lat="46.3786" lon="5.00059">
        <ele>191</ele>
        <time>2021-01-02T12:48:05.000Z</time>
      </trkpt>
      <trkpt lat="46.37859" lon="5.00063">
        <ele>191</ele>
        <time>2021-01-02T12:48:06.000Z</time>
      </trkpt>
      <trkpt lat="46.37858" lon="5.00067">
        <ele>191</ele>
        <time>2021-01-02T12:48:07.000Z</time>
      </trkpt>
      <trkpt lat="46.37857" lon="5.00072">
        <ele>191</ele>
        <time>2021-01-02T12:48:08.000Z</time>
      </trkpt>
      <trkpt lat="46.37857" lon="5.00077">
        <ele>191</ele>
        <time>2021-01-02T12:48:09.000Z</time>
      </trkpt>
      <trkpt lat="46.37856" lon="5.00081">
        <ele>191</ele>
        <time>2021-01-02T12:48:10.000Z</time>
      </trkpt>
      <trkpt lat="46.37856" lon="5.00086">
        <ele>191</ele>
        <time>2021-01-02T12:48:11.000Z</time>
      </trkpt>
      <trkpt lat="46.37855" lon="5.0009">
        <ele>191</ele>
        <time>2021-01-02T12:48:12.000Z</time>
      </trkpt>
      <trkpt lat="46.37855" lon="5.00094">
        <ele>191</ele>
        <time>2021-01-02T12:48:13.000Z</time>
      </trkpt>
      <trkpt lat="46.37855" lon="5.00099">
        <ele>190</ele>
        <time>2021-01-02T12:48:14.000Z</time>
      </trkpt>
      <trkpt lat="46.37854" lon="5.00104">
        <ele>190</ele>
        <time>2021-01-02T12:48:15.000Z</time>
      </trkpt>
      <trkpt lat="46.37854" lon="5.00108">
        <ele>190</ele>
        <time>2021-01-02T12:48:16.000Z</time>
      </trkpt>
      <trkpt lat="46.37854" lon="5.00112">
        <ele>190</ele>
        <time>2021-01-02T12:48:17.000Z</time>
      </trkpt>
      <trkpt lat="46.37854" lon="5.00115">
        <ele>190</ele>
        <time>2021-01-02T12:48:18.000Z</time>
      </trkpt>
      <trkpt lat="46.37854" lon="5.00119">
        <ele>190</ele>
        <time>2021-01-02T12:48:19.000Z</time>
      </trkpt>
      <trkpt lat="46.37854" lon="5.00122">
        <ele>190</ele>
        <time>2021-01-02T12:48:20.000Z</time>
      </trkpt>
      <trkpt lat="46.37854" lon="5.00126">
        <ele>190</ele>
        <time>2021-01-02T12:48:21.000Z</time>
      </trkpt>
      <trkpt lat="46.37853" lon="5.0013">
        <ele>190</ele>
        <time>2021-01-02T12:48:22.000Z</time>
      </trkpt>
      <trkpt lat="46.37853" lon="5.00134">
        <ele>190</ele>
        <time>2021-01-02T12:48:23.000Z</time>
      </trkpt>
      <trkpt lat="46.37853" lon="5.00138">
        <ele>190</ele>
        <time>2021-01-02T12:48:24.000Z</time>
      </trkpt>
      <trkpt lat="46.37852" lon="5.00142">
        <ele>190</ele>
        <time>2021-01-02T12:48:25.000Z</time>
      </trkpt>
      <trkpt lat="46.37851" lon="5.00146">
        <ele>190</ele>
        <time>2021-01-02T12:48:26.000Z</time>
      </trkpt>
      <trkpt lat="46.3785" lon="5.0015">
        <ele>190</ele>
        <time>2021-01-02T12:48:27.000Z</time>
      </trkpt>
      <trkpt lat="46.3785" lon="5.00154">
        <ele>190</ele>
        <time>2021-01-02T12:48:28.000Z</time>
      </trkpt>
      <trkpt lat="46.37849" lon="5.00158">
        <ele>190</ele>
        <time>2021-01-02T12:48:29.000Z</time>
      </trkpt>
      <trkpt lat="46.37848" lon="5.00162">
        <ele>190</ele>
        <time>2021-01-02T12:48:30.000Z</time>
      </trkpt>
      <trkpt lat="46.37848" lon="5.00166">
        <ele>190</ele>
        <time>2021-01-02T12:48:31.000Z</time>
      </trkpt>
      <trkpt lat="46.37847" lon="5.0017">
        <ele>190</ele>
        <time>2021-01-02T12:48:32.000Z</time>
      </trkpt>
      <trkpt lat="46.37846" lon="5.00174">
        <ele>190</ele>
        <time>2021-01-02T12:48:33.000Z</time>
      </trkpt>
      <trkpt lat="46.37845" lon="5.00178">
        <ele>190</ele>
        <time>2021-01-02T12:48:34.000Z</time>
      </trkpt>
      <trkpt lat="46.37844" lon="5.00182">
        <ele>190</ele>
        <time>2021-01-02T12:48:35.000Z</time>
      </trkpt>
      <trkpt lat="46.37844" lon="5.00186">
        <ele>190</ele>
        <time>2021-01-02T12:48:36.000Z</time>
      </trkpt>
      <trkpt lat="46.37843" lon="5.00189">
        <ele>190</ele>
        <time>2021-01-02T12:48:37.000Z</time>
      </trkpt>
      <trkpt lat="46.37842" lon="5.00193">
        <ele>190</ele>
        <time>2021-01-02T12:48:38.000Z</time>
      </trkpt>
      <trkpt lat="46.37841" lon="5.00197">
        <ele>190</ele>
        <time>2021-01-02T12:48:39.000Z</time>
      </trkpt>
      <trkpt lat="46.3784" lon="5.00201">
        <ele>191</ele>
        <time>2021-01-02T12:48:40.000Z</time>
      </trkpt>
      <trkpt lat="46.3784" lon="5.00205">
        <ele>191</ele>
        <time>2021-01-02T12:48:41.000Z</time>
      </trkpt>
      <trkpt lat="46.37839" lon="5.00208">
        <ele>191</ele>
        <time>2021-01-02T12:48:42.000Z</time>
      </trkpt>
      <trkpt lat="46.37838" lon="5.00212">
        <ele>191</ele>
        <time>2021-01-02T12:48:43.000Z</time>
      </trkpt>
      <trkpt lat="46.37837" lon="5.00215">
        <ele>191</ele>
        <time>2021-01-02T12:48:44.000Z</time>
      </trkpt>
      <trkpt lat="46.37837" lon="5.00219">
        <ele>191</ele>
        <time>2021-01-02T12:48:45.000Z</time>
      </trkpt>
      <trkpt lat="46.37836" lon="5.00222">
        <ele>191</ele>
        <time>2021-01-02T12:48:46.000Z</time>
      </trkpt>
      <trkpt lat="46.37835" lon="5.00225">
        <ele>191</ele>
        <time>2021-01-02T12:48:47.000Z</time>
      </trkpt>
      <trkpt lat="46.37835" lon="5.00228">
        <ele>191</ele>
        <time>2021-01-02T12:48:48.000Z</time>
      </trkpt>
      <trkpt lat="46.37834" lon="5.00231">
        <ele>191</ele>
        <time>2021-01-02T12:48:49.000Z</time>
      </trkpt>
      <trkpt lat="46.37833" lon="5.00235">
        <ele>191</ele>
        <time>2021-01-02T12:48:50.000Z</time>
      </trkpt>
      <trkpt lat="46.37833" lon="5.00238">
        <ele>191</ele>
        <time>2021-01-02T12:48:51.000Z</time>
      </trkpt>
      <trkpt lat="46.37832" lon="5.00241">
        <ele>191</ele>
        <time>2021-01-02T12:48:52.000Z</time>
      </trkpt>
      <trkpt lat="46.37831" lon="5.00244">
        <ele>191</ele>
        <time>2021-01-02T12:48:53.000Z</time>
      </trkpt>
      <trkpt lat="46.3783" lon="5.00247">
        <ele>191</ele>
        <time>2021-01-02T12:48:54.000Z</time>
      </trkpt>
      <trkpt lat="46.37829" lon="5.0025">
        <ele>191</ele>
        <time>2021-01-02T12:48:55.000Z</time>
      </trkpt>
      <trkpt lat="46.37828" lon="5.00253">
        <ele>191</ele>
        <time>2021-01-02T12:48:56.000Z</time>
      </trkpt>
      <trkpt lat="46.37828" lon="5.00256">
        <ele>191</ele>
        <time>2021-01-02T12:48:57.000Z</time>
      </trkpt>
      <trkpt lat="46.37827" lon="5.00258">
        <ele>191</ele>
        <time>2021-01-02T12:48:58.000Z</time>
      </trkpt>
      <trkpt lat="46.37826" lon="5.00261">
        <ele>191</ele>
        <time>2021-01-02T12:48:59.000Z</time>
      </trkpt>
      <trkpt lat="46.37825" lon="5.00264">
        <ele>191</ele>
        <time>2021-01-02T12:49:00.000Z</time>
      </trkpt>
      <trkpt lat="46.37825" lon="5.00266">
        <ele>191</ele>
        <time>2021-01-02T12:49:01.000Z</time>
      </trkpt>
      <trkpt lat="46.37824" lon="5.00269">
        <ele>191</ele>
        <time>2021-01-02T12:49:02.000Z</time>
      </trkpt>
      <trkpt lat="46.37823" lon="5.00271">
        <ele>192</ele>
        <time>2021-01-02T12:49:03.000Z</time>
      </trkpt>
      <trkpt lat="46.37823" lon="5.00273">
        <ele>192</ele>
        <time>2021-01-02T12:49:04.000Z</time>
      </trkpt>
      <trkpt lat="46.37823" lon="5.00275">
        <ele>192</ele>
        <time>2021-01-02T12:49:05.000Z</time>
      </trkpt>
      <trkpt lat="46.37823" lon="5.00277">
        <ele>192</ele>
        <time>2021-01-02T12:49:06.000Z</time>
      </trkpt>
      <trkpt lat="46.37822" lon="5.00279">
        <ele>192</ele>
        <time>2021-01-02T12:49:07.000Z</time>
      </trkpt>
      <trkpt lat="46.37822" lon="5.00281">
        <ele>192</ele>
        <time>2021-01-02T12:49:08.000Z</time>
      </trkpt>
      <trkpt lat="46.37822" lon="5.00283">
        <ele>192</ele>
        <time>2021-01-02T12:49:09.000Z</time>
      </trkpt>
      <trkpt lat="46.37822" lon="5.00285">
        <ele>192</ele>
        <time>2021-01-02T12:49:10.000Z</time>
      </trkpt>
      <trkpt lat="46.37821" lon="5.00287">
        <ele>192</ele>
        <time>2021-01-02T12:49:11.000Z</time>
      </trkpt>
      <trkpt lat="46.37821" lon="5.00289">
        <ele>192</ele>
        <time>2021-01-02T12:49:12.000Z</time>
      </trkpt>
      <trkpt lat="46.3782" lon="5.00292">
        <ele>192</ele>
        <time>2021-01-02T12:49:13.000Z</time>
      </trkpt>
      <trkpt lat="46.3782" lon="5.00294">
        <ele>192</ele>
        <time>2021-01-02T12:49:14.000Z</time>
      </trkpt>
      <trkpt lat="46.37819" lon="5.00296">
        <ele>192</ele>
        <time>2021-01-02T12:49:15.000Z</time>
      </trkpt>
      <trkpt lat="46.37819" lon="5.00299">
        <ele>192</ele>
        <time>2021-01-02T12:49:16.000Z</time>
      </trkpt>
      <trkpt lat="46.37818" lon="5.00301">
        <ele>192</ele>
        <time>2021-01-02T12:49:17.000Z</time>
      </trkpt>
      <trkpt lat="46.37818" lon="5.00302">
        <ele>192</ele>
        <time>2021-01-02T12:49:18.000Z</time>
      </trkpt>
      <trkpt lat="46.37817" lon="5.00304">
        <ele>192</ele>
        <time>2021-01-02T12:49:19.000Z</time>
      </trkpt>
      <trkpt lat="46.37817" lon="5.00306">
        <ele>192</ele>
        <time>2021-01-02T12:49:20.000Z</time>
      </trkpt>
      <trkpt lat="46.37816" lon="5.00308">
        <ele>192</ele>
        <time>2021-01-02T12:49:21.000Z</time>
      </trkpt>
      <trkpt lat="46.37816" lon="5.0031">
        <ele>193</ele>
        <time>2021-01-02T12:49:22.000Z</time>
      </trkpt>
      <trkpt lat="46.37816" lon="5.00312">
        <ele>193</ele>
        <time>2021-01-02T12:49:23.000Z</time>
      </trkpt>
      <trkpt lat="46.37816" lon="5.00314">
        <ele>193</ele>
        <time>2021-01-02T12:49:24.000Z</time>
      </trkpt>
      <trkpt lat="46.37815" lon="5.00315">
        <ele>193</ele>
        <time>2021-01-02T12:49:25.000Z</time>
      </trkpt>
      <trkpt lat="46.37814" lon="5.00317">
        <ele>193</ele>
        <time>2021-01-02T12:49:26.000Z</time>
      </trkpt>
      <trkpt lat="46.37813" lon="5.00318">
        <ele>193</ele>
        <time>2021-01-02T12:49:27.000Z</time>
      </trkpt>
      <trkpt lat="46.37813" lon="5.00319">
        <ele>193</ele>
        <time>2021-01-02T12:49:28.000Z</time>
      </trkpt>
      <trkpt lat="46.37813" lon="5.00319">
        <ele>193</ele>
        <time>2021-01-02T12:49:29.000Z</time>
      </trkpt>
      <trkpt lat="46.37813" lon="5.00319">
        <ele>193</ele>
        <time>2021-01-02T12:49:30.000Z</time>
      </trkpt>
      <trkpt lat="46.37813" lon="5.0032">
        <ele>193</ele>
        <time>2021-01-02T12:49:31.000Z</time>
      </trkpt>
      <trkpt lat="46.37813" lon="5.0032">
        <ele>193</ele>
        <time>2021-01-02T12:49:32.000Z</time>
      </trkpt>
      <trkpt lat="46.37813" lon="5.0032">
        <ele>193</ele>
        <time>2021-01-02T12:49:33.000Z</time>
      </trkpt>
      <trkpt lat="46.37813" lon="5.0032">
        <ele>193</ele>
        <time>2021-01-02T12:49:34.000Z</time>
      </trkpt>
      <trkpt lat="46.37813" lon="5.0032">
        <ele>193</ele>
        <time>2021-01-02T12:49:35.000Z</time>
      </trkpt>
      <trkpt lat="46.37813" lon="5.0032">
        <ele>193</ele>
        <time>2021-01-02T12:49:36.000Z</time>
      </trkpt>
      <trkpt lat="46.37813" lon="5.0032">
        <ele>193</ele>
        <time>2021-01-02T12:49:37.000Z</time>
      </trkpt>
      <trkpt lat="46.37813" lon="5.0032">
        <ele>193</ele>
        <time>2021-01-02T12:49:38.000Z</time>
      </trkpt>
      <trkpt lat="46.37812" lon="5.0032">
        <ele>193</ele>
        <time>2021-01-02T12:49:39.000Z</time>
      </trkpt>
      <trkpt lat="46.37812" lon="5.0032">
        <ele>193</ele>
        <time>2021-01-02T12:49:40.000Z</time>
      </trkpt>
      <trkpt lat="46.37812" lon="5.0032">
        <ele>193</ele>
        <time>2021-01-02T12:49:41.000Z</time>
      </trkpt>
      <trkpt lat="46.37812" lon="5.0032">
        <ele>193</ele>
        <time>2021-01-02T12:49:42.000Z</time>
      </trkpt>
      <trkpt lat="46.37812" lon="5.0032">
        <ele>193</ele>
        <time>2021-01-02T12:49:43.000Z</time>
      </trkpt>
      <trkpt lat="46.37812" lon="5.0032">
        <ele>193</ele>
        <time>2021-01-02T12:49:44.000Z</time>
      </trkpt>
      <trkpt lat="46.37812" lon="5.0032">
        <ele>193</ele>
        <time>2021-01-02T12:49:45.000Z</time>
      </trkpt>
      <trkpt lat="46.37812" lon="5.0032">
        <ele>193</ele>
        <time>2021-01-02T12:49:46.000Z</time>
      </trkpt>
      <trkpt lat="46.37812" lon="5.0032">
        <ele>193</ele>
        <time>2021-01-02T12:49:47.000Z</time>
      </trkpt>
      <trkpt lat="46.37812" lon="5.0032">
        <ele>193</ele>
        <time>2021-01-02T12:49:48.000Z</time>
      </trkpt>
      <trkpt lat="46.37812" lon="5.0032">
        <ele>193</ele>
        <time>2021-01-02T12:49:49.000Z</time>
      </trkpt>
      <trkpt lat="46.37812" lon="5.0032">
        <ele>193</ele>
        <time>2021-01-02T12:49:50.000Z</time>
      </trkpt>
      <trkpt lat="46.37812" lon="5.0032">
        <ele>193</ele>
        <time>2021-01-02T12:49:51.000Z</time>
      </trkpt>
      <trkpt lat="46.37812" lon="5.00321">
        <ele>193</ele>
        <time>2021-01-02T12:49:52.000Z</time>
      </trkpt>
      <trkpt lat="46.37812" lon="5.00321">
        <ele>193</ele>
        <time>2021-01-02T12:49:53.000Z</time>
      </trkpt>
      <trkpt lat="46.37812" lon="5.00321">
        <ele>193</ele>
        <time>2021-01-02T12:49:54.000Z</time>
      </trkpt>
      <trkpt lat="46.37812" lon="5.00321">
        <ele>193</ele>
        <time>2021-01-02T12:49:55.000Z</time>
      </trkpt>
      <trkpt lat="46.37812" lon="5.00321">
        <ele>193</ele>
        <time>2021-01-02T12:49:56.000Z</time>
      </trkpt>
      <trkpt lat="46.37812" lon="5.00321">
        <ele>193</ele>
        <time>2021-01-02T12:49:57.000Z</time>
      </trkpt>
      <trkpt lat="46.37812" lon="5.00321">
        <ele>193</ele>
        <time>2021-01-02T12:49:58.000Z</time>
      </trkpt>
      <trkpt lat="46.37812" lon="5.00321">
        <ele>193</ele>
        <time>2021-01-02T12:49:59.000Z</time>
      </trkpt>
      <trkpt lat="46.37812" lon="5.00321">
        <ele>193</ele>
        <time>2021-01-02T12:50:00.000Z</time>
      </trkpt>
      <trkpt lat="46.37812" lon="5.00321">
        <ele>193</ele>
        <time>2021-01-02T12:50:01.000Z</time>
      </trkpt>
      <trkpt lat="46.37812" lon="5.00321">
        <ele>193</ele>
        <time>2021-01-02T12:50:02.000Z</time>
      </trkpt>
      <trkpt lat="46.37812" lon="5.00321">
        <ele>193</ele>
        <time>2021-01-02T12:50:03.000Z</time>
      </trkpt>
      <trkpt lat="46.37812" lon="5.00321">
        <ele>193</ele>
        <time>2021-01-02T12:50:04.000Z</time>
      </trkpt>
      <trkpt lat="46.37812" lon="5.00321">
        <ele>193</ele>
        <time>2021-01-02T12:50:05.000Z</time>
      </trkpt>
      <trkpt lat="46.37812" lon="5.00321">
        <ele>193</ele>
        <time>2021-01-02T12:50:06.000Z</time>
      </trkpt>
      <trkpt lat="46.37812" lon="5.00321">
        <ele>193</ele>
        <time>2021-01-02T12:50:07.000Z</time>
      </trkpt>
      <trkpt lat="46.37812" lon="5.00321">
        <ele>193</ele>
        <time>2021-01-02T12:50:08.000Z</time>
      </trkpt>
      <trkpt lat="46.37812" lon="5.00321">
        <ele>193</ele>
        <time>2021-01-02T12:50:09.000Z</time>
      </trkpt>
      <trkpt lat="46.37813" lon="5.00321">
        <ele>193</ele>
        <time>2021-01-02T12:50:10.000Z</time>
      </trkpt>
      <trkpt lat="46.37814" lon="5.00321">
        <ele>193</ele>
        <time>2021-01-02T12:50:11.000Z</time>
      </trkpt>
      <trkpt lat="46.37814" lon="5.00322">
        <ele>193</ele>
        <time>2021-01-02T12:50:12.000Z</time>
      </trkpt>
      <trkpt lat="46.37815" lon="5.00322">
        <ele>193</ele>
        <time>2021-01-02T12:50:13.000Z</time>
      </trkpt>
      <trkpt lat="46.37815" lon="5.00322">
        <ele>193</ele>
        <time>2021-01-02T12:50:14.000Z</time>
      </trkpt>
      <trkpt lat="46.37816" lon="5.00323">
        <ele>193</ele>
        <time>2021-01-02T12:50:15.000Z</time>
      </trkpt>
      <trkpt lat="46.37817" lon="5.00324">
        <ele>193</ele>
        <time>2021-01-02T12:50:16.000Z</time>
      </trkpt>
      <trkpt lat="46.37818" lon="5.00324">
        <ele>193</ele>
        <time>2021-01-02T12:50:17.000Z</time>
      </trkpt>
      <trkpt lat="46.37818" lon="5.00325">
        <ele>193</ele>
        <time>2021-01-02T12:50:18.000Z</time>
      </trkpt>
      <trkpt lat="46.37819" lon="5.00325">
        <ele>193</ele>
        <time>2021-01-02T12:50:19.000Z</time>
      </trkpt>
      <trkpt lat="46.37819" lon="5.00325">
        <ele>193</ele>
        <time>2021-01-02T12:50:20.000Z</time>
      </trkpt>
      <trkpt lat="46.3782" lon="5.00326">
        <ele>193</ele>
        <time>2021-01-02T12:50:21.000Z</time>
      </trkpt>
      <trkpt lat="46.37821" lon="5.00326">
        <ele>193</ele>
        <time>2021-01-02T12:50:22.000Z</time>
      </trkpt>
      <trkpt lat="46.37822" lon="5.00327">
        <ele>193</ele>
        <time>2021-01-02T12:50:23.000Z</time>
      </trkpt>
      <trkpt lat="46.37823" lon="5.00327">
        <ele>193</ele>
        <time>2021-01-02T12:50:24.000Z</time>
      </trkpt>
      <trkpt lat="46.37825" lon="5.00328">
        <ele>193</ele>
        <time>2021-01-02T12:50:25.000Z</time>
      </trkpt>
      <trkpt lat="46.37826" lon="5.00329">
        <ele>193</ele>
        <time>2021-01-02T12:50:26.000Z</time>
      </trkpt>
      <trkpt lat="46.37827" lon="5.0033">
        <ele>193</ele>
        <time>2021-01-02T12:50:27.000Z</time>
      </trkpt>
      <trkpt lat="46.37828" lon="5.0033">
        <ele>194</ele>
        <time>2021-01-02T12:50:28.000Z</time>
      </trkpt>
      <trkpt lat="46.3783" lon="5.00331">
        <ele>194</ele>
        <time>2021-01-02T12:50:29.000Z</time>
      </trkpt>
      <trkpt lat="46.37831" lon="5.00331">
        <ele>194</ele>
        <time>2021-01-02T12:50:30.000Z</time>
      </trkpt>
      <trkpt lat="46.37833" lon="5.00332">
        <ele>194</ele>
        <time>2021-01-02T12:50:31.000Z</time>
      </trkpt>
      <trkpt lat="46.37834" lon="5.00333">
        <ele>194</ele>
        <time>2021-01-02T12:50:32.000Z</time>
      </trkpt>
      <trkpt lat="46.37836" lon="5.00333">
        <ele>194</ele>
        <time>2021-01-02T12:50:33.000Z</time>
      </trkpt>
      <trkpt lat="46.37837" lon="5.00334">
        <ele>194</ele>
        <time>2021-01-02T12:50:34.000Z</time>
      </trkpt>
      <trkpt lat="46.37838" lon="5.00334">
        <ele>194</ele>
        <time>2021-01-02T12:50:35.000Z</time>
      </trkpt>
      <trkpt lat="46.3784" lon="5.00335">
        <ele>194</ele>
        <time>2021-01-02T12:50:36.000Z</time>
      </trkpt>
      <trkpt lat="46.37841" lon="5.00335">
        <ele>194</ele>
        <time>2021-01-02T12:50:37.000Z</time>
      </trkpt>
      <trkpt lat="46.37843" lon="5.00336">
        <ele>194</ele>
        <time>2021-01-02T12:50:38.000Z</time>
      </trkpt>
      <trkpt lat="46.37844" lon="5.00336">
        <ele>194</ele>
        <time>2021-01-02T12:50:39.000Z</time>
      </trkpt>
      <trkpt lat="46.37846" lon="5.00337">
        <ele>194</ele>
        <time>2021-01-02T12:50:40.000Z</time>
      </trkpt>
      <trkpt lat="46.37847" lon="5.00337">
        <ele>194</ele>
        <time>2021-01-02T12:50:41.000Z</time>
      </trkpt>
      <trkpt lat="46.37849" lon="5.00338">
        <ele>195</ele>
        <time>2021-01-02T12:50:42.000Z</time>
      </trkpt>
      <trkpt lat="46.3785" lon="5.00338">
        <ele>195</ele>
        <time>2021-01-02T12:50:43.000Z</time>
      </trkpt>
      <trkpt lat="46.37852" lon="5.00339">
        <ele>195</ele>
        <time>2021-01-02T12:50:44.000Z</time>
      </trkpt>
      <trkpt lat="46.37853" lon="5.00339">
        <ele>195</ele>
        <time>2021-01-02T12:50:45.000Z</time>
      </trkpt>
      <trkpt lat="46.37855" lon="5.0034">
        <ele>195</ele>
        <time>2021-01-02T12:50:46.000Z</time>
      </trkpt>
      <trkpt lat="46.37856" lon="5.0034">
        <ele>195</ele>
        <time>2021-01-02T12:50:47.000Z</time>
      </trkpt>
      <trkpt lat="46.37858" lon="5.00341">
        <ele>195</ele>
        <time>2021-01-02T12:50:48.000Z</time>
      </trkpt>
      <trkpt lat="46.37859" lon="5.00341">
        <ele>195</ele>
        <time>2021-01-02T12:50:49.000Z</time>
      </trkpt>
      <trkpt lat="46.37861" lon="5.00342">
        <ele>196</ele>
        <time>2021-01-02T12:50:50.000Z</time>
      </trkpt>
      <trkpt lat="46.37863" lon="5.00342">
        <ele>196</ele>
        <time>2021-01-02T12:50:51.000Z</time>
      </trkpt>
      <trkpt lat="46.37864" lon="5.00343">
        <ele>196</ele>
        <time>2021-01-02T12:50:52.000Z</time>
      </trkpt>
      <trkpt lat="46.37866" lon="5.00343">
        <ele>196</ele>
        <time>2021-01-02T12:50:53.000Z</time>
      </trkpt>
      <trkpt lat="46.37867" lon="5.00344">
        <ele>196</ele>
        <time>2021-01-02T12:50:54.000Z</time>
      </trkpt>
      <trkpt lat="46.37869" lon="5.00344">
        <ele>196</ele>
        <time>2021-01-02T12:50:55.000Z</time>
      </trkpt>
      <trkpt lat="46.37869" lon="5.00344">
        <ele>196</ele>
        <time>2021-01-02T12:50:56.000Z</time>
      </trkpt>
      <trkpt lat="46.37869" lon="5.00344">
        <ele>196</ele>
        <time>2021-01-02T12:50:57.000Z</time>
      </trkpt>
      <trkpt lat="46.37869" lon="5.00344">
        <ele>196</ele>
        <time>2021-01-02T12:50:58.000Z</time>
      </trkpt>
      <trkpt lat="46.37869" lon="5.00344">
        <ele>196</ele>
        <time>2021-01-02T12:50:59.000Z</time>
      </trkpt>
      <trkpt lat="46.37869" lon="5.00344">
        <ele>196</ele>
        <time>2021-01-02T12:51:00.000Z</time>
      </trkpt>
      <trkpt lat="46.37869" lon="5.00344">
        <ele>196</ele>
        <time>2021-01-02T12:51:01.000Z</time>
      </trkpt>
      <trkpt lat="46.37869" lon="5.00344">
        <ele>196</ele>
        <time>2021-01-02T12:51:02.000Z</time>
      </trkpt>
      <trkpt lat="46.37869" lon="5.00344">
        <ele>196</ele>
        <time>2021-01-02T12:51:03.000Z</time>
      </trkpt>
      <trkpt lat="46.37869" lon="5.00344">
        <ele>196</ele>
        <time>2021-01-02T12:51:04.000Z</time>
      </trkpt>
      <trkpt lat="46.37869" lon="5.00344">
        <ele>196</ele>
        <time>2021-01-02T12:51:05.000Z</time>
      </trkpt>
      <trkpt lat="46.37869" lon="5.00344">
        <ele>196</ele>
        <time>2021-01-02T12:51:06.000Z</time>
      </trkpt>
      <trkpt lat="46.37869" lon="5.00344">
        <ele>196</ele>
        <time>2021-01-02T12:51:07.000Z</time>
      </trkpt>
      <trkpt lat="46.37869" lon="5.00344">
        <ele>196</ele>
        <time>2021-01-02T12:51:08.000Z</time>
      </trkpt>
      <trkpt lat="46.37869" lon="5.00344">
        <ele>196</ele>
        <time>2021-01-02T12:51:09.000Z</time>
      </trkpt>
      <trkpt lat="46.37869" lon="5.00344">
        <ele>197</ele>
        <time>2021-01-02T12:51:10.000Z</time>
      </trkpt>
      <trkpt lat="46.37869" lon="5.00344">
        <ele>197</ele>
        <time>2021-01-02T12:51:11.000Z</time>
      </trkpt>
      <trkpt lat="46.37869" lon="5.00344">
        <ele>197</ele>
        <time>2021-01-02T12:51:12.000Z</time>
      </trkpt>
      <trkpt lat="46.37869" lon="5.00344">
        <ele>197</ele>
        <time>2021-01-02T12:51:13.000Z</time>
      </trkpt>
      <trkpt lat="46.37869" lon="5.00343">
        <ele>197</ele>
        <time>2021-01-02T12:51:14.000Z</time>
      </trkpt>
      <trkpt lat="46.37869" lon="5.00343">
        <ele>197</ele>
        <time>2021-01-02T12:51:15.000Z</time>
      </trkpt>
      <trkpt lat="46.37869" lon="5.00343">
        <ele>197</ele>
        <time>2021-01-02T12:51:16.000Z</time>
      </trkpt>
      <trkpt lat="46.37869" lon="5.00343">
        <ele>197</ele>
        <time>2021-01-02T12:51:17.000Z</time>
      </trkpt>
      <trkpt lat="46.37869" lon="5.00343">
        <ele>197</ele>
        <time>2021-01-02T12:51:18.000Z</time>
      </trkpt>
      <trkpt lat="46.37869" lon="5.00343">
        <ele>197</ele>
        <time>2021-01-02T12:51:19.000Z</time>
      </trkpt>
      <trkpt lat="46.37869" lon="5.00343">
        <ele>197</ele>
        <time>2021-01-02T12:51:20.000Z</time>
      </trkpt>
      <trkpt lat="46.37869" lon="5.00343">
        <ele>197</ele>
        <time>2021-01-02T12:51:21.000Z</time>
      </trkpt>
      <trkpt lat="46.3787" lon="5.00343">
        <ele>197</ele>
        <time>2021-01-02T12:51:22.000Z</time>
      </trkpt>
      <trkpt lat="46.3787" lon="5.00343">
        <ele>197</ele>
        <time>2021-01-02T12:51:23.000Z</time>
      </trkpt>
      <trkpt lat="46.3787" lon="5.00343">
        <ele>197</ele>
        <time>2021-01-02T12:51:24.000Z</time>
      </trkpt>
      <trkpt lat="46.3787" lon="5.00343">
        <ele>197</ele>
        <time>2021-01-02T12:51:25.000Z</time>
      </trkpt>
      <trkpt lat="46.3787" lon="5.00343">
        <ele>197</ele>
        <time>2021-01-02T12:51:26.000Z</time>
      </trkpt>
      <trkpt lat="46.3787" lon="5.00343">
        <ele>197</ele>
        <time>2021-01-02T12:51:27.000Z</time>
      </trkpt>
      <trkpt lat="46.3787" lon="5.00344">
        <ele>197</ele>
        <time>2021-01-02T12:51:28.000Z</time>
      </trkpt>
      <trkpt lat="46.3787" lon="5.00344">
        <ele>196</ele>
        <time>2021-01-02T12:51:29.000Z</time>
      </trkpt>
      <trkpt lat="46.37871" lon="5.00344">
        <ele>197</ele>
        <time>2021-01-02T12:51:30.000Z</time>
      </trkpt>
      <trkpt lat="46.37872" lon="5.00345">
        <ele>197</ele>
        <time>2021-01-02T12:51:31.000Z</time>
      </trkpt>
      <trkpt lat="46.37873" lon="5.00345">
        <ele>196</ele>
        <time>2021-01-02T12:51:32.000Z</time>
      </trkpt>
      <trkpt lat="46.37875" lon="5.00346">
        <ele>196</ele>
        <time>2021-01-02T12:51:33.000Z</time>
      </trkpt>
      <trkpt lat="46.37877" lon="5.00347">
        <ele>196</ele>
        <time>2021-01-02T12:51:34.000Z</time>
      </trkpt>
      <trkpt lat="46.37878" lon="5.00347">
        <ele>196</ele>
        <time>2021-01-02T12:51:35.000Z</time>
      </trkpt>
      <trkpt lat="46.3788" lon="5.00348">
        <ele>196</ele>
        <time>2021-01-02T12:51:36.000Z</time>
      </trkpt>
      <trkpt lat="46.37881" lon="5.00349">
        <ele>196</ele>
        <time>2021-01-02T12:51:37.000Z</time>
      </trkpt>
      <trkpt lat="46.37883" lon="5.0035">
        <ele>196</ele>
        <time>2021-01-02T12:51:38.000Z</time>
      </trkpt>
      <trkpt lat="46.37884" lon="5.00351">
        <ele>196</ele>
        <time>2021-01-02T12:51:39.000Z</time>
      </trkpt>
      <trkpt lat="46.37886" lon="5.00351">
        <ele>196</ele>
        <time>2021-01-02T12:51:40.000Z</time>
      </trkpt>
      <trkpt lat="46.37888" lon="5.00352">
        <ele>196</ele>
        <time>2021-01-02T12:51:41.000Z</time>
      </trkpt>
      <trkpt lat="46.37889" lon="5.00353">
        <ele>196</ele>
        <time>2021-01-02T12:51:42.000Z</time>
      </trkpt>
      <trkpt lat="46.3789" lon="5.00353">
        <ele>197</ele>
        <time>2021-01-02T12:51:43.000Z</time>
      </trkpt>
      <trkpt lat="46.37892" lon="5.00354">
        <ele>197</ele>
        <time>2021-01-02T12:51:44.000Z</time>
      </trkpt>
      <trkpt lat="46.37893" lon="5.00355">
        <ele>197</ele>
        <time>2021-01-02T12:51:45.000Z</time>
      </trkpt>
      <trkpt lat="46.37895" lon="5.00355">
        <ele>197</ele>
        <time>2021-01-02T12:51:46.000Z</time>
      </trkpt>
      <trkpt lat="46.37896" lon="5.00356">
        <ele>197</ele>
        <time>2021-01-02T12:51:47.000Z</time>
      </trkpt>
      <trkpt lat="46.37898" lon="5.00357">
        <ele>197</ele>
        <time>2021-01-02T12:51:48.000Z</time>
      </trkpt>
      <trkpt lat="46.37899" lon="5.00358">
        <ele>197</ele>
        <time>2021-01-02T12:51:49.000Z</time>
      </trkpt>
      <trkpt lat="46.37901" lon="5.00359">
        <ele>197</ele>
        <time>2021-01-02T12:51:50.000Z</time>
      </trkpt>
      <trkpt lat="46.37902" lon="5.00359">
        <ele>197</ele>
        <time>2021-01-02T12:51:51.000Z</time>
      </trkpt>
      <trkpt lat="46.37904" lon="5.0036">
        <ele>196</ele>
        <time>2021-01-02T12:51:52.000Z</time>
      </trkpt>
      <trkpt lat="46.37905" lon="5.00361">
        <ele>196</ele>
        <time>2021-01-02T12:51:53.000Z</time>
      </trkpt>
      <trkpt lat="46.37907" lon="5.00361">
        <ele>196</ele>
        <time>2021-01-02T12:51:54.000Z</time>
      </trkpt>
      <trkpt lat="46.37909" lon="5.00362">
        <ele>196</ele>
        <time>2021-01-02T12:51:55.000Z</time>
      </trkpt>
      <trkpt lat="46.3791" lon="5.00362">
        <ele>196</ele>
        <time>2021-01-02T12:51:56.000Z</time>
      </trkpt>
      <trkpt lat="46.37912" lon="5.00363">
        <ele>196</ele>
        <time>2021-01-02T12:51:57.000Z</time>
      </trkpt>
      <trkpt lat="46.37913" lon="5.00363">
        <ele>196</ele>
        <time>2021-01-02T12:51:58.000Z</time>
      </trkpt>
      <trkpt lat="46.37915" lon="5.00363">
        <ele>196</ele>
        <time>2021-01-02T12:51:59.000Z</time>
      </trkpt>
      <trkpt lat="46.37917" lon="5.00364">
        <ele>196</ele>
        <time>2021-01-02T12:52:00.000Z</time>
      </trkpt>
      <trkpt lat="46.37918" lon="5.00364">
        <ele>196</ele>
        <time>2021-01-02T12:52:01.000Z</time>
      </trkpt>
      <trkpt lat="46.3792" lon="5.00364">
        <ele>196</ele>
        <time>2021-01-02T12:52:02.000Z</time>
      </trkpt>
      <trkpt lat="46.37921" lon="5.00365">
        <ele>196</ele>
        <time>2021-01-02T12:52:03.000Z</time>
      </trkpt>
      <trkpt lat="46.37922" lon="5.00366">
        <ele>196</ele>
        <time>2021-01-02T12:52:04.000Z</time>
      </trkpt>
      <trkpt lat="46.37924" lon="5.00367">
        <ele>196</ele>
        <time>2021-01-02T12:52:05.000Z</time>
      </trkpt>
      <trkpt lat="46.37925" lon="5.00368">
        <ele>197</ele>
        <time>2021-01-02T12:52:06.000Z</time>
      </trkpt>
      <trkpt lat="46.37926" lon="5.00368">
        <ele>197</ele>
        <time>2021-01-02T12:52:07.000Z</time>
      </trkpt>
      <trkpt lat="46.37928" lon="5.00369">
        <ele>197</ele>
        <time>2021-01-02T12:52:08.000Z</time>
      </trkpt>
      <trkpt lat="46.37929" lon="5.0037">
        <ele>197</ele>
        <time>2021-01-02T12:52:09.000Z</time>
      </trkpt>
      <trkpt lat="46.3793" lon="5.00371">
        <ele>197</ele>
        <time>2021-01-02T12:52:10.000Z</time>
      </trkpt>
      <trkpt lat="46.37932" lon="5.00372">
        <ele>197</ele>
        <time>2021-01-02T12:52:11.000Z</time>
      </trkpt>
      <trkpt lat="46.37933" lon="5.00373">
        <ele>197</ele>
        <time>2021-01-02T12:52:12.000Z</time>
      </trkpt>
      <trkpt lat="46.37935" lon="5.00374">
        <ele>197</ele>
        <time>2021-01-02T12:52:13.000Z</time>
      </trkpt>
      <trkpt lat="46.37936" lon="5.00375">
        <ele>197</ele>
        <time>2021-01-02T12:52:14.000Z</time>
      </trkpt>
      <trkpt lat="46.37937" lon="5.00377">
        <ele>197</ele>
        <time>2021-01-02T12:52:15.000Z</time>
      </trkpt>
      <trkpt lat="46.37939" lon="5.00378">
        <ele>197</ele>
        <time>2021-01-02T12:52:16.000Z</time>
      </trkpt>
      <trkpt lat="46.3794" lon="5.00379">
        <ele>197</ele>
        <time>2021-01-02T12:52:17.000Z</time>
      </trkpt>
      <trkpt lat="46.37941" lon="5.0038">
        <ele>197</ele>
        <time>2021-01-02T12:52:18.000Z</time>
      </trkpt>
      <trkpt lat="46.37942" lon="5.00381">
        <ele>197</ele>
        <time>2021-01-02T12:52:19.000Z</time>
      </trkpt>
      <trkpt lat="46.37943" lon="5.00381">
        <ele>197</ele>
        <time>2021-01-02T12:52:20.000Z</time>
      </trkpt>
      <trkpt lat="46.37943" lon="5.00382">
        <ele>197</ele>
        <time>2021-01-02T12:52:21.000Z</time>
      </trkpt>
      <trkpt lat="46.37943" lon="5.00382">
        <ele>197</ele>
        <time>2021-01-02T12:52:22.000Z</time>
      </trkpt>
      <trkpt lat="46.37943" lon="5.00382">
        <ele>197</ele>
        <time>2021-01-02T12:52:23.000Z</time>
      </trkpt>
      <trkpt lat="46.37943" lon="5.00382">
        <ele>197</ele>
        <time>2021-01-02T12:52:24.000Z</time>
      </trkpt>
      <trkpt lat="46.37943" lon="5.00382">
        <ele>197</ele>
        <time>2021-01-02T12:52:25.000Z</time>
      </trkpt>
      <trkpt lat="46.37942" lon="5.00382">
        <ele>197</ele>
        <time>2021-01-02T12:52:26.000Z</time>
      </trkpt>
      <trkpt lat="46.37942" lon="5.00382">
        <ele>197</ele>
        <time>2021-01-02T12:52:27.000Z</time>
      </trkpt>
      <trkpt lat="46.37942" lon="5.00381">
        <ele>197</ele>
        <time>2021-01-02T12:52:28.000Z</time>
      </trkpt>
      <trkpt lat="46.37942" lon="5.00381">
        <ele>197</ele>
        <time>2021-01-02T12:52:29.000Z</time>
      </trkpt>
      <trkpt lat="46.37942" lon="5.00381">
        <ele>197</ele>
        <time>2021-01-02T12:52:30.000Z</time>
      </trkpt>
      <trkpt lat="46.37942" lon="5.00381">
        <ele>197</ele>
        <time>2021-01-02T12:52:31.000Z</time>
      </trkpt>
      <trkpt lat="46.37942" lon="5.0038">
        <ele>197</ele>
        <time>2021-01-02T12:52:32.000Z</time>
      </trkpt>
      <trkpt lat="46.37942" lon="5.00381">
        <ele>197</ele>
        <time>2021-01-02T12:52:33.000Z</time>
      </trkpt>
      <trkpt lat="46.37943" lon="5.00381">
        <ele>197</ele>
        <time>2021-01-02T12:52:34.000Z</time>
      </trkpt>
      <trkpt lat="46.37943" lon="5.00381">
        <ele>197</ele>
        <time>2021-01-02T12:52:35.000Z</time>
      </trkpt>
      <trkpt lat="46.37943" lon="5.0038">
        <ele>197</ele>
        <time>2021-01-02T12:52:36.000Z</time>
      </trkpt>
      <trkpt lat="46.37943" lon="5.0038">
        <ele>197</ele>
        <time>2021-01-02T12:52:37.000Z</time>
      </trkpt>
      <trkpt lat="46.37943" lon="5.0038">
        <ele>197</ele>
        <time>2021-01-02T12:52:38.000Z</time>
      </trkpt>
      <trkpt lat="46.37943" lon="5.0038">
        <ele>197</ele>
        <time>2021-01-02T12:52:39.000Z</time>
      </trkpt>
      <trkpt lat="46.37943" lon="5.0038">
        <ele>197</ele>
        <time>2021-01-02T12:52:40.000Z</time>
      </trkpt>
      <trkpt lat="46.37943" lon="5.0038">
        <ele>197</ele>
        <time>2021-01-02T12:52:41.000Z</time>
      </trkpt>
      <trkpt lat="46.37943" lon="5.0038">
        <ele>197</ele>
        <time>2021-01-02T12:52:42.000Z</time>
      </trkpt>
      <trkpt lat="46.37943" lon="5.0038">
        <ele>197</ele>
        <time>2021-01-02T12:52:43.000Z</time>
      </trkpt>
      <trkpt lat="46.37943" lon="5.0038">
        <ele>197</ele>
        <time>2021-01-02T12:52:44.000Z</time>
      </trkpt>
      <trkpt lat="46.37943" lon="5.0038">
        <ele>197</ele>
        <time>2021-01-02T12:52:45.000Z</time>
      </trkpt>
      <trkpt lat="46.37943" lon="5.0038">
        <ele>197</ele>
        <time>2021-01-02T12:52:46.000Z</time>
      </trkpt>
      <trkpt lat="46.37943" lon="5.0038">
        <ele>197</ele>
        <time>2021-01-02T12:52:47.000Z</time>
      </trkpt>
      <trkpt lat="46.37943" lon="5.0038">
        <ele>197</ele>
        <time>2021-01-02T12:52:48.000Z</time>
      </trkpt>
      <trkpt lat="46.37943" lon="5.0038">
        <ele>197</ele>
        <time>2021-01-02T12:52:49.000Z</time>
      </trkpt>
      <trkpt lat="46.37943" lon="5.0038">
        <ele>197</ele>
        <time>2021-01-02T12:52:50.000Z</time>
      </trkpt>
      <trkpt lat="46.37943" lon="5.0038">
        <ele>197</ele>
        <time>2021-01-02T12:52:51.000Z</time>
      </trkpt>
      <trkpt lat="46.37943" lon="5.0038">
        <ele>197</ele>
        <time>2021-01-02T12:52:52.000Z</time>
      </trkpt>
      <trkpt lat="46.37943" lon="5.0038">
        <ele>197</ele>
        <time>2021-01-02T12:52:53.000Z</time>
      </trkpt>
      <trkpt lat="46.37943" lon="5.0038">
        <ele>197</ele>
        <time>2021-01-02T12:52:54.000Z</time>
      </trkpt>
      <trkpt lat="46.37943" lon="5.0038">
        <ele>197</ele>
        <time>2021-01-02T12:52:55.000Z</time>
      </trkpt>
      <trkpt lat="46.37943" lon="5.0038">
        <ele>197</ele>
        <time>2021-01-02T12:52:56.000Z</time>
      </trkpt>
      <trkpt lat="46.37943" lon="5.0038">
        <ele>197</ele>
        <time>2021-01-02T12:52:57.000Z</time>
      </trkpt>
      <trkpt lat="46.37943" lon="5.0038">
        <ele>197</ele>
        <time>2021-01-02T12:52:58.000Z</time>
      </trkpt>
      <trkpt lat="46.37943" lon="5.0038">
        <ele>197</ele>
        <time>2021-01-02T12:52:59.000Z</time>
      </trkpt>
      <trkpt lat="46.37943" lon="5.0038">
        <ele>197</ele>
        <time>2021-01-02T12:53:00.000Z</time>
      </trkpt>
      <trkpt lat="46.37943" lon="5.0038">
        <ele>197</ele>
        <time>2021-01-02T12:53:01.000Z</time>
      </trkpt>
      <trkpt lat="46.37943" lon="5.0038">
        <ele>197</ele>
        <time>2021-01-02T12:53:02.000Z</time>
      </trkpt>
      <trkpt lat="46.37943" lon="5.0038">
        <ele>197</ele>
        <time>2021-01-02T12:53:03.000Z</time>
      </trkpt>
      <trkpt lat="46.37943" lon="5.0038">
        <ele>197</ele>
        <time>2021-01-02T12:53:04.000Z</time>
      </trkpt>
      <trkpt lat="46.37943" lon="5.0038">
        <ele>197</ele>
        <time>2021-01-02T12:53:05.000Z</time>
      </trkpt>
      <trkpt lat="46.37943" lon="5.0038">
        <ele>197</ele>
        <time>2021-01-02T12:53:06.000Z</time>
      </trkpt>
      <trkpt lat="46.37943" lon="5.0038">
        <ele>197</ele>
        <time>2021-01-02T12:53:07.000Z</time>
      </trkpt>
      <trkpt lat="46.37943" lon="5.00381">
        <ele>197</ele>
        <time>2021-01-02T12:53:08.000Z</time>
      </trkpt>
      <trkpt lat="46.37942" lon="5.00381">
        <ele>197</ele>
        <time>2021-01-02T12:53:09.000Z</time>
      </trkpt>
      <trkpt lat="46.37942" lon="5.00381">
        <ele>197</ele>
        <time>2021-01-02T12:53:10.000Z</time>
      </trkpt>
      <trkpt lat="46.37942" lon="5.0038">
        <ele>197</ele>
        <time>2021-01-02T12:53:11.000Z</time>
      </trkpt>
      <trkpt lat="46.37942" lon="5.0038">
        <ele>197</ele>
        <time>2021-01-02T12:53:12.000Z</time>
      </trkpt>
      <trkpt lat="46.37942" lon="5.0038">
        <ele>197</ele>
        <time>2021-01-02T12:53:13.000Z</time>
      </trkpt>
      <trkpt lat="46.37942" lon="5.00381">
        <ele>197</ele>
        <time>2021-01-02T12:53:14.000Z</time>
      </trkpt>
      <trkpt lat="46.37942" lon="5.00381">
        <ele>197</ele>
        <time>2021-01-02T12:53:15.000Z</time>
      </trkpt>
      <trkpt lat="46.37942" lon="5.00381">
        <ele>197</ele>
        <time>2021-01-02T12:53:16.000Z</time>
      </trkpt>
      <trkpt lat="46.37942" lon="5.00381">
        <ele>197</ele>
        <time>2021-01-02T12:53:17.000Z</time>
      </trkpt>
      <trkpt lat="46.37942" lon="5.00381">
        <ele>197</ele>
        <time>2021-01-02T12:53:18.000Z</time>
      </trkpt>
      <trkpt lat="46.37942" lon="5.00381">
        <ele>197</ele>
        <time>2021-01-02T12:53:19.000Z</time>
      </trkpt>
      <trkpt lat="46.37942" lon="5.00381">
        <ele>197</ele>
        <time>2021-01-02T12:53:20.000Z</time>
      </trkpt>
      <trkpt lat="46.37942" lon="5.00381">
        <ele>197</ele>
        <time>2021-01-02T12:53:21.000Z</time>
      </trkpt>
      <trkpt lat="46.37942" lon="5.00381">
        <ele>197</ele>
        <time>2021-01-02T12:53:22.000Z</time>
      </trkpt>
      <trkpt lat="46.37942" lon="5.00381">
        <ele>197</ele>
        <time>2021-01-02T12:53:23.000Z</time>
      </trkpt>
      <trkpt lat="46.37942" lon="5.00381">
        <ele>197</ele>
        <time>2021-01-02T12:53:24.000Z</time>
      </trkpt>
      <trkpt lat="46.37942" lon="5.00381">
        <ele>197</ele>
        <time>2021-01-02T12:53:25.000Z</time>
      </trkpt>
      <trkpt lat="46.37942" lon="5.00381">
        <ele>197</ele>
        <time>2021-01-02T12:53:26.000Z</time>
      </trkpt>
      <trkpt lat="46.37942" lon="5.00381">
        <ele>197</ele>
        <time>2021-01-02T12:53:27.000Z</time>
      </trkpt>
      <trkpt lat="46.37942" lon="5.00381">
        <ele>197</ele>
        <time>2021-01-02T12:53:28.000Z</time>
      </trkpt>
      <trkpt lat="46.37942" lon="5.00381">
        <ele>197</ele>
        <time>2021-01-02T12:53:29.000Z</time>
      </trkpt>
      <trkpt lat="46.37942" lon="5.00381">
        <ele>197</ele>
        <time>2021-01-02T12:53:30.000Z</time>
      </trkpt>
      <trkpt lat="46.37942" lon="5.00381">
        <ele>197</ele>
        <time>2021-01-02T12:53:31.000Z</time>
      </trkpt>
      <trkpt lat="46.37942" lon="5.00381">
        <ele>197</ele>
        <time>2021-01-02T12:53:32.000Z</time>
      </trkpt>
      <trkpt lat="46.37942" lon="5.00381">
        <ele>197</ele>
        <time>2021-01-02T12:53:33.000Z</time>
      </trkpt>
      <trkpt lat="46.37942" lon="5.00381">
        <ele>197</ele>
        <time>2021-01-02T12:53:34.000Z</time>
      </trkpt>
      <trkpt lat="46.37942" lon="5.00381">
        <ele>197</ele>
        <time>2021-01-02T12:53:35.000Z</time>
      </trkpt>
      <trkpt lat="46.37942" lon="5.00381">
        <ele>197</ele>
        <time>2021-01-02T12:53:36.000Z</time>
      </trkpt>
      <trkpt lat="46.37942" lon="5.00381">
        <ele>197</ele>
        <time>2021-01-02T12:53:37.000Z</time>
      </trkpt>
      <trkpt lat="46.37942" lon="5.00381">
        <ele>197</ele>
        <time>2021-01-02T12:53:38.000Z</time>
      </trkpt>
      <trkpt lat="46.37942" lon="5.00381">
        <ele>197</ele>
        <time>2021-01-02T12:53:39.000Z</time>
      </trkpt>
      <trkpt lat="46.37942" lon="5.00381">
        <ele>197</ele>
        <time>2021-01-02T12:53:40.000Z</time>
      </trkpt>
      <trkpt lat="46.37942" lon="5.00381">
        <ele>197</ele>
        <time>2021-01-02T12:53:41.000Z</time>
      </trkpt>
      <trkpt lat="46.37942" lon="5.00381">
        <ele>197</ele>
        <time>2021-01-02T12:53:42.000Z</time>
      </trkpt>
      <trkpt lat="46.37942" lon="5.00381">
        <ele>197</ele>
        <time>2021-01-02T12:53:43.000Z</time>
      </trkpt>
      <trkpt lat="46.37942" lon="5.00381">
        <ele>197</ele>
        <time>2021-01-02T12:53:44.000Z</time>
      </trkpt>
      <trkpt lat="46.37942" lon="5.00381">
        <ele>197</ele>
        <time>2021-01-02T12:53:45.000Z</time>
      </trkpt>
      <trkpt lat="46.37942" lon="5.00382">
        <ele>197</ele>
        <time>2021-01-02T12:53:46.000Z</time>
      </trkpt>
      <trkpt lat="46.37943" lon="5.00383">
        <ele>197</ele>
        <time>2021-01-02T12:53:47.000Z</time>
      </trkpt>
      <trkpt lat="46.37943" lon="5.00384">
        <ele>197</ele>
        <time>2021-01-02T12:53:48.000Z</time>
      </trkpt>
      <trkpt lat="46.37944" lon="5.00386">
        <ele>197</ele>
        <time>2021-01-02T12:53:49.000Z</time>
      </trkpt>
      <trkpt lat="46.37944" lon="5.00388">
        <ele>197</ele>
        <time>2021-01-02T12:53:50.000Z</time>
      </trkpt>
      <trkpt lat="46.37944" lon="5.0039">
        <ele>197</ele>
        <time>2021-01-02T12:53:51.000Z</time>
      </trkpt>
      <trkpt lat="46.37945" lon="5.00392">
        <ele>196</ele>
        <time>2021-01-02T12:53:52.000Z</time>
      </trkpt>
      <trkpt lat="46.37945" lon="5.00394">
        <ele>196</ele>
        <time>2021-01-02T12:53:53.000Z</time>
      </trkpt>
      <trkpt lat="46.37945" lon="5.00396">
        <ele>196</ele>
        <time>2021-01-02T12:53:54.000Z</time>
      </trkpt>
      <trkpt lat="46.37946" lon="5.00398">
        <ele>196</ele>
        <time>2021-01-02T12:53:55.000Z</time>
      </trkpt>
      <trkpt lat="46.37946" lon="5.00401">
        <ele>196</ele>
        <time>2021-01-02T12:53:56.000Z</time>
      </trkpt>
      <trkpt lat="46.37947" lon="5.00403">
        <ele>196</ele>
        <time>2021-01-02T12:53:57.000Z</time>
      </trkpt>
      <trkpt lat="46.37948" lon="5.00405">
        <ele>197</ele>
        <time>2021-01-02T12:53:58.000Z</time>
      </trkpt>
      <trkpt lat="46.37948" lon="5.00407">
        <ele>197</ele>
        <time>2021-01-02T12:53:59.000Z</time>
      </trkpt>
      <trkpt lat="46.37949" lon="5.0041">
        <ele>197</ele>
        <time>2021-01-02T12:54:00.000Z</time>
      </trkpt>
      <trkpt lat="46.37949" lon="5.00412">
        <ele>197</ele>
        <time>2021-01-02T12:54:01.000Z</time>
      </trkpt>
      <trkpt lat="46.37949" lon="5.00414">
        <ele>197</ele>
        <time>2021-01-02T12:54:02.000Z</time>
      </trkpt>
      <trkpt lat="46.37949" lon="5.00414">
        <ele>197</ele>
        <time>2021-01-02T12:54:03.000Z</time>
      </trkpt>
      <trkpt lat="46.37949" lon="5.00414">
        <ele>197</ele>
        <time>2021-01-02T12:54:04.000Z</time>
      </trkpt>
      <trkpt lat="46.37949" lon="5.00415">
        <ele>197</ele>
        <time>2021-01-02T12:54:05.000Z</time>
      </trkpt>
      <trkpt lat="46.37949" lon="5.00415">
        <ele>197</ele>
        <time>2021-01-02T12:54:06.000Z</time>
      </trkpt>
      <trkpt lat="46.37949" lon="5.00415">
        <ele>197</ele>
        <time>2021-01-02T12:54:07.000Z</time>
      </trkpt>
      <trkpt lat="46.37949" lon="5.00415">
        <ele>198</ele>
        <time>2021-01-02T12:54:08.000Z</time>
      </trkpt>
      <trkpt lat="46.37949" lon="5.00415">
        <ele>198</ele>
        <time>2021-01-02T12:54:09.000Z</time>
      </trkpt>
      <trkpt lat="46.37949" lon="5.00415">
        <ele>198</ele>
        <time>2021-01-02T12:54:10.000Z</time>
      </trkpt>
      <trkpt lat="46.37948" lon="5.00415">
        <ele>198</ele>
        <time>2021-01-02T12:54:11.000Z</time>
      </trkpt>
      <trkpt lat="46.37948" lon="5.00415">
        <ele>198</ele>
        <time>2021-01-02T12:54:12.000Z</time>
      </trkpt>
      <trkpt lat="46.37948" lon="5.00415">
        <ele>198</ele>
        <time>2021-01-02T12:54:13.000Z</time>
      </trkpt>
      <trkpt lat="46.37948" lon="5.00415">
        <ele>198</ele>
        <time>2021-01-02T12:54:14.000Z</time>
      </trkpt>
      <trkpt lat="46.37948" lon="5.00415">
        <ele>198</ele>
        <time>2021-01-02T12:54:15.000Z</time>
      </trkpt>
      <trkpt lat="46.37948" lon="5.00415">
        <ele>198</ele>
        <time>2021-01-02T12:54:16.000Z</time>
      </trkpt>
      <trkpt lat="46.37948" lon="5.00416">
        <ele>198</ele>
        <time>2021-01-02T12:54:17.000Z</time>
      </trkpt>
      <trkpt lat="46.37947" lon="5.00416">
        <ele>198</ele>
        <time>2021-01-02T12:54:18.000Z</time>
      </trkpt>
      <trkpt lat="46.37947" lon="5.00417">
        <ele>198</ele>
        <time>2021-01-02T12:54:19.000Z</time>
      </trkpt>
      <trkpt lat="46.37946" lon="5.00418">
        <ele>198</ele>
        <time>2021-01-02T12:54:20.000Z</time>
      </trkpt>
      <trkpt lat="46.37945" lon="5.00419">
        <ele>198</ele>
        <time>2021-01-02T12:54:21.000Z</time>
      </trkpt>
      <trkpt lat="46.37944" lon="5.0042">
        <ele>198</ele>
        <time>2021-01-02T12:54:22.000Z</time>
      </trkpt>
      <trkpt lat="46.37943" lon="5.0042">
        <ele>199</ele>
        <time>2021-01-02T12:54:23.000Z</time>
      </trkpt>
      <trkpt lat="46.37941" lon="5.00421">
        <ele>199</ele>
        <time>2021-01-02T12:54:24.000Z</time>
      </trkpt>
      <trkpt lat="46.3794" lon="5.00423">
        <ele>199</ele>
        <time>2021-01-02T12:54:25.000Z</time>
      </trkpt>
      <trkpt lat="46.37939" lon="5.00424">
        <ele>199</ele>
        <time>2021-01-02T12:54:26.000Z</time>
      </trkpt>
      <trkpt lat="46.37938" lon="5.00424">
        <ele>199</ele>
        <time>2021-01-02T12:54:27.000Z</time>
      </trkpt>
      <trkpt lat="46.37937" lon="5.00425">
        <ele>199</ele>
        <time>2021-01-02T12:54:28.000Z</time>
      </trkpt>
      <trkpt lat="46.37936" lon="5.00426">
        <ele>200</ele>
        <time>2021-01-02T12:54:29.000Z</time>
      </trkpt>
      <trkpt lat="46.37936" lon="5.00426">
        <ele>200</ele>
        <time>2021-01-02T12:54:30.000Z</time>
      </trkpt>
      <trkpt lat="46.37936" lon="5.00427">
        <ele>200</ele>
        <time>2021-01-02T12:54:31.000Z</time>
      </trkpt>
      <trkpt lat="46.37936" lon="5.00427">
        <ele>200</ele>
        <time>2021-01-02T12:54:32.000Z</time>
      </trkpt>
      <trkpt lat="46.37936" lon="5.00427">
        <ele>200</ele>
        <time>2021-01-02T12:54:33.000Z</time>
      </trkpt>
      <trkpt lat="46.37936" lon="5.00427">
        <ele>200</ele>
        <time>2021-01-02T12:54:34.000Z</time>
      </trkpt>
      <trkpt lat="46.37936" lon="5.00427">
        <ele>200</ele>
        <time>2021-01-02T12:54:35.000Z</time>
      </trkpt>
      <trkpt lat="46.37936" lon="5.00427">
        <ele>200</ele>
        <time>2021-01-02T12:54:36.000Z</time>
      </trkpt>
      <trkpt lat="46.37936" lon="5.00427">
        <ele>200</ele>
        <time>2021-01-02T12:54:37.000Z</time>
      </trkpt>
      <trkpt lat="46.37936" lon="5.00427">
        <ele>200</ele>
        <time>2021-01-02T12:54:38.000Z</time>
      </trkpt>
      <trkpt lat="46.37936" lon="5.00427">
        <ele>200</ele>
        <time>2021-01-02T12:54:39.000Z</time>
      </trkpt>
      <trkpt lat="46.37936" lon="5.00427">
        <ele>200</ele>
        <time>2021-01-02T12:54:40.000Z</time>
      </trkpt>
      <trkpt lat="46.37936" lon="5.00427">
        <ele>200</ele>
        <time>2021-01-02T12:54:41.000Z</time>
      </trkpt>
      <trkpt lat="46.37936" lon="5.00427">
        <ele>200</ele>
        <time>2021-01-02T12:54:42.000Z</time>
      </trkpt>
      <trkpt lat="46.37936" lon="5.00427">
        <ele>200</ele>
        <time>2021-01-02T12:54:43.000Z</time>
      </trkpt>
      <trkpt lat="46.37936" lon="5.00427">
        <ele>200</ele>
        <time>2021-01-02T12:54:44.000Z</time>
      </trkpt>
      <trkpt lat="46.37936" lon="5.00427">
        <ele>199</ele>
        <time>2021-01-02T12:54:45.000Z</time>
      </trkpt>
      <trkpt lat="46.37936" lon="5.00427">
        <ele>199</ele>
        <time>2021-01-02T12:54:46.000Z</time>
      </trkpt>
      <trkpt lat="46.37936" lon="5.00427">
        <ele>199</ele>
        <time>2021-01-02T12:54:47.000Z</time>
      </trkpt>
      <trkpt lat="46.37936" lon="5.00427">
        <ele>199</ele>
        <time>2021-01-02T12:54:48.000Z</time>
      </trkpt>
      <trkpt lat="46.37936" lon="5.00427">
        <ele>199</ele>
        <time>2021-01-02T12:54:49.000Z</time>
      </trkpt>
      <trkpt lat="46.37936" lon="5.00427">
        <ele>199</ele>
        <time>2021-01-02T12:54:50.000Z</time>
      </trkpt>
      <trkpt lat="46.37936" lon="5.00427">
        <ele>199</ele>
        <time>2021-01-02T12:54:51.000Z</time>
      </trkpt>
      <trkpt lat="46.37936" lon="5.00427">
        <ele>199</ele>
        <time>2021-01-02T12:54:52.000Z</time>
      </trkpt>
      <trkpt lat="46.37936" lon="5.00427">
        <ele>199</ele>
        <time>2021-01-02T12:54:53.000Z</time>
      </trkpt>
      <trkpt lat="46.37936" lon="5.00427">
        <ele>199</ele>
        <time>2021-01-02T12:54:54.000Z</time>
      </trkpt>
      <trkpt lat="46.37936" lon="5.00427">
        <ele>199</ele>
        <time>2021-01-02T12:54:55.000Z</time>
      </trkpt>
      <trkpt lat="46.37936" lon="5.00427">
        <ele>199</ele>
        <time>2021-01-02T12:54:56.000Z</time>
      </trkpt>
      <trkpt lat="46.37936" lon="5.00427">
        <ele>199</ele>
        <time>2021-01-02T12:54:57.000Z</time>
      </trkpt>
      <trkpt lat="46.37936" lon="5.00427">
        <ele>199</ele>
        <time>2021-01-02T12:54:58.000Z</time>
      </trkpt>
      <trkpt lat="46.37936" lon="5.00427">
        <ele>199</ele>
        <time>2021-01-02T12:54:59.000Z</time>
      </trkpt>
      <trkpt lat="46.37936" lon="5.00427">
        <ele>199</ele>
        <time>2021-01-02T12:55:00.000Z</time>
      </trkpt>
      <trkpt lat="46.37936" lon="5.00427">
        <ele>199</ele>
        <time>2021-01-02T12:55:01.000Z</time>
      </trkpt>
      <trkpt lat="46.37936" lon="5.00427">
        <ele>199</ele>
        <time>2021-01-02T12:55:02.000Z</time>
      </trkpt>
      <trkpt lat="46.37936" lon="5.00427">
        <ele>199</ele>
        <time>2021-01-02T12:55:03.000Z</time>
      </trkpt>
      <trkpt lat="46.37936" lon="5.00427">
        <ele>199</ele>
        <time>2021-01-02T12:55:04.000Z</time>
      </trkpt>
      <trkpt lat="46.37936" lon="5.00427">
        <ele>199</ele>
        <time>2021-01-02T12:55:05.000Z</time>
      </trkpt>
      <trkpt lat="46.37936" lon="5.00427">
        <ele>199</ele>
        <time>2021-01-02T12:55:06.000Z</time>
      </trkpt>
      <trkpt lat="46.37936" lon="5.00427">
        <ele>199</ele>
        <time>2021-01-02T12:55:07.000Z</time>
      </trkpt>
      <trkpt lat="46.37936" lon="5.00427">
        <ele>199</ele>
        <time>2021-01-02T12:55:08.000Z</time>
      </trkpt>
      <trkpt lat="46.37936" lon="5.00427">
        <ele>199</ele>
        <time>2021-01-02T12:55:09.000Z</time>
      </trkpt>
      <trkpt lat="46.37936" lon="5.00427">
        <ele>199</ele>
        <time>2021-01-02T12:55:10.000Z</time>
      </trkpt>
      <trkpt lat="46.37936" lon="5.00427">
        <ele>199</ele>
        <time>2021-01-02T12:55:11.000Z</time>
      </trkpt>
      <trkpt lat="46.37936" lon="5.00427">
        <ele>199</ele>
        <time>2021-01-02T12:55:12.000Z</time>
      </trkpt>
      <trkpt lat="46.37936" lon="5.00427">
        <ele>199</ele>
        <time>2021-01-02T12:55:13.000Z</time>
      </trkpt>
      <trkpt lat="46.37936" lon="5.00427">
        <ele>199</ele>
        <time>2021-01-02T12:55:14.000Z</time>
      </trkpt>
      <trkpt lat="46.37936" lon="5.00427">
        <ele>199</ele>
        <time>2021-01-02T12:55:15.000Z</time>
      </trkpt>
      <trkpt lat="46.37936" lon="5.00427">
        <ele>199</ele>
        <time>2021-01-02T12:55:16.000Z</time>
      </trkpt>
      <trkpt lat="46.37935" lon="5.00428">
        <ele>200</ele>
        <time>2021-01-02T12:55:17.000Z</time>
      </trkpt>
      <trkpt lat="46.37935" lon="5.0043">
        <ele>200</ele>
        <time>2021-01-02T12:55:18.000Z</time>
      </trkpt>
      <trkpt lat="46.37934" lon="5.00432">
        <ele>200</ele>
        <time>2021-01-02T12:55:19.000Z</time>
      </trkpt>
      <trkpt lat="46.37934" lon="5.00434">
        <ele>200</ele>
        <time>2021-01-02T12:55:20.000Z</time>
      </trkpt>
      <trkpt lat="46.37934" lon="5.00436">
        <ele>200</ele>
        <time>2021-01-02T12:55:21.000Z</time>
      </trkpt>
      <trkpt lat="46.37933" lon="5.00438">
        <ele>200</ele>
        <time>2021-01-02T12:55:22.000Z</time>
      </trkpt>
      <trkpt lat="46.37933" lon="5.0044">
        <ele>200</ele>
        <time>2021-01-02T12:55:23.000Z</time>
      </trkpt>
      <trkpt lat="46.37932" lon="5.00442">
        <ele>200</ele>
        <time>2021-01-02T12:55:24.000Z</time>
      </trkpt>
      <trkpt lat="46.37931" lon="5.00444">
        <ele>201</ele>
        <time>2021-01-02T12:55:25.000Z</time>
      </trkpt>
      <trkpt lat="46.3793" lon="5.00447">
        <ele>201</ele>
        <time>2021-01-02T12:55:26.000Z</time>
      </trkpt>
      <trkpt lat="46.3793" lon="5.0045">
        <ele>201</ele>
        <time>2021-01-02T12:55:27.000Z</time>
      </trkpt>
      <trkpt lat="46.37929" lon="5.00452">
        <ele>201</ele>
        <time>2021-01-02T12:55:28.000Z</time>
      </trkpt>
      <trkpt lat="46.37929" lon="5.00454">
        <ele>201</ele>
        <time>2021-01-02T12:55:29.000Z</time>
      </trkpt>
      <trkpt lat="46.37929" lon="5.00457">
        <ele>201</ele>
        <time>2021-01-02T12:55:30.000Z</time>
      </trkpt>
      <trkpt lat="46.37929" lon="5.0046">
        <ele>201</ele>
        <time>2021-01-02T12:55:31.000Z</time>
      </trkpt>
      <trkpt lat="46.37928" lon="5.00463">
        <ele>201</ele>
        <time>2021-01-02T12:55:32.000Z</time>
      </trkpt>
      <trkpt lat="46.37928" lon="5.00466">
        <ele>202</ele>
        <time>2021-01-02T12:55:33.000Z</time>
      </trkpt>
      <trkpt lat="46.37928" lon="5.00468">
        <ele>202</ele>
        <time>2021-01-02T12:55:34.000Z</time>
      </trkpt>
      <trkpt lat="46.37927" lon="5.00471">
        <ele>202</ele>
        <time>2021-01-02T12:55:35.000Z</time>
      </trkpt>
      <trkpt lat="46.37926" lon="5.00474">
        <ele>202</ele>
        <time>2021-01-02T12:55:36.000Z</time>
      </trkpt>
      <trkpt lat="46.37926" lon="5.00477">
        <ele>202</ele>
        <time>2021-01-02T12:55:37.000Z</time>
      </trkpt>
      <trkpt lat="46.37925" lon="5.0048">
        <ele>202</ele>
        <time>2021-01-02T12:55:38.000Z</time>
      </trkpt>
      <trkpt lat="46.37924" lon="5.00482">
        <ele>202</ele>
        <time>2021-01-02T12:55:39.000Z</time>
      </trkpt>
      <trkpt lat="46.37923" lon="5.00485">
        <ele>202</ele>
        <time>2021-01-02T12:55:40.000Z</time>
      </trkpt>
      <trkpt lat="46.37922" lon="5.00488">
        <ele>202</ele>
        <time>2021-01-02T12:55:41.000Z</time>
      </trkpt>
      <trkpt lat="46.37921" lon="5.0049">
        <ele>202</ele>
        <time>2021-01-02T12:55:42.000Z</time>
      </trkpt>
      <trkpt lat="46.3792" lon="5.00493">
        <ele>202</ele>
        <time>2021-01-02T12:55:43.000Z</time>
      </trkpt>
      <trkpt lat="46.37919" lon="5.00495">
        <ele>202</ele>
        <time>2021-01-02T12:55:44.000Z</time>
      </trkpt>
      <trkpt lat="46.37917" lon="5.00498">
        <ele>202</ele>
        <time>2021-01-02T12:55:45.000Z</time>
      </trkpt>
      <trkpt lat="46.37916" lon="5.005">
        <ele>202</ele>
        <time>2021-01-02T12:55:46.000Z</time>
      </trkpt>
      <trkpt lat="46.37915" lon="5.00502">
        <ele>202</ele>
        <time>2021-01-02T12:55:47.000Z</time>
      </trkpt>
      <trkpt lat="46.37913" lon="5.00505">
        <ele>202</ele>
        <time>2021-01-02T12:55:48.000Z</time>
      </trkpt>
      <trkpt lat="46.37912" lon="5.00507">
        <ele>202</ele>
        <time>2021-01-02T12:55:49.000Z</time>
      </trkpt>
      <trkpt lat="46.37911" lon="5.00509">
        <ele>202</ele>
        <time>2021-01-02T12:55:50.000Z</time>
      </trkpt>
      <trkpt lat="46.37909" lon="5.0051">
        <ele>202</ele>
        <time>2021-01-02T12:55:51.000Z</time>
      </trkpt>
      <trkpt lat="46.37908" lon="5.00513">
        <ele>202</ele>
        <time>2021-01-02T12:55:52.000Z</time>
      </trkpt>
      <trkpt lat="46.37906" lon="5.00515">
        <ele>202</ele>
        <time>2021-01-02T12:55:53.000Z</time>
      </trkpt>
      <trkpt lat="46.37904" lon="5.00516">
        <ele>202</ele>
        <time>2021-01-02T12:55:54.000Z</time>
      </trkpt>
      <trkpt lat="46.37902" lon="5.00517">
        <ele>202</ele>
        <time>2021-01-02T12:55:55.000Z</time>
      </trkpt>
      <trkpt lat="46.37901" lon="5.0052">
        <ele>202</ele>
        <time>2021-01-02T12:55:56.000Z</time>
      </trkpt>
      <trkpt lat="46.37899" lon="5.00521">
        <ele>202</ele>
        <time>2021-01-02T12:55:57.000Z</time>
      </trkpt>
      <trkpt lat="46.37897" lon="5.00522">
        <ele>202</ele>
        <time>2021-01-02T12:55:58.000Z</time>
      </trkpt>
      <trkpt lat="46.37895" lon="5.00523">
        <ele>202</ele>
        <time>2021-01-02T12:55:59.000Z</time>
      </trkpt>
      <trkpt lat="46.37893" lon="5.00524">
        <ele>202</ele>
        <time>2021-01-02T12:56:00.000Z</time>
      </trkpt>
      <trkpt lat="46.37891" lon="5.00526">
        <ele>202</ele>
        <time>2021-01-02T12:56:01.000Z</time>
      </trkpt>
      <trkpt lat="46.37889" lon="5.00527">
        <ele>202</ele>
        <time>2021-01-02T12:56:02.000Z</time>
      </trkpt>
      <trkpt lat="46.37887" lon="5.00528">
        <ele>202</ele>
        <time>2021-01-02T12:56:03.000Z</time>
      </trkpt>
      <trkpt lat="46.37886" lon="5.00529">
        <ele>202</ele>
        <time>2021-01-02T12:56:04.000Z</time>
      </trkpt>
      <trkpt lat="46.37884" lon="5.0053">
        <ele>202</ele>
        <time>2021-01-02T12:56:05.000Z</time>
      </trkpt>
      <trkpt lat="46.37882" lon="5.00532">
        <ele>202</ele>
        <time>2021-01-02T12:56:06.000Z</time>
      </trkpt>
      <trkpt lat="46.3788" lon="5.00534">
        <ele>202</ele>
        <time>2021-01-02T12:56:07.000Z</time>
      </trkpt>
      <trkpt lat="46.37878" lon="5.00535">
        <ele>203</ele>
        <time>2021-01-02T12:56:08.000Z</time>
      </trkpt>
      <trkpt lat="46.37876" lon="5.00537">
        <ele>203</ele>
        <time>2021-01-02T12:56:09.000Z</time>
      </trkpt>
      <trkpt lat="46.37874" lon="5.00539">
        <ele>203</ele>
        <time>2021-01-02T12:56:10.000Z</time>
      </trkpt>
      <trkpt lat="46.37872" lon="5.0054">
        <ele>203</ele>
        <time>2021-01-02T12:56:11.000Z</time>
      </trkpt>
      <trkpt lat="46.3787" lon="5.00541">
        <ele>203</ele>
        <time>2021-01-02T12:56:12.000Z</time>
      </trkpt>
      <trkpt lat="46.37869" lon="5.00543">
        <ele>203</ele>
        <time>2021-01-02T12:56:13.000Z</time>
      </trkpt>
      <trkpt lat="46.37867" lon="5.00544">
        <ele>203</ele>
        <time>2021-01-02T12:56:14.000Z</time>
      </trkpt>
      <trkpt lat="46.37865" lon="5.00545">
        <ele>203</ele>
        <time>2021-01-02T12:56:15.000Z</time>
      </trkpt>
      <trkpt lat="46.37863" lon="5.00546">
        <ele>203</ele>
        <time>2021-01-02T12:56:16.000Z</time>
      </trkpt>
      <trkpt lat="46.37861" lon="5.00546">
        <ele>203</ele>
        <time>2021-01-02T12:56:17.000Z</time>
      </trkpt>
      <trkpt lat="46.37859" lon="5.00547">
        <ele>204</ele>
        <time>2021-01-02T12:56:18.000Z</time>
      </trkpt>
      <trkpt lat="46.37857" lon="5.00549">
        <ele>204</ele>
        <time>2021-01-02T12:56:19.000Z</time>
      </trkpt>
      <trkpt lat="46.37855" lon="5.0055">
        <ele>204</ele>
        <time>2021-01-02T12:56:20.000Z</time>
      </trkpt>
      <trkpt lat="46.37853" lon="5.00551">
        <ele>204</ele>
        <time>2021-01-02T12:56:21.000Z</time>
      </trkpt>
      <trkpt lat="46.37851" lon="5.00552">
        <ele>204</ele>
        <time>2021-01-02T12:56:22.000Z</time>
      </trkpt>
      <trkpt lat="46.37849" lon="5.00554">
        <ele>204</ele>
        <time>2021-01-02T12:56:23.000Z</time>
      </trkpt>
      <trkpt lat="46.37847" lon="5.00555">
        <ele>204</ele>
        <time>2021-01-02T12:56:24.000Z</time>
      </trkpt>
      <trkpt lat="46.37845" lon="5.00557">
        <ele>205</ele>
        <time>2021-01-02T12:56:25.000Z</time>
      </trkpt>
      <trkpt lat="46.37844" lon="5.00558">
        <ele>205</ele>
        <time>2021-01-02T12:56:26.000Z</time>
      </trkpt>
      <trkpt lat="46.37842" lon="5.00559">
        <ele>205</ele>
        <time>2021-01-02T12:56:27.000Z</time>
      </trkpt>
      <trkpt lat="46.3784" lon="5.00561">
        <ele>205</ele>
        <time>2021-01-02T12:56:28.000Z</time>
      </trkpt>
      <trkpt lat="46.37838" lon="5.00562">
        <ele>205</ele>
        <time>2021-01-02T12:56:29.000Z</time>
      </trkpt>
      <trkpt lat="46.37835" lon="5.00563">
        <ele>205</ele>
        <time>2021-01-02T12:56:30.000Z</time>
      </trkpt>
      <trkpt lat="46.37833" lon="5.00565">
        <ele>205</ele>
        <time>2021-01-02T12:56:31.000Z</time>
      </trkpt>
      <trkpt lat="46.37832" lon="5.00566">
        <ele>205</ele>
        <time>2021-01-02T12:56:32.000Z</time>
      </trkpt>
      <trkpt lat="46.3783" lon="5.00568">
        <ele>205</ele>
        <time>2021-01-02T12:56:33.000Z</time>
      </trkpt>
      <trkpt lat="46.37828" lon="5.00569">
        <ele>205</ele>
        <time>2021-01-02T12:56:34.000Z</time>
      </trkpt>
      <trkpt lat="46.37826" lon="5.00571">
        <ele>206</ele>
        <time>2021-01-02T12:56:35.000Z</time>
      </trkpt>
      <trkpt lat="46.37824" lon="5.00572">
        <ele>206</ele>
        <time>2021-01-02T12:56:36.000Z</time>
      </trkpt>
      <trkpt lat="46.37822" lon="5.00574">
        <ele>206</ele>
        <time>2021-01-02T12:56:37.000Z</time>
      </trkpt>
      <trkpt lat="46.3782" lon="5.00575">
        <ele>206</ele>
        <time>2021-01-02T12:56:38.000Z</time>
      </trkpt>
      <trkpt lat="46.37818" lon="5.00577">
        <ele>206</ele>
        <time>2021-01-02T12:56:39.000Z</time>
      </trkpt>
      <trkpt lat="46.37816" lon="5.00578">
        <ele>206</ele>
        <time>2021-01-02T12:56:40.000Z</time>
      </trkpt>
      <trkpt lat="46.37814" lon="5.0058">
        <ele>206</ele>
        <time>2021-01-02T12:56:41.000Z</time>
      </trkpt>
      <trkpt lat="46.37811" lon="5.00581">
        <ele>206</ele>
        <time>2021-01-02T12:56:42.000Z</time>
      </trkpt>
      <trkpt lat="46.3781" lon="5.00583">
        <ele>206</ele>
        <time>2021-01-02T12:56:43.000Z</time>
      </trkpt>
      <trkpt lat="46.37808" lon="5.00584">
        <ele>206</ele>
        <time>2021-01-02T12:56:44.000Z</time>
      </trkpt>
      <trkpt lat="46.37806" lon="5.00586">
        <ele>206</ele>
        <time>2021-01-02T12:56:45.000Z</time>
      </trkpt>
      <trkpt lat="46.37804" lon="5.00587">
        <ele>206</ele>
        <time>2021-01-02T12:56:46.000Z</time>
      </trkpt>
      <trkpt lat="46.37802" lon="5.00588">
        <ele>206</ele>
        <time>2021-01-02T12:56:47.000Z</time>
      </trkpt>
      <trkpt lat="46.378" lon="5.00589">
        <ele>206</ele>
        <time>2021-01-02T12:56:48.000Z</time>
      </trkpt>
      <trkpt lat="46.37798" lon="5.00591">
        <ele>206</ele>
        <time>2021-01-02T12:56:49.000Z</time>
      </trkpt>
      <trkpt lat="46.37796" lon="5.00592">
        <ele>206</ele>
        <time>2021-01-02T12:56:50.000Z</time>
      </trkpt>
      <trkpt lat="46.37794" lon="5.00594">
        <ele>206</ele>
        <time>2021-01-02T12:56:51.000Z</time>
      </trkpt>
      <trkpt lat="46.37792" lon="5.00596">
        <ele>206</ele>
        <time>2021-01-02T12:56:52.000Z</time>
      </trkpt>
      <trkpt lat="46.3779" lon="5.00597">
        <ele>206</ele>
        <time>2021-01-02T12:56:53.000Z</time>
      </trkpt>
      <trkpt lat="46.37788" lon="5.00598">
        <ele>206</ele>
        <time>2021-01-02T12:56:54.000Z</time>
      </trkpt>
      <trkpt lat="46.37787" lon="5.00599">
        <ele>206</ele>
        <time>2021-01-02T12:56:55.000Z</time>
      </trkpt>
      <trkpt lat="46.37785" lon="5.00601">
        <ele>206</ele>
        <time>2021-01-02T12:56:56.000Z</time>
      </trkpt>
      <trkpt lat="46.37783" lon="5.00602">
        <ele>206</ele>
        <time>2021-01-02T12:56:57.000Z</time>
      </trkpt>
      <trkpt lat="46.37781" lon="5.00603">
        <ele>207</ele>
        <time>2021-01-02T12:56:58.000Z</time>
      </trkpt>
      <trkpt lat="46.3778" lon="5.00605">
        <ele>207</ele>
        <time>2021-01-02T12:56:59.000Z</time>
      </trkpt>
      <trkpt lat="46.37778" lon="5.00607">
        <ele>207</ele>
        <time>2021-01-02T12:57:00.000Z</time>
      </trkpt>
      <trkpt lat="46.37776" lon="5.00608">
        <ele>206</ele>
        <time>2021-01-02T12:57:01.000Z</time>
      </trkpt>
      <trkpt lat="46.37775" lon="5.0061">
        <ele>206</ele>
        <time>2021-01-02T12:57:02.000Z</time>
      </trkpt>
      <trkpt lat="46.37773" lon="5.00611">
        <ele>206</ele>
        <time>2021-01-02T12:57:03.000Z</time>
      </trkpt>
      <trkpt lat="46.37772" lon="5.00613">
        <ele>206</ele>
        <time>2021-01-02T12:57:04.000Z</time>
      </trkpt>
      <trkpt lat="46.3777" lon="5.00614">
        <ele>206</ele>
        <time>2021-01-02T12:57:05.000Z</time>
      </trkpt>
      <trkpt lat="46.37769" lon="5.00615">
        <ele>206</ele>
        <time>2021-01-02T12:57:06.000Z</time>
      </trkpt>
      <trkpt lat="46.37768" lon="5.00616">
        <ele>206</ele>
        <time>2021-01-02T12:57:07.000Z</time>
      </trkpt>
      <trkpt lat="46.37767" lon="5.00618">
        <ele>206</ele>
        <time>2021-01-02T12:57:08.000Z</time>
      </trkpt>
      <trkpt lat="46.37766" lon="5.00619">
        <ele>206</ele>
        <time>2021-01-02T12:57:09.000Z</time>
      </trkpt>
      <trkpt lat="46.37765" lon="5.0062">
        <ele>206</ele>
        <time>2021-01-02T12:57:10.000Z</time>
      </trkpt>
      <trkpt lat="46.37764" lon="5.00621">
        <ele>206</ele>
        <time>2021-01-02T12:57:11.000Z</time>
      </trkpt>
      <trkpt lat="46.37763" lon="5.00622">
        <ele>206</ele>
        <time>2021-01-02T12:57:12.000Z</time>
      </trkpt>
      <trkpt lat="46.37762" lon="5.00624">
        <ele>206</ele>
        <time>2021-01-02T12:57:13.000Z</time>
      </trkpt>
      <trkpt lat="46.37761" lon="5.00625">
        <ele>206</ele>
        <time>2021-01-02T12:57:14.000Z</time>
      </trkpt>
      <trkpt lat="46.37761" lon="5.00627">
        <ele>206</ele>
        <time>2021-01-02T12:57:15.000Z</time>
      </trkpt>
      <trkpt lat="46.3776" lon="5.00628">
        <ele>206</ele>
        <time>2021-01-02T12:57:16.000Z</time>
      </trkpt>
      <trkpt lat="46.37758" lon="5.0063">
        <ele>206</ele>
        <time>2021-01-02T12:57:17.000Z</time>
      </trkpt>
      <trkpt lat="46.37757" lon="5.00631">
        <ele>206</ele>
        <time>2021-01-02T12:57:18.000Z</time>
      </trkpt>
      <trkpt lat="46.37755" lon="5.00633">
        <ele>206</ele>
        <time>2021-01-02T12:57:19.000Z</time>
      </trkpt>
      <trkpt lat="46.37754" lon="5.00635">
        <ele>206</ele>
        <time>2021-01-02T12:57:20.000Z</time>
      </trkpt>
      <trkpt lat="46.37753" lon="5.00637">
        <ele>206</ele>
        <time>2021-01-02T12:57:21.000Z</time>
      </trkpt>
      <trkpt lat="46.37751" lon="5.00639">
        <ele>206</ele>
        <time>2021-01-02T12:57:22.000Z</time>
      </trkpt>
      <trkpt lat="46.3775" lon="5.0064">
        <ele>206</ele>
        <time>2021-01-02T12:57:23.000Z</time>
      </trkpt>
      <trkpt lat="46.37748" lon="5.00642">
        <ele>206</ele>
        <time>2021-01-02T12:57:24.000Z</time>
      </trkpt>
      <trkpt lat="46.37747" lon="5.00645">
        <ele>206</ele>
        <time>2021-01-02T12:57:25.000Z</time>
      </trkpt>
      <trkpt lat="46.37746" lon="5.00647">
        <ele>206</ele>
        <time>2021-01-02T12:57:26.000Z</time>
      </trkpt>
      <trkpt lat="46.37744" lon="5.00648">
        <ele>206</ele>
        <time>2021-01-02T12:57:27.000Z</time>
      </trkpt>
      <trkpt lat="46.37743" lon="5.0065">
        <ele>206</ele>
        <time>2021-01-02T12:57:28.000Z</time>
      </trkpt>
      <trkpt lat="46.37741" lon="5.00653">
        <ele>206</ele>
        <time>2021-01-02T12:57:29.000Z</time>
      </trkpt>
      <trkpt lat="46.3774" lon="5.00655">
        <ele>206</ele>
        <time>2021-01-02T12:57:30.000Z</time>
      </trkpt>
      <trkpt lat="46.37738" lon="5.00657">
        <ele>206</ele>
        <time>2021-01-02T12:57:31.000Z</time>
      </trkpt>
      <trkpt lat="46.37737" lon="5.00659">
        <ele>206</ele>
        <time>2021-01-02T12:57:32.000Z</time>
      </trkpt>
      <trkpt lat="46.37735" lon="5.00661">
        <ele>206</ele>
        <time>2021-01-02T12:57:33.000Z</time>
      </trkpt>
      <trkpt lat="46.37733" lon="5.00663">
        <ele>206</ele>
        <time>2021-01-02T12:57:34.000Z</time>
      </trkpt>
      <trkpt lat="46.37732" lon="5.00664">
        <ele>207</ele>
        <time>2021-01-02T12:57:35.000Z</time>
      </trkpt>
      <trkpt lat="46.3773" lon="5.00666">
        <ele>207</ele>
        <time>2021-01-02T12:57:36.000Z</time>
      </trkpt>
      <trkpt lat="46.37729" lon="5.00669">
        <ele>207</ele>
        <time>2021-01-02T12:57:37.000Z</time>
      </trkpt>
      <trkpt lat="46.37727" lon="5.00671">
        <ele>207</ele>
        <time>2021-01-02T12:57:38.000Z</time>
      </trkpt>
      <trkpt lat="46.37726" lon="5.00673">
        <ele>207</ele>
        <time>2021-01-02T12:57:39.000Z</time>
      </trkpt>
      <trkpt lat="46.37724" lon="5.00675">
        <ele>207</ele>
        <time>2021-01-02T12:57:40.000Z</time>
      </trkpt>
      <trkpt lat="46.37723" lon="5.00677">
        <ele>207</ele>
        <time>2021-01-02T12:57:41.000Z</time>
      </trkpt>
      <trkpt lat="46.37721" lon="5.00679">
        <ele>207</ele>
        <time>2021-01-02T12:57:42.000Z</time>
      </trkpt>
      <trkpt lat="46.3772" lon="5.00681">
        <ele>207</ele>
        <time>2021-01-02T12:57:43.000Z</time>
      </trkpt>
      <trkpt lat="46.37718" lon="5.00683">
        <ele>207</ele>
        <time>2021-01-02T12:57:44.000Z</time>
      </trkpt>
      <trkpt lat="46.37716" lon="5.00686">
        <ele>208</ele>
        <time>2021-01-02T12:57:45.000Z</time>
      </trkpt>
      <trkpt lat="46.37715" lon="5.00688">
        <ele>208</ele>
        <time>2021-01-02T12:57:46.000Z</time>
      </trkpt>
      <trkpt lat="46.37713" lon="5.00691">
        <ele>208</ele>
        <time>2021-01-02T12:57:47.000Z</time>
      </trkpt>
      <trkpt lat="46.37711" lon="5.00693">
        <ele>208</ele>
        <time>2021-01-02T12:57:48.000Z</time>
      </trkpt>
      <trkpt lat="46.3771" lon="5.00695">
        <ele>208</ele>
        <time>2021-01-02T12:57:49.000Z</time>
      </trkpt>
      <trkpt lat="46.37708" lon="5.00697">
        <ele>208</ele>
        <time>2021-01-02T12:57:50.000Z</time>
      </trkpt>
      <trkpt lat="46.37707" lon="5.00699">
        <ele>208</ele>
        <time>2021-01-02T12:57:51.000Z</time>
      </trkpt>
      <trkpt lat="46.37705" lon="5.00702">
        <ele>208</ele>
        <time>2021-01-02T12:57:52.000Z</time>
      </trkpt>
      <trkpt lat="46.37704" lon="5.00704">
        <ele>208</ele>
        <time>2021-01-02T12:57:53.000Z</time>
      </trkpt>
      <trkpt lat="46.37702" lon="5.00706">
        <ele>209</ele>
        <time>2021-01-02T12:57:54.000Z</time>
      </trkpt>
      <trkpt lat="46.37701" lon="5.00708">
        <ele>209</ele>
        <time>2021-01-02T12:57:55.000Z</time>
      </trkpt>
      <trkpt lat="46.377" lon="5.0071">
        <ele>209</ele>
        <time>2021-01-02T12:57:56.000Z</time>
      </trkpt>
      <trkpt lat="46.37699" lon="5.00713">
        <ele>209</ele>
        <time>2021-01-02T12:57:57.000Z</time>
      </trkpt>
      <trkpt lat="46.37697" lon="5.00715">
        <ele>209</ele>
        <time>2021-01-02T12:57:58.000Z</time>
      </trkpt>
      <trkpt lat="46.37696" lon="5.00717">
        <ele>209</ele>
        <time>2021-01-02T12:57:59.000Z</time>
      </trkpt>
      <trkpt lat="46.37694" lon="5.00719">
        <ele>209</ele>
        <time>2021-01-02T12:58:00.000Z</time>
      </trkpt>
      <trkpt lat="46.37692" lon="5.00722">
        <ele>209</ele>
        <time>2021-01-02T12:58:01.000Z</time>
      </trkpt>
      <trkpt lat="46.37691" lon="5.00724">
        <ele>209</ele>
        <time>2021-01-02T12:58:02.000Z</time>
      </trkpt>
      <trkpt lat="46.37689" lon="5.00726">
        <ele>209</ele>
        <time>2021-01-02T12:58:03.000Z</time>
      </trkpt>
      <trkpt lat="46.37688" lon="5.00728">
        <ele>209</ele>
        <time>2021-01-02T12:58:04.000Z</time>
      </trkpt>
      <trkpt lat="46.37686" lon="5.00731">
        <ele>210</ele>
        <time>2021-01-02T12:58:05.000Z</time>
      </trkpt>
      <trkpt lat="46.37685" lon="5.00733">
        <ele>210</ele>
        <time>2021-01-02T12:58:06.000Z</time>
      </trkpt>
      <trkpt lat="46.37683" lon="5.00735">
        <ele>210</ele>
        <time>2021-01-02T12:58:07.000Z</time>
      </trkpt>
      <trkpt lat="46.37681" lon="5.00738">
        <ele>210</ele>
        <time>2021-01-02T12:58:08.000Z</time>
      </trkpt>
      <trkpt lat="46.37679" lon="5.0074">
        <ele>210</ele>
        <time>2021-01-02T12:58:09.000Z</time>
      </trkpt>
      <trkpt lat="46.37678" lon="5.00742">
        <ele>210</ele>
        <time>2021-01-02T12:58:10.000Z</time>
      </trkpt>
      <trkpt lat="46.37676" lon="5.00745">
        <ele>210</ele>
        <time>2021-01-02T12:58:11.000Z</time>
      </trkpt>
      <trkpt lat="46.37674" lon="5.00747">
        <ele>209</ele>
        <time>2021-01-02T12:58:12.000Z</time>
      </trkpt>
      <trkpt lat="46.37673" lon="5.00749">
        <ele>209</ele>
        <time>2021-01-02T12:58:13.000Z</time>
      </trkpt>
      <trkpt lat="46.37671" lon="5.00751">
        <ele>209</ele>
        <time>2021-01-02T12:58:14.000Z</time>
      </trkpt>
      <trkpt lat="46.37669" lon="5.00753">
        <ele>209</ele>
        <time>2021-01-02T12:58:15.000Z</time>
      </trkpt>
      <trkpt lat="46.37667" lon="5.00755">
        <ele>209</ele>
        <time>2021-01-02T12:58:16.000Z</time>
      </trkpt>
      <trkpt lat="46.37665" lon="5.00757">
        <ele>209</ele>
        <time>2021-01-02T12:58:17.000Z</time>
      </trkpt>
      <trkpt lat="46.37663" lon="5.00759">
        <ele>209</ele>
        <time>2021-01-02T12:58:18.000Z</time>
      </trkpt>
      <trkpt lat="46.3766" lon="5.0076">
        <ele>209</ele>
        <time>2021-01-02T12:58:19.000Z</time>
      </trkpt>
      <trkpt lat="46.37658" lon="5.00761">
        <ele>209</ele>
        <time>2021-01-02T12:58:20.000Z</time>
      </trkpt>
      <trkpt lat="46.37656" lon="5.00762">
        <ele>209</ele>
        <time>2021-01-02T12:58:21.000Z</time>
      </trkpt>
      <trkpt lat="46.37653" lon="5.00763">
        <ele>209</ele>
        <time>2021-01-02T12:58:22.000Z</time>
      </trkpt>
      <trkpt lat="46.37651" lon="5.00764">
        <ele>209</ele>
        <time>2021-01-02T12:58:23.000Z</time>
      </trkpt>
      <trkpt lat="46.37648" lon="5.00764">
        <ele>209</ele>
        <time>2021-01-02T12:58:24.000Z</time>
      </trkpt>
      <trkpt lat="46.37646" lon="5.00764">
        <ele>209</ele>
        <time>2021-01-02T12:58:25.000Z</time>
      </trkpt>
      <trkpt lat="46.37644" lon="5.00764">
        <ele>209</ele>
        <time>2021-01-02T12:58:26.000Z</time>
      </trkpt>
      <trkpt lat="46.37641" lon="5.00764">
        <ele>209</ele>
        <time>2021-01-02T12:58:27.000Z</time>
      </trkpt>
      <trkpt lat="46.37639" lon="5.00764">
        <ele>209</ele>
        <time>2021-01-02T12:58:28.000Z</time>
      </trkpt>
      <trkpt lat="46.37637" lon="5.00764">
        <ele>209</ele>
        <time>2021-01-02T12:58:29.000Z</time>
      </trkpt>
      <trkpt lat="46.37635" lon="5.00763">
        <ele>209</ele>
        <time>2021-01-02T12:58:30.000Z</time>
      </trkpt>
      <trkpt lat="46.37632" lon="5.00763">
        <ele>209</ele>
        <time>2021-01-02T12:58:31.000Z</time>
      </trkpt>
      <trkpt lat="46.3763" lon="5.00763">
        <ele>209</ele>
        <time>2021-01-02T12:58:32.000Z</time>
      </trkpt>
      <trkpt lat="46.37628" lon="5.00762">
        <ele>209</ele>
        <time>2021-01-02T12:58:33.000Z</time>
      </trkpt>
      <trkpt lat="46.37626" lon="5.00761">
        <ele>209</ele>
        <time>2021-01-02T12:58:34.000Z</time>
      </trkpt>
      <trkpt lat="46.37624" lon="5.0076">
        <ele>209</ele>
        <time>2021-01-02T12:58:35.000Z</time>
      </trkpt>
      <trkpt lat="46.37621" lon="5.0076">
        <ele>209</ele>
        <time>2021-01-02T12:58:36.000Z</time>
      </trkpt>
      <trkpt lat="46.37619" lon="5.00759">
        <ele>209</ele>
        <time>2021-01-02T12:58:37.000Z</time>
      </trkpt>
      <trkpt lat="46.37617" lon="5.00758">
        <ele>209</ele>
        <time>2021-01-02T12:58:38.000Z</time>
      </trkpt>
      <trkpt lat="46.37615" lon="5.00758">
        <ele>209</ele>
        <time>2021-01-02T12:58:39.000Z</time>
      </trkpt>
      <trkpt lat="46.37612" lon="5.00757">
        <ele>209</ele>
        <time>2021-01-02T12:58:40.000Z</time>
      </trkpt>
      <trkpt lat="46.3761" lon="5.00756">
        <ele>209</ele>
        <time>2021-01-02T12:58:41.000Z</time>
      </trkpt>
      <trkpt lat="46.37608" lon="5.00756">
        <ele>209</ele>
        <time>2021-01-02T12:58:42.000Z</time>
      </trkpt>
      <trkpt lat="46.37606" lon="5.00756">
        <ele>209</ele>
        <time>2021-01-02T12:58:43.000Z</time>
      </trkpt>
      <trkpt lat="46.37603" lon="5.00755">
        <ele>209</ele>
        <time>2021-01-02T12:58:44.000Z</time>
      </trkpt>
      <trkpt lat="46.37601" lon="5.00754">
        <ele>209</ele>
        <time>2021-01-02T12:58:45.000Z</time>
      </trkpt>
      <trkpt lat="46.37599" lon="5.00754">
        <ele>209</ele>
        <time>2021-01-02T12:58:46.000Z</time>
      </trkpt>
      <trkpt lat="46.37597" lon="5.00753">
        <ele>209</ele>
        <time>2021-01-02T12:58:47.000Z</time>
      </trkpt>
      <trkpt lat="46.37595" lon="5.00752">
        <ele>209</ele>
        <time>2021-01-02T12:58:48.000Z</time>
      </trkpt>
      <trkpt lat="46.37592" lon="5.00751">
        <ele>209</ele>
        <time>2021-01-02T12:58:49.000Z</time>
      </trkpt>
      <trkpt lat="46.3759" lon="5.0075">
        <ele>209</ele>
        <time>2021-01-02T12:58:50.000Z</time>
      </trkpt>
      <trkpt lat="46.37588" lon="5.0075">
        <ele>209</ele>
        <time>2021-01-02T12:58:51.000Z</time>
      </trkpt>
      <trkpt lat="46.37586" lon="5.00749">
        <ele>209</ele>
        <time>2021-01-02T12:58:52.000Z</time>
      </trkpt>
      <trkpt lat="46.37583" lon="5.00748">
        <ele>209</ele>
        <time>2021-01-02T12:58:53.000Z</time>
      </trkpt>
      <trkpt lat="46.37581" lon="5.00747">
        <ele>209</ele>
        <time>2021-01-02T12:58:54.000Z</time>
      </trkpt>
      <trkpt lat="46.37579" lon="5.00746">
        <ele>209</ele>
        <time>2021-01-02T12:58:55.000Z</time>
      </trkpt>
      <trkpt lat="46.37576" lon="5.00746">
        <ele>209</ele>
        <time>2021-01-02T12:58:56.000Z</time>
      </trkpt>
      <trkpt lat="46.37574" lon="5.00745">
        <ele>209</ele>
        <time>2021-01-02T12:58:57.000Z</time>
      </trkpt>
      <trkpt lat="46.37572" lon="5.00744">
        <ele>209</ele>
        <time>2021-01-02T12:58:58.000Z</time>
      </trkpt>
      <trkpt lat="46.37569" lon="5.00744">
        <ele>209</ele>
        <time>2021-01-02T12:58:59.000Z</time>
      </trkpt>
      <trkpt lat="46.37567" lon="5.00743">
        <ele>209</ele>
        <time>2021-01-02T12:59:00.000Z</time>
      </trkpt>
      <trkpt lat="46.37565" lon="5.00742">
        <ele>209</ele>
        <time>2021-01-02T12:59:01.000Z</time>
      </trkpt>
      <trkpt lat="46.37562" lon="5.00741">
        <ele>209</ele>
        <time>2021-01-02T12:59:02.000Z</time>
      </trkpt>
      <trkpt lat="46.3756" lon="5.00741">
        <ele>209</ele>
        <time>2021-01-02T12:59:03.000Z</time>
      </trkpt>
      <trkpt lat="46.37557" lon="5.0074">
        <ele>209</ele>
        <time>2021-01-02T12:59:04.000Z</time>
      </trkpt>
      <trkpt lat="46.37555" lon="5.00739">
        <ele>209</ele>
        <time>2021-01-02T12:59:05.000Z</time>
      </trkpt>
      <trkpt lat="46.37553" lon="5.00738">
        <ele>209</ele>
        <time>2021-01-02T12:59:06.000Z</time>
      </trkpt>
      <trkpt lat="46.37551" lon="5.00737">
        <ele>209</ele>
        <time>2021-01-02T12:59:07.000Z</time>
      </trkpt>
      <trkpt lat="46.37548" lon="5.00737">
        <ele>209</ele>
        <time>2021-01-02T12:59:08.000Z</time>
      </trkpt>
      <trkpt lat="46.37546" lon="5.00736">
        <ele>209</ele>
        <time>2021-01-02T12:59:09.000Z</time>
      </trkpt>
      <trkpt lat="46.37544" lon="5.00735">
        <ele>209</ele>
        <time>2021-01-02T12:59:10.000Z</time>
      </trkpt>
      <trkpt lat="46.37542" lon="5.00734">
        <ele>209</ele>
        <time>2021-01-02T12:59:11.000Z</time>
      </trkpt>
      <trkpt lat="46.3754" lon="5.00733">
        <ele>208</ele>
        <time>2021-01-02T12:59:12.000Z</time>
      </trkpt>
      <trkpt lat="46.37538" lon="5.00732">
        <ele>208</ele>
        <time>2021-01-02T12:59:13.000Z</time>
      </trkpt>
      <trkpt lat="46.37535" lon="5.00731">
        <ele>208</ele>
        <time>2021-01-02T12:59:14.000Z</time>
      </trkpt>
      <trkpt lat="46.37533" lon="5.00731">
        <ele>208</ele>
        <time>2021-01-02T12:59:15.000Z</time>
      </trkpt>
      <trkpt lat="46.37531" lon="5.0073">
        <ele>208</ele>
        <time>2021-01-02T12:59:16.000Z</time>
      </trkpt>
      <trkpt lat="46.37528" lon="5.0073">
        <ele>208</ele>
        <time>2021-01-02T12:59:17.000Z</time>
      </trkpt>
      <trkpt lat="46.37526" lon="5.00729">
        <ele>208</ele>
        <time>2021-01-02T12:59:18.000Z</time>
      </trkpt>
      <trkpt lat="46.37524" lon="5.00729">
        <ele>208</ele>
        <time>2021-01-02T12:59:19.000Z</time>
      </trkpt>
      <trkpt lat="46.37522" lon="5.00728">
        <ele>208</ele>
        <time>2021-01-02T12:59:20.000Z</time>
      </trkpt>
      <trkpt lat="46.3752" lon="5.00727">
        <ele>208</ele>
        <time>2021-01-02T12:59:21.000Z</time>
      </trkpt>
      <trkpt lat="46.37518" lon="5.00726">
        <ele>208</ele>
        <time>2021-01-02T12:59:22.000Z</time>
      </trkpt>
      <trkpt lat="46.37517" lon="5.00725">
        <ele>207</ele>
        <time>2021-01-02T12:59:23.000Z</time>
      </trkpt>
      <trkpt lat="46.37515" lon="5.00724">
        <ele>207</ele>
        <time>2021-01-02T12:59:24.000Z</time>
      </trkpt>
      <trkpt lat="46.37513" lon="5.00723">
        <ele>207</ele>
        <time>2021-01-02T12:59:25.000Z</time>
      </trkpt>
      <trkpt lat="46.37511" lon="5.00723">
        <ele>207</ele>
        <time>2021-01-02T12:59:26.000Z</time>
      </trkpt>
      <trkpt lat="46.37509" lon="5.00724">
        <ele>207</ele>
        <time>2021-01-02T12:59:27.000Z</time>
      </trkpt>
      <trkpt lat="46.37507" lon="5.00725">
        <ele>207</ele>
        <time>2021-01-02T12:59:28.000Z</time>
      </trkpt>
      <trkpt lat="46.37506" lon="5.00728">
        <ele>207</ele>
        <time>2021-01-02T12:59:29.000Z</time>
      </trkpt>
      <trkpt lat="46.37506" lon="5.00731">
        <ele>207</ele>
        <time>2021-01-02T12:59:30.000Z</time>
      </trkpt>
      <trkpt lat="46.37506" lon="5.00735">
        <ele>207</ele>
        <time>2021-01-02T12:59:31.000Z</time>
      </trkpt>
      <trkpt lat="46.37506" lon="5.00739">
        <ele>207</ele>
        <time>2021-01-02T12:59:32.000Z</time>
      </trkpt>
      <trkpt lat="46.37506" lon="5.00743">
        <ele>207</ele>
        <time>2021-01-02T12:59:33.000Z</time>
      </trkpt>
      <trkpt lat="46.37506" lon="5.00747">
        <ele>207</ele>
        <time>2021-01-02T12:59:34.000Z</time>
      </trkpt>
      <trkpt lat="46.37506" lon="5.00751">
        <ele>208</ele>
        <time>2021-01-02T12:59:35.000Z</time>
      </trkpt>
      <trkpt lat="46.37507" lon="5.00755">
        <ele>208</ele>
        <time>2021-01-02T12:59:36.000Z</time>
      </trkpt>
      <trkpt lat="46.37507" lon="5.00758">
        <ele>208</ele>
        <time>2021-01-02T12:59:37.000Z</time>
      </trkpt>
      <trkpt lat="46.37508" lon="5.00762">
        <ele>208</ele>
        <time>2021-01-02T12:59:38.000Z</time>
      </trkpt>
      <trkpt lat="46.37508" lon="5.00766">
        <ele>208</ele>
        <time>2021-01-02T12:59:39.000Z</time>
      </trkpt>
      <trkpt lat="46.37508" lon="5.00771">
        <ele>208</ele>
        <time>2021-01-02T12:59:40.000Z</time>
      </trkpt>
      <trkpt lat="46.37508" lon="5.00776">
        <ele>208</ele>
        <time>2021-01-02T12:59:41.000Z</time>
      </trkpt>
      <trkpt lat="46.37508" lon="5.00782">
        <ele>208</ele>
        <time>2021-01-02T12:59:42.000Z</time>
      </trkpt>
      <trkpt lat="46.37508" lon="5.00789">
        <ele>208</ele>
        <time>2021-01-02T12:59:43.000Z</time>
      </trkpt>
      <trkpt lat="46.37508" lon="5.00796">
        <ele>208</ele>
        <time>2021-01-02T12:59:44.000Z</time>
      </trkpt>
      <trkpt lat="46.37508" lon="5.00805">
        <ele>208</ele>
        <time>2021-01-02T12:59:45.000Z</time>
      </trkpt>
      <trkpt lat="46.37508" lon="5.00813">
        <ele>208</ele>
        <time>2021-01-02T12:59:46.000Z</time>
      </trkpt>
      <trkpt lat="46.37507" lon="5.0082">
        <ele>209</ele>
        <time>2021-01-02T12:59:47.000Z</time>
      </trkpt>
      <trkpt lat="46.37507" lon="5.00827">
        <ele>209</ele>
        <time>2021-01-02T12:59:48.000Z</time>
      </trkpt>
      <trkpt lat="46.37506" lon="5.00835">
        <ele>209</ele>
        <time>2021-01-02T12:59:49.000Z</time>
      </trkpt>
      <trkpt lat="46.37506" lon="5.00841">
        <ele>209</ele>
        <time>2021-01-02T12:59:50.000Z</time>
      </trkpt>
      <trkpt lat="46.37505" lon="5.00848">
        <ele>209</ele>
        <time>2021-01-02T12:59:51.000Z</time>
      </trkpt>
      <trkpt lat="46.37505" lon="5.00854">
        <ele>209</ele>
        <time>2021-01-02T12:59:52.000Z</time>
      </trkpt>
      <trkpt lat="46.37504" lon="5.00859">
        <ele>209</ele>
        <time>2021-01-02T12:59:53.000Z</time>
      </trkpt>
      <trkpt lat="46.37504" lon="5.00864">
        <ele>209</ele>
        <time>2021-01-02T12:59:54.000Z</time>
      </trkpt>
      <trkpt lat="46.37503" lon="5.00869">
        <ele>209</ele>
        <time>2021-01-02T12:59:55.000Z</time>
      </trkpt>
      <trkpt lat="46.37503" lon="5.00873">
        <ele>209</ele>
        <time>2021-01-02T12:59:56.000Z</time>
      </trkpt>
      <trkpt lat="46.37503" lon="5.00878">
        <ele>209</ele>
        <time>2021-01-02T12:59:57.000Z</time>
      </trkpt>
      <trkpt lat="46.37502" lon="5.00882">
        <ele>209</ele>
        <time>2021-01-02T12:59:58.000Z</time>
      </trkpt>
      <trkpt lat="46.37502" lon="5.00887">
        <ele>210</ele>
        <time>2021-01-02T12:59:59.000Z</time>
      </trkpt>
      <trkpt lat="46.37502" lon="5.00891">
        <ele>210</ele>
        <time>2021-01-02T13:00:00.000Z</time>
      </trkpt>
      <trkpt lat="46.37501" lon="5.00895">
        <ele>210</ele>
        <time>2021-01-02T13:00:01.000Z</time>
      </trkpt>
      <trkpt lat="46.37501" lon="5.009">
        <ele>210</ele>
        <time>2021-01-02T13:00:02.000Z</time>
      </trkpt>
      <trkpt lat="46.375" lon="5.00904">
        <ele>210</ele>
        <time>2021-01-02T13:00:03.000Z</time>
      </trkpt>
      <trkpt lat="46.375" lon="5.00908">
        <ele>210</ele>
        <time>2021-01-02T13:00:04.000Z</time>
      </trkpt>
      <trkpt lat="46.375" lon="5.00912">
        <ele>210</ele>
        <time>2021-01-02T13:00:05.000Z</time>
      </trkpt>
      <trkpt lat="46.375" lon="5.00915">
        <ele>210</ele>
        <time>2021-01-02T13:00:06.000Z</time>
      </trkpt>
      <trkpt lat="46.37501" lon="5.00919">
        <ele>211</ele>
        <time>2021-01-02T13:00:07.000Z</time>
      </trkpt>
      <trkpt lat="46.37501" lon="5.00923">
        <ele>211</ele>
        <time>2021-01-02T13:00:08.000Z</time>
      </trkpt>
      <trkpt lat="46.37501" lon="5.00927">
        <ele>211</ele>
        <time>2021-01-02T13:00:09.000Z</time>
      </trkpt>
      <trkpt lat="46.37502" lon="5.00931">
        <ele>211</ele>
        <time>2021-01-02T13:00:10.000Z</time>
      </trkpt>
      <trkpt lat="46.37502" lon="5.00935">
        <ele>211</ele>
        <time>2021-01-02T13:00:11.000Z</time>
      </trkpt>
      <trkpt lat="46.37503" lon="5.00938">
        <ele>211</ele>
        <time>2021-01-02T13:00:12.000Z</time>
      </trkpt>
      <trkpt lat="46.37503" lon="5.00942">
        <ele>211</ele>
        <time>2021-01-02T13:00:13.000Z</time>
      </trkpt>
      <trkpt lat="46.37504" lon="5.00946">
        <ele>212</ele>
        <time>2021-01-02T13:00:14.000Z</time>
      </trkpt>
      <trkpt lat="46.37505" lon="5.0095">
        <ele>212</ele>
        <time>2021-01-02T13:00:15.000Z</time>
      </trkpt>
      <trkpt lat="46.37505" lon="5.00954">
        <ele>212</ele>
        <time>2021-01-02T13:00:16.000Z</time>
      </trkpt>
      <trkpt lat="46.37506" lon="5.00959">
        <ele>212</ele>
        <time>2021-01-02T13:00:17.000Z</time>
      </trkpt>
      <trkpt lat="46.37506" lon="5.00963">
        <ele>212</ele>
        <time>2021-01-02T13:00:18.000Z</time>
      </trkpt>
      <trkpt lat="46.37506" lon="5.00968">
        <ele>212</ele>
        <time>2021-01-02T13:00:19.000Z</time>
      </trkpt>
      <trkpt lat="46.37507" lon="5.00972">
        <ele>212</ele>
        <time>2021-01-02T13:00:20.000Z</time>
      </trkpt>
      <trkpt lat="46.37507" lon="5.00976">
        <ele>212</ele>
        <time>2021-01-02T13:00:21.000Z</time>
      </trkpt>
      <trkpt lat="46.37508" lon="5.00981">
        <ele>212</ele>
        <time>2021-01-02T13:00:22.000Z</time>
      </trkpt>
      <trkpt lat="46.37508" lon="5.00986">
        <ele>212</ele>
        <time>2021-01-02T13:00:23.000Z</time>
      </trkpt>
      <trkpt lat="46.37509" lon="5.00991">
        <ele>211</ele>
        <time>2021-01-02T13:00:24.000Z</time>
      </trkpt>
      <trkpt lat="46.37509" lon="5.00995">
        <ele>211</ele>
        <time>2021-01-02T13:00:25.000Z</time>
      </trkpt>
      <trkpt lat="46.37509" lon="5.01">
        <ele>211</ele>
        <time>2021-01-02T13:00:26.000Z</time>
      </trkpt>
      <trkpt lat="46.3751" lon="5.01004">
        <ele>211</ele>
        <time>2021-01-02T13:00:27.000Z</time>
      </trkpt>
      <trkpt lat="46.3751" lon="5.01008">
        <ele>211</ele>
        <time>2021-01-02T13:00:28.000Z</time>
      </trkpt>
      <trkpt lat="46.37511" lon="5.01012">
        <ele>211</ele>
        <time>2021-01-02T13:00:29.000Z</time>
      </trkpt>
      <trkpt lat="46.37511" lon="5.01017">
        <ele>211</ele>
        <time>2021-01-02T13:00:30.000Z</time>
      </trkpt>
      <trkpt lat="46.37511" lon="5.01021">
        <ele>211</ele>
        <time>2021-01-02T13:00:31.000Z</time>
      </trkpt>
      <trkpt lat="46.37512" lon="5.01025">
        <ele>211</ele>
        <time>2021-01-02T13:00:32.000Z</time>
      </trkpt>
      <trkpt lat="46.37512" lon="5.0103">
        <ele>211</ele>
        <time>2021-01-02T13:00:33.000Z</time>
      </trkpt>
      <trkpt lat="46.37513" lon="5.01034">
        <ele>211</ele>
        <time>2021-01-02T13:00:34.000Z</time>
      </trkpt>
      <trkpt lat="46.37513" lon="5.01039">
        <ele>211</ele>
        <time>2021-01-02T13:00:35.000Z</time>
      </trkpt>
      <trkpt lat="46.37514" lon="5.01044">
        <ele>211</ele>
        <time>2021-01-02T13:00:36.000Z</time>
      </trkpt>
      <trkpt lat="46.37514" lon="5.01048">
        <ele>211</ele>
        <time>2021-01-02T13:00:37.000Z</time>
      </trkpt>
      <trkpt lat="46.37515" lon="5.01053">
        <ele>211</ele>
        <time>2021-01-02T13:00:38.000Z</time>
      </trkpt>
      <trkpt lat="46.37516" lon="5.01057">
        <ele>211</ele>
        <time>2021-01-02T13:00:39.000Z</time>
      </trkpt>
      <trkpt lat="46.37516" lon="5.01062">
        <ele>211</ele>
        <time>2021-01-02T13:00:40.000Z</time>
      </trkpt>
      <trkpt lat="46.37516" lon="5.01067">
        <ele>211</ele>
        <time>2021-01-02T13:00:41.000Z</time>
      </trkpt>
      <trkpt lat="46.37517" lon="5.01071">
        <ele>211</ele>
        <time>2021-01-02T13:00:42.000Z</time>
      </trkpt>
      <trkpt lat="46.37517" lon="5.01076">
        <ele>211</ele>
        <time>2021-01-02T13:00:43.000Z</time>
      </trkpt>
      <trkpt lat="46.37518" lon="5.01081">
        <ele>211</ele>
        <time>2021-01-02T13:00:44.000Z</time>
      </trkpt>
      <trkpt lat="46.37518" lon="5.01085">
        <ele>211</ele>
        <time>2021-01-02T13:00:45.000Z</time>
      </trkpt>
      <trkpt lat="46.37518" lon="5.01088">
        <ele>211</ele>
        <time>2021-01-02T13:00:46.000Z</time>
      </trkpt>
      <trkpt lat="46.37518" lon="5.01092">
        <ele>211</ele>
        <time>2021-01-02T13:00:47.000Z</time>
      </trkpt>
      <trkpt lat="46.37518" lon="5.01096">
        <ele>211</ele>
        <time>2021-01-02T13:00:48.000Z</time>
      </trkpt>
      <trkpt lat="46.37518" lon="5.011">
        <ele>211</ele>
        <time>2021-01-02T13:00:49.000Z</time>
      </trkpt>
      <trkpt lat="46.37518" lon="5.01103">
        <ele>211</ele>
        <time>2021-01-02T13:00:50.000Z</time>
      </trkpt>
      <trkpt lat="46.37517" lon="5.01106">
        <ele>211</ele>
        <time>2021-01-02T13:00:51.000Z</time>
      </trkpt>
      <trkpt lat="46.37516" lon="5.01109">
        <ele>211</ele>
        <time>2021-01-02T13:00:52.000Z</time>
      </trkpt>
      <trkpt lat="46.37515" lon="5.01112">
        <ele>211</ele>
        <time>2021-01-02T13:00:53.000Z</time>
      </trkpt>
      <trkpt lat="46.37514" lon="5.01114">
        <ele>211</ele>
        <time>2021-01-02T13:00:54.000Z</time>
      </trkpt>
      <trkpt lat="46.37512" lon="5.01115">
        <ele>211</ele>
        <time>2021-01-02T13:00:55.000Z</time>
      </trkpt>
      <trkpt lat="46.3751" lon="5.01116">
        <ele>211</ele>
        <time>2021-01-02T13:00:56.000Z</time>
      </trkpt>
      <trkpt lat="46.37509" lon="5.01117">
        <ele>211</ele>
        <time>2021-01-02T13:00:57.000Z</time>
      </trkpt>
      <trkpt lat="46.37507" lon="5.01118">
        <ele>211</ele>
        <time>2021-01-02T13:00:58.000Z</time>
      </trkpt>
      <trkpt lat="46.37505" lon="5.01118">
        <ele>211</ele>
        <time>2021-01-02T13:00:59.000Z</time>
      </trkpt>
      <trkpt lat="46.37503" lon="5.01118">
        <ele>211</ele>
        <time>2021-01-02T13:01:00.000Z</time>
      </trkpt>
      <trkpt lat="46.37501" lon="5.01119">
        <ele>211</ele>
        <time>2021-01-02T13:01:01.000Z</time>
      </trkpt>
      <trkpt lat="46.37499" lon="5.01119">
        <ele>211</ele>
        <time>2021-01-02T13:01:02.000Z</time>
      </trkpt>
      <trkpt lat="46.37497" lon="5.0112">
        <ele>212</ele>
        <time>2021-01-02T13:01:03.000Z</time>
      </trkpt>
      <trkpt lat="46.37495" lon="5.0112">
        <ele>212</ele>
        <time>2021-01-02T13:01:04.000Z</time>
      </trkpt>
      <trkpt lat="46.37493" lon="5.0112">
        <ele>212</ele>
        <time>2021-01-02T13:01:05.000Z</time>
      </trkpt>
      <trkpt lat="46.37491" lon="5.0112">
        <ele>212</ele>
        <time>2021-01-02T13:01:06.000Z</time>
      </trkpt>
      <trkpt lat="46.3749" lon="5.01121">
        <ele>212</ele>
        <time>2021-01-02T13:01:07.000Z</time>
      </trkpt>
      <trkpt lat="46.37488" lon="5.01121">
        <ele>212</ele>
        <time>2021-01-02T13:01:08.000Z</time>
      </trkpt>
      <trkpt lat="46.37486" lon="5.01122">
        <ele>212</ele>
        <time>2021-01-02T13:01:09.000Z</time>
      </trkpt>
      <trkpt lat="46.37483" lon="5.01122">
        <ele>212</ele>
        <time>2021-01-02T13:01:10.000Z</time>
      </trkpt>
      <trkpt lat="46.37481" lon="5.01122">
        <ele>212</ele>
        <time>2021-01-02T13:01:11.000Z</time>
      </trkpt>
      <trkpt lat="46.37479" lon="5.01123">
        <ele>212</ele>
        <time>2021-01-02T13:01:12.000Z</time>
      </trkpt>
      <trkpt lat="46.37477" lon="5.01123">
        <ele>212</ele>
        <time>2021-01-02T13:01:13.000Z</time>
      </trkpt>
      <trkpt lat="46.37475" lon="5.01123">
        <ele>212</ele>
        <time>2021-01-02T13:01:14.000Z</time>
      </trkpt>
      <trkpt lat="46.37473" lon="5.01124">
        <ele>212</ele>
        <time>2021-01-02T13:01:15.000Z</time>
      </trkpt>
      <trkpt lat="46.37471" lon="5.01124">
        <ele>212</ele>
        <time>2021-01-02T13:01:16.000Z</time>
      </trkpt>
      <trkpt lat="46.37469" lon="5.01124">
        <ele>212</ele>
        <time>2021-01-02T13:01:17.000Z</time>
      </trkpt>
      <trkpt lat="46.37467" lon="5.01124">
        <ele>212</ele>
        <time>2021-01-02T13:01:18.000Z</time>
      </trkpt>
      <trkpt lat="46.37465" lon="5.01125">
        <ele>212</ele>
        <time>2021-01-02T13:01:19.000Z</time>
      </trkpt>
      <trkpt lat="46.37463" lon="5.01125">
        <ele>212</ele>
        <time>2021-01-02T13:01:20.000Z</time>
      </trkpt>
      <trkpt lat="46.37461" lon="5.01125">
        <ele>212</ele>
        <time>2021-01-02T13:01:21.000Z</time>
      </trkpt>
      <trkpt lat="46.37459" lon="5.01126">
        <ele>212</ele>
        <time>2021-01-02T13:01:22.000Z</time>
      </trkpt>
      <trkpt lat="46.37457" lon="5.01126">
        <ele>212</ele>
        <time>2021-01-02T13:01:23.000Z</time>
      </trkpt>
      <trkpt lat="46.37455" lon="5.01127">
        <ele>212</ele>
        <time>2021-01-02T13:01:24.000Z</time>
      </trkpt>
      <trkpt lat="46.37452" lon="5.01127">
        <ele>212</ele>
        <time>2021-01-02T13:01:25.000Z</time>
      </trkpt>
      <trkpt lat="46.3745" lon="5.01127">
        <ele>212</ele>
        <time>2021-01-02T13:01:26.000Z</time>
      </trkpt>
      <trkpt lat="46.37448" lon="5.01128">
        <ele>212</ele>
        <time>2021-01-02T13:01:27.000Z</time>
      </trkpt>
      <trkpt lat="46.37446" lon="5.01128">
        <ele>212</ele>
        <time>2021-01-02T13:01:28.000Z</time>
      </trkpt>
      <trkpt lat="46.37444" lon="5.01129">
        <ele>212</ele>
        <time>2021-01-02T13:01:29.000Z</time>
      </trkpt>
      <trkpt lat="46.37442" lon="5.01129">
        <ele>212</ele>
        <time>2021-01-02T13:01:30.000Z</time>
      </trkpt>
      <trkpt lat="46.37439" lon="5.01129">
        <ele>212</ele>
        <time>2021-01-02T13:01:31.000Z</time>
      </trkpt>
      <trkpt lat="46.37437" lon="5.01129">
        <ele>212</ele>
        <time>2021-01-02T13:01:32.000Z</time>
      </trkpt>
      <trkpt lat="46.37435" lon="5.0113">
        <ele>212</ele>
        <time>2021-01-02T13:01:33.000Z</time>
      </trkpt>
      <trkpt lat="46.37433" lon="5.0113">
        <ele>212</ele>
        <time>2021-01-02T13:01:34.000Z</time>
      </trkpt>
      <trkpt lat="46.37431" lon="5.01131">
        <ele>212</ele>
        <time>2021-01-02T13:01:35.000Z</time>
      </trkpt>
      <trkpt lat="46.37428" lon="5.01131">
        <ele>212</ele>
        <time>2021-01-02T13:01:36.000Z</time>
      </trkpt>
      <trkpt lat="46.37426" lon="5.01131">
        <ele>212</ele>
        <time>2021-01-02T13:01:37.000Z</time>
      </trkpt>
      <trkpt lat="46.37424" lon="5.01132">
        <ele>212</ele>
        <time>2021-01-02T13:01:38.000Z</time>
      </trkpt>
      <trkpt lat="46.37421" lon="5.01132">
        <ele>212</ele>
        <time>2021-01-02T13:01:39.000Z</time>
      </trkpt>
      <trkpt lat="46.37419" lon="5.01132">
        <ele>212</ele>
        <time>2021-01-02T13:01:40.000Z</time>
      </trkpt>
      <trkpt lat="46.37417" lon="5.01133">
        <ele>212</ele>
        <time>2021-01-02T13:01:41.000Z</time>
      </trkpt>
      <trkpt lat="46.37415" lon="5.01133">
        <ele>212</ele>
        <time>2021-01-02T13:01:42.000Z</time>
      </trkpt>
      <trkpt lat="46.37413" lon="5.01133">
        <ele>212</ele>
        <time>2021-01-02T13:01:43.000Z</time>
      </trkpt>
      <trkpt lat="46.37411" lon="5.01134">
        <ele>212</ele>
        <time>2021-01-02T13:01:44.000Z</time>
      </trkpt>
      <trkpt lat="46.37409" lon="5.01135">
        <ele>212</ele>
        <time>2021-01-02T13:01:45.000Z</time>
      </trkpt>
      <trkpt lat="46.37407" lon="5.01136">
        <ele>212</ele>
        <time>2021-01-02T13:01:46.000Z</time>
      </trkpt>
      <trkpt lat="46.37405" lon="5.01137">
        <ele>212</ele>
        <time>2021-01-02T13:01:47.000Z</time>
      </trkpt>
      <trkpt lat="46.37404" lon="5.01139">
        <ele>212</ele>
        <time>2021-01-02T13:01:48.000Z</time>
      </trkpt>
      <trkpt lat="46.37402" lon="5.01141">
        <ele>211</ele>
        <time>2021-01-02T13:01:49.000Z</time>
      </trkpt>
      <trkpt lat="46.37401" lon="5.01144">
        <ele>211</ele>
        <time>2021-01-02T13:01:50.000Z</time>
      </trkpt>
      <trkpt lat="46.374" lon="5.01148">
        <ele>211</ele>
        <time>2021-01-02T13:01:51.000Z</time>
      </trkpt>
      <trkpt lat="46.37399" lon="5.01151">
        <ele>211</ele>
        <time>2021-01-02T13:01:52.000Z</time>
      </trkpt>
      <trkpt lat="46.37398" lon="5.01154">
        <ele>211</ele>
        <time>2021-01-02T13:01:53.000Z</time>
      </trkpt>
      <trkpt lat="46.37399" lon="5.01157">
        <ele>211</ele>
        <time>2021-01-02T13:01:54.000Z</time>
      </trkpt>
      <trkpt lat="46.37399" lon="5.0116">
        <ele>211</ele>
        <time>2021-01-02T13:01:55.000Z</time>
      </trkpt>
      <trkpt lat="46.374" lon="5.01163">
        <ele>211</ele>
        <time>2021-01-02T13:01:56.000Z</time>
      </trkpt>
      <trkpt lat="46.374" lon="5.01167">
        <ele>211</ele>
        <time>2021-01-02T13:01:57.000Z</time>
      </trkpt>
      <trkpt lat="46.374" lon="5.01171">
        <ele>211</ele>
        <time>2021-01-02T13:01:58.000Z</time>
      </trkpt>
      <trkpt lat="46.37401" lon="5.01175">
        <ele>211</ele>
        <time>2021-01-02T13:01:59.000Z</time>
      </trkpt>
      <trkpt lat="46.37401" lon="5.01177">
        <ele>211</ele>
        <time>2021-01-02T13:02:00.000Z</time>
      </trkpt>
      <trkpt lat="46.37401" lon="5.0118">
        <ele>211</ele>
        <time>2021-01-02T13:02:01.000Z</time>
      </trkpt>
      <trkpt lat="46.37402" lon="5.01183">
        <ele>211</ele>
        <time>2021-01-02T13:02:02.000Z</time>
      </trkpt>
      <trkpt lat="46.37402" lon="5.01187">
        <ele>211</ele>
        <time>2021-01-02T13:02:03.000Z</time>
      </trkpt>
      <trkpt lat="46.37402" lon="5.0119">
        <ele>211</ele>
        <time>2021-01-02T13:02:04.000Z</time>
      </trkpt>
      <trkpt lat="46.37403" lon="5.01194">
        <ele>211</ele>
        <time>2021-01-02T13:02:05.000Z</time>
      </trkpt>
      <trkpt lat="46.37403" lon="5.01197">
        <ele>211</ele>
        <time>2021-01-02T13:02:06.000Z</time>
      </trkpt>
      <trkpt lat="46.37403" lon="5.012">
        <ele>211</ele>
        <time>2021-01-02T13:02:07.000Z</time>
      </trkpt>
      <trkpt lat="46.37403" lon="5.01204">
        <ele>211</ele>
        <time>2021-01-02T13:02:08.000Z</time>
      </trkpt>
      <trkpt lat="46.37403" lon="5.01207">
        <ele>211</ele>
        <time>2021-01-02T13:02:09.000Z</time>
      </trkpt>
      <trkpt lat="46.37403" lon="5.01211">
        <ele>211</ele>
        <time>2021-01-02T13:02:10.000Z</time>
      </trkpt>
      <trkpt lat="46.37403" lon="5.01214">
        <ele>211</ele>
        <time>2021-01-02T13:02:11.000Z</time>
      </trkpt>
      <trkpt lat="46.37403" lon="5.01218">
        <ele>211</ele>
        <time>2021-01-02T13:02:12.000Z</time>
      </trkpt>
      <trkpt lat="46.37404" lon="5.01221">
        <ele>211</ele>
        <time>2021-01-02T13:02:13.000Z</time>
      </trkpt>
      <trkpt lat="46.37404" lon="5.01224">
        <ele>211</ele>
        <time>2021-01-02T13:02:14.000Z</time>
      </trkpt>
      <trkpt lat="46.37405" lon="5.01228">
        <ele>211</ele>
        <time>2021-01-02T13:02:15.000Z</time>
      </trkpt>
      <trkpt lat="46.37405" lon="5.01231">
        <ele>211</ele>
        <time>2021-01-02T13:02:16.000Z</time>
      </trkpt>
      <trkpt lat="46.37405" lon="5.01234">
        <ele>211</ele>
        <time>2021-01-02T13:02:17.000Z</time>
      </trkpt>
      <trkpt lat="46.37404" lon="5.01237">
        <ele>211</ele>
        <time>2021-01-02T13:02:18.000Z</time>
      </trkpt>
      <trkpt lat="46.37403" lon="5.01239">
        <ele>210</ele>
        <time>2021-01-02T13:02:19.000Z</time>
      </trkpt>
      <trkpt lat="46.37401" lon="5.0124">
        <ele>210</ele>
        <time>2021-01-02T13:02:20.000Z</time>
      </trkpt>
      <trkpt lat="46.374" lon="5.0124">
        <ele>210</ele>
        <time>2021-01-02T13:02:21.000Z</time>
      </trkpt>
      <trkpt lat="46.37398" lon="5.01241">
        <ele>210</ele>
        <time>2021-01-02T13:02:22.000Z</time>
      </trkpt>
      <trkpt lat="46.37396" lon="5.01241">
        <ele>210</ele>
        <time>2021-01-02T13:02:23.000Z</time>
      </trkpt>
      <trkpt lat="46.37394" lon="5.01241">
        <ele>210</ele>
        <time>2021-01-02T13:02:24.000Z</time>
      </trkpt>
      <trkpt lat="46.37392" lon="5.01241">
        <ele>210</ele>
        <time>2021-01-02T13:02:25.000Z</time>
      </trkpt>
      <trkpt lat="46.37391" lon="5.01241">
        <ele>210</ele>
        <time>2021-01-02T13:02:26.000Z</time>
      </trkpt>
      <trkpt lat="46.37389" lon="5.01241">
        <ele>210</ele>
        <time>2021-01-02T13:02:27.000Z</time>
      </trkpt>
      <trkpt lat="46.37387" lon="5.01241">
        <ele>210</ele>
        <time>2021-01-02T13:02:28.000Z</time>
      </trkpt>
      <trkpt lat="46.37385" lon="5.01241">
        <ele>210</ele>
        <time>2021-01-02T13:02:29.000Z</time>
      </trkpt>
      <trkpt lat="46.37383" lon="5.01242">
        <ele>210</ele>
        <time>2021-01-02T13:02:30.000Z</time>
      </trkpt>
      <trkpt lat="46.37381" lon="5.01242">
        <ele>210</ele>
        <time>2021-01-02T13:02:31.000Z</time>
      </trkpt>
      <trkpt lat="46.3738" lon="5.01242">
        <ele>209</ele>
        <time>2021-01-02T13:02:32.000Z</time>
      </trkpt>
      <trkpt lat="46.37378" lon="5.01242">
        <ele>209</ele>
        <time>2021-01-02T13:02:33.000Z</time>
      </trkpt>
      <trkpt lat="46.37376" lon="5.01242">
        <ele>209</ele>
        <time>2021-01-02T13:02:34.000Z</time>
      </trkpt>
      <trkpt lat="46.37374" lon="5.01242">
        <ele>209</ele>
        <time>2021-01-02T13:02:35.000Z</time>
      </trkpt>
      <trkpt lat="46.37372" lon="5.01242">
        <ele>209</ele>
        <time>2021-01-02T13:02:36.000Z</time>
      </trkpt>
      <trkpt lat="46.3737" lon="5.01243">
        <ele>209</ele>
        <time>2021-01-02T13:02:37.000Z</time>
      </trkpt>
      <trkpt lat="46.37368" lon="5.01243">
        <ele>209</ele>
        <time>2021-01-02T13:02:38.000Z</time>
      </trkpt>
      <trkpt lat="46.37366" lon="5.01243">
        <ele>209</ele>
        <time>2021-01-02T13:02:39.000Z</time>
      </trkpt>
      <trkpt lat="46.37364" lon="5.01243">
        <ele>209</ele>
        <time>2021-01-02T13:02:40.000Z</time>
      </trkpt>
      <trkpt lat="46.37362" lon="5.01243">
        <ele>210</ele>
        <time>2021-01-02T13:02:41.000Z</time>
      </trkpt>
      <trkpt lat="46.3736" lon="5.01243">
        <ele>209</ele>
        <time>2021-01-02T13:02:42.000Z</time>
      </trkpt>
      <trkpt lat="46.37358" lon="5.01243">
        <ele>209</ele>
        <time>2021-01-02T13:02:43.000Z</time>
      </trkpt>
      <trkpt lat="46.37355" lon="5.01244">
        <ele>209</ele>
        <time>2021-01-02T13:02:44.000Z</time>
      </trkpt>
      <trkpt lat="46.37353" lon="5.01244">
        <ele>209</ele>
        <time>2021-01-02T13:02:45.000Z</time>
      </trkpt>
      <trkpt lat="46.37351" lon="5.01245">
        <ele>209</ele>
        <time>2021-01-02T13:02:46.000Z</time>
      </trkpt>
      <trkpt lat="46.37348" lon="5.01245">
        <ele>209</ele>
        <time>2021-01-02T13:02:47.000Z</time>
      </trkpt>
      <trkpt lat="46.37346" lon="5.01245">
        <ele>209</ele>
        <time>2021-01-02T13:02:48.000Z</time>
      </trkpt>
      <trkpt lat="46.37344" lon="5.01246">
        <ele>209</ele>
        <time>2021-01-02T13:02:49.000Z</time>
      </trkpt>
      <trkpt lat="46.37342" lon="5.01247">
        <ele>209</ele>
        <time>2021-01-02T13:02:50.000Z</time>
      </trkpt>
      <trkpt lat="46.3734" lon="5.01247">
        <ele>209</ele>
        <time>2021-01-02T13:02:51.000Z</time>
      </trkpt>
      <trkpt lat="46.37338" lon="5.01247">
        <ele>210</ele>
        <time>2021-01-02T13:02:52.000Z</time>
      </trkpt>
      <trkpt lat="46.37336" lon="5.01247">
        <ele>210</ele>
        <time>2021-01-02T13:02:53.000Z</time>
      </trkpt>
      <trkpt lat="46.37335" lon="5.01248">
        <ele>210</ele>
        <time>2021-01-02T13:02:54.000Z</time>
      </trkpt>
      <trkpt lat="46.37333" lon="5.01248">
        <ele>210</ele>
        <time>2021-01-02T13:02:55.000Z</time>
      </trkpt>
      <trkpt lat="46.37331" lon="5.01248">
        <ele>210</ele>
        <time>2021-01-02T13:02:56.000Z</time>
      </trkpt>
      <trkpt lat="46.37329" lon="5.01248">
        <ele>210</ele>
        <time>2021-01-02T13:02:57.000Z</time>
      </trkpt>
      <trkpt lat="46.37327" lon="5.01249">
        <ele>210</ele>
        <time>2021-01-02T13:02:58.000Z</time>
      </trkpt>
      <trkpt lat="46.37325" lon="5.01249">
        <ele>210</ele>
        <time>2021-01-02T13:02:59.000Z</time>
      </trkpt>
      <trkpt lat="46.37323" lon="5.01249">
        <ele>210</ele>
        <time>2021-01-02T13:03:00.000Z</time>
      </trkpt>
      <trkpt lat="46.37321" lon="5.01249">
        <ele>210</ele>
        <time>2021-01-02T13:03:01.000Z</time>
      </trkpt>
      <trkpt lat="46.37319" lon="5.01249">
        <ele>210</ele>
        <time>2021-01-02T13:03:02.000Z</time>
      </trkpt>
      <trkpt lat="46.37317" lon="5.01249">
        <ele>210</ele>
        <time>2021-01-02T13:03:03.000Z</time>
      </trkpt>
      <trkpt lat="46.37315" lon="5.01249">
        <ele>210</ele>
        <time>2021-01-02T13:03:04.000Z</time>
      </trkpt>
      <trkpt lat="46.37313" lon="5.01249">
        <ele>210</ele>
        <time>2021-01-02T13:03:05.000Z</time>
      </trkpt>
      <trkpt lat="46.37311" lon="5.01249">
        <ele>210</ele>
        <time>2021-01-02T13:03:06.000Z</time>
      </trkpt>
      <trkpt lat="46.37308" lon="5.01248">
        <ele>210</ele>
        <time>2021-01-02T13:03:07.000Z</time>
      </trkpt>
      <trkpt lat="46.37306" lon="5.01248">
        <ele>210</ele>
        <time>2021-01-02T13:03:08.000Z</time>
      </trkpt>
      <trkpt lat="46.37304" lon="5.01248">
        <ele>210</ele>
        <time>2021-01-02T13:03:09.000Z</time>
      </trkpt>
      <trkpt lat="46.37302" lon="5.01247">
        <ele>210</ele>
        <time>2021-01-02T13:03:10.000Z</time>
      </trkpt>
      <trkpt lat="46.37299" lon="5.01247">
        <ele>210</ele>
        <time>2021-01-02T13:03:11.000Z</time>
      </trkpt>
      <trkpt lat="46.37297" lon="5.01247">
        <ele>210</ele>
        <time>2021-01-02T13:03:12.000Z</time>
      </trkpt>
      <trkpt lat="46.37295" lon="5.01246">
        <ele>210</ele>
        <time>2021-01-02T13:03:13.000Z</time>
      </trkpt>
      <trkpt lat="46.37293" lon="5.01246">
        <ele>210</ele>
        <time>2021-01-02T13:03:14.000Z</time>
      </trkpt>
      <trkpt lat="46.37291" lon="5.01245">
        <ele>210</ele>
        <time>2021-01-02T13:03:15.000Z</time>
      </trkpt>
      <trkpt lat="46.37289" lon="5.01245">
        <ele>209</ele>
        <time>2021-01-02T13:03:16.000Z</time>
      </trkpt>
      <trkpt lat="46.37286" lon="5.01245">
        <ele>209</ele>
        <time>2021-01-02T13:03:17.000Z</time>
      </trkpt>
      <trkpt lat="46.37284" lon="5.01244">
        <ele>209</ele>
        <time>2021-01-02T13:03:18.000Z</time>
      </trkpt>
      <trkpt lat="46.37282" lon="5.01244">
        <ele>209</ele>
        <time>2021-01-02T13:03:19.000Z</time>
      </trkpt>
      <trkpt lat="46.3728" lon="5.01244">
        <ele>209</ele>
        <time>2021-01-02T13:03:20.000Z</time>
      </trkpt>
      <trkpt lat="46.37278" lon="5.01244">
        <ele>209</ele>
        <time>2021-01-02T13:03:21.000Z</time>
      </trkpt>
      <trkpt lat="46.37276" lon="5.01244">
        <ele>209</ele>
        <time>2021-01-02T13:03:22.000Z</time>
      </trkpt>
      <trkpt lat="46.37274" lon="5.01245">
        <ele>209</ele>
        <time>2021-01-02T13:03:23.000Z</time>
      </trkpt>
      <trkpt lat="46.37272" lon="5.01247">
        <ele>209</ele>
        <time>2021-01-02T13:03:24.000Z</time>
      </trkpt>
      <trkpt lat="46.37271" lon="5.01249">
        <ele>209</ele>
        <time>2021-01-02T13:03:25.000Z</time>
      </trkpt>
      <trkpt lat="46.3727" lon="5.01251">
        <ele>209</ele>
        <time>2021-01-02T13:03:26.000Z</time>
      </trkpt>
      <trkpt lat="46.37269" lon="5.01253">
        <ele>209</ele>
        <time>2021-01-02T13:03:27.000Z</time>
      </trkpt>
      <trkpt lat="46.37269" lon="5.01256">
        <ele>209</ele>
        <time>2021-01-02T13:03:28.000Z</time>
      </trkpt>
      <trkpt lat="46.37269" lon="5.01258">
        <ele>209</ele>
        <time>2021-01-02T13:03:29.000Z</time>
      </trkpt>
      <trkpt lat="46.37269" lon="5.01262">
        <ele>210</ele>
        <time>2021-01-02T13:03:30.000Z</time>
      </trkpt>
      <trkpt lat="46.37269" lon="5.01265">
        <ele>210</ele>
        <time>2021-01-02T13:03:31.000Z</time>
      </trkpt>
      <trkpt lat="46.37269" lon="5.01269">
        <ele>210</ele>
        <time>2021-01-02T13:03:32.000Z</time>
      </trkpt>
      <trkpt lat="46.37269" lon="5.01272">
        <ele>210</ele>
        <time>2021-01-02T13:03:33.000Z</time>
      </trkpt>
      <trkpt lat="46.3727" lon="5.01276">
        <ele>210</ele>
        <time>2021-01-02T13:03:34.000Z</time>
      </trkpt>
      <trkpt lat="46.3727" lon="5.0128">
        <ele>210</ele>
        <time>2021-01-02T13:03:35.000Z</time>
      </trkpt>
      <trkpt lat="46.37271" lon="5.01284">
        <ele>210</ele>
        <time>2021-01-02T13:03:36.000Z</time>
      </trkpt>
      <trkpt lat="46.37272" lon="5.01288">
        <ele>210</ele>
        <time>2021-01-02T13:03:37.000Z</time>
      </trkpt>
      <trkpt lat="46.37272" lon="5.01292">
        <ele>210</ele>
        <time>2021-01-02T13:03:38.000Z</time>
      </trkpt>
      <trkpt lat="46.37273" lon="5.01298">
        <ele>210</ele>
        <time>2021-01-02T13:03:39.000Z</time>
      </trkpt>
      <trkpt lat="46.37274" lon="5.01303">
        <ele>210</ele>
        <time>2021-01-02T13:03:40.000Z</time>
      </trkpt>
      <trkpt lat="46.37274" lon="5.01309">
        <ele>210</ele>
        <time>2021-01-02T13:03:41.000Z</time>
      </trkpt>
      <trkpt lat="46.37275" lon="5.01316">
        <ele>210</ele>
        <time>2021-01-02T13:03:42.000Z</time>
      </trkpt>
      <trkpt lat="46.37275" lon="5.01322">
        <ele>210</ele>
        <time>2021-01-02T13:03:43.000Z</time>
      </trkpt>
      <trkpt lat="46.37275" lon="5.01329">
        <ele>210</ele>
        <time>2021-01-02T13:03:44.000Z</time>
      </trkpt>
      <trkpt lat="46.37275" lon="5.01336">
        <ele>210</ele>
        <time>2021-01-02T13:03:45.000Z</time>
      </trkpt>
      <trkpt lat="46.37276" lon="5.01344">
        <ele>210</ele>
        <time>2021-01-02T13:03:46.000Z</time>
      </trkpt>
      <trkpt lat="46.37277" lon="5.01351">
        <ele>209</ele>
        <time>2021-01-02T13:03:47.000Z</time>
      </trkpt>
      <trkpt lat="46.37278" lon="5.01359">
        <ele>209</ele>
        <time>2021-01-02T13:03:48.000Z</time>
      </trkpt>
      <trkpt lat="46.37279" lon="5.01366">
        <ele>209</ele>
        <time>2021-01-02T13:03:49.000Z</time>
      </trkpt>
      <trkpt lat="46.3728" lon="5.01374">
        <ele>209</ele>
        <time>2021-01-02T13:03:50.000Z</time>
      </trkpt>
      <trkpt lat="46.37282" lon="5.01381">
        <ele>209</ele>
        <time>2021-01-02T13:03:51.000Z</time>
      </trkpt>
      <trkpt lat="46.37283" lon="5.01388">
        <ele>209</ele>
        <time>2021-01-02T13:03:52.000Z</time>
      </trkpt>
      <trkpt lat="46.37285" lon="5.01396">
        <ele>209</ele>
        <time>2021-01-02T13:03:53.000Z</time>
      </trkpt>
      <trkpt lat="46.37286" lon="5.01402">
        <ele>209</ele>
        <time>2021-01-02T13:03:54.000Z</time>
      </trkpt>
      <trkpt lat="46.37288" lon="5.0141">
        <ele>209</ele>
        <time>2021-01-02T13:03:55.000Z</time>
      </trkpt>
      <trkpt lat="46.3729" lon="5.01416">
        <ele>209</ele>
        <time>2021-01-02T13:03:56.000Z</time>
      </trkpt>
      <trkpt lat="46.37292" lon="5.01423">
        <ele>209</ele>
        <time>2021-01-02T13:03:57.000Z</time>
      </trkpt>
      <trkpt lat="46.37293" lon="5.0143">
        <ele>209</ele>
        <time>2021-01-02T13:03:58.000Z</time>
      </trkpt>
      <trkpt lat="46.37295" lon="5.01436">
        <ele>209</ele>
        <time>2021-01-02T13:03:59.000Z</time>
      </trkpt>
      <trkpt lat="46.37297" lon="5.01442">
        <ele>209</ele>
        <time>2021-01-02T13:04:00.000Z</time>
      </trkpt>
      <trkpt lat="46.37298" lon="5.01447">
        <ele>208</ele>
        <time>2021-01-02T13:04:01.000Z</time>
      </trkpt>
      <trkpt lat="46.373" lon="5.01451">
        <ele>208</ele>
        <time>2021-01-02T13:04:02.000Z</time>
      </trkpt>
      <trkpt lat="46.37301" lon="5.01454">
        <ele>208</ele>
        <time>2021-01-02T13:04:03.000Z</time>
      </trkpt>
      <trkpt lat="46.37302" lon="5.01458">
        <ele>208</ele>
        <time>2021-01-02T13:04:04.000Z</time>
      </trkpt>
      <trkpt lat="46.37303" lon="5.01462">
        <ele>208</ele>
        <time>2021-01-02T13:04:05.000Z</time>
      </trkpt>
      <trkpt lat="46.37304" lon="5.01466">
        <ele>208</ele>
        <time>2021-01-02T13:04:06.000Z</time>
      </trkpt>
      <trkpt lat="46.37305" lon="5.01469">
        <ele>208</ele>
        <time>2021-01-02T13:04:07.000Z</time>
      </trkpt>
      <trkpt lat="46.37306" lon="5.01473">
        <ele>208</ele>
        <time>2021-01-02T13:04:08.000Z</time>
      </trkpt>
      <trkpt lat="46.37307" lon="5.01476">
        <ele>207</ele>
        <time>2021-01-02T13:04:09.000Z</time>
      </trkpt>
      <trkpt lat="46.37308" lon="5.0148">
        <ele>207</ele>
        <time>2021-01-02T13:04:10.000Z</time>
      </trkpt>
      <trkpt lat="46.37308" lon="5.01484">
        <ele>207</ele>
        <time>2021-01-02T13:04:11.000Z</time>
      </trkpt>
      <trkpt lat="46.37309" lon="5.01487">
        <ele>207</ele>
        <time>2021-01-02T13:04:12.000Z</time>
      </trkpt>
      <trkpt lat="46.3731" lon="5.01491">
        <ele>206</ele>
        <time>2021-01-02T13:04:13.000Z</time>
      </trkpt>
      <trkpt lat="46.37311" lon="5.01495">
        <ele>206</ele>
        <time>2021-01-02T13:04:14.000Z</time>
      </trkpt>
      <trkpt lat="46.37313" lon="5.01499">
        <ele>206</ele>
        <time>2021-01-02T13:04:15.000Z</time>
      </trkpt>
      <trkpt lat="46.37314" lon="5.01504">
        <ele>205</ele>
        <time>2021-01-02T13:04:16.000Z</time>
      </trkpt>
      <trkpt lat="46.37315" lon="5.01508">
        <ele>205</ele>
        <time>2021-01-02T13:04:17.000Z</time>
      </trkpt>
      <trkpt lat="46.37317" lon="5.01513">
        <ele>204</ele>
        <time>2021-01-02T13:04:18.000Z</time>
      </trkpt>
      <trkpt lat="46.37318" lon="5.01517">
        <ele>204</ele>
        <time>2021-01-02T13:04:19.000Z</time>
      </trkpt>
      <trkpt lat="46.37319" lon="5.01522">
        <ele>204</ele>
        <time>2021-01-02T13:04:20.000Z</time>
      </trkpt>
      <trkpt lat="46.3732" lon="5.01526">
        <ele>204</ele>
        <time>2021-01-02T13:04:21.000Z</time>
      </trkpt>
      <trkpt lat="46.37321" lon="5.01531">
        <ele>203</ele>
        <time>2021-01-02T13:04:22.000Z</time>
      </trkpt>
      <trkpt lat="46.37319" lon="5.01536">
        <ele>203</ele>
        <time>2021-01-02T13:04:23.000Z</time>
      </trkpt>
      <trkpt lat="46.37318" lon="5.0154">
        <ele>202</ele>
        <time>2021-01-02T13:04:24.000Z</time>
      </trkpt>
      <trkpt lat="46.37315" lon="5.01543">
        <ele>202</ele>
        <time>2021-01-02T13:04:25.000Z</time>
      </trkpt>
      <trkpt lat="46.37312" lon="5.01546">
        <ele>202</ele>
        <time>2021-01-02T13:04:26.000Z</time>
      </trkpt>
      <trkpt lat="46.3731" lon="5.01549">
        <ele>201</ele>
        <time>2021-01-02T13:04:27.000Z</time>
      </trkpt>
      <trkpt lat="46.37307" lon="5.01551">
        <ele>201</ele>
        <time>2021-01-02T13:04:28.000Z</time>
      </trkpt>
      <trkpt lat="46.37305" lon="5.01554">
        <ele>200</ele>
        <time>2021-01-02T13:04:29.000Z</time>
      </trkpt>
      <trkpt lat="46.37302" lon="5.01556">
        <ele>200</ele>
        <time>2021-01-02T13:04:30.000Z</time>
      </trkpt>
      <trkpt lat="46.373" lon="5.01559">
        <ele>200</ele>
        <time>2021-01-02T13:04:31.000Z</time>
      </trkpt>
      <trkpt lat="46.37297" lon="5.01561">
        <ele>200</ele>
        <time>2021-01-02T13:04:32.000Z</time>
      </trkpt>
      <trkpt lat="46.37295" lon="5.01564">
        <ele>199</ele>
        <time>2021-01-02T13:04:33.000Z</time>
      </trkpt>
      <trkpt lat="46.37293" lon="5.01566">
        <ele>199</ele>
        <time>2021-01-02T13:04:34.000Z</time>
      </trkpt>
      <trkpt lat="46.3729" lon="5.01568">
        <ele>199</ele>
        <time>2021-01-02T13:04:35.000Z</time>
      </trkpt>
      <trkpt lat="46.37288" lon="5.01571">
        <ele>198</ele>
        <time>2021-01-02T13:04:36.000Z</time>
      </trkpt>
      <trkpt lat="46.37285" lon="5.01573">
        <ele>198</ele>
        <time>2021-01-02T13:04:37.000Z</time>
      </trkpt>
      <trkpt lat="46.37283" lon="5.01576">
        <ele>198</ele>
        <time>2021-01-02T13:04:38.000Z</time>
      </trkpt>
      <trkpt lat="46.3728" lon="5.01578">
        <ele>197</ele>
        <time>2021-01-02T13:04:39.000Z</time>
      </trkpt>
      <trkpt lat="46.37278" lon="5.0158">
        <ele>197</ele>
        <time>2021-01-02T13:04:40.000Z</time>
      </trkpt>
      <trkpt lat="46.37276" lon="5.01582">
        <ele>197</ele>
        <time>2021-01-02T13:04:41.000Z</time>
      </trkpt>
      <trkpt lat="46.37273" lon="5.01584">
        <ele>197</ele>
        <time>2021-01-02T13:04:42.000Z</time>
      </trkpt>
      <trkpt lat="46.37271" lon="5.01586">
        <ele>197</ele>
        <time>2021-01-02T13:04:43.000Z</time>
      </trkpt>
      <trkpt lat="46.37269" lon="5.01588">
        <ele>197</ele>
        <time>2021-01-02T13:04:44.000Z</time>
      </trkpt>
      <trkpt lat="46.37266" lon="5.0159">
        <ele>197</ele>
        <time>2021-01-02T13:04:45.000Z</time>
      </trkpt>
      <trkpt lat="46.37264" lon="5.01592">
        <ele>196</ele>
        <time>2021-01-02T13:04:46.000Z</time>
      </trkpt>
      <trkpt lat="46.37262" lon="5.01594">
        <ele>196</ele>
        <time>2021-01-02T13:04:47.000Z</time>
      </trkpt>
      <trkpt lat="46.37259" lon="5.01596">
        <ele>196</ele>
        <time>2021-01-02T13:04:48.000Z</time>
      </trkpt>
      <trkpt lat="46.37257" lon="5.01598">
        <ele>196</ele>
        <time>2021-01-02T13:04:49.000Z</time>
      </trkpt>
      <trkpt lat="46.37255" lon="5.01598">
        <ele>196</ele>
        <time>2021-01-02T13:04:50.000Z</time>
      </trkpt>
      <trkpt lat="46.37254" lon="5.01598">
        <ele>196</ele>
        <time>2021-01-02T13:04:51.000Z</time>
      </trkpt>
      <trkpt lat="46.37253" lon="5.01597">
        <ele>196</ele>
        <time>2021-01-02T13:04:52.000Z</time>
      </trkpt>
      <trkpt lat="46.37253" lon="5.01596">
        <ele>195</ele>
        <time>2021-01-02T13:04:53.000Z</time>
      </trkpt>
      <trkpt lat="46.37253" lon="5.01596">
        <ele>195</ele>
        <time>2021-01-02T13:04:54.000Z</time>
      </trkpt>
      <trkpt lat="46.37253" lon="5.01596">
        <ele>195</ele>
        <time>2021-01-02T13:04:55.000Z</time>
      </trkpt>
      <trkpt lat="46.37253" lon="5.01596">
        <ele>195</ele>
        <time>2021-01-02T13:04:56.000Z</time>
      </trkpt>
      <trkpt lat="46.37253" lon="5.01596">
        <ele>195</ele>
        <time>2021-01-02T13:04:57.000Z</time>
      </trkpt>
      <trkpt lat="46.37252" lon="5.01596">
        <ele>195</ele>
        <time>2021-01-02T13:04:58.000Z</time>
      </trkpt>
      <trkpt lat="46.37252" lon="5.01596">
        <ele>195</ele>
        <time>2021-01-02T13:04:59.000Z</time>
      </trkpt>
      <trkpt lat="46.37252" lon="5.01596">
        <ele>195</ele>
        <time>2021-01-02T13:05:00.000Z</time>
      </trkpt>
      <trkpt lat="46.37252" lon="5.01596">
        <ele>195</ele>
        <time>2021-01-02T13:05:01.000Z</time>
      </trkpt>
      <trkpt lat="46.37252" lon="5.01596">
        <ele>195</ele>
        <time>2021-01-02T13:05:02.000Z</time>
      </trkpt>
      <trkpt lat="46.37252" lon="5.01596">
        <ele>195</ele>
        <time>2021-01-02T13:05:03.000Z</time>
      </trkpt>
      <trkpt lat="46.37252" lon="5.01596">
        <ele>195</ele>
        <time>2021-01-02T13:05:04.000Z</time>
      </trkpt>
      <trkpt lat="46.37252" lon="5.01596">
        <ele>194</ele>
        <time>2021-01-02T13:05:05.000Z</time>
      </trkpt>
      <trkpt lat="46.37252" lon="5.01596">
        <ele>194</ele>
        <time>2021-01-02T13:05:06.000Z</time>
      </trkpt>
      <trkpt lat="46.37252" lon="5.01596">
        <ele>194</ele>
        <time>2021-01-02T13:05:07.000Z</time>
      </trkpt>
      <trkpt lat="46.37252" lon="5.01596">
        <ele>194</ele>
        <time>2021-01-02T13:05:08.000Z</time>
      </trkpt>
      <trkpt lat="46.37252" lon="5.01596">
        <ele>194</ele>
        <time>2021-01-02T13:05:09.000Z</time>
      </trkpt>
      <trkpt lat="46.37252" lon="5.01596">
        <ele>194</ele>
        <time>2021-01-02T13:05:10.000Z</time>
      </trkpt>
      <trkpt lat="46.37252" lon="5.01596">
        <ele>194</ele>
        <time>2021-01-02T13:05:11.000Z</time>
      </trkpt>
      <trkpt lat="46.37252" lon="5.01596">
        <ele>194</ele>
        <time>2021-01-02T13:05:12.000Z</time>
      </trkpt>
      <trkpt lat="46.37252" lon="5.01595">
        <ele>194</ele>
        <time>2021-01-02T13:05:13.000Z</time>
      </trkpt>
      <trkpt lat="46.37252" lon="5.01595">
        <ele>194</ele>
        <time>2021-01-02T13:05:14.000Z</time>
      </trkpt>
      <trkpt lat="46.37251" lon="5.01595">
        <ele>194</ele>
        <time>2021-01-02T13:05:15.000Z</time>
      </trkpt>
      <trkpt lat="46.37251" lon="5.01595">
        <ele>194</ele>
        <time>2021-01-02T13:05:16.000Z</time>
      </trkpt>
      <trkpt lat="46.37251" lon="5.01595">
        <ele>194</ele>
        <time>2021-01-02T13:05:17.000Z</time>
      </trkpt>
      <trkpt lat="46.37251" lon="5.01595">
        <ele>194</ele>
        <time>2021-01-02T13:05:18.000Z</time>
      </trkpt>
      <trkpt lat="46.37251" lon="5.01595">
        <ele>194</ele>
        <time>2021-01-02T13:05:19.000Z</time>
      </trkpt>
      <trkpt lat="46.37251" lon="5.01595">
        <ele>194</ele>
        <time>2021-01-02T13:05:20.000Z</time>
      </trkpt>
      <trkpt lat="46.37251" lon="5.01596">
        <ele>194</ele>
        <time>2021-01-02T13:05:21.000Z</time>
      </trkpt>
      <trkpt lat="46.37251" lon="5.01595">
        <ele>194</ele>
        <time>2021-01-02T13:05:22.000Z</time>
      </trkpt>
      <trkpt lat="46.37251" lon="5.01595">
        <ele>194</ele>
        <time>2021-01-02T13:05:23.000Z</time>
      </trkpt>
      <trkpt lat="46.37251" lon="5.01595">
        <ele>194</ele>
        <time>2021-01-02T13:05:24.000Z</time>
      </trkpt>
      <trkpt lat="46.37251" lon="5.01595">
        <ele>194</ele>
        <time>2021-01-02T13:05:25.000Z</time>
      </trkpt>
      <trkpt lat="46.37251" lon="5.01595">
        <ele>194</ele>
        <time>2021-01-02T13:05:26.000Z</time>
      </trkpt>
      <trkpt lat="46.37251" lon="5.01595">
        <ele>194</ele>
        <time>2021-01-02T13:05:27.000Z</time>
      </trkpt>
      <trkpt lat="46.37251" lon="5.01595">
        <ele>194</ele>
        <time>2021-01-02T13:05:28.000Z</time>
      </trkpt>
      <trkpt lat="46.37251" lon="5.01595">
        <ele>194</ele>
        <time>2021-01-02T13:05:29.000Z</time>
      </trkpt>
      <trkpt lat="46.37251" lon="5.01595">
        <ele>194</ele>
        <time>2021-01-02T13:05:30.000Z</time>
      </trkpt>
      <trkpt lat="46.37251" lon="5.01595">
        <ele>194</ele>
        <time>2021-01-02T13:05:31.000Z</time>
      </trkpt>
      <trkpt lat="46.37251" lon="5.01595">
        <ele>194</ele>
        <time>2021-01-02T13:05:32.000Z</time>
      </trkpt>
      <trkpt lat="46.37251" lon="5.01595">
        <ele>194</ele>
        <time>2021-01-02T13:05:33.000Z</time>
      </trkpt>
      <trkpt lat="46.37251" lon="5.01595">
        <ele>194</ele>
        <time>2021-01-02T13:05:34.000Z</time>
      </trkpt>
      <trkpt lat="46.37251" lon="5.01595">
        <ele>194</ele>
        <time>2021-01-02T13:05:35.000Z</time>
      </trkpt>
      <trkpt lat="46.37251" lon="5.01595">
        <ele>194</ele>
        <time>2021-01-02T13:05:36.000Z</time>
      </trkpt>
      <trkpt lat="46.37251" lon="5.01595">
        <ele>194</ele>
        <time>2021-01-02T13:05:37.000Z</time>
      </trkpt>
      <trkpt lat="46.37251" lon="5.01596">
        <ele>194</ele>
        <time>2021-01-02T13:05:38.000Z</time>
      </trkpt>
      <trkpt lat="46.37251" lon="5.01596">
        <ele>195</ele>
        <time>2021-01-02T13:05:39.000Z</time>
      </trkpt>
      <trkpt lat="46.37251" lon="5.01596">
        <ele>195</ele>
        <time>2021-01-02T13:05:40.000Z</time>
      </trkpt>
      <trkpt lat="46.37251" lon="5.01596">
        <ele>195</ele>
        <time>2021-01-02T13:05:41.000Z</time>
      </trkpt>
      <trkpt lat="46.37251" lon="5.01596">
        <ele>195</ele>
        <time>2021-01-02T13:05:42.000Z</time>
      </trkpt>
      <trkpt lat="46.37251" lon="5.01595">
        <ele>195</ele>
        <time>2021-01-02T13:05:43.000Z</time>
      </trkpt>
      <trkpt lat="46.37251" lon="5.01595">
        <ele>195</ele>
        <time>2021-01-02T13:05:44.000Z</time>
      </trkpt>
      <trkpt lat="46.37251" lon="5.01595">
        <ele>195</ele>
        <time>2021-01-02T13:05:45.000Z</time>
      </trkpt>
      <trkpt lat="46.37251" lon="5.01595">
        <ele>195</ele>
        <time>2021-01-02T13:05:46.000Z</time>
      </trkpt>
      <trkpt lat="46.37251" lon="5.01595">
        <ele>195</ele>
        <time>2021-01-02T13:05:47.000Z</time>
      </trkpt>
      <trkpt lat="46.37251" lon="5.01595">
        <ele>195</ele>
        <time>2021-01-02T13:05:48.000Z</time>
      </trkpt>
      <trkpt lat="46.37251" lon="5.01594">
        <ele>195</ele>
        <time>2021-01-02T13:05:49.000Z</time>
      </trkpt>
      <trkpt lat="46.37251" lon="5.01594">
        <ele>195</ele>
        <time>2021-01-02T13:05:50.000Z</time>
      </trkpt>
      <trkpt lat="46.37251" lon="5.01594">
        <ele>195</ele>
        <time>2021-01-02T13:05:51.000Z</time>
      </trkpt>
      <trkpt lat="46.37251" lon="5.01594">
        <ele>195</ele>
        <time>2021-01-02T13:05:52.000Z</time>
      </trkpt>
      <trkpt lat="46.37251" lon="5.01594">
        <ele>195</ele>
        <time>2021-01-02T13:05:53.000Z</time>
      </trkpt>
      <trkpt lat="46.37251" lon="5.01594">
        <ele>195</ele>
        <time>2021-01-02T13:05:54.000Z</time>
      </trkpt>
      <trkpt lat="46.37251" lon="5.01594">
        <ele>195</ele>
        <time>2021-01-02T13:05:55.000Z</time>
      </trkpt>
      <trkpt lat="46.37251" lon="5.01594">
        <ele>195</ele>
        <time>2021-01-02T13:05:56.000Z</time>
      </trkpt>
      <trkpt lat="46.3725" lon="5.01594">
        <ele>196</ele>
        <time>2021-01-02T13:05:57.000Z</time>
      </trkpt>
      <trkpt lat="46.3725" lon="5.01594">
        <ele>196</ele>
        <time>2021-01-02T13:05:58.000Z</time>
      </trkpt>
      <trkpt lat="46.3725" lon="5.01594">
        <ele>196</ele>
        <time>2021-01-02T13:05:59.000Z</time>
      </trkpt>
      <trkpt lat="46.3725" lon="5.01594">
        <ele>196</ele>
        <time>2021-01-02T13:06:00.000Z</time>
      </trkpt>
      <trkpt lat="46.3725" lon="5.01594">
        <ele>196</ele>
        <time>2021-01-02T13:06:01.000Z</time>
      </trkpt>
      <trkpt lat="46.37249" lon="5.01593">
        <ele>196</ele>
        <time>2021-01-02T13:06:02.000Z</time>
      </trkpt>
      <trkpt lat="46.37248" lon="5.01592">
        <ele>196</ele>
        <time>2021-01-02T13:06:03.000Z</time>
      </trkpt>
      <trkpt lat="46.37247" lon="5.01591">
        <ele>196</ele>
        <time>2021-01-02T13:06:04.000Z</time>
      </trkpt>
      <trkpt lat="46.37245" lon="5.0159">
        <ele>196</ele>
        <time>2021-01-02T13:06:05.000Z</time>
      </trkpt>
      <trkpt lat="46.37244" lon="5.01589">
        <ele>196</ele>
        <time>2021-01-02T13:06:06.000Z</time>
      </trkpt>
      <trkpt lat="46.37242" lon="5.01588">
        <ele>196</ele>
        <time>2021-01-02T13:06:07.000Z</time>
      </trkpt>
      <trkpt lat="46.3724" lon="5.01587">
        <ele>196</ele>
        <time>2021-01-02T13:06:08.000Z</time>
      </trkpt>
      <trkpt lat="46.37238" lon="5.01586">
        <ele>196</ele>
        <time>2021-01-02T13:06:09.000Z</time>
      </trkpt>
      <trkpt lat="46.37237" lon="5.01585">
        <ele>196</ele>
        <time>2021-01-02T13:06:10.000Z</time>
      </trkpt>
      <trkpt lat="46.37235" lon="5.01583">
        <ele>196</ele>
        <time>2021-01-02T13:06:11.000Z</time>
      </trkpt>
      <trkpt lat="46.37235" lon="5.01583">
        <ele>196</ele>
        <time>2021-01-02T13:06:12.000Z</time>
      </trkpt>
      <trkpt lat="46.37234" lon="5.01583">
        <ele>196</ele>
        <time>2021-01-02T13:06:13.000Z</time>
      </trkpt>
      <trkpt lat="46.37233" lon="5.01582">
        <ele>196</ele>
        <time>2021-01-02T13:06:14.000Z</time>
      </trkpt>
      <trkpt lat="46.37231" lon="5.01581">
        <ele>196</ele>
        <time>2021-01-02T13:06:15.000Z</time>
      </trkpt>
      <trkpt lat="46.37229" lon="5.0158">
        <ele>196</ele>
        <time>2021-01-02T13:06:16.000Z</time>
      </trkpt>
      <trkpt lat="46.37227" lon="5.01578">
        <ele>196</ele>
        <time>2021-01-02T13:06:17.000Z</time>
      </trkpt>
      <trkpt lat="46.37225" lon="5.01578">
        <ele>196</ele>
        <time>2021-01-02T13:06:18.000Z</time>
      </trkpt>
      <trkpt lat="46.37223" lon="5.01576">
        <ele>196</ele>
        <time>2021-01-02T13:06:19.000Z</time>
      </trkpt>
      <trkpt lat="46.37221" lon="5.01575">
        <ele>196</ele>
        <time>2021-01-02T13:06:20.000Z</time>
      </trkpt>
      <trkpt lat="46.37219" lon="5.01574">
        <ele>196</ele>
        <time>2021-01-02T13:06:21.000Z</time>
      </trkpt>
      <trkpt lat="46.37217" lon="5.01573">
        <ele>196</ele>
        <time>2021-01-02T13:06:22.000Z</time>
      </trkpt>
      <trkpt lat="46.37215" lon="5.01571">
        <ele>196</ele>
        <time>2021-01-02T13:06:23.000Z</time>
      </trkpt>
      <trkpt lat="46.37213" lon="5.0157">
        <ele>196</ele>
        <time>2021-01-02T13:06:24.000Z</time>
      </trkpt>
      <trkpt lat="46.37211" lon="5.01569">
        <ele>196</ele>
        <time>2021-01-02T13:06:25.000Z</time>
      </trkpt>
      <trkpt lat="46.37209" lon="5.01568">
        <ele>196</ele>
        <time>2021-01-02T13:06:26.000Z</time>
      </trkpt>
      <trkpt lat="46.37207" lon="5.01566">
        <ele>196</ele>
        <time>2021-01-02T13:06:27.000Z</time>
      </trkpt>
      <trkpt lat="46.37205" lon="5.01564">
        <ele>196</ele>
        <time>2021-01-02T13:06:28.000Z</time>
      </trkpt>
      <trkpt lat="46.37203" lon="5.01563">
        <ele>196</ele>
        <time>2021-01-02T13:06:29.000Z</time>
      </trkpt>
      <trkpt lat="46.37202" lon="5.01562">
        <ele>196</ele>
        <time>2021-01-02T13:06:30.000Z</time>
      </trkpt>
      <trkpt lat="46.372" lon="5.0156">
        <ele>196</ele>
        <time>2021-01-02T13:06:31.000Z</time>
      </trkpt>
      <trkpt lat="46.37198" lon="5.01559">
        <ele>196</ele>
        <time>2021-01-02T13:06:32.000Z</time>
      </trkpt>
      <trkpt lat="46.37196" lon="5.01558">
        <ele>196</ele>
        <time>2021-01-02T13:06:33.000Z</time>
      </trkpt>
      <trkpt lat="46.37194" lon="5.01556">
        <ele>196</ele>
        <time>2021-01-02T13:06:34.000Z</time>
      </trkpt>
      <trkpt lat="46.37193" lon="5.01554">
        <ele>196</ele>
        <time>2021-01-02T13:06:35.000Z</time>
      </trkpt>
      <trkpt lat="46.37191" lon="5.01553">
        <ele>196</ele>
        <time>2021-01-02T13:06:36.000Z</time>
      </trkpt>
      <trkpt lat="46.37189" lon="5.01552">
        <ele>196</ele>
        <time>2021-01-02T13:06:37.000Z</time>
      </trkpt>
      <trkpt lat="46.37187" lon="5.0155">
        <ele>196</ele>
        <time>2021-01-02T13:06:38.000Z</time>
      </trkpt>
      <trkpt lat="46.37185" lon="5.01549">
        <ele>196</ele>
        <time>2021-01-02T13:06:39.000Z</time>
      </trkpt>
      <trkpt lat="46.37184" lon="5.01548">
        <ele>196</ele>
        <time>2021-01-02T13:06:40.000Z</time>
      </trkpt>
      <trkpt lat="46.37182" lon="5.01547">
        <ele>196</ele>
        <time>2021-01-02T13:06:41.000Z</time>
      </trkpt>
      <trkpt lat="46.37179" lon="5.01546">
        <ele>196</ele>
        <time>2021-01-02T13:06:42.000Z</time>
      </trkpt>
      <trkpt lat="46.37177" lon="5.01545">
        <ele>196</ele>
        <time>2021-01-02T13:06:43.000Z</time>
      </trkpt>
      <trkpt lat="46.37176" lon="5.01544">
        <ele>196</ele>
        <time>2021-01-02T13:06:44.000Z</time>
      </trkpt>
      <trkpt lat="46.37174" lon="5.01543">
        <ele>196</ele>
        <time>2021-01-02T13:06:45.000Z</time>
      </trkpt>
      <trkpt lat="46.37172" lon="5.01542">
        <ele>196</ele>
        <time>2021-01-02T13:06:46.000Z</time>
      </trkpt>
      <trkpt lat="46.3717" lon="5.01541">
        <ele>196</ele>
        <time>2021-01-02T13:06:47.000Z</time>
      </trkpt>
      <trkpt lat="46.37169" lon="5.01541">
        <ele>197</ele>
        <time>2021-01-02T13:06:48.000Z</time>
      </trkpt>
      <trkpt lat="46.37167" lon="5.0154">
        <ele>197</ele>
        <time>2021-01-02T13:06:49.000Z</time>
      </trkpt>
      <trkpt lat="46.37165" lon="5.01539">
        <ele>197</ele>
        <time>2021-01-02T13:06:50.000Z</time>
      </trkpt>
      <trkpt lat="46.37163" lon="5.01539">
        <ele>197</ele>
        <time>2021-01-02T13:06:51.000Z</time>
      </trkpt>
      <trkpt lat="46.37161" lon="5.01538">
        <ele>197</ele>
        <time>2021-01-02T13:06:52.000Z</time>
      </trkpt>
      <trkpt lat="46.37159" lon="5.01538">
        <ele>197</ele>
        <time>2021-01-02T13:06:53.000Z</time>
      </trkpt>
      <trkpt lat="46.37158" lon="5.01538">
        <ele>197</ele>
        <time>2021-01-02T13:06:54.000Z</time>
      </trkpt>
      <trkpt lat="46.37156" lon="5.01539">
        <ele>197</ele>
        <time>2021-01-02T13:06:55.000Z</time>
      </trkpt>
      <trkpt lat="46.37154" lon="5.01539">
        <ele>197</ele>
        <time>2021-01-02T13:06:56.000Z</time>
      </trkpt>
      <trkpt lat="46.37152" lon="5.01539">
        <ele>197</ele>
        <time>2021-01-02T13:06:57.000Z</time>
      </trkpt>
      <trkpt lat="46.37151" lon="5.0154">
        <ele>198</ele>
        <time>2021-01-02T13:06:58.000Z</time>
      </trkpt>
      <trkpt lat="46.37149" lon="5.0154">
        <ele>198</ele>
        <time>2021-01-02T13:06:59.000Z</time>
      </trkpt>
      <trkpt lat="46.37147" lon="5.0154">
        <ele>198</ele>
        <time>2021-01-02T13:07:00.000Z</time>
      </trkpt>
      <trkpt lat="46.37146" lon="5.01541">
        <ele>198</ele>
        <time>2021-01-02T13:07:01.000Z</time>
      </trkpt>
      <trkpt lat="46.37144" lon="5.01541">
        <ele>198</ele>
        <time>2021-01-02T13:07:02.000Z</time>
      </trkpt>
      <trkpt lat="46.37143" lon="5.01542">
        <ele>198</ele>
        <time>2021-01-02T13:07:03.000Z</time>
      </trkpt>
      <trkpt lat="46.37141" lon="5.01542">
        <ele>198</ele>
        <time>2021-01-02T13:07:04.000Z</time>
      </trkpt>
      <trkpt lat="46.3714" lon="5.01542">
        <ele>198</ele>
        <time>2021-01-02T13:07:05.000Z</time>
      </trkpt>
      <trkpt lat="46.37138" lon="5.01543">
        <ele>198</ele>
        <time>2021-01-02T13:07:06.000Z</time>
      </trkpt>
      <trkpt lat="46.37136" lon="5.01543">
        <ele>197</ele>
        <time>2021-01-02T13:07:07.000Z</time>
      </trkpt>
      <trkpt lat="46.37134" lon="5.01542">
        <ele>197</ele>
        <time>2021-01-02T13:07:08.000Z</time>
      </trkpt>
      <trkpt lat="46.37133" lon="5.01542">
        <ele>197</ele>
        <time>2021-01-02T13:07:09.000Z</time>
      </trkpt>
      <trkpt lat="46.37131" lon="5.01542">
        <ele>197</ele>
        <time>2021-01-02T13:07:10.000Z</time>
      </trkpt>
      <trkpt lat="46.37129" lon="5.01541">
        <ele>197</ele>
        <time>2021-01-02T13:07:11.000Z</time>
      </trkpt>
      <trkpt lat="46.37128" lon="5.01541">
        <ele>197</ele>
        <time>2021-01-02T13:07:12.000Z</time>
      </trkpt>
      <trkpt lat="46.37126" lon="5.0154">
        <ele>197</ele>
        <time>2021-01-02T13:07:13.000Z</time>
      </trkpt>
      <trkpt lat="46.37125" lon="5.01539">
        <ele>197</ele>
        <time>2021-01-02T13:07:14.000Z</time>
      </trkpt>
      <trkpt lat="46.37124" lon="5.01538">
        <ele>197</ele>
        <time>2021-01-02T13:07:15.000Z</time>
      </trkpt>
      <trkpt lat="46.37123" lon="5.01538">
        <ele>197</ele>
        <time>2021-01-02T13:07:16.000Z</time>
      </trkpt>
      <trkpt lat="46.37123" lon="5.01538">
        <ele>197</ele>
        <time>2021-01-02T13:07:17.000Z</time>
      </trkpt>
      <trkpt lat="46.37123" lon="5.01538">
        <ele>197</ele>
        <time>2021-01-02T13:07:18.000Z</time>
      </trkpt>
      <trkpt lat="46.37123" lon="5.01538">
        <ele>197</ele>
        <time>2021-01-02T13:07:19.000Z</time>
      </trkpt>
      <trkpt lat="46.37123" lon="5.01538">
        <ele>197</ele>
        <time>2021-01-02T13:07:20.000Z</time>
      </trkpt>
      <trkpt lat="46.37123" lon="5.01538">
        <ele>197</ele>
        <time>2021-01-02T13:07:21.000Z</time>
      </trkpt>
      <trkpt lat="46.37123" lon="5.01538">
        <ele>196</ele>
        <time>2021-01-02T13:07:22.000Z</time>
      </trkpt>
      <trkpt lat="46.37123" lon="5.01538">
        <ele>196</ele>
        <time>2021-01-02T13:07:23.000Z</time>
      </trkpt>
      <trkpt lat="46.37123" lon="5.01538">
        <ele>196</ele>
        <time>2021-01-02T13:07:24.000Z</time>
      </trkpt>
      <trkpt lat="46.37123" lon="5.01538">
        <ele>196</ele>
        <time>2021-01-02T13:07:25.000Z</time>
      </trkpt>
      <trkpt lat="46.37123" lon="5.01538">
        <ele>196</ele>
        <time>2021-01-02T13:07:26.000Z</time>
      </trkpt>
      <trkpt lat="46.37123" lon="5.01538">
        <ele>196</ele>
        <time>2021-01-02T13:07:27.000Z</time>
      </trkpt>
      <trkpt lat="46.37122" lon="5.01538">
        <ele>196</ele>
        <time>2021-01-02T13:07:28.000Z</time>
      </trkpt>
      <trkpt lat="46.37122" lon="5.01538">
        <ele>196</ele>
        <time>2021-01-02T13:07:29.000Z</time>
      </trkpt>
      <trkpt lat="46.37122" lon="5.01538">
        <ele>196</ele>
        <time>2021-01-02T13:07:30.000Z</time>
      </trkpt>
      <trkpt lat="46.37122" lon="5.01538">
        <ele>196</ele>
        <time>2021-01-02T13:07:31.000Z</time>
      </trkpt>
      <trkpt lat="46.37122" lon="5.01538">
        <ele>196</ele>
        <time>2021-01-02T13:07:32.000Z</time>
      </trkpt>
      <trkpt lat="46.37122" lon="5.01538">
        <ele>196</ele>
        <time>2021-01-02T13:07:33.000Z</time>
      </trkpt>
      <trkpt lat="46.37122" lon="5.01538">
        <ele>196</ele>
        <time>2021-01-02T13:07:34.000Z</time>
      </trkpt>
      <trkpt lat="46.37122" lon="5.01538">
        <ele>196</ele>
        <time>2021-01-02T13:07:35.000Z</time>
      </trkpt>
      <trkpt lat="46.37122" lon="5.01538">
        <ele>196</ele>
        <time>2021-01-02T13:07:36.000Z</time>
      </trkpt>
      <trkpt lat="46.37122" lon="5.01538">
        <ele>196</ele>
        <time>2021-01-02T13:07:37.000Z</time>
      </trkpt>
      <trkpt lat="46.37122" lon="5.01538">
        <ele>196</ele>
        <time>2021-01-02T13:07:38.000Z</time>
      </trkpt>
      <trkpt lat="46.37122" lon="5.01538">
        <ele>196</ele>
        <time>2021-01-02T13:07:39.000Z</time>
      </trkpt>
      <trkpt lat="46.37122" lon="5.01538">
        <ele>196</ele>
        <time>2021-01-02T13:07:40.000Z</time>
      </trkpt>
      <trkpt lat="46.37122" lon="5.01538">
        <ele>196</ele>
        <time>2021-01-02T13:07:41.000Z</time>
      </trkpt>
      <trkpt lat="46.37122" lon="5.01538">
        <ele>196</ele>
        <time>2021-01-02T13:07:42.000Z</time>
      </trkpt>
      <trkpt lat="46.37122" lon="5.01538">
        <ele>196</ele>
        <time>2021-01-02T13:07:43.000Z</time>
      </trkpt>
      <trkpt lat="46.37122" lon="5.01538">
        <ele>196</ele>
        <time>2021-01-02T13:07:44.000Z</time>
      </trkpt>
      <trkpt lat="46.37122" lon="5.01538">
        <ele>196</ele>
        <time>2021-01-02T13:07:45.000Z</time>
      </trkpt>
      <trkpt lat="46.37122" lon="5.01538">
        <ele>196</ele>
        <time>2021-01-02T13:07:46.000Z</time>
      </trkpt>
      <trkpt lat="46.37122" lon="5.01538">
        <ele>196</ele>
        <time>2021-01-02T13:07:47.000Z</time>
      </trkpt>
      <trkpt lat="46.37122" lon="5.01538">
        <ele>196</ele>
        <time>2021-01-02T13:07:48.000Z</time>
      </trkpt>
      <trkpt lat="46.37122" lon="5.01538">
        <ele>196</ele>
        <time>2021-01-02T13:07:49.000Z</time>
      </trkpt>
      <trkpt lat="46.37122" lon="5.01538">
        <ele>196</ele>
        <time>2021-01-02T13:07:50.000Z</time>
      </trkpt>
      <trkpt lat="46.37122" lon="5.01538">
        <ele>196</ele>
        <time>2021-01-02T13:07:51.000Z</time>
      </trkpt>
      <trkpt lat="46.37122" lon="5.01538">
        <ele>196</ele>
        <time>2021-01-02T13:07:52.000Z</time>
      </trkpt>
      <trkpt lat="46.37122" lon="5.01538">
        <ele>196</ele>
        <time>2021-01-02T13:07:53.000Z</time>
      </trkpt>
      <trkpt lat="46.37122" lon="5.01538">
        <ele>196</ele>
        <time>2021-01-02T13:07:54.000Z</time>
      </trkpt>
      <trkpt lat="46.37122" lon="5.01538">
        <ele>196</ele>
        <time>2021-01-02T13:07:55.000Z</time>
      </trkpt>
      <trkpt lat="46.37122" lon="5.01538">
        <ele>196</ele>
        <time>2021-01-02T13:07:56.000Z</time>
      </trkpt>
      <trkpt lat="46.37122" lon="5.01538">
        <ele>196</ele>
        <time>2021-01-02T13:07:57.000Z</time>
      </trkpt>
      <trkpt lat="46.37122" lon="5.01538">
        <ele>196</ele>
        <time>2021-01-02T13:07:58.000Z</time>
      </trkpt>
      <trkpt lat="46.37122" lon="5.01538">
        <ele>196</ele>
        <time>2021-01-02T13:07:59.000Z</time>
      </trkpt>
      <trkpt lat="46.37122" lon="5.01538">
        <ele>196</ele>
        <time>2021-01-02T13:08:00.000Z</time>
      </trkpt>
      <trkpt lat="46.37122" lon="5.01538">
        <ele>196</ele>
        <time>2021-01-02T13:08:01.000Z</time>
      </trkpt>
      <trkpt lat="46.37122" lon="5.01538">
        <ele>196</ele>
        <time>2021-01-02T13:08:02.000Z</time>
      </trkpt>
      <trkpt lat="46.37122" lon="5.01538">
        <ele>196</ele>
        <time>2021-01-02T13:08:03.000Z</time>
      </trkpt>
      <trkpt lat="46.37122" lon="5.01538">
        <ele>196</ele>
        <time>2021-01-02T13:08:04.000Z</time>
      </trkpt>
      <trkpt lat="46.37122" lon="5.01538">
        <ele>196</ele>
        <time>2021-01-02T13:08:05.000Z</time>
      </trkpt>
      <trkpt lat="46.37122" lon="5.01538">
        <ele>196</ele>
        <time>2021-01-02T13:08:06.000Z</time>
      </trkpt>
      <trkpt lat="46.37122" lon="5.01538">
        <ele>196</ele>
        <time>2021-01-02T13:08:07.000Z</time>
      </trkpt>
      <trkpt lat="46.37121" lon="5.01538">
        <ele>196</ele>
        <time>2021-01-02T13:08:08.000Z</time>
      </trkpt>
      <trkpt lat="46.3712" lon="5.01537">
        <ele>196</ele>
        <time>2021-01-02T13:08:09.000Z</time>
      </trkpt>
      <trkpt lat="46.3712" lon="5.01536">
        <ele>196</ele>
        <time>2021-01-02T13:08:10.000Z</time>
      </trkpt>
      <trkpt lat="46.37118" lon="5.01534">
        <ele>196</ele>
        <time>2021-01-02T13:08:11.000Z</time>
      </trkpt>
      <trkpt lat="46.37117" lon="5.01533">
        <ele>196</ele>
        <time>2021-01-02T13:08:12.000Z</time>
      </trkpt>
      <trkpt lat="46.37116" lon="5.01531">
        <ele>196</ele>
        <time>2021-01-02T13:08:13.000Z</time>
      </trkpt>
      <trkpt lat="46.37114" lon="5.01529">
        <ele>196</ele>
        <time>2021-01-02T13:08:14.000Z</time>
      </trkpt>
      <trkpt lat="46.37113" lon="5.01528">
        <ele>196</ele>
        <time>2021-01-02T13:08:15.000Z</time>
      </trkpt>
      <trkpt lat="46.37111" lon="5.01526">
        <ele>196</ele>
        <time>2021-01-02T13:08:16.000Z</time>
      </trkpt>
      <trkpt lat="46.3711" lon="5.01525">
        <ele>196</ele>
        <time>2021-01-02T13:08:17.000Z</time>
      </trkpt>
      <trkpt lat="46.37108" lon="5.01523">
        <ele>196</ele>
        <time>2021-01-02T13:08:18.000Z</time>
      </trkpt>
      <trkpt lat="46.37106" lon="5.01522">
        <ele>196</ele>
        <time>2021-01-02T13:08:19.000Z</time>
      </trkpt>
      <trkpt lat="46.37104" lon="5.0152">
        <ele>196</ele>
        <time>2021-01-02T13:08:20.000Z</time>
      </trkpt>
      <trkpt lat="46.37103" lon="5.01519">
        <ele>196</ele>
        <time>2021-01-02T13:08:21.000Z</time>
      </trkpt>
      <trkpt lat="46.37101" lon="5.01518">
        <ele>196</ele>
        <time>2021-01-02T13:08:22.000Z</time>
      </trkpt>
      <trkpt lat="46.37099" lon="5.01518">
        <ele>196</ele>
        <time>2021-01-02T13:08:23.000Z</time>
      </trkpt>
      <trkpt lat="46.37097" lon="5.01518">
        <ele>196</ele>
        <time>2021-01-02T13:08:24.000Z</time>
      </trkpt>
      <trkpt lat="46.37095" lon="5.01518">
        <ele>196</ele>
        <time>2021-01-02T13:08:25.000Z</time>
      </trkpt>
      <trkpt lat="46.37093" lon="5.01519">
        <ele>197</ele>
        <time>2021-01-02T13:08:26.000Z</time>
      </trkpt>
      <trkpt lat="46.37091" lon="5.01521">
        <ele>197</ele>
        <time>2021-01-02T13:08:27.000Z</time>
      </trkpt>
      <trkpt lat="46.3709" lon="5.01523">
        <ele>197</ele>
        <time>2021-01-02T13:08:28.000Z</time>
      </trkpt>
      <trkpt lat="46.37089" lon="5.01526">
        <ele>197</ele>
        <time>2021-01-02T13:08:29.000Z</time>
      </trkpt>
      <trkpt lat="46.37088" lon="5.01528">
        <ele>197</ele>
        <time>2021-01-02T13:08:30.000Z</time>
      </trkpt>
      <trkpt lat="46.37087" lon="5.01531">
        <ele>197</ele>
        <time>2021-01-02T13:08:31.000Z</time>
      </trkpt>
      <trkpt lat="46.37086" lon="5.01534">
        <ele>198</ele>
        <time>2021-01-02T13:08:32.000Z</time>
      </trkpt>
      <trkpt lat="46.37086" lon="5.01536">
        <ele>198</ele>
        <time>2021-01-02T13:08:33.000Z</time>
      </trkpt>
      <trkpt lat="46.37085" lon="5.01539">
        <ele>198</ele>
        <time>2021-01-02T13:08:34.000Z</time>
      </trkpt>
      <trkpt lat="46.37084" lon="5.01542">
        <ele>198</ele>
        <time>2021-01-02T13:08:35.000Z</time>
      </trkpt>
      <trkpt lat="46.37084" lon="5.01544">
        <ele>198</ele>
        <time>2021-01-02T13:08:36.000Z</time>
      </trkpt>
      <trkpt lat="46.37083" lon="5.01547">
        <ele>198</ele>
        <time>2021-01-02T13:08:37.000Z</time>
      </trkpt>
      <trkpt lat="46.37083" lon="5.0155">
        <ele>198</ele>
        <time>2021-01-02T13:08:38.000Z</time>
      </trkpt>
      <trkpt lat="46.37082" lon="5.01553">
        <ele>199</ele>
        <time>2021-01-02T13:08:39.000Z</time>
      </trkpt>
      <trkpt lat="46.37082" lon="5.01555">
        <ele>199</ele>
        <time>2021-01-02T13:08:40.000Z</time>
      </trkpt>
      <trkpt lat="46.37081" lon="5.01558">
        <ele>199</ele>
        <time>2021-01-02T13:08:41.000Z</time>
      </trkpt>
      <trkpt lat="46.37081" lon="5.01561">
        <ele>199</ele>
        <time>2021-01-02T13:08:42.000Z</time>
      </trkpt>
      <trkpt lat="46.3708" lon="5.01564">
        <ele>199</ele>
        <time>2021-01-02T13:08:43.000Z</time>
      </trkpt>
      <trkpt lat="46.3708" lon="5.01567">
        <ele>199</ele>
        <time>2021-01-02T13:08:44.000Z</time>
      </trkpt>
      <trkpt lat="46.37079" lon="5.0157">
        <ele>199</ele>
        <time>2021-01-02T13:08:45.000Z</time>
      </trkpt>
      <trkpt lat="46.37079" lon="5.01572">
        <ele>199</ele>
        <time>2021-01-02T13:08:46.000Z</time>
      </trkpt>
      <trkpt lat="46.37078" lon="5.01575">
        <ele>200</ele>
        <time>2021-01-02T13:08:47.000Z</time>
      </trkpt>
      <trkpt lat="46.37078" lon="5.01578">
        <ele>200</ele>
        <time>2021-01-02T13:08:48.000Z</time>
      </trkpt>
      <trkpt lat="46.37077" lon="5.0158">
        <ele>200</ele>
        <time>2021-01-02T13:08:49.000Z</time>
      </trkpt>
      <trkpt lat="46.37077" lon="5.01583">
        <ele>200</ele>
        <time>2021-01-02T13:08:50.000Z</time>
      </trkpt>
      <trkpt lat="46.37076" lon="5.01586">
        <ele>200</ele>
        <time>2021-01-02T13:08:51.000Z</time>
      </trkpt>
      <trkpt lat="46.37076" lon="5.01588">
        <ele>200</ele>
        <time>2021-01-02T13:08:52.000Z</time>
      </trkpt>
      <trkpt lat="46.37075" lon="5.01591">
        <ele>200</ele>
        <time>2021-01-02T13:08:53.000Z</time>
      </trkpt>
      <trkpt lat="46.37075" lon="5.01594">
        <ele>200</ele>
        <time>2021-01-02T13:08:54.000Z</time>
      </trkpt>
      <trkpt lat="46.37074" lon="5.01597">
        <ele>201</ele>
        <time>2021-01-02T13:08:55.000Z</time>
      </trkpt>
      <trkpt lat="46.37074" lon="5.01599">
        <ele>201</ele>
        <time>2021-01-02T13:08:56.000Z</time>
      </trkpt>
      <trkpt lat="46.37073" lon="5.01602">
        <ele>201</ele>
        <time>2021-01-02T13:08:57.000Z</time>
      </trkpt>
      <trkpt lat="46.37073" lon="5.01604">
        <ele>201</ele>
        <time>2021-01-02T13:08:58.000Z</time>
      </trkpt>
      <trkpt lat="46.37072" lon="5.01607">
        <ele>201</ele>
        <time>2021-01-02T13:08:59.000Z</time>
      </trkpt>
      <trkpt lat="46.37072" lon="5.0161">
        <ele>201</ele>
        <time>2021-01-02T13:09:00.000Z</time>
      </trkpt>
      <trkpt lat="46.37071" lon="5.01612">
        <ele>201</ele>
        <time>2021-01-02T13:09:01.000Z</time>
      </trkpt>
      <trkpt lat="46.37071" lon="5.01615">
        <ele>202</ele>
        <time>2021-01-02T13:09:02.000Z</time>
      </trkpt>
      <trkpt lat="46.3707" lon="5.01617">
        <ele>202</ele>
        <time>2021-01-02T13:09:03.000Z</time>
      </trkpt>
      <trkpt lat="46.3707" lon="5.0162">
        <ele>202</ele>
        <time>2021-01-02T13:09:04.000Z</time>
      </trkpt>
      <trkpt lat="46.37069" lon="5.01622">
        <ele>202</ele>
        <time>2021-01-02T13:09:05.000Z</time>
      </trkpt>
      <trkpt lat="46.37069" lon="5.01625">
        <ele>202</ele>
        <time>2021-01-02T13:09:06.000Z</time>
      </trkpt>
      <trkpt lat="46.37069" lon="5.01628">
        <ele>202</ele>
        <time>2021-01-02T13:09:07.000Z</time>
      </trkpt>
      <trkpt lat="46.37069" lon="5.0163">
        <ele>202</ele>
        <time>2021-01-02T13:09:08.000Z</time>
      </trkpt>
      <trkpt lat="46.37068" lon="5.01633">
        <ele>202</ele>
        <time>2021-01-02T13:09:09.000Z</time>
      </trkpt>
      <trkpt lat="46.37068" lon="5.01636">
        <ele>203</ele>
        <time>2021-01-02T13:09:10.000Z</time>
      </trkpt>
      <trkpt lat="46.37068" lon="5.01638">
        <ele>203</ele>
        <time>2021-01-02T13:09:11.000Z</time>
      </trkpt>
      <trkpt lat="46.37067" lon="5.01641">
        <ele>203</ele>
        <time>2021-01-02T13:09:12.000Z</time>
      </trkpt>
      <trkpt lat="46.37067" lon="5.01644">
        <ele>203</ele>
        <time>2021-01-02T13:09:13.000Z</time>
      </trkpt>
      <trkpt lat="46.37067" lon="5.01646">
        <ele>203</ele>
        <time>2021-01-02T13:09:14.000Z</time>
      </trkpt>
      <trkpt lat="46.37066" lon="5.01648">
        <ele>203</ele>
        <time>2021-01-02T13:09:15.000Z</time>
      </trkpt>
      <trkpt lat="46.37065" lon="5.0165">
        <ele>203</ele>
        <time>2021-01-02T13:09:16.000Z</time>
      </trkpt>
      <trkpt lat="46.37065" lon="5.01652">
        <ele>203</ele>
        <time>2021-01-02T13:09:17.000Z</time>
      </trkpt>
      <trkpt lat="46.37065" lon="5.01653">
        <ele>203</ele>
        <time>2021-01-02T13:09:18.000Z</time>
      </trkpt>
      <trkpt lat="46.37065" lon="5.01655">
        <ele>203</ele>
        <time>2021-01-02T13:09:19.000Z</time>
      </trkpt>
      <trkpt lat="46.37065" lon="5.01657">
        <ele>203</ele>
        <time>2021-01-02T13:09:20.000Z</time>
      </trkpt>
      <trkpt lat="46.37064" lon="5.01659">
        <ele>203</ele>
        <time>2021-01-02T13:09:21.000Z</time>
      </trkpt>
      <trkpt lat="46.37064" lon="5.01661">
        <ele>203</ele>
        <time>2021-01-02T13:09:22.000Z</time>
      </trkpt>
      <trkpt lat="46.37064" lon="5.01662">
        <ele>203</ele>
        <time>2021-01-02T13:09:23.000Z</time>
      </trkpt>
      <trkpt lat="46.37064" lon="5.01662">
        <ele>203</ele>
        <time>2021-01-02T13:09:24.000Z</time>
      </trkpt>
      <trkpt lat="46.37064" lon="5.01662">
        <ele>203</ele>
        <time>2021-01-02T13:09:25.000Z</time>
      </trkpt>
      <trkpt lat="46.37064" lon="5.01662">
        <ele>203</ele>
        <time>2021-01-02T13:09:26.000Z</time>
      </trkpt>
      <trkpt lat="46.37064" lon="5.01662">
        <ele>203</ele>
        <time>2021-01-02T13:09:27.000Z</time>
      </trkpt>
      <trkpt lat="46.37064" lon="5.01662">
        <ele>203</ele>
        <time>2021-01-02T13:09:28.000Z</time>
      </trkpt>
      <trkpt lat="46.37064" lon="5.01662">
        <ele>203</ele>
        <time>2021-01-02T13:09:29.000Z</time>
      </trkpt>
      <trkpt lat="46.37064" lon="5.01662">
        <ele>203</ele>
        <time>2021-01-02T13:09:30.000Z</time>
      </trkpt>
      <trkpt lat="46.37064" lon="5.01662">
        <ele>203</ele>
        <time>2021-01-02T13:09:31.000Z</time>
      </trkpt>
      <trkpt lat="46.37064" lon="5.01662">
        <ele>203</ele>
        <time>2021-01-02T13:09:32.000Z</time>
      </trkpt>
      <trkpt lat="46.37064" lon="5.01662">
        <ele>203</ele>
        <time>2021-01-02T13:09:33.000Z</time>
      </trkpt>
      <trkpt lat="46.37064" lon="5.01662">
        <ele>203</ele>
        <time>2021-01-02T13:09:34.000Z</time>
      </trkpt>
      <trkpt lat="46.37064" lon="5.01662">
        <ele>203</ele>
        <time>2021-01-02T13:09:35.000Z</time>
      </trkpt>
      <trkpt lat="46.37064" lon="5.01662">
        <ele>203</ele>
        <time>2021-01-02T13:09:36.000Z</time>
      </trkpt>
      <trkpt lat="46.37064" lon="5.01662">
        <ele>203</ele>
        <time>2021-01-02T13:09:37.000Z</time>
      </trkpt>
      <trkpt lat="46.37064" lon="5.01662">
        <ele>203</ele>
        <time>2021-01-02T13:09:38.000Z</time>
      </trkpt>
      <trkpt lat="46.37064" lon="5.01662">
        <ele>203</ele>
        <time>2021-01-02T13:09:39.000Z</time>
      </trkpt>
      <trkpt lat="46.37064" lon="5.01662">
        <ele>203</ele>
        <time>2021-01-02T13:09:40.000Z</time>
      </trkpt>
      <trkpt lat="46.37064" lon="5.01662">
        <ele>203</ele>
        <time>2021-01-02T13:09:41.000Z</time>
      </trkpt>
      <trkpt lat="46.37064" lon="5.01662">
        <ele>203</ele>
        <time>2021-01-02T13:09:42.000Z</time>
      </trkpt>
      <trkpt lat="46.37064" lon="5.01662">
        <ele>203</ele>
        <time>2021-01-02T13:09:43.000Z</time>
      </trkpt>
      <trkpt lat="46.37064" lon="5.01662">
        <ele>203</ele>
        <time>2021-01-02T13:09:44.000Z</time>
      </trkpt>
      <trkpt lat="46.37064" lon="5.01662">
        <ele>203</ele>
        <time>2021-01-02T13:09:45.000Z</time>
      </trkpt>
      <trkpt lat="46.37064" lon="5.01662">
        <ele>203</ele>
        <time>2021-01-02T13:09:46.000Z</time>
      </trkpt>
      <trkpt lat="46.37064" lon="5.01662">
        <ele>203</ele>
        <time>2021-01-02T13:09:47.000Z</time>
      </trkpt>
      <trkpt lat="46.37064" lon="5.01662">
        <ele>203</ele>
        <time>2021-01-02T13:09:48.000Z</time>
      </trkpt>
      <trkpt lat="46.37064" lon="5.01662">
        <ele>203</ele>
        <time>2021-01-02T13:09:49.000Z</time>
      </trkpt>
      <trkpt lat="46.37064" lon="5.01662">
        <ele>203</ele>
        <time>2021-01-02T13:09:50.000Z</time>
      </trkpt>
      <trkpt lat="46.37064" lon="5.01662">
        <ele>203</ele>
        <time>2021-01-02T13:09:51.000Z</time>
      </trkpt>
      <trkpt lat="46.37064" lon="5.01662">
        <ele>203</ele>
        <time>2021-01-02T13:09:52.000Z</time>
      </trkpt>
      <trkpt lat="46.37064" lon="5.01662">
        <ele>203</ele>
        <time>2021-01-02T13:09:53.000Z</time>
      </trkpt>
      <trkpt lat="46.37064" lon="5.01662">
        <ele>203</ele>
        <time>2021-01-02T13:09:54.000Z</time>
      </trkpt>
      <trkpt lat="46.37064" lon="5.01662">
        <ele>203</ele>
        <time>2021-01-02T13:09:55.000Z</time>
      </trkpt>
      <trkpt lat="46.37064" lon="5.01662">
        <ele>203</ele>
        <time>2021-01-02T13:09:56.000Z</time>
      </trkpt>
      <trkpt lat="46.37064" lon="5.01662">
        <ele>203</ele>
        <time>2021-01-02T13:09:57.000Z</time>
      </trkpt>
      <trkpt lat="46.37064" lon="5.01662">
        <ele>203</ele>
        <time>2021-01-02T13:09:58.000Z</time>
      </trkpt>
      <trkpt lat="46.37064" lon="5.01662">
        <ele>203</ele>
        <time>2021-01-02T13:09:59.000Z</time>
      </trkpt>
      <trkpt lat="46.37064" lon="5.01664">
        <ele>203</ele>
        <time>2021-01-02T13:10:00.000Z</time>
      </trkpt>
      <trkpt lat="46.37064" lon="5.01665">
        <ele>203</ele>
        <time>2021-01-02T13:10:01.000Z</time>
      </trkpt>
      <trkpt lat="46.37064" lon="5.01667">
        <ele>203</ele>
        <time>2021-01-02T13:10:02.000Z</time>
      </trkpt>
      <trkpt lat="46.37064" lon="5.01668">
        <ele>203</ele>
        <time>2021-01-02T13:10:03.000Z</time>
      </trkpt>
      <trkpt lat="46.37063" lon="5.0167">
        <ele>203</ele>
        <time>2021-01-02T13:10:04.000Z</time>
      </trkpt>
      <trkpt lat="46.37063" lon="5.01672">
        <ele>203</ele>
        <time>2021-01-02T13:10:05.000Z</time>
      </trkpt>
      <trkpt lat="46.37063" lon="5.01674">
        <ele>203</ele>
        <time>2021-01-02T13:10:06.000Z</time>
      </trkpt>
      <trkpt lat="46.37063" lon="5.01675">
        <ele>203</ele>
        <time>2021-01-02T13:10:07.000Z</time>
      </trkpt>
      <trkpt lat="46.37063" lon="5.01677">
        <ele>203</ele>
        <time>2021-01-02T13:10:08.000Z</time>
      </trkpt>
      <trkpt lat="46.37063" lon="5.01678">
        <ele>202</ele>
        <time>2021-01-02T13:10:09.000Z</time>
      </trkpt>
      <trkpt lat="46.37063" lon="5.0168">
        <ele>202</ele>
        <time>2021-01-02T13:10:10.000Z</time>
      </trkpt>
      <trkpt lat="46.37064" lon="5.01683">
        <ele>202</ele>
        <time>2021-01-02T13:10:11.000Z</time>
      </trkpt>
      <trkpt lat="46.37064" lon="5.01685">
        <ele>202</ele>
        <time>2021-01-02T13:10:12.000Z</time>
      </trkpt>
      <trkpt lat="46.37063" lon="5.01688">
        <ele>202</ele>
        <time>2021-01-02T13:10:13.000Z</time>
      </trkpt>
      <trkpt lat="46.37063" lon="5.01691">
        <ele>202</ele>
        <time>2021-01-02T13:10:14.000Z</time>
      </trkpt>
      <trkpt lat="46.37064" lon="5.01695">
        <ele>202</ele>
        <time>2021-01-02T13:10:15.000Z</time>
      </trkpt>
      <trkpt lat="46.37064" lon="5.017">
        <ele>202</ele>
        <time>2021-01-02T13:10:16.000Z</time>
      </trkpt>
      <trkpt lat="46.37064" lon="5.01705">
        <ele>202</ele>
        <time>2021-01-02T13:10:17.000Z</time>
      </trkpt>
      <trkpt lat="46.37064" lon="5.0171">
        <ele>201</ele>
        <time>2021-01-02T13:10:18.000Z</time>
      </trkpt>
      <trkpt lat="46.37065" lon="5.01716">
        <ele>201</ele>
        <time>2021-01-02T13:10:19.000Z</time>
      </trkpt>
      <trkpt lat="46.37065" lon="5.01722">
        <ele>201</ele>
        <time>2021-01-02T13:10:20.000Z</time>
      </trkpt>
      <trkpt lat="46.37066" lon="5.01728">
        <ele>201</ele>
        <time>2021-01-02T13:10:21.000Z</time>
      </trkpt>
      <trkpt lat="46.37066" lon="5.01735">
        <ele>200</ele>
        <time>2021-01-02T13:10:22.000Z</time>
      </trkpt>
      <trkpt lat="46.37067" lon="5.01742">
        <ele>200</ele>
        <time>2021-01-02T13:10:23.000Z</time>
      </trkpt>
      <trkpt lat="46.37067" lon="5.01749">
        <ele>200</ele>
        <time>2021-01-02T13:10:24.000Z</time>
      </trkpt>
      <trkpt lat="46.37068" lon="5.01757">
        <ele>199</ele>
        <time>2021-01-02T13:10:25.000Z</time>
      </trkpt>
      <trkpt lat="46.37069" lon="5.01765">
        <ele>199</ele>
        <time>2021-01-02T13:10:26.000Z</time>
      </trkpt>
      <trkpt lat="46.37071" lon="5.01773">
        <ele>199</ele>
        <time>2021-01-02T13:10:27.000Z</time>
      </trkpt>
      <trkpt lat="46.37072" lon="5.01781">
        <ele>198</ele>
        <time>2021-01-02T13:10:28.000Z</time>
      </trkpt>
      <trkpt lat="46.37073" lon="5.01789">
        <ele>198</ele>
        <time>2021-01-02T13:10:29.000Z</time>
      </trkpt>
      <trkpt lat="46.37074" lon="5.01796">
        <ele>198</ele>
        <time>2021-01-02T13:10:30.000Z</time>
      </trkpt>
      <trkpt lat="46.37075" lon="5.01804">
        <ele>197</ele>
        <time>2021-01-02T13:10:31.000Z</time>
      </trkpt>
      <trkpt lat="46.37077" lon="5.01811">
        <ele>197</ele>
        <time>2021-01-02T13:10:32.000Z</time>
      </trkpt>
      <trkpt lat="46.37078" lon="5.01819">
        <ele>197</ele>
        <time>2021-01-02T13:10:33.000Z</time>
      </trkpt>
      <trkpt lat="46.37078" lon="5.01826">
        <ele>196</ele>
        <time>2021-01-02T13:10:34.000Z</time>
      </trkpt>
      <trkpt lat="46.37079" lon="5.01833">
        <ele>196</ele>
        <time>2021-01-02T13:10:35.000Z</time>
      </trkpt>
      <trkpt lat="46.37078" lon="5.0184">
        <ele>196</ele>
        <time>2021-01-02T13:10:36.000Z</time>
      </trkpt>
      <trkpt lat="46.37078" lon="5.01847">
        <ele>196</ele>
        <time>2021-01-02T13:10:37.000Z</time>
      </trkpt>
      <trkpt lat="46.37077" lon="5.01854">
        <ele>196</ele>
        <time>2021-01-02T13:10:38.000Z</time>
      </trkpt>
      <trkpt lat="46.37075" lon="5.0186">
        <ele>196</ele>
        <time>2021-01-02T13:10:39.000Z</time>
      </trkpt>
      <trkpt lat="46.37074" lon="5.01867">
        <ele>196</ele>
        <time>2021-01-02T13:10:40.000Z</time>
      </trkpt>
      <trkpt lat="46.37072" lon="5.01875">
        <ele>196</ele>
        <time>2021-01-02T13:10:41.000Z</time>
      </trkpt>
      <trkpt lat="46.3707" lon="5.01883">
        <ele>195</ele>
        <time>2021-01-02T13:10:42.000Z</time>
      </trkpt>
      <trkpt lat="46.37068" lon="5.01892">
        <ele>195</ele>
        <time>2021-01-02T13:10:43.000Z</time>
      </trkpt>
      <trkpt lat="46.37065" lon="5.01901">
        <ele>195</ele>
        <time>2021-01-02T13:10:44.000Z</time>
      </trkpt>
      <trkpt lat="46.37063" lon="5.01909">
        <ele>196</ele>
        <time>2021-01-02T13:10:45.000Z</time>
      </trkpt>
      <trkpt lat="46.37061" lon="5.01916">
        <ele>196</ele>
        <time>2021-01-02T13:10:46.000Z</time>
      </trkpt>
      <trkpt lat="46.37059" lon="5.01922">
        <ele>196</ele>
        <time>2021-01-02T13:10:47.000Z</time>
      </trkpt>
      <trkpt lat="46.37057" lon="5.01928">
        <ele>196</ele>
        <time>2021-01-02T13:10:48.000Z</time>
      </trkpt>
      <trkpt lat="46.37056" lon="5.01932">
        <ele>196</ele>
        <time>2021-01-02T13:10:49.000Z</time>
      </trkpt>
      <trkpt lat="46.37055" lon="5.01935">
        <ele>196</ele>
        <time>2021-01-02T13:10:50.000Z</time>
      </trkpt>
      <trkpt lat="46.37054" lon="5.01939">
        <ele>196</ele>
        <time>2021-01-02T13:10:51.000Z</time>
      </trkpt>
      <trkpt lat="46.37052" lon="5.01942">
        <ele>196</ele>
        <time>2021-01-02T13:10:52.000Z</time>
      </trkpt>
      <trkpt lat="46.37051" lon="5.01946">
        <ele>196</ele>
        <time>2021-01-02T13:10:53.000Z</time>
      </trkpt>
      <trkpt lat="46.3705" lon="5.0195">
        <ele>196</ele>
        <time>2021-01-02T13:10:54.000Z</time>
      </trkpt>
      <trkpt lat="46.37049" lon="5.01954">
        <ele>196</ele>
        <time>2021-01-02T13:10:55.000Z</time>
      </trkpt>
      <trkpt lat="46.37048" lon="5.01959">
        <ele>196</ele>
        <time>2021-01-02T13:10:56.000Z</time>
      </trkpt>
      <trkpt lat="46.37047" lon="5.01963">
        <ele>196</ele>
        <time>2021-01-02T13:10:57.000Z</time>
      </trkpt>
      <trkpt lat="46.37046" lon="5.01968">
        <ele>196</ele>
        <time>2021-01-02T13:10:58.000Z</time>
      </trkpt>
      <trkpt lat="46.37046" lon="5.01972">
        <ele>196</ele>
        <time>2021-01-02T13:10:59.000Z</time>
      </trkpt>
      <trkpt lat="46.37046" lon="5.01976">
        <ele>196</ele>
        <time>2021-01-02T13:11:00.000Z</time>
      </trkpt>
      <trkpt lat="46.37046" lon="5.0198">
        <ele>196</ele>
        <time>2021-01-02T13:11:01.000Z</time>
      </trkpt>
      <trkpt lat="46.37046" lon="5.01984">
        <ele>196</ele>
        <time>2021-01-02T13:11:02.000Z</time>
      </trkpt>
      <trkpt lat="46.37046" lon="5.01988">
        <ele>196</ele>
        <time>2021-01-02T13:11:03.000Z</time>
      </trkpt>
      <trkpt lat="46.37046" lon="5.01992">
        <ele>196</ele>
        <time>2021-01-02T13:11:04.000Z</time>
      </trkpt>
      <trkpt lat="46.37046" lon="5.01996">
        <ele>196</ele>
        <time>2021-01-02T13:11:05.000Z</time>
      </trkpt>
      <trkpt lat="46.37046" lon="5.02">
        <ele>196</ele>
        <time>2021-01-02T13:11:06.000Z</time>
      </trkpt>
      <trkpt lat="46.37047" lon="5.02004">
        <ele>196</ele>
        <time>2021-01-02T13:11:07.000Z</time>
      </trkpt>
      <trkpt lat="46.37047" lon="5.02008">
        <ele>196</ele>
        <time>2021-01-02T13:11:08.000Z</time>
      </trkpt>
      <trkpt lat="46.37047" lon="5.02011">
        <ele>196</ele>
        <time>2021-01-02T13:11:09.000Z</time>
      </trkpt>
      <trkpt lat="46.37047" lon="5.02015">
        <ele>196</ele>
        <time>2021-01-02T13:11:10.000Z</time>
      </trkpt>
      <trkpt lat="46.37047" lon="5.02019">
        <ele>196</ele>
        <time>2021-01-02T13:11:11.000Z</time>
      </trkpt>
      <trkpt lat="46.37047" lon="5.02023">
        <ele>196</ele>
        <time>2021-01-02T13:11:12.000Z</time>
      </trkpt>
      <trkpt lat="46.37047" lon="5.02027">
        <ele>196</ele>
        <time>2021-01-02T13:11:13.000Z</time>
      </trkpt>
      <trkpt lat="46.37048" lon="5.02031">
        <ele>196</ele>
        <time>2021-01-02T13:11:14.000Z</time>
      </trkpt>
      <trkpt lat="46.37048" lon="5.02034">
        <ele>197</ele>
        <time>2021-01-02T13:11:15.000Z</time>
      </trkpt>
      <trkpt lat="46.37049" lon="5.02037">
        <ele>197</ele>
        <time>2021-01-02T13:11:16.000Z</time>
      </trkpt>
      <trkpt lat="46.3705" lon="5.0204">
        <ele>197</ele>
        <time>2021-01-02T13:11:17.000Z</time>
      </trkpt>
      <trkpt lat="46.37052" lon="5.02043">
        <ele>197</ele>
        <time>2021-01-02T13:11:18.000Z</time>
      </trkpt>
      <trkpt lat="46.37053" lon="5.02045">
        <ele>197</ele>
        <time>2021-01-02T13:11:19.000Z</time>
      </trkpt>
      <trkpt lat="46.37055" lon="5.02048">
        <ele>197</ele>
        <time>2021-01-02T13:11:20.000Z</time>
      </trkpt>
      <trkpt lat="46.37057" lon="5.0205">
        <ele>197</ele>
        <time>2021-01-02T13:11:21.000Z</time>
      </trkpt>
      <trkpt lat="46.37059" lon="5.02051">
        <ele>197</ele>
        <time>2021-01-02T13:11:22.000Z</time>
      </trkpt>
      <trkpt lat="46.37061" lon="5.02053">
        <ele>197</ele>
        <time>2021-01-02T13:11:23.000Z</time>
      </trkpt>
      <trkpt lat="46.37063" lon="5.02055">
        <ele>197</ele>
        <time>2021-01-02T13:11:24.000Z</time>
      </trkpt>
      <trkpt lat="46.37065" lon="5.02057">
        <ele>197</ele>
        <time>2021-01-02T13:11:25.000Z</time>
      </trkpt>
      <trkpt lat="46.37067" lon="5.02059">
        <ele>197</ele>
        <time>2021-01-02T13:11:26.000Z</time>
      </trkpt>
      <trkpt lat="46.37069" lon="5.0206">
        <ele>197</ele>
        <time>2021-01-02T13:11:27.000Z</time>
      </trkpt>
      <trkpt lat="46.37072" lon="5.02062">
        <ele>197</ele>
        <time>2021-01-02T13:11:28.000Z</time>
      </trkpt>
      <trkpt lat="46.37074" lon="5.02063">
        <ele>197</ele>
        <time>2021-01-02T13:11:29.000Z</time>
      </trkpt>
      <trkpt lat="46.37076" lon="5.02065">
        <ele>197</ele>
        <time>2021-01-02T13:11:30.000Z</time>
      </trkpt>
      <trkpt lat="46.37078" lon="5.02067">
        <ele>197</ele>
        <time>2021-01-02T13:11:31.000Z</time>
      </trkpt>
      <trkpt lat="46.3708" lon="5.02068">
        <ele>197</ele>
        <time>2021-01-02T13:11:32.000Z</time>
      </trkpt>
      <trkpt lat="46.37082" lon="5.02069">
        <ele>197</ele>
        <time>2021-01-02T13:11:33.000Z</time>
      </trkpt>
      <trkpt lat="46.37084" lon="5.0207">
        <ele>197</ele>
        <time>2021-01-02T13:11:34.000Z</time>
      </trkpt>
      <trkpt lat="46.37086" lon="5.02071">
        <ele>197</ele>
        <time>2021-01-02T13:11:35.000Z</time>
      </trkpt>
      <trkpt lat="46.37088" lon="5.02072">
        <ele>197</ele>
        <time>2021-01-02T13:11:36.000Z</time>
      </trkpt>
      <trkpt lat="46.3709" lon="5.02073">
        <ele>197</ele>
        <time>2021-01-02T13:11:37.000Z</time>
      </trkpt>
      <trkpt lat="46.37092" lon="5.02075">
        <ele>197</ele>
        <time>2021-01-02T13:11:38.000Z</time>
      </trkpt>
      <trkpt lat="46.37093" lon="5.02077">
        <ele>197</ele>
        <time>2021-01-02T13:11:39.000Z</time>
      </trkpt>
      <trkpt lat="46.37095" lon="5.02078">
        <ele>197</ele>
        <time>2021-01-02T13:11:40.000Z</time>
      </trkpt>
      <trkpt lat="46.37097" lon="5.0208">
        <ele>197</ele>
        <time>2021-01-02T13:11:41.000Z</time>
      </trkpt>
      <trkpt lat="46.37099" lon="5.02081">
        <ele>197</ele>
        <time>2021-01-02T13:11:42.000Z</time>
      </trkpt>
      <trkpt lat="46.37102" lon="5.02083">
        <ele>197</ele>
        <time>2021-01-02T13:11:43.000Z</time>
      </trkpt>
      <trkpt lat="46.37104" lon="5.02085">
        <ele>197</ele>
        <time>2021-01-02T13:11:44.000Z</time>
      </trkpt>
      <trkpt lat="46.37106" lon="5.02086">
        <ele>197</ele>
        <time>2021-01-02T13:11:45.000Z</time>
      </trkpt>
      <trkpt lat="46.37108" lon="5.02087">
        <ele>197</ele>
        <time>2021-01-02T13:11:46.000Z</time>
      </trkpt>
      <trkpt lat="46.37109" lon="5.02088">
        <ele>197</ele>
        <time>2021-01-02T13:11:47.000Z</time>
      </trkpt>
      <trkpt lat="46.37111" lon="5.0209">
        <ele>197</ele>
        <time>2021-01-02T13:11:48.000Z</time>
      </trkpt>
      <trkpt lat="46.37113" lon="5.02091">
        <ele>197</ele>
        <time>2021-01-02T13:11:49.000Z</time>
      </trkpt>
      <trkpt lat="46.37115" lon="5.02093">
        <ele>197</ele>
        <time>2021-01-02T13:11:50.000Z</time>
      </trkpt>
      <trkpt lat="46.37117" lon="5.02095">
        <ele>197</ele>
        <time>2021-01-02T13:11:51.000Z</time>
      </trkpt>
      <trkpt lat="46.37119" lon="5.02096">
        <ele>197</ele>
        <time>2021-01-02T13:11:52.000Z</time>
      </trkpt>
      <trkpt lat="46.3712" lon="5.02098">
        <ele>197</ele>
        <time>2021-01-02T13:11:53.000Z</time>
      </trkpt>
      <trkpt lat="46.37121" lon="5.021">
        <ele>197</ele>
        <time>2021-01-02T13:11:54.000Z</time>
      </trkpt>
      <trkpt lat="46.37122" lon="5.02102">
        <ele>197</ele>
        <time>2021-01-02T13:11:55.000Z</time>
      </trkpt>
      <trkpt lat="46.37123" lon="5.02104">
        <ele>197</ele>
        <time>2021-01-02T13:11:56.000Z</time>
      </trkpt>
      <trkpt lat="46.37123" lon="5.02106">
        <ele>197</ele>
        <time>2021-01-02T13:11:57.000Z</time>
      </trkpt>
      <trkpt lat="46.37123" lon="5.02108">
        <ele>197</ele>
        <time>2021-01-02T13:11:58.000Z</time>
      </trkpt>
      <trkpt lat="46.37124" lon="5.0211">
        <ele>197</ele>
        <time>2021-01-02T13:11:59.000Z</time>
      </trkpt>
      <trkpt lat="46.37124" lon="5.02112">
        <ele>197</ele>
        <time>2021-01-02T13:12:00.000Z</time>
      </trkpt>
      <trkpt lat="46.37124" lon="5.02114">
        <ele>197</ele>
        <time>2021-01-02T13:12:01.000Z</time>
      </trkpt>
      <trkpt lat="46.37124" lon="5.02117">
        <ele>197</ele>
        <time>2021-01-02T13:12:02.000Z</time>
      </trkpt>
      <trkpt lat="46.37124" lon="5.02119">
        <ele>197</ele>
        <time>2021-01-02T13:12:03.000Z</time>
      </trkpt>
      <trkpt lat="46.37125" lon="5.02121">
        <ele>197</ele>
        <time>2021-01-02T13:12:04.000Z</time>
      </trkpt>
      <trkpt lat="46.37124" lon="5.02123">
        <ele>197</ele>
        <time>2021-01-02T13:12:05.000Z</time>
      </trkpt>
      <trkpt lat="46.37124" lon="5.02125">
        <ele>197</ele>
        <time>2021-01-02T13:12:06.000Z</time>
      </trkpt>
      <trkpt lat="46.37124" lon="5.02128">
        <ele>197</ele>
        <time>2021-01-02T13:12:07.000Z</time>
      </trkpt>
      <trkpt lat="46.37124" lon="5.0213">
        <ele>197</ele>
        <time>2021-01-02T13:12:08.000Z</time>
      </trkpt>
      <trkpt lat="46.37124" lon="5.02132">
        <ele>198</ele>
        <time>2021-01-02T13:12:09.000Z</time>
      </trkpt>
      <trkpt lat="46.37124" lon="5.02135">
        <ele>198</ele>
        <time>2021-01-02T13:12:10.000Z</time>
      </trkpt>
      <trkpt lat="46.37124" lon="5.02137">
        <ele>198</ele>
        <time>2021-01-02T13:12:11.000Z</time>
      </trkpt>
      <trkpt lat="46.37124" lon="5.0214">
        <ele>198</ele>
        <time>2021-01-02T13:12:12.000Z</time>
      </trkpt>
      <trkpt lat="46.37124" lon="5.02142">
        <ele>198</ele>
        <time>2021-01-02T13:12:13.000Z</time>
      </trkpt>
      <trkpt lat="46.37124" lon="5.02145">
        <ele>198</ele>
        <time>2021-01-02T13:12:14.000Z</time>
      </trkpt>
      <trkpt lat="46.37124" lon="5.02147">
        <ele>198</ele>
        <time>2021-01-02T13:12:15.000Z</time>
      </trkpt>
      <trkpt lat="46.37124" lon="5.02149">
        <ele>198</ele>
        <time>2021-01-02T13:12:16.000Z</time>
      </trkpt>
      <trkpt lat="46.37123" lon="5.02152">
        <ele>198</ele>
        <time>2021-01-02T13:12:17.000Z</time>
      </trkpt>
      <trkpt lat="46.37123" lon="5.02155">
        <ele>198</ele>
        <time>2021-01-02T13:12:18.000Z</time>
      </trkpt>
      <trkpt lat="46.37123" lon="5.02157">
        <ele>198</ele>
        <time>2021-01-02T13:12:19.000Z</time>
      </trkpt>
      <trkpt lat="46.37123" lon="5.02159">
        <ele>198</ele>
        <time>2021-01-02T13:12:20.000Z</time>
      </trkpt>
      <trkpt lat="46.37123" lon="5.02162">
        <ele>198</ele>
        <time>2021-01-02T13:12:21.000Z</time>
      </trkpt>
      <trkpt lat="46.37123" lon="5.02165">
        <ele>198</ele>
        <time>2021-01-02T13:12:22.000Z</time>
      </trkpt>
      <trkpt lat="46.37123" lon="5.02167">
        <ele>198</ele>
        <time>2021-01-02T13:12:23.000Z</time>
      </trkpt>
      <trkpt lat="46.37123" lon="5.02169">
        <ele>198</ele>
        <time>2021-01-02T13:12:24.000Z</time>
      </trkpt>
      <trkpt lat="46.37123" lon="5.02172">
        <ele>198</ele>
        <time>2021-01-02T13:12:25.000Z</time>
      </trkpt>
      <trkpt lat="46.37123" lon="5.02174">
        <ele>198</ele>
        <time>2021-01-02T13:12:26.000Z</time>
      </trkpt>
      <trkpt lat="46.37123" lon="5.02177">
        <ele>198</ele>
        <time>2021-01-02T13:12:27.000Z</time>
      </trkpt>
      <trkpt lat="46.37123" lon="5.02179">
        <ele>198</ele>
        <time>2021-01-02T13:12:28.000Z</time>
      </trkpt>
      <trkpt lat="46.37123" lon="5.02181">
        <ele>198</ele>
        <time>2021-01-02T13:12:29.000Z</time>
      </trkpt>
      <trkpt lat="46.37123" lon="5.02184">
        <ele>198</ele>
        <time>2021-01-02T13:12:30.000Z</time>
      </trkpt>
      <trkpt lat="46.37122" lon="5.02186">
        <ele>198</ele>
        <time>2021-01-02T13:12:31.000Z</time>
      </trkpt>
      <trkpt lat="46.37122" lon="5.02188">
        <ele>198</ele>
        <time>2021-01-02T13:12:32.000Z</time>
      </trkpt>
      <trkpt lat="46.37122" lon="5.02191">
        <ele>198</ele>
        <time>2021-01-02T13:12:33.000Z</time>
      </trkpt>
      <trkpt lat="46.37122" lon="5.02193">
        <ele>198</ele>
        <time>2021-01-02T13:12:34.000Z</time>
      </trkpt>
      <trkpt lat="46.37122" lon="5.02195">
        <ele>198</ele>
        <time>2021-01-02T13:12:35.000Z</time>
      </trkpt>
      <trkpt lat="46.37122" lon="5.02198">
        <ele>198</ele>
        <time>2021-01-02T13:12:36.000Z</time>
      </trkpt>
      <trkpt lat="46.37122" lon="5.022">
        <ele>198</ele>
        <time>2021-01-02T13:12:37.000Z</time>
      </trkpt>
      <trkpt lat="46.37122" lon="5.02203">
        <ele>198</ele>
        <time>2021-01-02T13:12:38.000Z</time>
      </trkpt>
      <trkpt lat="46.37122" lon="5.02205">
        <ele>198</ele>
        <time>2021-01-02T13:12:39.000Z</time>
      </trkpt>
      <trkpt lat="46.37122" lon="5.02208">
        <ele>199</ele>
        <time>2021-01-02T13:12:40.000Z</time>
      </trkpt>
      <trkpt lat="46.37122" lon="5.0221">
        <ele>199</ele>
        <time>2021-01-02T13:12:41.000Z</time>
      </trkpt>
      <trkpt lat="46.37122" lon="5.02212">
        <ele>199</ele>
        <time>2021-01-02T13:12:42.000Z</time>
      </trkpt>
      <trkpt lat="46.37122" lon="5.02215">
        <ele>199</ele>
        <time>2021-01-02T13:12:43.000Z</time>
      </trkpt>
      <trkpt lat="46.37122" lon="5.02217">
        <ele>199</ele>
        <time>2021-01-02T13:12:44.000Z</time>
      </trkpt>
      <trkpt lat="46.37122" lon="5.0222">
        <ele>199</ele>
        <time>2021-01-02T13:12:45.000Z</time>
      </trkpt>
      <trkpt lat="46.37122" lon="5.02222">
        <ele>199</ele>
        <time>2021-01-02T13:12:46.000Z</time>
      </trkpt>
      <trkpt lat="46.37122" lon="5.02225">
        <ele>199</ele>
        <time>2021-01-02T13:12:47.000Z</time>
      </trkpt>
      <trkpt lat="46.37122" lon="5.02227">
        <ele>199</ele>
        <time>2021-01-02T13:12:48.000Z</time>
      </trkpt>
      <trkpt lat="46.37122" lon="5.0223">
        <ele>199</ele>
        <time>2021-01-02T13:12:49.000Z</time>
      </trkpt>
      <trkpt lat="46.37122" lon="5.02232">
        <ele>199</ele>
        <time>2021-01-02T13:12:50.000Z</time>
      </trkpt>
      <trkpt lat="46.37122" lon="5.02234">
        <ele>199</ele>
        <time>2021-01-02T13:12:51.000Z</time>
      </trkpt>
      <trkpt lat="46.37122" lon="5.02237">
        <ele>199</ele>
        <time>2021-01-02T13:12:52.000Z</time>
      </trkpt>
      <trkpt lat="46.37121" lon="5.02239">
        <ele>199</ele>
        <time>2021-01-02T13:12:53.000Z</time>
      </trkpt>
      <trkpt lat="46.37121" lon="5.02241">
        <ele>200</ele>
        <time>2021-01-02T13:12:54.000Z</time>
      </trkpt>
      <trkpt lat="46.37121" lon="5.02244">
        <ele>200</ele>
        <time>2021-01-02T13:12:55.000Z</time>
      </trkpt>
      <trkpt lat="46.37121" lon="5.02246">
        <ele>200</ele>
        <time>2021-01-02T13:12:56.000Z</time>
      </trkpt>
      <trkpt lat="46.37121" lon="5.02249">
        <ele>200</ele>
        <time>2021-01-02T13:12:57.000Z</time>
      </trkpt>
      <trkpt lat="46.37121" lon="5.02251">
        <ele>200</ele>
        <time>2021-01-02T13:12:58.000Z</time>
      </trkpt>
      <trkpt lat="46.37121" lon="5.02253">
        <ele>200</ele>
        <time>2021-01-02T13:12:59.000Z</time>
      </trkpt>
      <trkpt lat="46.37121" lon="5.02256">
        <ele>200</ele>
        <time>2021-01-02T13:13:00.000Z</time>
      </trkpt>
      <trkpt lat="46.3712" lon="5.02258">
        <ele>200</ele>
        <time>2021-01-02T13:13:01.000Z</time>
      </trkpt>
      <trkpt lat="46.3712" lon="5.02261">
        <ele>200</ele>
        <time>2021-01-02T13:13:02.000Z</time>
      </trkpt>
      <trkpt lat="46.3712" lon="5.02263">
        <ele>201</ele>
        <time>2021-01-02T13:13:03.000Z</time>
      </trkpt>
      <trkpt lat="46.3712" lon="5.02265">
        <ele>201</ele>
        <time>2021-01-02T13:13:04.000Z</time>
      </trkpt>
      <trkpt lat="46.3712" lon="5.02268">
        <ele>201</ele>
        <time>2021-01-02T13:13:05.000Z</time>
      </trkpt>
      <trkpt lat="46.3712" lon="5.0227">
        <ele>201</ele>
        <time>2021-01-02T13:13:06.000Z</time>
      </trkpt>
      <trkpt lat="46.37119" lon="5.02273">
        <ele>201</ele>
        <time>2021-01-02T13:13:07.000Z</time>
      </trkpt>
      <trkpt lat="46.37119" lon="5.02275">
        <ele>201</ele>
        <time>2021-01-02T13:13:08.000Z</time>
      </trkpt>
      <trkpt lat="46.37119" lon="5.02277">
        <ele>201</ele>
        <time>2021-01-02T13:13:09.000Z</time>
      </trkpt>
      <trkpt lat="46.37119" lon="5.0228">
        <ele>202</ele>
        <time>2021-01-02T13:13:10.000Z</time>
      </trkpt>
      <trkpt lat="46.37119" lon="5.02282">
        <ele>202</ele>
        <time>2021-01-02T13:13:11.000Z</time>
      </trkpt>
      <trkpt lat="46.37118" lon="5.02284">
        <ele>202</ele>
        <time>2021-01-02T13:13:12.000Z</time>
      </trkpt>
      <trkpt lat="46.37118" lon="5.02287">
        <ele>202</ele>
        <time>2021-01-02T13:13:13.000Z</time>
      </trkpt>
      <trkpt lat="46.37118" lon="5.02289">
        <ele>202</ele>
        <time>2021-01-02T13:13:14.000Z</time>
      </trkpt>
      <trkpt lat="46.37118" lon="5.02291">
        <ele>202</ele>
        <time>2021-01-02T13:13:15.000Z</time>
      </trkpt>
      <trkpt lat="46.37118" lon="5.02294">
        <ele>202</ele>
        <time>2021-01-02T13:13:16.000Z</time>
      </trkpt>
      <trkpt lat="46.37117" lon="5.02296">
        <ele>202</ele>
        <time>2021-01-02T13:13:17.000Z</time>
      </trkpt>
      <trkpt lat="46.37117" lon="5.02298">
        <ele>203</ele>
        <time>2021-01-02T13:13:18.000Z</time>
      </trkpt>
      <trkpt lat="46.37117" lon="5.02301">
        <ele>203</ele>
        <time>2021-01-02T13:13:19.000Z</time>
      </trkpt>
      <trkpt lat="46.37117" lon="5.02303">
        <ele>203</ele>
        <time>2021-01-02T13:13:20.000Z</time>
      </trkpt>
      <trkpt lat="46.37116" lon="5.02305">
        <ele>203</ele>
        <time>2021-01-02T13:13:21.000Z</time>
      </trkpt>
      <trkpt lat="46.37116" lon="5.02307">
        <ele>203</ele>
        <time>2021-01-02T13:13:22.000Z</time>
      </trkpt>
      <trkpt lat="46.37116" lon="5.0231">
        <ele>203</ele>
        <time>2021-01-02T13:13:23.000Z</time>
      </trkpt>
      <trkpt lat="46.37116" lon="5.02312">
        <ele>203</ele>
        <time>2021-01-02T13:13:24.000Z</time>
      </trkpt>
      <trkpt lat="46.37116" lon="5.02314">
        <ele>204</ele>
        <time>2021-01-02T13:13:25.000Z</time>
      </trkpt>
      <trkpt lat="46.37116" lon="5.02316">
        <ele>204</ele>
        <time>2021-01-02T13:13:26.000Z</time>
      </trkpt>
      <trkpt lat="46.37116" lon="5.02319">
        <ele>204</ele>
        <time>2021-01-02T13:13:27.000Z</time>
      </trkpt>
      <trkpt lat="46.37115" lon="5.02321">
        <ele>204</ele>
        <time>2021-01-02T13:13:28.000Z</time>
      </trkpt>
      <trkpt lat="46.37115" lon="5.02323">
        <ele>204</ele>
        <time>2021-01-02T13:13:29.000Z</time>
      </trkpt>
      <trkpt lat="46.37115" lon="5.02325">
        <ele>204</ele>
        <time>2021-01-02T13:13:30.000Z</time>
      </trkpt>
      <trkpt lat="46.37115" lon="5.02328">
        <ele>204</ele>
        <time>2021-01-02T13:13:31.000Z</time>
      </trkpt>
      <trkpt lat="46.37115" lon="5.0233">
        <ele>204</ele>
        <time>2021-01-02T13:13:32.000Z</time>
      </trkpt>
      <trkpt lat="46.37115" lon="5.02332">
        <ele>204</ele>
        <time>2021-01-02T13:13:33.000Z</time>
      </trkpt>
      <trkpt lat="46.37114" lon="5.02335">
        <ele>205</ele>
        <time>2021-01-02T13:13:34.000Z</time>
      </trkpt>
      <trkpt lat="46.37114" lon="5.02337">
        <ele>205</ele>
        <time>2021-01-02T13:13:35.000Z</time>
      </trkpt>
      <trkpt lat="46.37114" lon="5.02339">
        <ele>205</ele>
        <time>2021-01-02T13:13:36.000Z</time>
      </trkpt>
      <trkpt lat="46.37114" lon="5.02342">
        <ele>205</ele>
        <time>2021-01-02T13:13:37.000Z</time>
      </trkpt>
      <trkpt lat="46.37113" lon="5.02344">
        <ele>205</ele>
        <time>2021-01-02T13:13:38.000Z</time>
      </trkpt>
      <trkpt lat="46.37113" lon="5.02346">
        <ele>205</ele>
        <time>2021-01-02T13:13:39.000Z</time>
      </trkpt>
      <trkpt lat="46.37113" lon="5.02349">
        <ele>205</ele>
        <time>2021-01-02T13:13:40.000Z</time>
      </trkpt>
      <trkpt lat="46.37112" lon="5.02351">
        <ele>205</ele>
        <time>2021-01-02T13:13:41.000Z</time>
      </trkpt>
      <trkpt lat="46.37112" lon="5.02353">
        <ele>205</ele>
        <time>2021-01-02T13:13:42.000Z</time>
      </trkpt>
      <trkpt lat="46.37112" lon="5.02356">
        <ele>205</ele>
        <time>2021-01-02T13:13:43.000Z</time>
      </trkpt>
      <trkpt lat="46.37111" lon="5.02358">
        <ele>205</ele>
        <time>2021-01-02T13:13:44.000Z</time>
      </trkpt>
      <trkpt lat="46.37111" lon="5.02361">
        <ele>205</ele>
        <time>2021-01-02T13:13:45.000Z</time>
      </trkpt>
      <trkpt lat="46.37111" lon="5.02363">
        <ele>205</ele>
        <time>2021-01-02T13:13:46.000Z</time>
      </trkpt>
      <trkpt lat="46.3711" lon="5.02365">
        <ele>205</ele>
        <time>2021-01-02T13:13:47.000Z</time>
      </trkpt>
      <trkpt lat="46.3711" lon="5.02368">
        <ele>205</ele>
        <time>2021-01-02T13:13:48.000Z</time>
      </trkpt>
      <trkpt lat="46.3711" lon="5.0237">
        <ele>206</ele>
        <time>2021-01-02T13:13:49.000Z</time>
      </trkpt>
      <trkpt lat="46.37109" lon="5.02372">
        <ele>206</ele>
        <time>2021-01-02T13:13:50.000Z</time>
      </trkpt>
      <trkpt lat="46.37109" lon="5.02375">
        <ele>206</ele>
        <time>2021-01-02T13:13:51.000Z</time>
      </trkpt>
      <trkpt lat="46.37109" lon="5.02377">
        <ele>206</ele>
        <time>2021-01-02T13:13:52.000Z</time>
      </trkpt>
      <trkpt lat="46.37108" lon="5.0238">
        <ele>206</ele>
        <time>2021-01-02T13:13:53.000Z</time>
      </trkpt>
      <trkpt lat="46.37108" lon="5.02382">
        <ele>206</ele>
        <time>2021-01-02T13:13:54.000Z</time>
      </trkpt>
      <trkpt lat="46.37108" lon="5.02384">
        <ele>206</ele>
        <time>2021-01-02T13:13:55.000Z</time>
      </trkpt>
      <trkpt lat="46.37107" lon="5.02387">
        <ele>206</ele>
        <time>2021-01-02T13:13:56.000Z</time>
      </trkpt>
      <trkpt lat="46.37107" lon="5.02389">
        <ele>206</ele>
        <time>2021-01-02T13:13:57.000Z</time>
      </trkpt>
      <trkpt lat="46.37107" lon="5.02391">
        <ele>206</ele>
        <time>2021-01-02T13:13:58.000Z</time>
      </trkpt>
      <trkpt lat="46.37106" lon="5.02394">
        <ele>206</ele>
        <time>2021-01-02T13:13:59.000Z</time>
      </trkpt>
      <trkpt lat="46.37106" lon="5.02396">
        <ele>207</ele>
        <time>2021-01-02T13:14:00.000Z</time>
      </trkpt>
      <trkpt lat="46.37106" lon="5.02398">
        <ele>207</ele>
        <time>2021-01-02T13:14:01.000Z</time>
      </trkpt>
      <trkpt lat="46.37106" lon="5.02401">
        <ele>207</ele>
        <time>2021-01-02T13:14:02.000Z</time>
      </trkpt>
      <trkpt lat="46.37105" lon="5.02403">
        <ele>207</ele>
        <time>2021-01-02T13:14:03.000Z</time>
      </trkpt>
      <trkpt lat="46.37105" lon="5.02405">
        <ele>207</ele>
        <time>2021-01-02T13:14:04.000Z</time>
      </trkpt>
      <trkpt lat="46.37105" lon="5.02408">
        <ele>207</ele>
        <time>2021-01-02T13:14:05.000Z</time>
      </trkpt>
      <trkpt lat="46.37104" lon="5.0241">
        <ele>207</ele>
        <time>2021-01-02T13:14:06.000Z</time>
      </trkpt>
      <trkpt lat="46.37104" lon="5.02413">
        <ele>207</ele>
        <time>2021-01-02T13:14:07.000Z</time>
      </trkpt>
      <trkpt lat="46.37104" lon="5.02415">
        <ele>207</ele>
        <time>2021-01-02T13:14:08.000Z</time>
      </trkpt>
      <trkpt lat="46.37103" lon="5.02418">
        <ele>207</ele>
        <time>2021-01-02T13:14:09.000Z</time>
      </trkpt>
      <trkpt lat="46.37103" lon="5.0242">
        <ele>207</ele>
        <time>2021-01-02T13:14:10.000Z</time>
      </trkpt>
      <trkpt lat="46.37103" lon="5.02423">
        <ele>208</ele>
        <time>2021-01-02T13:14:11.000Z</time>
      </trkpt>
      <trkpt lat="46.37103" lon="5.02425">
        <ele>208</ele>
        <time>2021-01-02T13:14:12.000Z</time>
      </trkpt>
      <trkpt lat="46.37102" lon="5.02428">
        <ele>208</ele>
        <time>2021-01-02T13:14:13.000Z</time>
      </trkpt>
      <trkpt lat="46.37102" lon="5.0243">
        <ele>208</ele>
        <time>2021-01-02T13:14:14.000Z</time>
      </trkpt>
      <trkpt lat="46.37102" lon="5.02433">
        <ele>208</ele>
        <time>2021-01-02T13:14:15.000Z</time>
      </trkpt>
      <trkpt lat="46.37102" lon="5.02435">
        <ele>208</ele>
        <time>2021-01-02T13:14:16.000Z</time>
      </trkpt>
      <trkpt lat="46.37102" lon="5.02438">
        <ele>208</ele>
        <time>2021-01-02T13:14:17.000Z</time>
      </trkpt>
      <trkpt lat="46.37103" lon="5.0244">
        <ele>208</ele>
        <time>2021-01-02T13:14:18.000Z</time>
      </trkpt>
      <trkpt lat="46.37103" lon="5.02441">
        <ele>208</ele>
        <time>2021-01-02T13:14:19.000Z</time>
      </trkpt>
      <trkpt lat="46.37103" lon="5.02443">
        <ele>208</ele>
        <time>2021-01-02T13:14:20.000Z</time>
      </trkpt>
      <trkpt lat="46.37103" lon="5.02445">
        <ele>208</ele>
        <time>2021-01-02T13:14:21.000Z</time>
      </trkpt>
      <trkpt lat="46.37103" lon="5.02447">
        <ele>209</ele>
        <time>2021-01-02T13:14:22.000Z</time>
      </trkpt>
      <trkpt lat="46.37102" lon="5.02449">
        <ele>209</ele>
        <time>2021-01-02T13:14:23.000Z</time>
      </trkpt>
      <trkpt lat="46.37102" lon="5.02451">
        <ele>209</ele>
        <time>2021-01-02T13:14:24.000Z</time>
      </trkpt>
      <trkpt lat="46.37102" lon="5.02453">
        <ele>209</ele>
        <time>2021-01-02T13:14:25.000Z</time>
      </trkpt>
      <trkpt lat="46.37102" lon="5.02455">
        <ele>209</ele>
        <time>2021-01-02T13:14:26.000Z</time>
      </trkpt>
      <trkpt lat="46.37101" lon="5.02458">
        <ele>209</ele>
        <time>2021-01-02T13:14:27.000Z</time>
      </trkpt>
      <trkpt lat="46.37101" lon="5.0246">
        <ele>209</ele>
        <time>2021-01-02T13:14:28.000Z</time>
      </trkpt>
      <trkpt lat="46.37101" lon="5.02462">
        <ele>209</ele>
        <time>2021-01-02T13:14:29.000Z</time>
      </trkpt>
      <trkpt lat="46.37101" lon="5.02464">
        <ele>209</ele>
        <time>2021-01-02T13:14:30.000Z</time>
      </trkpt>
      <trkpt lat="46.37101" lon="5.02466">
        <ele>209</ele>
        <time>2021-01-02T13:14:31.000Z</time>
      </trkpt>
      <trkpt lat="46.37101" lon="5.02468">
        <ele>209</ele>
        <time>2021-01-02T13:14:32.000Z</time>
      </trkpt>
      <trkpt lat="46.37101" lon="5.02471">
        <ele>209</ele>
        <time>2021-01-02T13:14:33.000Z</time>
      </trkpt>
      <trkpt lat="46.371" lon="5.02473">
        <ele>209</ele>
        <time>2021-01-02T13:14:34.000Z</time>
      </trkpt>
      <trkpt lat="46.371" lon="5.02475">
        <ele>209</ele>
        <time>2021-01-02T13:14:35.000Z</time>
      </trkpt>
      <trkpt lat="46.371" lon="5.02477">
        <ele>209</ele>
        <time>2021-01-02T13:14:36.000Z</time>
      </trkpt>
      <trkpt lat="46.37099" lon="5.0248">
        <ele>210</ele>
        <time>2021-01-02T13:14:37.000Z</time>
      </trkpt>
      <trkpt lat="46.37099" lon="5.02483">
        <ele>210</ele>
        <time>2021-01-02T13:14:38.000Z</time>
      </trkpt>
      <trkpt lat="46.37099" lon="5.02485">
        <ele>210</ele>
        <time>2021-01-02T13:14:39.000Z</time>
      </trkpt>
      <trkpt lat="46.37099" lon="5.02488">
        <ele>210</ele>
        <time>2021-01-02T13:14:40.000Z</time>
      </trkpt>
      <trkpt lat="46.37099" lon="5.0249">
        <ele>210</ele>
        <time>2021-01-02T13:14:41.000Z</time>
      </trkpt>
      <trkpt lat="46.37099" lon="5.02493">
        <ele>210</ele>
        <time>2021-01-02T13:14:42.000Z</time>
      </trkpt>
      <trkpt lat="46.37099" lon="5.02496">
        <ele>210</ele>
        <time>2021-01-02T13:14:43.000Z</time>
      </trkpt>
      <trkpt lat="46.37099" lon="5.02498">
        <ele>210</ele>
        <time>2021-01-02T13:14:44.000Z</time>
      </trkpt>
      <trkpt lat="46.37098" lon="5.02501">
        <ele>210</ele>
        <time>2021-01-02T13:14:45.000Z</time>
      </trkpt>
      <trkpt lat="46.37098" lon="5.02503">
        <ele>210</ele>
        <time>2021-01-02T13:14:46.000Z</time>
      </trkpt>
      <trkpt lat="46.37098" lon="5.02506">
        <ele>210</ele>
        <time>2021-01-02T13:14:47.000Z</time>
      </trkpt>
      <trkpt lat="46.37098" lon="5.02508">
        <ele>210</ele>
        <time>2021-01-02T13:14:48.000Z</time>
      </trkpt>
      <trkpt lat="46.37098" lon="5.02511">
        <ele>210</ele>
        <time>2021-01-02T13:14:49.000Z</time>
      </trkpt>
      <trkpt lat="46.37098" lon="5.02513">
        <ele>210</ele>
        <time>2021-01-02T13:14:50.000Z</time>
      </trkpt>
      <trkpt lat="46.37098" lon="5.02515">
        <ele>210</ele>
        <time>2021-01-02T13:14:51.000Z</time>
      </trkpt>
      <trkpt lat="46.37098" lon="5.02518">
        <ele>210</ele>
        <time>2021-01-02T13:14:52.000Z</time>
      </trkpt>
      <trkpt lat="46.37098" lon="5.0252">
        <ele>211</ele>
        <time>2021-01-02T13:14:53.000Z</time>
      </trkpt>
      <trkpt lat="46.37098" lon="5.02523">
        <ele>211</ele>
        <time>2021-01-02T13:14:54.000Z</time>
      </trkpt>
      <trkpt lat="46.37098" lon="5.02525">
        <ele>211</ele>
        <time>2021-01-02T13:14:55.000Z</time>
      </trkpt>
      <trkpt lat="46.37098" lon="5.02527">
        <ele>211</ele>
        <time>2021-01-02T13:14:56.000Z</time>
      </trkpt>
      <trkpt lat="46.37098" lon="5.02529">
        <ele>211</ele>
        <time>2021-01-02T13:14:57.000Z</time>
      </trkpt>
      <trkpt lat="46.37098" lon="5.02531">
        <ele>211</ele>
        <time>2021-01-02T13:14:58.000Z</time>
      </trkpt>
      <trkpt lat="46.37098" lon="5.02532">
        <ele>211</ele>
        <time>2021-01-02T13:14:59.000Z</time>
      </trkpt>
      <trkpt lat="46.37098" lon="5.02533">
        <ele>211</ele>
        <time>2021-01-02T13:15:00.000Z</time>
      </trkpt>
      <trkpt lat="46.37097" lon="5.02533">
        <ele>211</ele>
        <time>2021-01-02T13:15:01.000Z</time>
      </trkpt>
      <trkpt lat="46.37098" lon="5.02533">
        <ele>211</ele>
        <time>2021-01-02T13:15:02.000Z</time>
      </trkpt>
      <trkpt lat="46.37098" lon="5.02533">
        <ele>211</ele>
        <time>2021-01-02T13:15:03.000Z</time>
      </trkpt>
      <trkpt lat="46.37097" lon="5.02533">
        <ele>211</ele>
        <time>2021-01-02T13:15:04.000Z</time>
      </trkpt>
      <trkpt lat="46.37097" lon="5.02533">
        <ele>211</ele>
        <time>2021-01-02T13:15:05.000Z</time>
      </trkpt>
      <trkpt lat="46.37097" lon="5.02533">
        <ele>211</ele>
        <time>2021-01-02T13:15:06.000Z</time>
      </trkpt>
      <trkpt lat="46.37097" lon="5.02533">
        <ele>211</ele>
        <time>2021-01-02T13:15:07.000Z</time>
      </trkpt>
      <trkpt lat="46.37097" lon="5.02533">
        <ele>211</ele>
        <time>2021-01-02T13:15:08.000Z</time>
      </trkpt>
      <trkpt lat="46.37097" lon="5.02533">
        <ele>211</ele>
        <time>2021-01-02T13:15:09.000Z</time>
      </trkpt>
      <trkpt lat="46.37097" lon="5.02533">
        <ele>211</ele>
        <time>2021-01-02T13:15:10.000Z</time>
      </trkpt>
      <trkpt lat="46.37097" lon="5.02533">
        <ele>210</ele>
        <time>2021-01-02T13:15:11.000Z</time>
      </trkpt>
      <trkpt lat="46.37097" lon="5.02533">
        <ele>211</ele>
        <time>2021-01-02T13:15:12.000Z</time>
      </trkpt>
      <trkpt lat="46.37097" lon="5.02533">
        <ele>211</ele>
        <time>2021-01-02T13:15:13.000Z</time>
      </trkpt>
      <trkpt lat="46.37097" lon="5.02533">
        <ele>210</ele>
        <time>2021-01-02T13:15:14.000Z</time>
      </trkpt>
      <trkpt lat="46.37097" lon="5.02533">
        <ele>210</ele>
        <time>2021-01-02T13:15:15.000Z</time>
      </trkpt>
      <trkpt lat="46.37097" lon="5.02533">
        <ele>210</ele>
        <time>2021-01-02T13:15:16.000Z</time>
      </trkpt>
      <trkpt lat="46.37097" lon="5.02533">
        <ele>210</ele>
        <time>2021-01-02T13:15:17.000Z</time>
      </trkpt>
      <trkpt lat="46.37097" lon="5.02533">
        <ele>210</ele>
        <time>2021-01-02T13:15:18.000Z</time>
      </trkpt>
      <trkpt lat="46.37097" lon="5.02533">
        <ele>210</ele>
        <time>2021-01-02T13:15:19.000Z</time>
      </trkpt>
      <trkpt lat="46.37097" lon="5.02533">
        <ele>210</ele>
        <time>2021-01-02T13:15:20.000Z</time>
      </trkpt>
      <trkpt lat="46.37097" lon="5.02532">
        <ele>210</ele>
        <time>2021-01-02T13:15:21.000Z</time>
      </trkpt>
      <trkpt lat="46.37097" lon="5.02532">
        <ele>210</ele>
        <time>2021-01-02T13:15:22.000Z</time>
      </trkpt>
      <trkpt lat="46.37097" lon="5.02532">
        <ele>210</ele>
        <time>2021-01-02T13:15:23.000Z</time>
      </trkpt>
      <trkpt lat="46.37097" lon="5.02532">
        <ele>210</ele>
        <time>2021-01-02T13:15:24.000Z</time>
      </trkpt>
      <trkpt lat="46.37097" lon="5.02532">
        <ele>210</ele>
        <time>2021-01-02T13:15:25.000Z</time>
      </trkpt>
      <trkpt lat="46.37097" lon="5.02533">
        <ele>210</ele>
        <time>2021-01-02T13:15:26.000Z</time>
      </trkpt>
      <trkpt lat="46.37098" lon="5.02533">
        <ele>210</ele>
        <time>2021-01-02T13:15:27.000Z</time>
      </trkpt>
      <trkpt lat="46.37098" lon="5.02533">
        <ele>210</ele>
        <time>2021-01-02T13:15:28.000Z</time>
      </trkpt>
      <trkpt lat="46.37098" lon="5.02533">
        <ele>210</ele>
        <time>2021-01-02T13:15:29.000Z</time>
      </trkpt>
      <trkpt lat="46.37098" lon="5.02534">
        <ele>210</ele>
        <time>2021-01-02T13:15:30.000Z</time>
      </trkpt>
      <trkpt lat="46.37098" lon="5.02534">
        <ele>210</ele>
        <time>2021-01-02T13:15:31.000Z</time>
      </trkpt>
      <trkpt lat="46.37098" lon="5.02534">
        <ele>210</ele>
        <time>2021-01-02T13:15:32.000Z</time>
      </trkpt>
      <trkpt lat="46.37098" lon="5.02534">
        <ele>210</ele>
        <time>2021-01-02T13:15:33.000Z</time>
      </trkpt>
      <trkpt lat="46.37098" lon="5.02534">
        <ele>210</ele>
        <time>2021-01-02T13:15:34.000Z</time>
      </trkpt>
      <trkpt lat="46.37098" lon="5.02533">
        <ele>210</ele>
        <time>2021-01-02T13:15:35.000Z</time>
      </trkpt>
      <trkpt lat="46.37098" lon="5.02533">
        <ele>210</ele>
        <time>2021-01-02T13:15:36.000Z</time>
      </trkpt>
      <trkpt lat="46.37098" lon="5.02533">
        <ele>210</ele>
        <time>2021-01-02T13:15:37.000Z</time>
      </trkpt>
      <trkpt lat="46.37098" lon="5.02533">
        <ele>210</ele>
        <time>2021-01-02T13:15:38.000Z</time>
      </trkpt>
      <trkpt lat="46.37098" lon="5.02533">
        <ele>210</ele>
        <time>2021-01-02T13:15:39.000Z</time>
      </trkpt>
      <trkpt lat="46.37098" lon="5.02533">
        <ele>210</ele>
        <time>2021-01-02T13:15:40.000Z</time>
      </trkpt>
      <trkpt lat="46.37098" lon="5.02533">
        <ele>210</ele>
        <time>2021-01-02T13:15:41.000Z</time>
      </trkpt>
      <trkpt lat="46.37098" lon="5.02533">
        <ele>210</ele>
        <time>2021-01-02T13:15:42.000Z</time>
      </trkpt>
      <trkpt lat="46.37098" lon="5.02533">
        <ele>210</ele>
        <time>2021-01-02T13:15:43.000Z</time>
      </trkpt>
      <trkpt lat="46.37098" lon="5.02533">
        <ele>210</ele>
        <time>2021-01-02T13:15:44.000Z</time>
      </trkpt>
      <trkpt lat="46.37098" lon="5.02533">
        <ele>209</ele>
        <time>2021-01-02T13:15:45.000Z</time>
      </trkpt>
      <trkpt lat="46.37098" lon="5.02533">
        <ele>209</ele>
        <time>2021-01-02T13:15:46.000Z</time>
      </trkpt>
      <trkpt lat="46.37098" lon="5.02533">
        <ele>209</ele>
        <time>2021-01-02T13:15:47.000Z</time>
      </trkpt>
      <trkpt lat="46.37098" lon="5.02533">
        <ele>209</ele>
        <time>2021-01-02T13:15:48.000Z</time>
      </trkpt>
      <trkpt lat="46.37098" lon="5.02533">
        <ele>209</ele>
        <time>2021-01-02T13:15:49.000Z</time>
      </trkpt>
      <trkpt lat="46.37098" lon="5.02533">
        <ele>209</ele>
        <time>2021-01-02T13:15:50.000Z</time>
      </trkpt>
      <trkpt lat="46.37098" lon="5.02533">
        <ele>209</ele>
        <time>2021-01-02T13:15:51.000Z</time>
      </trkpt>
      <trkpt lat="46.37098" lon="5.02533">
        <ele>209</ele>
        <time>2021-01-02T13:15:52.000Z</time>
      </trkpt>
      <trkpt lat="46.37098" lon="5.02533">
        <ele>209</ele>
        <time>2021-01-02T13:15:53.000Z</time>
      </trkpt>
      <trkpt lat="46.37098" lon="5.02532">
        <ele>209</ele>
        <time>2021-01-02T13:15:54.000Z</time>
      </trkpt>
      <trkpt lat="46.37098" lon="5.02532">
        <ele>209</ele>
        <time>2021-01-02T13:15:55.000Z</time>
      </trkpt>
      <trkpt lat="46.37098" lon="5.02532">
        <ele>209</ele>
        <time>2021-01-02T13:15:56.000Z</time>
      </trkpt>
      <trkpt lat="46.37098" lon="5.02532">
        <ele>209</ele>
        <time>2021-01-02T13:15:57.000Z</time>
      </trkpt>
      <trkpt lat="46.37098" lon="5.02532">
        <ele>209</ele>
        <time>2021-01-02T13:15:58.000Z</time>
      </trkpt>
      <trkpt lat="46.37098" lon="5.02532">
        <ele>209</ele>
        <time>2021-01-02T13:15:59.000Z</time>
      </trkpt>
      <trkpt lat="46.37098" lon="5.02532">
        <ele>209</ele>
        <time>2021-01-02T13:16:00.000Z</time>
      </trkpt>
      <trkpt lat="46.37098" lon="5.02532">
        <ele>209</ele>
        <time>2021-01-02T13:16:01.000Z</time>
      </trkpt>
      <trkpt lat="46.37098" lon="5.02532">
        <ele>209</ele>
        <time>2021-01-02T13:16:02.000Z</time>
      </trkpt>
      <trkpt lat="46.37098" lon="5.02532">
        <ele>209</ele>
        <time>2021-01-02T13:16:03.000Z</time>
      </trkpt>
      <trkpt lat="46.37098" lon="5.02532">
        <ele>209</ele>
        <time>2021-01-02T13:16:04.000Z</time>
      </trkpt>
      <trkpt lat="46.37098" lon="5.02532">
        <ele>209</ele>
        <time>2021-01-02T13:16:05.000Z</time>
      </trkpt>
      <trkpt lat="46.37097" lon="5.02532">
        <ele>209</ele>
        <time>2021-01-02T13:16:06.000Z</time>
      </trkpt>
      <trkpt lat="46.37097" lon="5.02532">
        <ele>210</ele>
        <time>2021-01-02T13:16:07.000Z</time>
      </trkpt>
      <trkpt lat="46.37097" lon="5.02532">
        <ele>210</ele>
        <time>2021-01-02T13:16:08.000Z</time>
      </trkpt>
      <trkpt lat="46.37097" lon="5.02532">
        <ele>209</ele>
        <time>2021-01-02T13:16:09.000Z</time>
      </trkpt>
      <trkpt lat="46.37097" lon="5.02532">
        <ele>210</ele>
        <time>2021-01-02T13:16:10.000Z</time>
      </trkpt>
      <trkpt lat="46.37097" lon="5.02532">
        <ele>210</ele>
        <time>2021-01-02T13:16:11.000Z</time>
      </trkpt>
      <trkpt lat="46.37097" lon="5.02532">
        <ele>210</ele>
        <time>2021-01-02T13:16:12.000Z</time>
      </trkpt>
      <trkpt lat="46.37097" lon="5.02532">
        <ele>210</ele>
        <time>2021-01-02T13:16:13.000Z</time>
      </trkpt>
      <trkpt lat="46.37097" lon="5.02532">
        <ele>210</ele>
        <time>2021-01-02T13:16:14.000Z</time>
      </trkpt>
      <trkpt lat="46.37097" lon="5.02532">
        <ele>210</ele>
        <time>2021-01-02T13:16:15.000Z</time>
      </trkpt>
      <trkpt lat="46.37097" lon="5.02532">
        <ele>210</ele>
        <time>2021-01-02T13:16:16.000Z</time>
      </trkpt>
      <trkpt lat="46.37097" lon="5.02532">
        <ele>210</ele>
        <time>2021-01-02T13:16:17.000Z</time>
      </trkpt>
      <trkpt lat="46.37097" lon="5.02532">
        <ele>210</ele>
        <time>2021-01-02T13:16:18.000Z</time>
      </trkpt>
      <trkpt lat="46.37097" lon="5.02532">
        <ele>210</ele>
        <time>2021-01-02T13:16:19.000Z</time>
      </trkpt>
      <trkpt lat="46.37097" lon="5.02532">
        <ele>210</ele>
        <time>2021-01-02T13:16:20.000Z</time>
      </trkpt>
      <trkpt lat="46.37097" lon="5.02532">
        <ele>210</ele>
        <time>2021-01-02T13:16:21.000Z</time>
      </trkpt>
      <trkpt lat="46.37097" lon="5.02532">
        <ele>210</ele>
        <time>2021-01-02T13:16:22.000Z</time>
      </trkpt>
      <trkpt lat="46.37097" lon="5.02532">
        <ele>210</ele>
        <time>2021-01-02T13:16:23.000Z</time>
      </trkpt>
      <trkpt lat="46.37097" lon="5.02532">
        <ele>210</ele>
        <time>2021-01-02T13:16:24.000Z</time>
      </trkpt>
      <trkpt lat="46.37097" lon="5.02532">
        <ele>210</ele>
        <time>2021-01-02T13:16:25.000Z</time>
      </trkpt>
      <trkpt lat="46.37097" lon="5.02532">
        <ele>210</ele>
        <time>2021-01-02T13:16:26.000Z</time>
      </trkpt>
      <trkpt lat="46.37097" lon="5.02532">
        <ele>210</ele>
        <time>2021-01-02T13:16:27.000Z</time>
      </trkpt>
      <trkpt lat="46.37097" lon="5.02532">
        <ele>210</ele>
        <time>2021-01-02T13:16:28.000Z</time>
      </trkpt>
      <trkpt lat="46.37097" lon="5.02532">
        <ele>210</ele>
        <time>2021-01-02T13:16:29.000Z</time>
      </trkpt>
      <trkpt lat="46.37097" lon="5.02531">
        <ele>209</ele>
        <time>2021-01-02T13:16:30.000Z</time>
      </trkpt>
      <trkpt lat="46.37097" lon="5.02531">
        <ele>209</ele>
        <time>2021-01-02T13:16:31.000Z</time>
      </trkpt>
      <trkpt lat="46.37097" lon="5.02531">
        <ele>209</ele>
        <time>2021-01-02T13:16:32.000Z</time>
      </trkpt>
      <trkpt lat="46.37097" lon="5.02531">
        <ele>209</ele>
        <time>2021-01-02T13:16:33.000Z</time>
      </trkpt>
      <trkpt lat="46.37097" lon="5.02531">
        <ele>209</ele>
        <time>2021-01-02T13:16:34.000Z</time>
      </trkpt>
      <trkpt lat="46.37097" lon="5.02531">
        <ele>209</ele>
        <time>2021-01-02T13:16:35.000Z</time>
      </trkpt>
      <trkpt lat="46.37097" lon="5.02531">
        <ele>209</ele>
        <time>2021-01-02T13:16:36.000Z</time>
      </trkpt>
      <trkpt lat="46.37097" lon="5.02531">
        <ele>209</ele>
        <time>2021-01-02T13:16:37.000Z</time>
      </trkpt>
      <trkpt lat="46.37097" lon="5.02532">
        <ele>209</ele>
        <time>2021-01-02T13:16:38.000Z</time>
      </trkpt>
      <trkpt lat="46.37097" lon="5.02532">
        <ele>209</ele>
        <time>2021-01-02T13:16:39.000Z</time>
      </trkpt>
      <trkpt lat="46.37097" lon="5.02532">
        <ele>210</ele>
        <time>2021-01-02T13:16:40.000Z</time>
      </trkpt>
      <trkpt lat="46.37097" lon="5.02532">
        <ele>210</ele>
        <time>2021-01-02T13:16:41.000Z</time>
      </trkpt>
      <trkpt lat="46.37097" lon="5.02532">
        <ele>209</ele>
        <time>2021-01-02T13:16:42.000Z</time>
      </trkpt>
      <trkpt lat="46.37097" lon="5.02532">
        <ele>209</ele>
        <time>2021-01-02T13:16:43.000Z</time>
      </trkpt>
      <trkpt lat="46.37097" lon="5.02532">
        <ele>209</ele>
        <time>2021-01-02T13:16:44.000Z</time>
      </trkpt>
      <trkpt lat="46.37097" lon="5.02532">
        <ele>209</ele>
        <time>2021-01-02T13:16:45.000Z</time>
      </trkpt>
      <trkpt lat="46.37097" lon="5.02532">
        <ele>209</ele>
        <time>2021-01-02T13:16:46.000Z</time>
      </trkpt>
      <trkpt lat="46.37097" lon="5.02532">
        <ele>209</ele>
        <time>2021-01-02T13:16:47.000Z</time>
      </trkpt>
      <trkpt lat="46.37097" lon="5.02532">
        <ele>209</ele>
        <time>2021-01-02T13:16:48.000Z</time>
      </trkpt>
      <trkpt lat="46.37097" lon="5.02532">
        <ele>209</ele>
        <time>2021-01-02T13:16:49.000Z</time>
      </trkpt>
      <trkpt lat="46.37097" lon="5.02532">
        <ele>209</ele>
        <time>2021-01-02T13:16:50.000Z</time>
      </trkpt>
      <trkpt lat="46.37097" lon="5.02532">
        <ele>209</ele>
        <time>2021-01-02T13:16:51.000Z</time>
      </trkpt>
      <trkpt lat="46.37097" lon="5.02532">
        <ele>209</ele>
        <time>2021-01-02T13:16:52.000Z</time>
      </trkpt>
      <trkpt lat="46.37097" lon="5.02532">
        <ele>209</ele>
        <time>2021-01-02T13:16:53.000Z</time>
      </trkpt>
      <trkpt lat="46.37097" lon="5.02532">
        <ele>209</ele>
        <time>2021-01-02T13:16:54.000Z</time>
      </trkpt>
      <trkpt lat="46.37097" lon="5.02532">
        <ele>209</ele>
        <time>2021-01-02T13:16:55.000Z</time>
      </trkpt>
      <trkpt lat="46.37097" lon="5.02532">
        <ele>209</ele>
        <time>2021-01-02T13:16:56.000Z</time>
      </trkpt>
      <trkpt lat="46.37097" lon="5.02532">
        <ele>209</ele>
        <time>2021-01-02T13:16:57.000Z</time>
      </trkpt>
      <trkpt lat="46.37097" lon="5.02532">
        <ele>209</ele>
        <time>2021-01-02T13:16:58.000Z</time>
      </trkpt>
      <trkpt lat="46.37097" lon="5.02532">
        <ele>209</ele>
        <time>2021-01-02T13:16:59.000Z</time>
      </trkpt>
      <trkpt lat="46.37097" lon="5.02532">
        <ele>209</ele>
        <time>2021-01-02T13:17:00.000Z</time>
      </trkpt>
      <trkpt lat="46.37097" lon="5.02532">
        <ele>210</ele>
        <time>2021-01-02T13:17:01.000Z</time>
      </trkpt>
      <trkpt lat="46.37097" lon="5.02532">
        <ele>210</ele>
        <time>2021-01-02T13:17:02.000Z</time>
      </trkpt>
      <trkpt lat="46.37097" lon="5.02532">
        <ele>210</ele>
        <time>2021-01-02T13:17:03.000Z</time>
      </trkpt>
      <trkpt lat="46.37097" lon="5.02532">
        <ele>210</ele>
        <time>2021-01-02T13:17:04.000Z</time>
      </trkpt>
      <trkpt lat="46.37097" lon="5.02532">
        <ele>210</ele>
        <time>2021-01-02T13:17:05.000Z</time>
      </trkpt>
      <trkpt lat="46.37097" lon="5.02532">
        <ele>210</ele>
        <time>2021-01-02T13:17:06.000Z</time>
      </trkpt>
      <trkpt lat="46.37096" lon="5.02533">
        <ele>210</ele>
        <time>2021-01-02T13:17:07.000Z</time>
      </trkpt>
      <trkpt lat="46.37095" lon="5.02534">
        <ele>210</ele>
        <time>2021-01-02T13:17:08.000Z</time>
      </trkpt>
      <trkpt lat="46.37094" lon="5.02535">
        <ele>210</ele>
        <time>2021-01-02T13:17:09.000Z</time>
      </trkpt>
      <trkpt lat="46.37093" lon="5.02536">
        <ele>210</ele>
        <time>2021-01-02T13:17:10.000Z</time>
      </trkpt>
      <trkpt lat="46.37091" lon="5.02537">
        <ele>210</ele>
        <time>2021-01-02T13:17:11.000Z</time>
      </trkpt>
      <trkpt lat="46.3709" lon="5.02538">
        <ele>210</ele>
        <time>2021-01-02T13:17:12.000Z</time>
      </trkpt>
      <trkpt lat="46.37088" lon="5.02538">
        <ele>210</ele>
        <time>2021-01-02T13:17:13.000Z</time>
      </trkpt>
      <trkpt lat="46.37086" lon="5.02539">
        <ele>210</ele>
        <time>2021-01-02T13:17:14.000Z</time>
      </trkpt>
      <trkpt lat="46.37083" lon="5.02539">
        <ele>210</ele>
        <time>2021-01-02T13:17:15.000Z</time>
      </trkpt>
      <trkpt lat="46.37081" lon="5.0254">
        <ele>210</ele>
        <time>2021-01-02T13:17:16.000Z</time>
      </trkpt>
      <trkpt lat="46.37078" lon="5.02541">
        <ele>210</ele>
        <time>2021-01-02T13:17:17.000Z</time>
      </trkpt>
      <trkpt lat="46.37075" lon="5.02543">
        <ele>210</ele>
        <time>2021-01-02T13:17:18.000Z</time>
      </trkpt>
      <trkpt lat="46.37071" lon="5.02544">
        <ele>210</ele>
        <time>2021-01-02T13:17:19.000Z</time>
      </trkpt>
      <trkpt lat="46.37068" lon="5.02546">
        <ele>210</ele>
        <time>2021-01-02T13:17:20.000Z</time>
      </trkpt>
      <trkpt lat="46.37064" lon="5.02548">
        <ele>210</ele>
        <time>2021-01-02T13:17:21.000Z</time>
      </trkpt>
      <trkpt lat="46.3706" lon="5.02551">
        <ele>210</ele>
        <time>2021-01-02T13:17:22.000Z</time>
      </trkpt>
      <trkpt lat="46.37057" lon="5.02553">
        <ele>210</ele>
        <time>2021-01-02T13:17:23.000Z</time>
      </trkpt>
      <trkpt lat="46.37053" lon="5.02555">
        <ele>210</ele>
        <time>2021-01-02T13:17:24.000Z</time>
      </trkpt>
      <trkpt lat="46.37049" lon="5.02557">
        <ele>210</ele>
        <time>2021-01-02T13:17:25.000Z</time>
      </trkpt>
      <trkpt lat="46.37046" lon="5.02559">
        <ele>211</ele>
        <time>2021-01-02T13:17:26.000Z</time>
      </trkpt>
      <trkpt lat="46.37042" lon="5.02561">
        <ele>211</ele>
        <time>2021-01-02T13:17:27.000Z</time>
      </trkpt>
      <trkpt lat="46.37039" lon="5.02562">
        <ele>211</ele>
        <time>2021-01-02T13:17:28.000Z</time>
      </trkpt>
      <trkpt lat="46.37035" lon="5.02563">
        <ele>211</ele>
        <time>2021-01-02T13:17:29.000Z</time>
      </trkpt>
      <trkpt lat="46.37031" lon="5.02564">
        <ele>211</ele>
        <time>2021-01-02T13:17:30.000Z</time>
      </trkpt>
      <trkpt lat="46.37027" lon="5.02565">
        <ele>211</ele>
        <time>2021-01-02T13:17:31.000Z</time>
      </trkpt>
      <trkpt lat="46.37023" lon="5.02566">
        <ele>211</ele>
        <time>2021-01-02T13:17:32.000Z</time>
      </trkpt>
      <trkpt lat="46.37019" lon="5.02566">
        <ele>211</ele>
        <time>2021-01-02T13:17:33.000Z</time>
      </trkpt>
      <trkpt lat="46.37015" lon="5.02566">
        <ele>211</ele>
        <time>2021-01-02T13:17:34.000Z</time>
      </trkpt>
      <trkpt lat="46.37011" lon="5.02566">
        <ele>211</ele>
        <time>2021-01-02T13:17:35.000Z</time>
      </trkpt>
      <trkpt lat="46.37008" lon="5.02565">
        <ele>211</ele>
        <time>2021-01-02T13:17:36.000Z</time>
      </trkpt>
      <trkpt lat="46.37004" lon="5.02564">
        <ele>211</ele>
        <time>2021-01-02T13:17:37.000Z</time>
      </trkpt>
      <trkpt lat="46.37" lon="5.02563">
        <ele>211</ele>
        <time>2021-01-02T13:17:38.000Z</time>
      </trkpt>
      <trkpt lat="46.36997" lon="5.02562">
        <ele>211</ele>
        <time>2021-01-02T13:17:39.000Z</time>
      </trkpt>
      <trkpt lat="46.36993" lon="5.0256">
        <ele>211</ele>
        <time>2021-01-02T13:17:40.000Z</time>
      </trkpt>
      <trkpt lat="46.36989" lon="5.02559">
        <ele>211</ele>
        <time>2021-01-02T13:17:41.000Z</time>
      </trkpt>
      <trkpt lat="46.36986" lon="5.02557">
        <ele>211</ele>
        <time>2021-01-02T13:17:42.000Z</time>
      </trkpt>
      <trkpt lat="46.36983" lon="5.02556">
        <ele>211</ele>
        <time>2021-01-02T13:17:43.000Z</time>
      </trkpt>
      <trkpt lat="46.36979" lon="5.02555">
        <ele>211</ele>
        <time>2021-01-02T13:17:44.000Z</time>
      </trkpt>
      <trkpt lat="46.36975" lon="5.02554">
        <ele>211</ele>
        <time>2021-01-02T13:17:45.000Z</time>
      </trkpt>
      <trkpt lat="46.36972" lon="5.02553">
        <ele>211</ele>
        <time>2021-01-02T13:17:46.000Z</time>
      </trkpt>
      <trkpt lat="46.36968" lon="5.02552">
        <ele>211</ele>
        <time>2021-01-02T13:17:47.000Z</time>
      </trkpt>
      <trkpt lat="46.36965" lon="5.02552">
        <ele>211</ele>
        <time>2021-01-02T13:17:48.000Z</time>
      </trkpt>
      <trkpt lat="46.36961" lon="5.02551">
        <ele>211</ele>
        <time>2021-01-02T13:17:49.000Z</time>
      </trkpt>
      <trkpt lat="46.36957" lon="5.02551">
        <ele>211</ele>
        <time>2021-01-02T13:17:50.000Z</time>
      </trkpt>
      <trkpt lat="46.36954" lon="5.02551">
        <ele>211</ele>
        <time>2021-01-02T13:17:51.000Z</time>
      </trkpt>
      <trkpt lat="46.3695" lon="5.02552">
        <ele>211</ele>
        <time>2021-01-02T13:17:52.000Z</time>
      </trkpt>
      <trkpt lat="46.36947" lon="5.02552">
        <ele>211</ele>
        <time>2021-01-02T13:17:53.000Z</time>
      </trkpt>
      <trkpt lat="46.36943" lon="5.02553">
        <ele>212</ele>
        <time>2021-01-02T13:17:54.000Z</time>
      </trkpt>
      <trkpt lat="46.3694" lon="5.02554">
        <ele>212</ele>
        <time>2021-01-02T13:17:55.000Z</time>
      </trkpt>
      <trkpt lat="46.36937" lon="5.02554">
        <ele>212</ele>
        <time>2021-01-02T13:17:56.000Z</time>
      </trkpt>
      <trkpt lat="46.36933" lon="5.02555">
        <ele>212</ele>
        <time>2021-01-02T13:17:57.000Z</time>
      </trkpt>
      <trkpt lat="46.3693" lon="5.02557">
        <ele>212</ele>
        <time>2021-01-02T13:17:58.000Z</time>
      </trkpt>
      <trkpt lat="46.36926" lon="5.02558">
        <ele>212</ele>
        <time>2021-01-02T13:17:59.000Z</time>
      </trkpt>
      <trkpt lat="46.36923" lon="5.02559">
        <ele>212</ele>
        <time>2021-01-02T13:18:00.000Z</time>
      </trkpt>
      <trkpt lat="46.36919" lon="5.0256">
        <ele>212</ele>
        <time>2021-01-02T13:18:01.000Z</time>
      </trkpt>
      <trkpt lat="46.36916" lon="5.02561">
        <ele>212</ele>
        <time>2021-01-02T13:18:02.000Z</time>
      </trkpt>
      <trkpt lat="46.36912" lon="5.02563">
        <ele>212</ele>
        <time>2021-01-02T13:18:03.000Z</time>
      </trkpt>
      <trkpt lat="46.36909" lon="5.02564">
        <ele>212</ele>
        <time>2021-01-02T13:18:04.000Z</time>
      </trkpt>
      <trkpt lat="46.36905" lon="5.02566">
        <ele>212</ele>
        <time>2021-01-02T13:18:05.000Z</time>
      </trkpt>
      <trkpt lat="46.36902" lon="5.02567">
        <ele>212</ele>
        <time>2021-01-02T13:18:06.000Z</time>
      </trkpt>
      <trkpt lat="46.36898" lon="5.02568">
        <ele>212</ele>
        <time>2021-01-02T13:18:07.000Z</time>
      </trkpt>
      <trkpt lat="46.36895" lon="5.0257">
        <ele>212</ele>
        <time>2021-01-02T13:18:08.000Z</time>
      </trkpt>
      <trkpt lat="46.36891" lon="5.02571">
        <ele>212</ele>
        <time>2021-01-02T13:18:09.000Z</time>
      </trkpt>
      <trkpt lat="46.36888" lon="5.02573">
        <ele>212</ele>
        <time>2021-01-02T13:18:10.000Z</time>
      </trkpt>
      <trkpt lat="46.36884" lon="5.02575">
        <ele>212</ele>
        <time>2021-01-02T13:18:11.000Z</time>
      </trkpt>
      <trkpt lat="46.36881" lon="5.02577">
        <ele>212</ele>
        <time>2021-01-02T13:18:12.000Z</time>
      </trkpt>
      <trkpt lat="46.36878" lon="5.02579">
        <ele>212</ele>
        <time>2021-01-02T13:18:13.000Z</time>
      </trkpt>
      <trkpt lat="46.36874" lon="5.02581">
        <ele>212</ele>
        <time>2021-01-02T13:18:14.000Z</time>
      </trkpt>
      <trkpt lat="46.36871" lon="5.02583">
        <ele>212</ele>
        <time>2021-01-02T13:18:15.000Z</time>
      </trkpt>
      <trkpt lat="46.36867" lon="5.02585">
        <ele>212</ele>
        <time>2021-01-02T13:18:16.000Z</time>
      </trkpt>
      <trkpt lat="46.36864" lon="5.02587">
        <ele>212</ele>
        <time>2021-01-02T13:18:17.000Z</time>
      </trkpt>
      <trkpt lat="46.36861" lon="5.02589">
        <ele>212</ele>
        <time>2021-01-02T13:18:18.000Z</time>
      </trkpt>
      <trkpt lat="46.36857" lon="5.02591">
        <ele>212</ele>
        <time>2021-01-02T13:18:19.000Z</time>
      </trkpt>
      <trkpt lat="46.36854" lon="5.02594">
        <ele>212</ele>
        <time>2021-01-02T13:18:20.000Z</time>
      </trkpt>
      <trkpt lat="46.3685" lon="5.02596">
        <ele>212</ele>
        <time>2021-01-02T13:18:21.000Z</time>
      </trkpt>
      <trkpt lat="46.36847" lon="5.02598">
        <ele>212</ele>
        <time>2021-01-02T13:18:22.000Z</time>
      </trkpt>
      <trkpt lat="46.36844" lon="5.026">
        <ele>212</ele>
        <time>2021-01-02T13:18:23.000Z</time>
      </trkpt>
      <trkpt lat="46.36841" lon="5.02602">
        <ele>212</ele>
        <time>2021-01-02T13:18:24.000Z</time>
      </trkpt>
      <trkpt lat="46.36837" lon="5.02603">
        <ele>212</ele>
        <time>2021-01-02T13:18:25.000Z</time>
      </trkpt>
      <trkpt lat="46.36834" lon="5.02605">
        <ele>212</ele>
        <time>2021-01-02T13:18:26.000Z</time>
      </trkpt>
      <trkpt lat="46.36831" lon="5.02607">
        <ele>212</ele>
        <time>2021-01-02T13:18:27.000Z</time>
      </trkpt>
      <trkpt lat="46.36828" lon="5.02608">
        <ele>212</ele>
        <time>2021-01-02T13:18:28.000Z</time>
      </trkpt>
      <trkpt lat="46.36824" lon="5.02609">
        <ele>212</ele>
        <time>2021-01-02T13:18:29.000Z</time>
      </trkpt>
      <trkpt lat="46.36821" lon="5.02611">
        <ele>212</ele>
        <time>2021-01-02T13:18:30.000Z</time>
      </trkpt>
      <trkpt lat="46.36818" lon="5.02612">
        <ele>212</ele>
        <time>2021-01-02T13:18:31.000Z</time>
      </trkpt>
      <trkpt lat="46.36814" lon="5.02612">
        <ele>212</ele>
        <time>2021-01-02T13:18:32.000Z</time>
      </trkpt>
      <trkpt lat="46.36811" lon="5.02612">
        <ele>212</ele>
        <time>2021-01-02T13:18:33.000Z</time>
      </trkpt>
      <trkpt lat="46.36807" lon="5.02612">
        <ele>211</ele>
        <time>2021-01-02T13:18:34.000Z</time>
      </trkpt>
      <trkpt lat="46.36804" lon="5.02612">
        <ele>211</ele>
        <time>2021-01-02T13:18:35.000Z</time>
      </trkpt>
      <trkpt lat="46.368" lon="5.02612">
        <ele>211</ele>
        <time>2021-01-02T13:18:36.000Z</time>
      </trkpt>
      <trkpt lat="46.36796" lon="5.02612">
        <ele>211</ele>
        <time>2021-01-02T13:18:37.000Z</time>
      </trkpt>
      <trkpt lat="46.36793" lon="5.02612">
        <ele>211</ele>
        <time>2021-01-02T13:18:38.000Z</time>
      </trkpt>
      <trkpt lat="46.36789" lon="5.02613">
        <ele>211</ele>
        <time>2021-01-02T13:18:39.000Z</time>
      </trkpt>
      <trkpt lat="46.36786" lon="5.02613">
        <ele>211</ele>
        <time>2021-01-02T13:18:40.000Z</time>
      </trkpt>
      <trkpt lat="46.36782" lon="5.02614">
        <ele>211</ele>
        <time>2021-01-02T13:18:41.000Z</time>
      </trkpt>
      <trkpt lat="46.36778" lon="5.02615">
        <ele>212</ele>
        <time>2021-01-02T13:18:42.000Z</time>
      </trkpt>
      <trkpt lat="46.36775" lon="5.02616">
        <ele>212</ele>
        <time>2021-01-02T13:18:43.000Z</time>
      </trkpt>
      <trkpt lat="46.36772" lon="5.02618">
        <ele>212</ele>
        <time>2021-01-02T13:18:44.000Z</time>
      </trkpt>
      <trkpt lat="46.36768" lon="5.02619">
        <ele>212</ele>
        <time>2021-01-02T13:18:45.000Z</time>
      </trkpt>
      <trkpt lat="46.36765" lon="5.02621">
        <ele>212</ele>
        <time>2021-01-02T13:18:46.000Z</time>
      </trkpt>
      <trkpt lat="46.36762" lon="5.02623">
        <ele>212</ele>
        <time>2021-01-02T13:18:47.000Z</time>
      </trkpt>
      <trkpt lat="46.36759" lon="5.02625">
        <ele>212</ele>
        <time>2021-01-02T13:18:48.000Z</time>
      </trkpt>
      <trkpt lat="46.36756" lon="5.02628">
        <ele>212</ele>
        <time>2021-01-02T13:18:49.000Z</time>
      </trkpt>
      <trkpt lat="46.36753" lon="5.0263">
        <ele>212</ele>
        <time>2021-01-02T13:18:50.000Z</time>
      </trkpt>
      <trkpt lat="46.3675" lon="5.02633">
        <ele>212</ele>
        <time>2021-01-02T13:18:51.000Z</time>
      </trkpt>
      <trkpt lat="46.36747" lon="5.02636">
        <ele>212</ele>
        <time>2021-01-02T13:18:52.000Z</time>
      </trkpt>
      <trkpt lat="46.36744" lon="5.02638">
        <ele>212</ele>
        <time>2021-01-02T13:18:53.000Z</time>
      </trkpt>
      <trkpt lat="46.36741" lon="5.02641">
        <ele>212</ele>
        <time>2021-01-02T13:18:54.000Z</time>
      </trkpt>
      <trkpt lat="46.36738" lon="5.02643">
        <ele>212</ele>
        <time>2021-01-02T13:18:55.000Z</time>
      </trkpt>
      <trkpt lat="46.36735" lon="5.02645">
        <ele>212</ele>
        <time>2021-01-02T13:18:56.000Z</time>
      </trkpt>
      <trkpt lat="46.36732" lon="5.02647">
        <ele>212</ele>
        <time>2021-01-02T13:18:57.000Z</time>
      </trkpt>
      <trkpt lat="46.36729" lon="5.02648">
        <ele>212</ele>
        <time>2021-01-02T13:18:58.000Z</time>
      </trkpt>
      <trkpt lat="46.36726" lon="5.02649">
        <ele>212</ele>
        <time>2021-01-02T13:18:59.000Z</time>
      </trkpt>
      <trkpt lat="46.36722" lon="5.02649">
        <ele>213</ele>
        <time>2021-01-02T13:19:00.000Z</time>
      </trkpt>
      <trkpt lat="46.36719" lon="5.02648">
        <ele>213</ele>
        <time>2021-01-02T13:19:01.000Z</time>
      </trkpt>
      <trkpt lat="46.36716" lon="5.02648">
        <ele>213</ele>
        <time>2021-01-02T13:19:02.000Z</time>
      </trkpt>
      <trkpt lat="46.36712" lon="5.02647">
        <ele>213</ele>
        <time>2021-01-02T13:19:03.000Z</time>
      </trkpt>
      <trkpt lat="46.36709" lon="5.02647">
        <ele>213</ele>
        <time>2021-01-02T13:19:04.000Z</time>
      </trkpt>
      <trkpt lat="46.36706" lon="5.02647">
        <ele>213</ele>
        <time>2021-01-02T13:19:05.000Z</time>
      </trkpt>
      <trkpt lat="46.36703" lon="5.02646">
        <ele>213</ele>
        <time>2021-01-02T13:19:06.000Z</time>
      </trkpt>
      <trkpt lat="46.367" lon="5.02646">
        <ele>213</ele>
        <time>2021-01-02T13:19:07.000Z</time>
      </trkpt>
      <trkpt lat="46.36697" lon="5.02646">
        <ele>213</ele>
        <time>2021-01-02T13:19:08.000Z</time>
      </trkpt>
      <trkpt lat="46.36695" lon="5.02645">
        <ele>213</ele>
        <time>2021-01-02T13:19:09.000Z</time>
      </trkpt>
      <trkpt lat="46.36692" lon="5.02644">
        <ele>213</ele>
        <time>2021-01-02T13:19:10.000Z</time>
      </trkpt>
      <trkpt lat="46.36689" lon="5.02643">
        <ele>213</ele>
        <time>2021-01-02T13:19:11.000Z</time>
      </trkpt>
      <trkpt lat="46.36687" lon="5.02642">
        <ele>213</ele>
        <time>2021-01-02T13:19:12.000Z</time>
      </trkpt>
      <trkpt lat="46.36684" lon="5.02641">
        <ele>213</ele>
        <time>2021-01-02T13:19:13.000Z</time>
      </trkpt>
      <trkpt lat="46.36681" lon="5.0264">
        <ele>213</ele>
        <time>2021-01-02T13:19:14.000Z</time>
      </trkpt>
      <trkpt lat="46.36678" lon="5.02639">
        <ele>213</ele>
        <time>2021-01-02T13:19:15.000Z</time>
      </trkpt>
      <trkpt lat="46.36675" lon="5.02638">
        <ele>213</ele>
        <time>2021-01-02T13:19:16.000Z</time>
      </trkpt>
      <trkpt lat="46.36672" lon="5.02638">
        <ele>213</ele>
        <time>2021-01-02T13:19:17.000Z</time>
      </trkpt>
      <trkpt lat="46.36669" lon="5.02637">
        <ele>213</ele>
        <time>2021-01-02T13:19:18.000Z</time>
      </trkpt>
      <trkpt lat="46.36666" lon="5.02637">
        <ele>213</ele>
        <time>2021-01-02T13:19:19.000Z</time>
      </trkpt>
      <trkpt lat="46.36663" lon="5.02637">
        <ele>213</ele>
        <time>2021-01-02T13:19:20.000Z</time>
      </trkpt>
      <trkpt lat="46.36659" lon="5.02637">
        <ele>213</ele>
        <time>2021-01-02T13:19:21.000Z</time>
      </trkpt>
      <trkpt lat="46.36656" lon="5.02638">
        <ele>213</ele>
        <time>2021-01-02T13:19:22.000Z</time>
      </trkpt>
      <trkpt lat="46.36652" lon="5.02638">
        <ele>213</ele>
        <time>2021-01-02T13:19:23.000Z</time>
      </trkpt>
      <trkpt lat="46.36649" lon="5.02638">
        <ele>213</ele>
        <time>2021-01-02T13:19:24.000Z</time>
      </trkpt>
      <trkpt lat="46.36645" lon="5.02638">
        <ele>213</ele>
        <time>2021-01-02T13:19:25.000Z</time>
      </trkpt>
      <trkpt lat="46.36641" lon="5.02638">
        <ele>213</ele>
        <time>2021-01-02T13:19:26.000Z</time>
      </trkpt>
      <trkpt lat="46.36637" lon="5.02638">
        <ele>213</ele>
        <time>2021-01-02T13:19:27.000Z</time>
      </trkpt>
      <trkpt lat="46.36633" lon="5.02638">
        <ele>213</ele>
        <time>2021-01-02T13:19:28.000Z</time>
      </trkpt>
      <trkpt lat="46.36629" lon="5.02638">
        <ele>213</ele>
        <time>2021-01-02T13:19:29.000Z</time>
      </trkpt>
      <trkpt lat="46.36626" lon="5.02638">
        <ele>213</ele>
        <time>2021-01-02T13:19:30.000Z</time>
      </trkpt>
      <trkpt lat="46.36622" lon="5.02637">
        <ele>213</ele>
        <time>2021-01-02T13:19:31.000Z</time>
      </trkpt>
      <trkpt lat="46.36618" lon="5.02637">
        <ele>213</ele>
        <time>2021-01-02T13:19:32.000Z</time>
      </trkpt>
      <trkpt lat="46.36614" lon="5.02636">
        <ele>213</ele>
        <time>2021-01-02T13:19:33.000Z</time>
      </trkpt>
      <trkpt lat="46.36611" lon="5.02636">
        <ele>213</ele>
        <time>2021-01-02T13:19:34.000Z</time>
      </trkpt>
      <trkpt lat="46.36607" lon="5.02635">
        <ele>212</ele>
        <time>2021-01-02T13:19:35.000Z</time>
      </trkpt>
      <trkpt lat="46.36603" lon="5.02634">
        <ele>212</ele>
        <time>2021-01-02T13:19:36.000Z</time>
      </trkpt>
      <trkpt lat="46.366" lon="5.02633">
        <ele>212</ele>
        <time>2021-01-02T13:19:37.000Z</time>
      </trkpt>
      <trkpt lat="46.36596" lon="5.02632">
        <ele>212</ele>
        <time>2021-01-02T13:19:38.000Z</time>
      </trkpt>
      <trkpt lat="46.36593" lon="5.02631">
        <ele>212</ele>
        <time>2021-01-02T13:19:39.000Z</time>
      </trkpt>
      <trkpt lat="46.36589" lon="5.0263">
        <ele>212</ele>
        <time>2021-01-02T13:19:40.000Z</time>
      </trkpt>
      <trkpt lat="46.36586" lon="5.02629">
        <ele>212</ele>
        <time>2021-01-02T13:19:41.000Z</time>
      </trkpt>
      <trkpt lat="46.36583" lon="5.02628">
        <ele>212</ele>
        <time>2021-01-02T13:19:42.000Z</time>
      </trkpt>
      <trkpt lat="46.36579" lon="5.02627">
        <ele>212</ele>
        <time>2021-01-02T13:19:43.000Z</time>
      </trkpt>
      <trkpt lat="46.36576" lon="5.02626">
        <ele>212</ele>
        <time>2021-01-02T13:19:44.000Z</time>
      </trkpt>
      <trkpt lat="46.36573" lon="5.02624">
        <ele>212</ele>
        <time>2021-01-02T13:19:45.000Z</time>
      </trkpt>
      <trkpt lat="46.36571" lon="5.02623">
        <ele>212</ele>
        <time>2021-01-02T13:19:46.000Z</time>
      </trkpt>
      <trkpt lat="46.36568" lon="5.02622">
        <ele>212</ele>
        <time>2021-01-02T13:19:47.000Z</time>
      </trkpt>
      <trkpt lat="46.36566" lon="5.02621">
        <ele>213</ele>
        <time>2021-01-02T13:19:48.000Z</time>
      </trkpt>
      <trkpt lat="46.36564" lon="5.0262">
        <ele>213</ele>
        <time>2021-01-02T13:19:49.000Z</time>
      </trkpt>
      <trkpt lat="46.36563" lon="5.02619">
        <ele>213</ele>
        <time>2021-01-02T13:19:50.000Z</time>
      </trkpt>
      <trkpt lat="46.36562" lon="5.02618">
        <ele>213</ele>
        <time>2021-01-02T13:19:51.000Z</time>
      </trkpt>
      <trkpt lat="46.36561" lon="5.02617">
        <ele>213</ele>
        <time>2021-01-02T13:19:52.000Z</time>
      </trkpt>
      <trkpt lat="46.36561" lon="5.02616">
        <ele>213</ele>
        <time>2021-01-02T13:19:53.000Z</time>
      </trkpt>
      <trkpt lat="46.3656" lon="5.02615">
        <ele>213</ele>
        <time>2021-01-02T13:19:54.000Z</time>
      </trkpt>
      <trkpt lat="46.3656" lon="5.02613">
        <ele>213</ele>
        <time>2021-01-02T13:19:55.000Z</time>
      </trkpt>
      <trkpt lat="46.3656" lon="5.02613">
        <ele>213</ele>
        <time>2021-01-02T13:19:56.000Z</time>
      </trkpt>
      <trkpt lat="46.3656" lon="5.02613">
        <ele>213</ele>
        <time>2021-01-02T13:19:57.000Z</time>
      </trkpt>
      <trkpt lat="46.3656" lon="5.02613">
        <ele>213</ele>
        <time>2021-01-02T13:19:58.000Z</time>
      </trkpt>
      <trkpt lat="46.3656" lon="5.02613">
        <ele>213</ele>
        <time>2021-01-02T13:19:59.000Z</time>
      </trkpt>
      <trkpt lat="46.3656" lon="5.02613">
        <ele>213</ele>
        <time>2021-01-02T13:20:00.000Z</time>
      </trkpt>
      <trkpt lat="46.3656" lon="5.02613">
        <ele>213</ele>
        <time>2021-01-02T13:20:01.000Z</time>
      </trkpt>
      <trkpt lat="46.3656" lon="5.02613">
        <ele>213</ele>
        <time>2021-01-02T13:20:02.000Z</time>
      </trkpt>
      <trkpt lat="46.36559" lon="5.02613">
        <ele>213</ele>
        <time>2021-01-02T13:20:03.000Z</time>
      </trkpt>
      <trkpt lat="46.36559" lon="5.02613">
        <ele>213</ele>
        <time>2021-01-02T13:20:04.000Z</time>
      </trkpt>
      <trkpt lat="46.36559" lon="5.02613">
        <ele>213</ele>
        <time>2021-01-02T13:20:05.000Z</time>
      </trkpt>
      <trkpt lat="46.36559" lon="5.02613">
        <ele>213</ele>
        <time>2021-01-02T13:20:06.000Z</time>
      </trkpt>
      <trkpt lat="46.36559" lon="5.02613">
        <ele>213</ele>
        <time>2021-01-02T13:20:07.000Z</time>
      </trkpt>
      <trkpt lat="46.36559" lon="5.02613">
        <ele>213</ele>
        <time>2021-01-02T13:20:08.000Z</time>
      </trkpt>
      <trkpt lat="46.36559" lon="5.02613">
        <ele>213</ele>
        <time>2021-01-02T13:20:09.000Z</time>
      </trkpt>
      <trkpt lat="46.36559" lon="5.02613">
        <ele>213</ele>
        <time>2021-01-02T13:20:10.000Z</time>
      </trkpt>
      <trkpt lat="46.36559" lon="5.02612">
        <ele>213</ele>
        <time>2021-01-02T13:20:11.000Z</time>
      </trkpt>
      <trkpt lat="46.3656" lon="5.02611">
        <ele>213</ele>
        <time>2021-01-02T13:20:12.000Z</time>
      </trkpt>
      <trkpt lat="46.3656" lon="5.02609">
        <ele>213</ele>
        <time>2021-01-02T13:20:13.000Z</time>
      </trkpt>
      <trkpt lat="46.3656" lon="5.02608">
        <ele>213</ele>
        <time>2021-01-02T13:20:14.000Z</time>
      </trkpt>
      <trkpt lat="46.3656" lon="5.02605">
        <ele>213</ele>
        <time>2021-01-02T13:20:15.000Z</time>
      </trkpt>
      <trkpt lat="46.3656" lon="5.02602">
        <ele>213</ele>
        <time>2021-01-02T13:20:16.000Z</time>
      </trkpt>
      <trkpt lat="46.36559" lon="5.02599">
        <ele>213</ele>
        <time>2021-01-02T13:20:17.000Z</time>
      </trkpt>
      <trkpt lat="46.36559" lon="5.02595">
        <ele>213</ele>
        <time>2021-01-02T13:20:18.000Z</time>
      </trkpt>
      <trkpt lat="46.36558" lon="5.02589">
        <ele>213</ele>
        <time>2021-01-02T13:20:19.000Z</time>
      </trkpt>
      <trkpt lat="46.36557" lon="5.02583">
        <ele>213</ele>
        <time>2021-01-02T13:20:20.000Z</time>
      </trkpt>
      <trkpt lat="46.36555" lon="5.02576">
        <ele>213</ele>
        <time>2021-01-02T13:20:21.000Z</time>
      </trkpt>
      <trkpt lat="46.36553" lon="5.02568">
        <ele>213</ele>
        <time>2021-01-02T13:20:22.000Z</time>
      </trkpt>
      <trkpt lat="46.3655" lon="5.02561">
        <ele>212</ele>
        <time>2021-01-02T13:20:23.000Z</time>
      </trkpt>
      <trkpt lat="46.36547" lon="5.02553">
        <ele>212</ele>
        <time>2021-01-02T13:20:24.000Z</time>
      </trkpt>
      <trkpt lat="46.36544" lon="5.02545">
        <ele>212</ele>
        <time>2021-01-02T13:20:25.000Z</time>
      </trkpt>
      <trkpt lat="46.36541" lon="5.02536">
        <ele>211</ele>
        <time>2021-01-02T13:20:26.000Z</time>
      </trkpt>
      <trkpt lat="46.36537" lon="5.02527">
        <ele>211</ele>
        <time>2021-01-02T13:20:27.000Z</time>
      </trkpt>
      <trkpt lat="46.36534" lon="5.02517">
        <ele>210</ele>
        <time>2021-01-02T13:20:28.000Z</time>
      </trkpt>
      <trkpt lat="46.36531" lon="5.02508">
        <ele>210</ele>
        <time>2021-01-02T13:20:29.000Z</time>
      </trkpt>
      <trkpt lat="46.36528" lon="5.02498">
        <ele>209</ele>
        <time>2021-01-02T13:20:30.000Z</time>
      </trkpt>
      <trkpt lat="46.36525" lon="5.02489">
        <ele>209</ele>
        <time>2021-01-02T13:20:31.000Z</time>
      </trkpt>
      <trkpt lat="46.36521" lon="5.02479">
        <ele>208</ele>
        <time>2021-01-02T13:20:32.000Z</time>
      </trkpt>
      <trkpt lat="46.36518" lon="5.02469">
        <ele>208</ele>
        <time>2021-01-02T13:20:33.000Z</time>
      </trkpt>
      <trkpt lat="46.36514" lon="5.02459">
        <ele>207</ele>
        <time>2021-01-02T13:20:34.000Z</time>
      </trkpt>
      <trkpt lat="46.36509" lon="5.0245">
        <ele>207</ele>
        <time>2021-01-02T13:20:35.000Z</time>
      </trkpt>
      <trkpt lat="46.36505" lon="5.0244">
        <ele>206</ele>
        <time>2021-01-02T13:20:36.000Z</time>
      </trkpt>
      <trkpt lat="46.36502" lon="5.0243">
        <ele>206</ele>
        <time>2021-01-02T13:20:37.000Z</time>
      </trkpt>
      <trkpt lat="46.36498" lon="5.0242">
        <ele>205</ele>
        <time>2021-01-02T13:20:38.000Z</time>
      </trkpt>
      <trkpt lat="46.36495" lon="5.0241">
        <ele>205</ele>
        <time>2021-01-02T13:20:39.000Z</time>
      </trkpt>
      <trkpt lat="46.36492" lon="5.024">
        <ele>204</ele>
        <time>2021-01-02T13:20:40.000Z</time>
      </trkpt>
      <trkpt lat="46.36489" lon="5.0239">
        <ele>204</ele>
        <time>2021-01-02T13:20:41.000Z</time>
      </trkpt>
      <trkpt lat="46.36486" lon="5.0238">
        <ele>203</ele>
        <time>2021-01-02T13:20:42.000Z</time>
      </trkpt>
      <trkpt lat="46.36483" lon="5.02371">
        <ele>203</ele>
        <time>2021-01-02T13:20:43.000Z</time>
      </trkpt>
      <trkpt lat="46.3648" lon="5.02362">
        <ele>202</ele>
        <time>2021-01-02T13:20:44.000Z</time>
      </trkpt>
      <trkpt lat="46.36477" lon="5.02353">
        <ele>202</ele>
        <time>2021-01-02T13:20:45.000Z</time>
      </trkpt>
      <trkpt lat="46.36473" lon="5.02344">
        <ele>201</ele>
        <time>2021-01-02T13:20:46.000Z</time>
      </trkpt>
      <trkpt lat="46.3647" lon="5.02335">
        <ele>201</ele>
        <time>2021-01-02T13:20:47.000Z</time>
      </trkpt>
      <trkpt lat="46.36467" lon="5.02326">
        <ele>200</ele>
        <time>2021-01-02T13:20:48.000Z</time>
      </trkpt>
      <trkpt lat="46.36464" lon="5.02318">
        <ele>200</ele>
        <time>2021-01-02T13:20:49.000Z</time>
      </trkpt>
      <trkpt lat="46.3646" lon="5.0231">
        <ele>200</ele>
        <time>2021-01-02T13:20:50.000Z</time>
      </trkpt>
      <trkpt lat="46.36457" lon="5.02302">
        <ele>199</ele>
        <time>2021-01-02T13:20:51.000Z</time>
      </trkpt>
      <trkpt lat="46.36453" lon="5.02295">
        <ele>199</ele>
        <time>2021-01-02T13:20:52.000Z</time>
      </trkpt>
      <trkpt lat="46.3645" lon="5.02288">
        <ele>199</ele>
        <time>2021-01-02T13:20:53.000Z</time>
      </trkpt>
      <trkpt lat="46.36446" lon="5.02282">
        <ele>199</ele>
        <time>2021-01-02T13:20:54.000Z</time>
      </trkpt>
      <trkpt lat="46.36442" lon="5.02278">
        <ele>199</ele>
        <time>2021-01-02T13:20:55.000Z</time>
      </trkpt>
      <trkpt lat="46.36438" lon="5.02275">
        <ele>198</ele>
        <time>2021-01-02T13:20:56.000Z</time>
      </trkpt>
      <trkpt lat="46.36435" lon="5.02272">
        <ele>198</ele>
        <time>2021-01-02T13:20:57.000Z</time>
      </trkpt>
      <trkpt lat="46.36431" lon="5.0227">
        <ele>198</ele>
        <time>2021-01-02T13:20:58.000Z</time>
      </trkpt>
      <trkpt lat="46.36428" lon="5.02268">
        <ele>198</ele>
        <time>2021-01-02T13:20:59.000Z</time>
      </trkpt>
      <trkpt lat="46.36425" lon="5.02266">
        <ele>198</ele>
        <time>2021-01-02T13:21:00.000Z</time>
      </trkpt>
      <trkpt lat="46.36423" lon="5.02264">
        <ele>198</ele>
        <time>2021-01-02T13:21:01.000Z</time>
      </trkpt>
      <trkpt lat="46.36421" lon="5.02262">
        <ele>198</ele>
        <time>2021-01-02T13:21:02.000Z</time>
      </trkpt>
      <trkpt lat="46.36418" lon="5.0226">
        <ele>198</ele>
        <time>2021-01-02T13:21:03.000Z</time>
      </trkpt>
      <trkpt lat="46.36416" lon="5.02258">
        <ele>197</ele>
        <time>2021-01-02T13:21:04.000Z</time>
      </trkpt>
      <trkpt lat="46.36414" lon="5.02257">
        <ele>197</ele>
        <time>2021-01-02T13:21:05.000Z</time>
      </trkpt>
      <trkpt lat="46.36411" lon="5.02256">
        <ele>197</ele>
        <time>2021-01-02T13:21:06.000Z</time>
      </trkpt>
      <trkpt lat="46.3641" lon="5.02254">
        <ele>197</ele>
        <time>2021-01-02T13:21:07.000Z</time>
      </trkpt>
      <trkpt lat="46.36408" lon="5.02253">
        <ele>197</ele>
        <time>2021-01-02T13:21:08.000Z</time>
      </trkpt>
      <trkpt lat="46.36406" lon="5.02251">
        <ele>197</ele>
        <time>2021-01-02T13:21:09.000Z</time>
      </trkpt>
      <trkpt lat="46.36404" lon="5.0225">
        <ele>197</ele>
        <time>2021-01-02T13:21:10.000Z</time>
      </trkpt>
      <trkpt lat="46.36403" lon="5.02248">
        <ele>197</ele>
        <time>2021-01-02T13:21:11.000Z</time>
      </trkpt>
      <trkpt lat="46.36401" lon="5.02247">
        <ele>197</ele>
        <time>2021-01-02T13:21:12.000Z</time>
      </trkpt>
      <trkpt lat="46.364" lon="5.02246">
        <ele>197</ele>
        <time>2021-01-02T13:21:13.000Z</time>
      </trkpt>
      <trkpt lat="46.36398" lon="5.02244">
        <ele>197</ele>
        <time>2021-01-02T13:21:14.000Z</time>
      </trkpt>
      <trkpt lat="46.36396" lon="5.02243">
        <ele>197</ele>
        <time>2021-01-02T13:21:15.000Z</time>
      </trkpt>
      <trkpt lat="46.36395" lon="5.02241">
        <ele>197</ele>
        <time>2021-01-02T13:21:16.000Z</time>
      </trkpt>
      <trkpt lat="46.36393" lon="5.0224">
        <ele>197</ele>
        <time>2021-01-02T13:21:17.000Z</time>
      </trkpt>
      <trkpt lat="46.36392" lon="5.02238">
        <ele>197</ele>
        <time>2021-01-02T13:21:18.000Z</time>
      </trkpt>
      <trkpt lat="46.3639" lon="5.02237">
        <ele>197</ele>
        <time>2021-01-02T13:21:19.000Z</time>
      </trkpt>
      <trkpt lat="46.36389" lon="5.02235">
        <ele>197</ele>
        <time>2021-01-02T13:21:20.000Z</time>
      </trkpt>
      <trkpt lat="46.36387" lon="5.02234">
        <ele>197</ele>
        <time>2021-01-02T13:21:21.000Z</time>
      </trkpt>
      <trkpt lat="46.36386" lon="5.02232">
        <ele>197</ele>
        <time>2021-01-02T13:21:22.000Z</time>
      </trkpt>
      <trkpt lat="46.36385" lon="5.02231">
        <ele>197</ele>
        <time>2021-01-02T13:21:23.000Z</time>
      </trkpt>
      <trkpt lat="46.36383" lon="5.02229">
        <ele>197</ele>
        <time>2021-01-02T13:21:24.000Z</time>
      </trkpt>
      <trkpt lat="46.36382" lon="5.02228">
        <ele>197</ele>
        <time>2021-01-02T13:21:25.000Z</time>
      </trkpt>
      <trkpt lat="46.3638" lon="5.02226">
        <ele>197</ele>
        <time>2021-01-02T13:21:26.000Z</time>
      </trkpt>
      <trkpt lat="46.36379" lon="5.02224">
        <ele>197</ele>
        <time>2021-01-02T13:21:27.000Z</time>
      </trkpt>
      <trkpt lat="46.36377" lon="5.02222">
        <ele>197</ele>
        <time>2021-01-02T13:21:28.000Z</time>
      </trkpt>
      <trkpt lat="46.36376" lon="5.0222">
        <ele>197</ele>
        <time>2021-01-02T13:21:29.000Z</time>
      </trkpt>
      <trkpt lat="46.36375" lon="5.02217">
        <ele>197</ele>
        <time>2021-01-02T13:21:30.000Z</time>
      </trkpt>
      <trkpt lat="46.36373" lon="5.02215">
        <ele>197</ele>
        <time>2021-01-02T13:21:31.000Z</time>
      </trkpt>
      <trkpt lat="46.36372" lon="5.02213">
        <ele>197</ele>
        <time>2021-01-02T13:21:32.000Z</time>
      </trkpt>
      <trkpt lat="46.36371" lon="5.0221">
        <ele>197</ele>
        <time>2021-01-02T13:21:33.000Z</time>
      </trkpt>
      <trkpt lat="46.3637" lon="5.02208">
        <ele>197</ele>
        <time>2021-01-02T13:21:34.000Z</time>
      </trkpt>
      <trkpt lat="46.36369" lon="5.02206">
        <ele>197</ele>
        <time>2021-01-02T13:21:35.000Z</time>
      </trkpt>
      <trkpt lat="46.36368" lon="5.02203">
        <ele>197</ele>
        <time>2021-01-02T13:21:36.000Z</time>
      </trkpt>
      <trkpt lat="46.36367" lon="5.02201">
        <ele>197</ele>
        <time>2021-01-02T13:21:37.000Z</time>
      </trkpt>
      <trkpt lat="46.36366" lon="5.02199">
        <ele>197</ele>
        <time>2021-01-02T13:21:38.000Z</time>
      </trkpt>
      <trkpt lat="46.36365" lon="5.02196">
        <ele>197</ele>
        <time>2021-01-02T13:21:39.000Z</time>
      </trkpt>
      <trkpt lat="46.36364" lon="5.02194">
        <ele>197</ele>
        <time>2021-01-02T13:21:40.000Z</time>
      </trkpt>
      <trkpt lat="46.36363" lon="5.02191">
        <ele>197</ele>
        <time>2021-01-02T13:21:41.000Z</time>
      </trkpt>
      <trkpt lat="46.36362" lon="5.02189">
        <ele>197</ele>
        <time>2021-01-02T13:21:42.000Z</time>
      </trkpt>
      <trkpt lat="46.36361" lon="5.02186">
        <ele>197</ele>
        <time>2021-01-02T13:21:43.000Z</time>
      </trkpt>
      <trkpt lat="46.3636" lon="5.02184">
        <ele>197</ele>
        <time>2021-01-02T13:21:44.000Z</time>
      </trkpt>
      <trkpt lat="46.3636" lon="5.02181">
        <ele>197</ele>
        <time>2021-01-02T13:21:45.000Z</time>
      </trkpt>
      <trkpt lat="46.36359" lon="5.02178">
        <ele>197</ele>
        <time>2021-01-02T13:21:46.000Z</time>
      </trkpt>
      <trkpt lat="46.36358" lon="5.02176">
        <ele>197</ele>
        <time>2021-01-02T13:21:47.000Z</time>
      </trkpt>
      <trkpt lat="46.36357" lon="5.02174">
        <ele>197</ele>
        <time>2021-01-02T13:21:48.000Z</time>
      </trkpt>
      <trkpt lat="46.36356" lon="5.02172">
        <ele>197</ele>
        <time>2021-01-02T13:21:49.000Z</time>
      </trkpt>
      <trkpt lat="46.36354" lon="5.0217">
        <ele>197</ele>
        <time>2021-01-02T13:21:50.000Z</time>
      </trkpt>
      <trkpt lat="46.36353" lon="5.02168">
        <ele>197</ele>
        <time>2021-01-02T13:21:51.000Z</time>
      </trkpt>
      <trkpt lat="46.36351" lon="5.02166">
        <ele>197</ele>
        <time>2021-01-02T13:21:52.000Z</time>
      </trkpt>
      <trkpt lat="46.3635" lon="5.02164">
        <ele>197</ele>
        <time>2021-01-02T13:21:53.000Z</time>
      </trkpt>
      <trkpt lat="46.36348" lon="5.02163">
        <ele>197</ele>
        <time>2021-01-02T13:21:54.000Z</time>
      </trkpt>
      <trkpt lat="46.36346" lon="5.02162">
        <ele>198</ele>
        <time>2021-01-02T13:21:55.000Z</time>
      </trkpt>
      <trkpt lat="46.36344" lon="5.02161">
        <ele>198</ele>
        <time>2021-01-02T13:21:56.000Z</time>
      </trkpt>
      <trkpt lat="46.36342" lon="5.0216">
        <ele>198</ele>
        <time>2021-01-02T13:21:57.000Z</time>
      </trkpt>
      <trkpt lat="46.3634" lon="5.02159">
        <ele>198</ele>
        <time>2021-01-02T13:21:58.000Z</time>
      </trkpt>
      <trkpt lat="46.36339" lon="5.02158">
        <ele>198</ele>
        <time>2021-01-02T13:21:59.000Z</time>
      </trkpt>
      <trkpt lat="46.36337" lon="5.02157">
        <ele>198</ele>
        <time>2021-01-02T13:22:00.000Z</time>
      </trkpt>
      <trkpt lat="46.36335" lon="5.02156">
        <ele>198</ele>
        <time>2021-01-02T13:22:01.000Z</time>
      </trkpt>
      <trkpt lat="46.36333" lon="5.02155">
        <ele>198</ele>
        <time>2021-01-02T13:22:02.000Z</time>
      </trkpt>
      <trkpt lat="46.36331" lon="5.02155">
        <ele>198</ele>
        <time>2021-01-02T13:22:03.000Z</time>
      </trkpt>
      <trkpt lat="46.36329" lon="5.02154">
        <ele>198</ele>
        <time>2021-01-02T13:22:04.000Z</time>
      </trkpt>
      <trkpt lat="46.36328" lon="5.02153">
        <ele>198</ele>
        <time>2021-01-02T13:22:05.000Z</time>
      </trkpt>
      <trkpt lat="46.36326" lon="5.02152">
        <ele>198</ele>
        <time>2021-01-02T13:22:06.000Z</time>
      </trkpt>
      <trkpt lat="46.36324" lon="5.02151">
        <ele>198</ele>
        <time>2021-01-02T13:22:07.000Z</time>
      </trkpt>
      <trkpt lat="46.36322" lon="5.02151">
        <ele>198</ele>
        <time>2021-01-02T13:22:08.000Z</time>
      </trkpt>
      <trkpt lat="46.36321" lon="5.0215">
        <ele>198</ele>
        <time>2021-01-02T13:22:09.000Z</time>
      </trkpt>
      <trkpt lat="46.36319" lon="5.0215">
        <ele>198</ele>
        <time>2021-01-02T13:22:10.000Z</time>
      </trkpt>
      <trkpt lat="46.36317" lon="5.02149">
        <ele>198</ele>
        <time>2021-01-02T13:22:11.000Z</time>
      </trkpt>
      <trkpt lat="46.36316" lon="5.02148">
        <ele>198</ele>
        <time>2021-01-02T13:22:12.000Z</time>
      </trkpt>
      <trkpt lat="46.36314" lon="5.02147">
        <ele>198</ele>
        <time>2021-01-02T13:22:13.000Z</time>
      </trkpt>
      <trkpt lat="46.36312" lon="5.02146">
        <ele>198</ele>
        <time>2021-01-02T13:22:14.000Z</time>
      </trkpt>
      <trkpt lat="46.36311" lon="5.02145">
        <ele>199</ele>
        <time>2021-01-02T13:22:15.000Z</time>
      </trkpt>
      <trkpt lat="46.36309" lon="5.02144">
        <ele>199</ele>
        <time>2021-01-02T13:22:16.000Z</time>
      </trkpt>
      <trkpt lat="46.36308" lon="5.02143">
        <ele>199</ele>
        <time>2021-01-02T13:22:17.000Z</time>
      </trkpt>
      <trkpt lat="46.36306" lon="5.02142">
        <ele>199</ele>
        <time>2021-01-02T13:22:18.000Z</time>
      </trkpt>
      <trkpt lat="46.36305" lon="5.02141">
        <ele>199</ele>
        <time>2021-01-02T13:22:19.000Z</time>
      </trkpt>
      <trkpt lat="46.36304" lon="5.0214">
        <ele>199</ele>
        <time>2021-01-02T13:22:20.000Z</time>
      </trkpt>
      <trkpt lat="46.36302" lon="5.02138">
        <ele>199</ele>
        <time>2021-01-02T13:22:21.000Z</time>
      </trkpt>
      <trkpt lat="46.363" lon="5.02137">
        <ele>199</ele>
        <time>2021-01-02T13:22:22.000Z</time>
      </trkpt>
      <trkpt lat="46.36299" lon="5.02136">
        <ele>199</ele>
        <time>2021-01-02T13:22:23.000Z</time>
      </trkpt>
      <trkpt lat="46.36298" lon="5.02134">
        <ele>199</ele>
        <time>2021-01-02T13:22:24.000Z</time>
      </trkpt>
      <trkpt lat="46.36296" lon="5.02133">
        <ele>199</ele>
        <time>2021-01-02T13:22:25.000Z</time>
      </trkpt>
      <trkpt lat="46.36295" lon="5.02131">
        <ele>200</ele>
        <time>2021-01-02T13:22:26.000Z</time>
      </trkpt>
      <trkpt lat="46.36294" lon="5.02128">
        <ele>200</ele>
        <time>2021-01-02T13:22:27.000Z</time>
      </trkpt>
      <trkpt lat="46.36294" lon="5.02126">
        <ele>200</ele>
        <time>2021-01-02T13:22:28.000Z</time>
      </trkpt>
      <trkpt lat="46.36293" lon="5.02123">
        <ele>200</ele>
        <time>2021-01-02T13:22:29.000Z</time>
      </trkpt>
      <trkpt lat="46.36293" lon="5.02121">
        <ele>200</ele>
        <time>2021-01-02T13:22:30.000Z</time>
      </trkpt>
      <trkpt lat="46.36293" lon="5.02119">
        <ele>200</ele>
        <time>2021-01-02T13:22:31.000Z</time>
      </trkpt>
      <trkpt lat="46.36293" lon="5.02117">
        <ele>200</ele>
        <time>2021-01-02T13:22:32.000Z</time>
      </trkpt>
      <trkpt lat="46.36294" lon="5.02114">
        <ele>200</ele>
        <time>2021-01-02T13:22:33.000Z</time>
      </trkpt>
      <trkpt lat="46.36294" lon="5.02112">
        <ele>200</ele>
        <time>2021-01-02T13:22:34.000Z</time>
      </trkpt>
      <trkpt lat="46.36294" lon="5.02109">
        <ele>201</ele>
        <time>2021-01-02T13:22:35.000Z</time>
      </trkpt>
      <trkpt lat="46.36294" lon="5.02107">
        <ele>201</ele>
        <time>2021-01-02T13:22:36.000Z</time>
      </trkpt>
      <trkpt lat="46.36293" lon="5.02105">
        <ele>201</ele>
        <time>2021-01-02T13:22:37.000Z</time>
      </trkpt>
      <trkpt lat="46.36293" lon="5.02103">
        <ele>201</ele>
        <time>2021-01-02T13:22:38.000Z</time>
      </trkpt>
      <trkpt lat="46.36293" lon="5.021">
        <ele>201</ele>
        <time>2021-01-02T13:22:39.000Z</time>
      </trkpt>
      <trkpt lat="46.36293" lon="5.02098">
        <ele>201</ele>
        <time>2021-01-02T13:22:40.000Z</time>
      </trkpt>
      <trkpt lat="46.36293" lon="5.02095">
        <ele>201</ele>
        <time>2021-01-02T13:22:41.000Z</time>
      </trkpt>
      <trkpt lat="46.36293" lon="5.02093">
        <ele>201</ele>
        <time>2021-01-02T13:22:42.000Z</time>
      </trkpt>
      <trkpt lat="46.36293" lon="5.02091">
        <ele>201</ele>
        <time>2021-01-02T13:22:43.000Z</time>
      </trkpt>
      <trkpt lat="46.36293" lon="5.02089">
        <ele>201</ele>
        <time>2021-01-02T13:22:44.000Z</time>
      </trkpt>
      <trkpt lat="46.36292" lon="5.02086">
        <ele>201</ele>
        <time>2021-01-02T13:22:45.000Z</time>
      </trkpt>
      <trkpt lat="46.36292" lon="5.02084">
        <ele>201</ele>
        <time>2021-01-02T13:22:46.000Z</time>
      </trkpt>
      <trkpt lat="46.36292" lon="5.02081">
        <ele>201</ele>
        <time>2021-01-02T13:22:47.000Z</time>
      </trkpt>
      <trkpt lat="46.36292" lon="5.02079">
        <ele>201</ele>
        <time>2021-01-02T13:22:48.000Z</time>
      </trkpt>
      <trkpt lat="46.36292" lon="5.02077">
        <ele>201</ele>
        <time>2021-01-02T13:22:49.000Z</time>
      </trkpt>
      <trkpt lat="46.36292" lon="5.02075">
        <ele>201</ele>
        <time>2021-01-02T13:22:50.000Z</time>
      </trkpt>
      <trkpt lat="46.36292" lon="5.02073">
        <ele>201</ele>
        <time>2021-01-02T13:22:51.000Z</time>
      </trkpt>
      <trkpt lat="46.36292" lon="5.02071">
        <ele>202</ele>
        <time>2021-01-02T13:22:52.000Z</time>
      </trkpt>
      <trkpt lat="46.36291" lon="5.02069">
        <ele>202</ele>
        <time>2021-01-02T13:22:53.000Z</time>
      </trkpt>
      <trkpt lat="46.36291" lon="5.02066">
        <ele>202</ele>
        <time>2021-01-02T13:22:54.000Z</time>
      </trkpt>
      <trkpt lat="46.36291" lon="5.02064">
        <ele>202</ele>
        <time>2021-01-02T13:22:55.000Z</time>
      </trkpt>
      <trkpt lat="46.36291" lon="5.02062">
        <ele>202</ele>
        <time>2021-01-02T13:22:56.000Z</time>
      </trkpt>
      <trkpt lat="46.36291" lon="5.0206">
        <ele>202</ele>
        <time>2021-01-02T13:22:57.000Z</time>
      </trkpt>
      <trkpt lat="46.36291" lon="5.02058">
        <ele>202</ele>
        <time>2021-01-02T13:22:58.000Z</time>
      </trkpt>
      <trkpt lat="46.36291" lon="5.02056">
        <ele>202</ele>
        <time>2021-01-02T13:22:59.000Z</time>
      </trkpt>
      <trkpt lat="46.3629" lon="5.02054">
        <ele>202</ele>
        <time>2021-01-02T13:23:00.000Z</time>
      </trkpt>
      <trkpt lat="46.3629" lon="5.02052">
        <ele>202</ele>
        <time>2021-01-02T13:23:01.000Z</time>
      </trkpt>
      <trkpt lat="46.3629" lon="5.02051">
        <ele>202</ele>
        <time>2021-01-02T13:23:02.000Z</time>
      </trkpt>
      <trkpt lat="46.3629" lon="5.02048">
        <ele>203</ele>
        <time>2021-01-02T13:23:03.000Z</time>
      </trkpt>
      <trkpt lat="46.3629" lon="5.02046">
        <ele>203</ele>
        <time>2021-01-02T13:23:04.000Z</time>
      </trkpt>
      <trkpt lat="46.36289" lon="5.02044">
        <ele>203</ele>
        <time>2021-01-02T13:23:05.000Z</time>
      </trkpt>
      <trkpt lat="46.36289" lon="5.02042">
        <ele>203</ele>
        <time>2021-01-02T13:23:06.000Z</time>
      </trkpt>
      <trkpt lat="46.36289" lon="5.02041">
        <ele>203</ele>
        <time>2021-01-02T13:23:07.000Z</time>
      </trkpt>
      <trkpt lat="46.36289" lon="5.02039">
        <ele>203</ele>
        <time>2021-01-02T13:23:08.000Z</time>
      </trkpt>
      <trkpt lat="46.36289" lon="5.02037">
        <ele>203</ele>
        <time>2021-01-02T13:23:09.000Z</time>
      </trkpt>
      <trkpt lat="46.36288" lon="5.02035">
        <ele>203</ele>
        <time>2021-01-02T13:23:10.000Z</time>
      </trkpt>
      <trkpt lat="46.36288" lon="5.02032">
        <ele>203</ele>
        <time>2021-01-02T13:23:11.000Z</time>
      </trkpt>
      <trkpt lat="46.36288" lon="5.02031">
        <ele>203</ele>
        <time>2021-01-02T13:23:12.000Z</time>
      </trkpt>
      <trkpt lat="46.36288" lon="5.02029">
        <ele>203</ele>
        <time>2021-01-02T13:23:13.000Z</time>
      </trkpt>
      <trkpt lat="46.36288" lon="5.02027">
        <ele>203</ele>
        <time>2021-01-02T13:23:14.000Z</time>
      </trkpt>
      <trkpt lat="46.36287" lon="5.02025">
        <ele>203</ele>
        <time>2021-01-02T13:23:15.000Z</time>
      </trkpt>
      <trkpt lat="46.36287" lon="5.02023">
        <ele>203</ele>
        <time>2021-01-02T13:23:16.000Z</time>
      </trkpt>
      <trkpt lat="46.36287" lon="5.02021">
        <ele>204</ele>
        <time>2021-01-02T13:23:17.000Z</time>
      </trkpt>
      <trkpt lat="46.36287" lon="5.02019">
        <ele>204</ele>
        <time>2021-01-02T13:23:18.000Z</time>
      </trkpt>
      <trkpt lat="46.36287" lon="5.02017">
        <ele>204</ele>
        <time>2021-01-02T13:23:19.000Z</time>
      </trkpt>
      <trkpt lat="46.36287" lon="5.02015">
        <ele>204</ele>
        <time>2021-01-02T13:23:20.000Z</time>
      </trkpt>
      <trkpt lat="46.36286" lon="5.02013">
        <ele>204</ele>
        <time>2021-01-02T13:23:21.000Z</time>
      </trkpt>
      <trkpt lat="46.36286" lon="5.02011">
        <ele>204</ele>
        <time>2021-01-02T13:23:22.000Z</time>
      </trkpt>
      <trkpt lat="46.36286" lon="5.02009">
        <ele>204</ele>
        <time>2021-01-02T13:23:23.000Z</time>
      </trkpt>
      <trkpt lat="46.36286" lon="5.02007">
        <ele>204</ele>
        <time>2021-01-02T13:23:24.000Z</time>
      </trkpt>
      <trkpt lat="46.36286" lon="5.02005">
        <ele>204</ele>
        <time>2021-01-02T13:23:25.000Z</time>
      </trkpt>
      <trkpt lat="46.36286" lon="5.02004">
        <ele>204</ele>
        <time>2021-01-02T13:23:26.000Z</time>
      </trkpt>
      <trkpt lat="46.36286" lon="5.02004">
        <ele>204</ele>
        <time>2021-01-02T13:23:27.000Z</time>
      </trkpt>
      <trkpt lat="46.36286" lon="5.02004">
        <ele>204</ele>
        <time>2021-01-02T13:23:28.000Z</time>
      </trkpt>
      <trkpt lat="46.36286" lon="5.02004">
        <ele>204</ele>
        <time>2021-01-02T13:23:29.000Z</time>
      </trkpt>
      <trkpt lat="46.36286" lon="5.02004">
        <ele>204</ele>
        <time>2021-01-02T13:23:30.000Z</time>
      </trkpt>
      <trkpt lat="46.36286" lon="5.02004">
        <ele>204</ele>
        <time>2021-01-02T13:23:31.000Z</time>
      </trkpt>
      <trkpt lat="46.36286" lon="5.02004">
        <ele>204</ele>
        <time>2021-01-02T13:23:32.000Z</time>
      </trkpt>
      <trkpt lat="46.36286" lon="5.02004">
        <ele>204</ele>
        <time>2021-01-02T13:23:33.000Z</time>
      </trkpt>
      <trkpt lat="46.36286" lon="5.02004">
        <ele>204</ele>
        <time>2021-01-02T13:23:34.000Z</time>
      </trkpt>
      <trkpt lat="46.36286" lon="5.02004">
        <ele>204</ele>
        <time>2021-01-02T13:23:35.000Z</time>
      </trkpt>
      <trkpt lat="46.36286" lon="5.02004">
        <ele>204</ele>
        <time>2021-01-02T13:23:36.000Z</time>
      </trkpt>
      <trkpt lat="46.36286" lon="5.02004">
        <ele>204</ele>
        <time>2021-01-02T13:23:37.000Z</time>
      </trkpt>
      <trkpt lat="46.36286" lon="5.02004">
        <ele>204</ele>
        <time>2021-01-02T13:23:38.000Z</time>
      </trkpt>
      <trkpt lat="46.36286" lon="5.02004">
        <ele>204</ele>
        <time>2021-01-02T13:23:39.000Z</time>
      </trkpt>
      <trkpt lat="46.36286" lon="5.02004">
        <ele>204</ele>
        <time>2021-01-02T13:23:40.000Z</time>
      </trkpt>
      <trkpt lat="46.36286" lon="5.02004">
        <ele>204</ele>
        <time>2021-01-02T13:23:41.000Z</time>
      </trkpt>
      <trkpt lat="46.36286" lon="5.02004">
        <ele>204</ele>
        <time>2021-01-02T13:23:42.000Z</time>
      </trkpt>
      <trkpt lat="46.36286" lon="5.02004">
        <ele>204</ele>
        <time>2021-01-02T13:23:43.000Z</time>
      </trkpt>
      <trkpt lat="46.36286" lon="5.02004">
        <ele>204</ele>
        <time>2021-01-02T13:23:44.000Z</time>
      </trkpt>
      <trkpt lat="46.36286" lon="5.02003">
        <ele>204</ele>
        <time>2021-01-02T13:23:45.000Z</time>
      </trkpt>
      <trkpt lat="46.36286" lon="5.02003">
        <ele>204</ele>
        <time>2021-01-02T13:23:46.000Z</time>
      </trkpt>
      <trkpt lat="46.36286" lon="5.02003">
        <ele>204</ele>
        <time>2021-01-02T13:23:47.000Z</time>
      </trkpt>
      <trkpt lat="46.36286" lon="5.02003">
        <ele>204</ele>
        <time>2021-01-02T13:23:48.000Z</time>
      </trkpt>
      <trkpt lat="46.36286" lon="5.02003">
        <ele>204</ele>
        <time>2021-01-02T13:23:49.000Z</time>
      </trkpt>
      <trkpt lat="46.36286" lon="5.02003">
        <ele>204</ele>
        <time>2021-01-02T13:23:50.000Z</time>
      </trkpt>
      <trkpt lat="46.36286" lon="5.02003">
        <ele>204</ele>
        <time>2021-01-02T13:23:51.000Z</time>
      </trkpt>
      <trkpt lat="46.36286" lon="5.02003">
        <ele>204</ele>
        <time>2021-01-02T13:23:52.000Z</time>
      </trkpt>
      <trkpt lat="46.36286" lon="5.02003">
        <ele>204</ele>
        <time>2021-01-02T13:23:53.000Z</time>
      </trkpt>
      <trkpt lat="46.36286" lon="5.02003">
        <ele>204</ele>
        <time>2021-01-02T13:23:54.000Z</time>
      </trkpt>
      <trkpt lat="46.36286" lon="5.02003">
        <ele>204</ele>
        <time>2021-01-02T13:23:55.000Z</time>
      </trkpt>
      <trkpt lat="46.36286" lon="5.02003">
        <ele>204</ele>
        <time>2021-01-02T13:23:56.000Z</time>
      </trkpt>
      <trkpt lat="46.36286" lon="5.02003">
        <ele>204</ele>
        <time>2021-01-02T13:23:57.000Z</time>
      </trkpt>
      <trkpt lat="46.36286" lon="5.02003">
        <ele>204</ele>
        <time>2021-01-02T13:23:58.000Z</time>
      </trkpt>
      <trkpt lat="46.36286" lon="5.02003">
        <ele>204</ele>
        <time>2021-01-02T13:23:59.000Z</time>
      </trkpt>
      <trkpt lat="46.36286" lon="5.02003">
        <ele>204</ele>
        <time>2021-01-02T13:24:00.000Z</time>
      </trkpt>
      <trkpt lat="46.36286" lon="5.02002">
        <ele>204</ele>
        <time>2021-01-02T13:24:01.000Z</time>
      </trkpt>
      <trkpt lat="46.36285" lon="5.02001">
        <ele>204</ele>
        <time>2021-01-02T13:24:02.000Z</time>
      </trkpt>
      <trkpt lat="46.36285" lon="5.01999">
        <ele>204</ele>
        <time>2021-01-02T13:24:03.000Z</time>
      </trkpt>
      <trkpt lat="46.36285" lon="5.01997">
        <ele>204</ele>
        <time>2021-01-02T13:24:04.000Z</time>
      </trkpt>
      <trkpt lat="46.36285" lon="5.01995">
        <ele>204</ele>
        <time>2021-01-02T13:24:05.000Z</time>
      </trkpt>
      <trkpt lat="46.36285" lon="5.01993">
        <ele>204</ele>
        <time>2021-01-02T13:24:06.000Z</time>
      </trkpt>
      <trkpt lat="46.36285" lon="5.01991">
        <ele>204</ele>
        <time>2021-01-02T13:24:07.000Z</time>
      </trkpt>
      <trkpt lat="46.36284" lon="5.01989">
        <ele>204</ele>
        <time>2021-01-02T13:24:08.000Z</time>
      </trkpt>
      <trkpt lat="46.36284" lon="5.01987">
        <ele>204</ele>
        <time>2021-01-02T13:24:09.000Z</time>
      </trkpt>
      <trkpt lat="46.36284" lon="5.01985">
        <ele>204</ele>
        <time>2021-01-02T13:24:10.000Z</time>
      </trkpt>
      <trkpt lat="46.36284" lon="5.01983">
        <ele>204</ele>
        <time>2021-01-02T13:24:11.000Z</time>
      </trkpt>
      <trkpt lat="46.36284" lon="5.01982">
        <ele>204</ele>
        <time>2021-01-02T13:24:12.000Z</time>
      </trkpt>
      <trkpt lat="46.36283" lon="5.0198">
        <ele>204</ele>
        <time>2021-01-02T13:24:13.000Z</time>
      </trkpt>
      <trkpt lat="46.36283" lon="5.01978">
        <ele>204</ele>
        <time>2021-01-02T13:24:14.000Z</time>
      </trkpt>
      <trkpt lat="46.36283" lon="5.01977">
        <ele>204</ele>
        <time>2021-01-02T13:24:15.000Z</time>
      </trkpt>
      <trkpt lat="46.36282" lon="5.01975">
        <ele>204</ele>
        <time>2021-01-02T13:24:16.000Z</time>
      </trkpt>
      <trkpt lat="46.36282" lon="5.01973">
        <ele>204</ele>
        <time>2021-01-02T13:24:17.000Z</time>
      </trkpt>
      <trkpt lat="46.36282" lon="5.01971">
        <ele>204</ele>
        <time>2021-01-02T13:24:18.000Z</time>
      </trkpt>
      <trkpt lat="46.36281" lon="5.01969">
        <ele>204</ele>
        <time>2021-01-02T13:24:19.000Z</time>
      </trkpt>
      <trkpt lat="46.36281" lon="5.01967">
        <ele>204</ele>
        <time>2021-01-02T13:24:20.000Z</time>
      </trkpt>
      <trkpt lat="46.36281" lon="5.01966">
        <ele>204</ele>
        <time>2021-01-02T13:24:21.000Z</time>
      </trkpt>
      <trkpt lat="46.3628" lon="5.01964">
        <ele>204</ele>
        <time>2021-01-02T13:24:22.000Z</time>
      </trkpt>
      <trkpt lat="46.3628" lon="5.01962">
        <ele>204</ele>
        <time>2021-01-02T13:24:23.000Z</time>
      </trkpt>
      <trkpt lat="46.3628" lon="5.0196">
        <ele>204</ele>
        <time>2021-01-02T13:24:24.000Z</time>
      </trkpt>
      <trkpt lat="46.36279" lon="5.01958">
        <ele>204</ele>
        <time>2021-01-02T13:24:25.000Z</time>
      </trkpt>
      <trkpt lat="46.36279" lon="5.01956">
        <ele>204</ele>
        <time>2021-01-02T13:24:26.000Z</time>
      </trkpt>
      <trkpt lat="46.36279" lon="5.01955">
        <ele>204</ele>
        <time>2021-01-02T13:24:27.000Z</time>
      </trkpt>
      <trkpt lat="46.36278" lon="5.01953">
        <ele>204</ele>
        <time>2021-01-02T13:24:28.000Z</time>
      </trkpt>
      <trkpt lat="46.36278" lon="5.0195">
        <ele>205</ele>
        <time>2021-01-02T13:24:29.000Z</time>
      </trkpt>
      <trkpt lat="46.36277" lon="5.01949">
        <ele>205</ele>
        <time>2021-01-02T13:24:30.000Z</time>
      </trkpt>
      <trkpt lat="46.36277" lon="5.01946">
        <ele>205</ele>
        <time>2021-01-02T13:24:31.000Z</time>
      </trkpt>
      <trkpt lat="46.36277" lon="5.01944">
        <ele>205</ele>
        <time>2021-01-02T13:24:32.000Z</time>
      </trkpt>
      <trkpt lat="46.36276" lon="5.01943">
        <ele>205</ele>
        <time>2021-01-02T13:24:33.000Z</time>
      </trkpt>
      <trkpt lat="46.36276" lon="5.01941">
        <ele>205</ele>
        <time>2021-01-02T13:24:34.000Z</time>
      </trkpt>
      <trkpt lat="46.36276" lon="5.01939">
        <ele>205</ele>
        <time>2021-01-02T13:24:35.000Z</time>
      </trkpt>
      <trkpt lat="46.36276" lon="5.01937">
        <ele>205</ele>
        <time>2021-01-02T13:24:36.000Z</time>
      </trkpt>
      <trkpt lat="46.36275" lon="5.01935">
        <ele>205</ele>
        <time>2021-01-02T13:24:37.000Z</time>
      </trkpt>
      <trkpt lat="46.36275" lon="5.01933">
        <ele>205</ele>
        <time>2021-01-02T13:24:38.000Z</time>
      </trkpt>
      <trkpt lat="46.36275" lon="5.01931">
        <ele>205</ele>
        <time>2021-01-02T13:24:39.000Z</time>
      </trkpt>
      <trkpt lat="46.36275" lon="5.01929">
        <ele>205</ele>
        <time>2021-01-02T13:24:40.000Z</time>
      </trkpt>
      <trkpt lat="46.36274" lon="5.01927">
        <ele>205</ele>
        <time>2021-01-02T13:24:41.000Z</time>
      </trkpt>
      <trkpt lat="46.36274" lon="5.01925">
        <ele>205</ele>
        <time>2021-01-02T13:24:42.000Z</time>
      </trkpt>
      <trkpt lat="46.36274" lon="5.01923">
        <ele>205</ele>
        <time>2021-01-02T13:24:43.000Z</time>
      </trkpt>
      <trkpt lat="46.36274" lon="5.01922">
        <ele>205</ele>
        <time>2021-01-02T13:24:44.000Z</time>
      </trkpt>
      <trkpt lat="46.36274" lon="5.0192">
        <ele>205</ele>
        <time>2021-01-02T13:24:45.000Z</time>
      </trkpt>
      <trkpt lat="46.36273" lon="5.01918">
        <ele>205</ele>
        <time>2021-01-02T13:24:46.000Z</time>
      </trkpt>
      <trkpt lat="46.36273" lon="5.01916">
        <ele>205</ele>
        <time>2021-01-02T13:24:47.000Z</time>
      </trkpt>
      <trkpt lat="46.36273" lon="5.01914">
        <ele>205</ele>
        <time>2021-01-02T13:24:48.000Z</time>
      </trkpt>
      <trkpt lat="46.36273" lon="5.01912">
        <ele>205</ele>
        <time>2021-01-02T13:24:49.000Z</time>
      </trkpt>
      <trkpt lat="46.36273" lon="5.0191">
        <ele>206</ele>
        <time>2021-01-02T13:24:50.000Z</time>
      </trkpt>
      <trkpt lat="46.36272" lon="5.01908">
        <ele>206</ele>
        <time>2021-01-02T13:24:51.000Z</time>
      </trkpt>
      <trkpt lat="46.36272" lon="5.01907">
        <ele>206</ele>
        <time>2021-01-02T13:24:52.000Z</time>
      </trkpt>
      <trkpt lat="46.36272" lon="5.01905">
        <ele>206</ele>
        <time>2021-01-02T13:24:53.000Z</time>
      </trkpt>
      <trkpt lat="46.36272" lon="5.01903">
        <ele>206</ele>
        <time>2021-01-02T13:24:54.000Z</time>
      </trkpt>
      <trkpt lat="46.36271" lon="5.01901">
        <ele>206</ele>
        <time>2021-01-02T13:24:55.000Z</time>
      </trkpt>
      <trkpt lat="46.36271" lon="5.01899">
        <ele>206</ele>
        <time>2021-01-02T13:24:56.000Z</time>
      </trkpt>
      <trkpt lat="46.36271" lon="5.01897">
        <ele>206</ele>
        <time>2021-01-02T13:24:57.000Z</time>
      </trkpt>
      <trkpt lat="46.36271" lon="5.01895">
        <ele>206</ele>
        <time>2021-01-02T13:24:58.000Z</time>
      </trkpt>
      <trkpt lat="46.3627" lon="5.01893">
        <ele>206</ele>
        <time>2021-01-02T13:24:59.000Z</time>
      </trkpt>
      <trkpt lat="46.3627" lon="5.01891">
        <ele>206</ele>
        <time>2021-01-02T13:25:00.000Z</time>
      </trkpt>
      <trkpt lat="46.3627" lon="5.0189">
        <ele>206</ele>
        <time>2021-01-02T13:25:01.000Z</time>
      </trkpt>
      <trkpt lat="46.36269" lon="5.01888">
        <ele>206</ele>
        <time>2021-01-02T13:25:02.000Z</time>
      </trkpt>
      <trkpt lat="46.36268" lon="5.01886">
        <ele>206</ele>
        <time>2021-01-02T13:25:03.000Z</time>
      </trkpt>
      <trkpt lat="46.36267" lon="5.01885">
        <ele>207</ele>
        <time>2021-01-02T13:25:04.000Z</time>
      </trkpt>
      <trkpt lat="46.36267" lon="5.01883">
        <ele>207</ele>
        <time>2021-01-02T13:25:05.000Z</time>
      </trkpt>
      <trkpt lat="46.36266" lon="5.01881">
        <ele>207</ele>
        <time>2021-01-02T13:25:06.000Z</time>
      </trkpt>
      <trkpt lat="46.36266" lon="5.01879">
        <ele>207</ele>
        <time>2021-01-02T13:25:07.000Z</time>
      </trkpt>
      <trkpt lat="46.36266" lon="5.01877">
        <ele>207</ele>
        <time>2021-01-02T13:25:08.000Z</time>
      </trkpt>
      <trkpt lat="46.36265" lon="5.01875">
        <ele>207</ele>
        <time>2021-01-02T13:25:09.000Z</time>
      </trkpt>
      <trkpt lat="46.36265" lon="5.01873">
        <ele>207</ele>
        <time>2021-01-02T13:25:10.000Z</time>
      </trkpt>
      <trkpt lat="46.36265" lon="5.01871">
        <ele>207</ele>
        <time>2021-01-02T13:25:11.000Z</time>
      </trkpt>
      <trkpt lat="46.36264" lon="5.01869">
        <ele>207</ele>
        <time>2021-01-02T13:25:12.000Z</time>
      </trkpt>
      <trkpt lat="46.36264" lon="5.01868">
        <ele>207</ele>
        <time>2021-01-02T13:25:13.000Z</time>
      </trkpt>
      <trkpt lat="46.36264" lon="5.01867">
        <ele>207</ele>
        <time>2021-01-02T13:25:14.000Z</time>
      </trkpt>
      <trkpt lat="46.36264" lon="5.01867">
        <ele>207</ele>
        <time>2021-01-02T13:25:15.000Z</time>
      </trkpt>
      <trkpt lat="46.36264" lon="5.01866">
        <ele>207</ele>
        <time>2021-01-02T13:25:16.000Z</time>
      </trkpt>
      <trkpt lat="46.36264" lon="5.01865">
        <ele>207</ele>
        <time>2021-01-02T13:25:17.000Z</time>
      </trkpt>
      <trkpt lat="46.36264" lon="5.01864">
        <ele>207</ele>
        <time>2021-01-02T13:25:18.000Z</time>
      </trkpt>
      <trkpt lat="46.36263" lon="5.01862">
        <ele>207</ele>
        <time>2021-01-02T13:25:19.000Z</time>
      </trkpt>
      <trkpt lat="46.36263" lon="5.0186">
        <ele>207</ele>
        <time>2021-01-02T13:25:20.000Z</time>
      </trkpt>
      <trkpt lat="46.36263" lon="5.01859">
        <ele>207</ele>
        <time>2021-01-02T13:25:21.000Z</time>
      </trkpt>
      <trkpt lat="46.36263" lon="5.01857">
        <ele>207</ele>
        <time>2021-01-02T13:25:22.000Z</time>
      </trkpt>
      <trkpt lat="46.36263" lon="5.01855">
        <ele>207</ele>
        <time>2021-01-02T13:25:23.000Z</time>
      </trkpt>
      <trkpt lat="46.36263" lon="5.01853">
        <ele>207</ele>
        <time>2021-01-02T13:25:24.000Z</time>
      </trkpt>
      <trkpt lat="46.36263" lon="5.01851">
        <ele>207</ele>
        <time>2021-01-02T13:25:25.000Z</time>
      </trkpt>
      <trkpt lat="46.36263" lon="5.01849">
        <ele>207</ele>
        <time>2021-01-02T13:25:26.000Z</time>
      </trkpt>
      <trkpt lat="46.36262" lon="5.01848">
        <ele>207</ele>
        <time>2021-01-02T13:25:27.000Z</time>
      </trkpt>
      <trkpt lat="46.36262" lon="5.01846">
        <ele>207</ele>
        <time>2021-01-02T13:25:28.000Z</time>
      </trkpt>
      <trkpt lat="46.36262" lon="5.01844">
        <ele>208</ele>
        <time>2021-01-02T13:25:29.000Z</time>
      </trkpt>
      <trkpt lat="46.36261" lon="5.01842">
        <ele>208</ele>
        <time>2021-01-02T13:25:30.000Z</time>
      </trkpt>
      <trkpt lat="46.36261" lon="5.01841">
        <ele>208</ele>
        <time>2021-01-02T13:25:31.000Z</time>
      </trkpt>
      <trkpt lat="46.3626" lon="5.01839">
        <ele>208</ele>
        <time>2021-01-02T13:25:32.000Z</time>
      </trkpt>
      <trkpt lat="46.3626" lon="5.01838">
        <ele>208</ele>
        <time>2021-01-02T13:25:33.000Z</time>
      </trkpt>
      <trkpt lat="46.3626" lon="5.01836">
        <ele>208</ele>
        <time>2021-01-02T13:25:34.000Z</time>
      </trkpt>
      <trkpt lat="46.36259" lon="5.01834">
        <ele>208</ele>
        <time>2021-01-02T13:25:35.000Z</time>
      </trkpt>
      <trkpt lat="46.36259" lon="5.01832">
        <ele>208</ele>
        <time>2021-01-02T13:25:36.000Z</time>
      </trkpt>
      <trkpt lat="46.36259" lon="5.01831">
        <ele>208</ele>
        <time>2021-01-02T13:25:37.000Z</time>
      </trkpt>
      <trkpt lat="46.36258" lon="5.01829">
        <ele>208</ele>
        <time>2021-01-02T13:25:38.000Z</time>
      </trkpt>
      <trkpt lat="46.36258" lon="5.01827">
        <ele>208</ele>
        <time>2021-01-02T13:25:39.000Z</time>
      </trkpt>
      <trkpt lat="46.36258" lon="5.01825">
        <ele>208</ele>
        <time>2021-01-02T13:25:40.000Z</time>
      </trkpt>
      <trkpt lat="46.36257" lon="5.01824">
        <ele>208</ele>
        <time>2021-01-02T13:25:41.000Z</time>
      </trkpt>
      <trkpt lat="46.36257" lon="5.01822">
        <ele>208</ele>
        <time>2021-01-02T13:25:42.000Z</time>
      </trkpt>
      <trkpt lat="46.36257" lon="5.0182">
        <ele>208</ele>
        <time>2021-01-02T13:25:43.000Z</time>
      </trkpt>
      <trkpt lat="46.36257" lon="5.01818">
        <ele>208</ele>
        <time>2021-01-02T13:25:44.000Z</time>
      </trkpt>
      <trkpt lat="46.36256" lon="5.01817">
        <ele>208</ele>
        <time>2021-01-02T13:25:45.000Z</time>
      </trkpt>
      <trkpt lat="46.36256" lon="5.01815">
        <ele>208</ele>
        <time>2021-01-02T13:25:46.000Z</time>
      </trkpt>
      <trkpt lat="46.36256" lon="5.01813">
        <ele>208</ele>
        <time>2021-01-02T13:25:47.000Z</time>
      </trkpt>
      <trkpt lat="46.36255" lon="5.01812">
        <ele>208</ele>
        <time>2021-01-02T13:25:48.000Z</time>
      </trkpt>
      <trkpt lat="46.36255" lon="5.0181">
        <ele>208</ele>
        <time>2021-01-02T13:25:49.000Z</time>
      </trkpt>
      <trkpt lat="46.36255" lon="5.01808">
        <ele>208</ele>
        <time>2021-01-02T13:25:50.000Z</time>
      </trkpt>
      <trkpt lat="46.36254" lon="5.01806">
        <ele>208</ele>
        <time>2021-01-02T13:25:51.000Z</time>
      </trkpt>
      <trkpt lat="46.36254" lon="5.01805">
        <ele>208</ele>
        <time>2021-01-02T13:25:52.000Z</time>
      </trkpt>
      <trkpt lat="46.36254" lon="5.01803">
        <ele>208</ele>
        <time>2021-01-02T13:25:53.000Z</time>
      </trkpt>
      <trkpt lat="46.36254" lon="5.01801">
        <ele>208</ele>
        <time>2021-01-02T13:25:54.000Z</time>
      </trkpt>
      <trkpt lat="46.36253" lon="5.01799">
        <ele>208</ele>
        <time>2021-01-02T13:25:55.000Z</time>
      </trkpt>
      <trkpt lat="46.36253" lon="5.01798">
        <ele>208</ele>
        <time>2021-01-02T13:25:56.000Z</time>
      </trkpt>
      <trkpt lat="46.36252" lon="5.01796">
        <ele>208</ele>
        <time>2021-01-02T13:25:57.000Z</time>
      </trkpt>
      <trkpt lat="46.36252" lon="5.01794">
        <ele>208</ele>
        <time>2021-01-02T13:25:58.000Z</time>
      </trkpt>
      <trkpt lat="46.36252" lon="5.01793">
        <ele>208</ele>
        <time>2021-01-02T13:25:59.000Z</time>
      </trkpt>
      <trkpt lat="46.36252" lon="5.01791">
        <ele>208</ele>
        <time>2021-01-02T13:26:00.000Z</time>
      </trkpt>
      <trkpt lat="46.36252" lon="5.01789">
        <ele>208</ele>
        <time>2021-01-02T13:26:01.000Z</time>
      </trkpt>
      <trkpt lat="46.36252" lon="5.01788">
        <ele>208</ele>
        <time>2021-01-02T13:26:02.000Z</time>
      </trkpt>
      <trkpt lat="46.36252" lon="5.01787">
        <ele>208</ele>
        <time>2021-01-02T13:26:03.000Z</time>
      </trkpt>
      <trkpt lat="46.36252" lon="5.01787">
        <ele>208</ele>
        <time>2021-01-02T13:26:04.000Z</time>
      </trkpt>
      <trkpt lat="46.36252" lon="5.01787">
        <ele>208</ele>
        <time>2021-01-02T13:26:05.000Z</time>
      </trkpt>
      <trkpt lat="46.36252" lon="5.01787">
        <ele>208</ele>
        <time>2021-01-02T13:26:06.000Z</time>
      </trkpt>
      <trkpt lat="46.36252" lon="5.01787">
        <ele>208</ele>
        <time>2021-01-02T13:26:07.000Z</time>
      </trkpt>
      <trkpt lat="46.36252" lon="5.01787">
        <ele>208</ele>
        <time>2021-01-02T13:26:08.000Z</time>
      </trkpt>
      <trkpt lat="46.36252" lon="5.01787">
        <ele>208</ele>
        <time>2021-01-02T13:26:09.000Z</time>
      </trkpt>
      <trkpt lat="46.36252" lon="5.01787">
        <ele>208</ele>
        <time>2021-01-02T13:26:10.000Z</time>
      </trkpt>
      <trkpt lat="46.36252" lon="5.01787">
        <ele>208</ele>
        <time>2021-01-02T13:26:11.000Z</time>
      </trkpt>
      <trkpt lat="46.36252" lon="5.01787">
        <ele>208</ele>
        <time>2021-01-02T13:26:12.000Z</time>
      </trkpt>
      <trkpt lat="46.36252" lon="5.01787">
        <ele>208</ele>
        <time>2021-01-02T13:26:13.000Z</time>
      </trkpt>
      <trkpt lat="46.36252" lon="5.01787">
        <ele>208</ele>
        <time>2021-01-02T13:26:14.000Z</time>
      </trkpt>
      <trkpt lat="46.36251" lon="5.01787">
        <ele>208</ele>
        <time>2021-01-02T13:26:15.000Z</time>
      </trkpt>
      <trkpt lat="46.36251" lon="5.01787">
        <ele>208</ele>
        <time>2021-01-02T13:26:16.000Z</time>
      </trkpt>
      <trkpt lat="46.36251" lon="5.01787">
        <ele>208</ele>
        <time>2021-01-02T13:26:17.000Z</time>
      </trkpt>
      <trkpt lat="46.36251" lon="5.01787">
        <ele>208</ele>
        <time>2021-01-02T13:26:18.000Z</time>
      </trkpt>
      <trkpt lat="46.36251" lon="5.01787">
        <ele>208</ele>
        <time>2021-01-02T13:26:19.000Z</time>
      </trkpt>
      <trkpt lat="46.36251" lon="5.01786">
        <ele>208</ele>
        <time>2021-01-02T13:26:20.000Z</time>
      </trkpt>
      <trkpt lat="46.36251" lon="5.01786">
        <ele>208</ele>
        <time>2021-01-02T13:26:21.000Z</time>
      </trkpt>
      <trkpt lat="46.36251" lon="5.01786">
        <ele>208</ele>
        <time>2021-01-02T13:26:22.000Z</time>
      </trkpt>
      <trkpt lat="46.36251" lon="5.01786">
        <ele>208</ele>
        <time>2021-01-02T13:26:23.000Z</time>
      </trkpt>
      <trkpt lat="46.36251" lon="5.01786">
        <ele>208</ele>
        <time>2021-01-02T13:26:24.000Z</time>
      </trkpt>
      <trkpt lat="46.36251" lon="5.01786">
        <ele>208</ele>
        <time>2021-01-02T13:26:25.000Z</time>
      </trkpt>
      <trkpt lat="46.36251" lon="5.01786">
        <ele>208</ele>
        <time>2021-01-02T13:26:26.000Z</time>
      </trkpt>
      <trkpt lat="46.36251" lon="5.01786">
        <ele>208</ele>
        <time>2021-01-02T13:26:27.000Z</time>
      </trkpt>
      <trkpt lat="46.36251" lon="5.01786">
        <ele>208</ele>
        <time>2021-01-02T13:26:28.000Z</time>
      </trkpt>
      <trkpt lat="46.36251" lon="5.01786">
        <ele>208</ele>
        <time>2021-01-02T13:26:29.000Z</time>
      </trkpt>
      <trkpt lat="46.36251" lon="5.01786">
        <ele>208</ele>
        <time>2021-01-02T13:26:30.000Z</time>
      </trkpt>
      <trkpt lat="46.36251" lon="5.01786">
        <ele>208</ele>
        <time>2021-01-02T13:26:31.000Z</time>
      </trkpt>
      <trkpt lat="46.36251" lon="5.01786">
        <ele>208</ele>
        <time>2021-01-02T13:26:32.000Z</time>
      </trkpt>
      <trkpt lat="46.36251" lon="5.01786">
        <ele>208</ele>
        <time>2021-01-02T13:26:33.000Z</time>
      </trkpt>
      <trkpt lat="46.36251" lon="5.01786">
        <ele>208</ele>
        <time>2021-01-02T13:26:34.000Z</time>
      </trkpt>
      <trkpt lat="46.36251" lon="5.01786">
        <ele>208</ele>
        <time>2021-01-02T13:26:35.000Z</time>
      </trkpt>
      <trkpt lat="46.36251" lon="5.01786">
        <ele>208</ele>
        <time>2021-01-02T13:26:36.000Z</time>
      </trkpt>
      <trkpt lat="46.36251" lon="5.01786">
        <ele>208</ele>
        <time>2021-01-02T13:26:37.000Z</time>
      </trkpt>
      <trkpt lat="46.36251" lon="5.01786">
        <ele>208</ele>
        <time>2021-01-02T13:26:38.000Z</time>
      </trkpt>
      <trkpt lat="46.36251" lon="5.01786">
        <ele>207</ele>
        <time>2021-01-02T13:26:39.000Z</time>
      </trkpt>
      <trkpt lat="46.36251" lon="5.01786">
        <ele>207</ele>
        <time>2021-01-02T13:26:40.000Z</time>
      </trkpt>
      <trkpt lat="46.36251" lon="5.01786">
        <ele>207</ele>
        <time>2021-01-02T13:26:41.000Z</time>
      </trkpt>
      <trkpt lat="46.36251" lon="5.01786">
        <ele>207</ele>
        <time>2021-01-02T13:26:42.000Z</time>
      </trkpt>
      <trkpt lat="46.36251" lon="5.01786">
        <ele>207</ele>
        <time>2021-01-02T13:26:43.000Z</time>
      </trkpt>
      <trkpt lat="46.36251" lon="5.01786">
        <ele>207</ele>
        <time>2021-01-02T13:26:44.000Z</time>
      </trkpt>
      <trkpt lat="46.36251" lon="5.01786">
        <ele>207</ele>
        <time>2021-01-02T13:26:45.000Z</time>
      </trkpt>
      <trkpt lat="46.36251" lon="5.01786">
        <ele>207</ele>
        <time>2021-01-02T13:26:46.000Z</time>
      </trkpt>
      <trkpt lat="46.36251" lon="5.01786">
        <ele>207</ele>
        <time>2021-01-02T13:26:47.000Z</time>
      </trkpt>
      <trkpt lat="46.36251" lon="5.01786">
        <ele>207</ele>
        <time>2021-01-02T13:26:48.000Z</time>
      </trkpt>
      <trkpt lat="46.36251" lon="5.01786">
        <ele>207</ele>
        <time>2021-01-02T13:26:49.000Z</time>
      </trkpt>
      <trkpt lat="46.36251" lon="5.01786">
        <ele>207</ele>
        <time>2021-01-02T13:26:50.000Z</time>
      </trkpt>
      <trkpt lat="46.36251" lon="5.01786">
        <ele>207</ele>
        <time>2021-01-02T13:26:51.000Z</time>
      </trkpt>
      <trkpt lat="46.36251" lon="5.01786">
        <ele>207</ele>
        <time>2021-01-02T13:26:52.000Z</time>
      </trkpt>
      <trkpt lat="46.36251" lon="5.01786">
        <ele>207</ele>
        <time>2021-01-02T13:26:53.000Z</time>
      </trkpt>
      <trkpt lat="46.36251" lon="5.01786">
        <ele>207</ele>
        <time>2021-01-02T13:26:54.000Z</time>
      </trkpt>
      <trkpt lat="46.36251" lon="5.01786">
        <ele>207</ele>
        <time>2021-01-02T13:26:55.000Z</time>
      </trkpt>
      <trkpt lat="46.36251" lon="5.01786">
        <ele>207</ele>
        <time>2021-01-02T13:26:56.000Z</time>
      </trkpt>
      <trkpt lat="46.36251" lon="5.01786">
        <ele>207</ele>
        <time>2021-01-02T13:26:57.000Z</time>
      </trkpt>
      <trkpt lat="46.36251" lon="5.01786">
        <ele>207</ele>
        <time>2021-01-02T13:26:58.000Z</time>
      </trkpt>
      <trkpt lat="46.36251" lon="5.01786">
        <ele>207</ele>
        <time>2021-01-02T13:26:59.000Z</time>
      </trkpt>
      <trkpt lat="46.36251" lon="5.01786">
        <ele>207</ele>
        <time>2021-01-02T13:27:00.000Z</time>
      </trkpt>
      <trkpt lat="46.36251" lon="5.01786">
        <ele>207</ele>
        <time>2021-01-02T13:27:01.000Z</time>
      </trkpt>
      <trkpt lat="46.36251" lon="5.01786">
        <ele>207</ele>
        <time>2021-01-02T13:27:02.000Z</time>
      </trkpt>
      <trkpt lat="46.36251" lon="5.01786">
        <ele>207</ele>
        <time>2021-01-02T13:27:03.000Z</time>
      </trkpt>
      <trkpt lat="46.36251" lon="5.01786">
        <ele>207</ele>
        <time>2021-01-02T13:27:04.000Z</time>
      </trkpt>
      <trkpt lat="46.36251" lon="5.01786">
        <ele>207</ele>
        <time>2021-01-02T13:27:05.000Z</time>
      </trkpt>
      <trkpt lat="46.36251" lon="5.01786">
        <ele>207</ele>
        <time>2021-01-02T13:27:06.000Z</time>
      </trkpt>
      <trkpt lat="46.36251" lon="5.01786">
        <ele>207</ele>
        <time>2021-01-02T13:27:07.000Z</time>
      </trkpt>
      <trkpt lat="46.36251" lon="5.01786">
        <ele>207</ele>
        <time>2021-01-02T13:27:08.000Z</time>
      </trkpt>
      <trkpt lat="46.36251" lon="5.01786">
        <ele>207</ele>
        <time>2021-01-02T13:27:09.000Z</time>
      </trkpt>
      <trkpt lat="46.36251" lon="5.01786">
        <ele>207</ele>
        <time>2021-01-02T13:27:10.000Z</time>
      </trkpt>
      <trkpt lat="46.36251" lon="5.01786">
        <ele>207</ele>
        <time>2021-01-02T13:27:11.000Z</time>
      </trkpt>
      <trkpt lat="46.36251" lon="5.01786">
        <ele>207</ele>
        <time>2021-01-02T13:27:12.000Z</time>
      </trkpt>
      <trkpt lat="46.36251" lon="5.01786">
        <ele>207</ele>
        <time>2021-01-02T13:27:13.000Z</time>
      </trkpt>
      <trkpt lat="46.36251" lon="5.01786">
        <ele>207</ele>
        <time>2021-01-02T13:27:14.000Z</time>
      </trkpt>
      <trkpt lat="46.36251" lon="5.01786">
        <ele>207</ele>
        <time>2021-01-02T13:27:15.000Z</time>
      </trkpt>
      <trkpt lat="46.36251" lon="5.01786">
        <ele>207</ele>
        <time>2021-01-02T13:27:16.000Z</time>
      </trkpt>
      <trkpt lat="46.36251" lon="5.01786">
        <ele>207</ele>
        <time>2021-01-02T13:27:17.000Z</time>
      </trkpt>
      <trkpt lat="46.36251" lon="5.01786">
        <ele>207</ele>
        <time>2021-01-02T13:27:18.000Z</time>
      </trkpt>
      <trkpt lat="46.36251" lon="5.01786">
        <ele>207</ele>
        <time>2021-01-02T13:27:19.000Z</time>
      </trkpt>
      <trkpt lat="46.36251" lon="5.01786">
        <ele>207</ele>
        <time>2021-01-02T13:27:20.000Z</time>
      </trkpt>
      <trkpt lat="46.36251" lon="5.01786">
        <ele>207</ele>
        <time>2021-01-02T13:27:21.000Z</time>
      </trkpt>
      <trkpt lat="46.36251" lon="5.01786">
        <ele>207</ele>
        <time>2021-01-02T13:27:22.000Z</time>
      </trkpt>
      <trkpt lat="46.36251" lon="5.01786">
        <ele>207</ele>
        <time>2021-01-02T13:27:23.000Z</time>
      </trkpt>
      <trkpt lat="46.36251" lon="5.01786">
        <ele>207</ele>
        <time>2021-01-02T13:27:24.000Z</time>
      </trkpt>
      <trkpt lat="46.36251" lon="5.01786">
        <ele>207</ele>
        <time>2021-01-02T13:27:25.000Z</time>
      </trkpt>
      <trkpt lat="46.36251" lon="5.01786">
        <ele>207</ele>
        <time>2021-01-02T13:27:26.000Z</time>
      </trkpt>
      <trkpt lat="46.36251" lon="5.01786">
        <ele>207</ele>
        <time>2021-01-02T13:27:27.000Z</time>
      </trkpt>
      <trkpt lat="46.36251" lon="5.01786">
        <ele>207</ele>
        <time>2021-01-02T13:27:28.000Z</time>
      </trkpt>
      <trkpt lat="46.36251" lon="5.01786">
        <ele>207</ele>
        <time>2021-01-02T13:27:29.000Z</time>
      </trkpt>
      <trkpt lat="46.36251" lon="5.01786">
        <ele>207</ele>
        <time>2021-01-02T13:27:30.000Z</time>
      </trkpt>
      <trkpt lat="46.36251" lon="5.01786">
        <ele>207</ele>
        <time>2021-01-02T13:27:31.000Z</time>
      </trkpt>
      <trkpt lat="46.36251" lon="5.01786">
        <ele>207</ele>
        <time>2021-01-02T13:27:32.000Z</time>
      </trkpt>
      <trkpt lat="46.36251" lon="5.01786">
        <ele>207</ele>
        <time>2021-01-02T13:27:33.000Z</time>
      </trkpt>
      <trkpt lat="46.36251" lon="5.01786">
        <ele>207</ele>
        <time>2021-01-02T13:27:34.000Z</time>
      </trkpt>
      <trkpt lat="46.36251" lon="5.01786">
        <ele>207</ele>
        <time>2021-01-02T13:27:35.000Z</time>
      </trkpt>
      <trkpt lat="46.36251" lon="5.01786">
        <ele>207</ele>
        <time>2021-01-02T13:27:36.000Z</time>
      </trkpt>
      <trkpt lat="46.36251" lon="5.01786">
        <ele>207</ele>
        <time>2021-01-02T13:27:37.000Z</time>
      </trkpt>
      <trkpt lat="46.36251" lon="5.01786">
        <ele>207</ele>
        <time>2021-01-02T13:27:38.000Z</time>
      </trkpt>
      <trkpt lat="46.36251" lon="5.01786">
        <ele>207</ele>
        <time>2021-01-02T13:27:39.000Z</time>
      </trkpt>
      <trkpt lat="46.36251" lon="5.01786">
        <ele>207</ele>
        <time>2021-01-02T13:27:40.000Z</time>
      </trkpt>
      <trkpt lat="46.36251" lon="5.01786">
        <ele>207</ele>
        <time>2021-01-02T13:27:41.000Z</time>
      </trkpt>
      <trkpt lat="46.36251" lon="5.01786">
        <ele>207</ele>
        <time>2021-01-02T13:27:42.000Z</time>
      </trkpt>
      <trkpt lat="46.36251" lon="5.01786">
        <ele>207</ele>
        <time>2021-01-02T13:27:43.000Z</time>
      </trkpt>
      <trkpt lat="46.36251" lon="5.01786">
        <ele>207</ele>
        <time>2021-01-02T13:27:44.000Z</time>
      </trkpt>
      <trkpt lat="46.36251" lon="5.01786">
        <ele>207</ele>
        <time>2021-01-02T13:27:45.000Z</time>
      </trkpt>
      <trkpt lat="46.36251" lon="5.01786">
        <ele>207</ele>
        <time>2021-01-02T13:27:46.000Z</time>
      </trkpt>
      <trkpt lat="46.36251" lon="5.01786">
        <ele>207</ele>
        <time>2021-01-02T13:27:47.000Z</time>
      </trkpt>
      <trkpt lat="46.36251" lon="5.01786">
        <ele>207</ele>
        <time>2021-01-02T13:27:48.000Z</time>
      </trkpt>
      <trkpt lat="46.36251" lon="5.01786">
        <ele>207</ele>
        <time>2021-01-02T13:27:49.000Z</time>
      </trkpt>
      <trkpt lat="46.36251" lon="5.01786">
        <ele>207</ele>
        <time>2021-01-02T13:27:50.000Z</time>
      </trkpt>
      <trkpt lat="46.36251" lon="5.01786">
        <ele>207</ele>
        <time>2021-01-02T13:27:51.000Z</time>
      </trkpt>
      <trkpt lat="46.36251" lon="5.01786">
        <ele>207</ele>
        <time>2021-01-02T13:27:52.000Z</time>
      </trkpt>
      <trkpt lat="46.36251" lon="5.01786">
        <ele>207</ele>
        <time>2021-01-02T13:27:53.000Z</time>
      </trkpt>
      <trkpt lat="46.36251" lon="5.01786">
        <ele>207</ele>
        <time>2021-01-02T13:27:54.000Z</time>
      </trkpt>
      <trkpt lat="46.36251" lon="5.01786">
        <ele>207</ele>
        <time>2021-01-02T13:27:55.000Z</time>
      </trkpt>
      <trkpt lat="46.36251" lon="5.01786">
        <ele>207</ele>
        <time>2021-01-02T13:27:56.000Z</time>
      </trkpt>
      <trkpt lat="46.36251" lon="5.01786">
        <ele>207</ele>
        <time>2021-01-02T13:27:57.000Z</time>
      </trkpt>
      <trkpt lat="46.36251" lon="5.01786">
        <ele>207</ele>
        <time>2021-01-02T13:27:58.000Z</time>
      </trkpt>
      <trkpt lat="46.36251" lon="5.01786">
        <ele>207</ele>
        <time>2021-01-02T13:27:59.000Z</time>
      </trkpt>
      <trkpt lat="46.36251" lon="5.01786">
        <ele>207</ele>
        <time>2021-01-02T13:28:00.000Z</time>
      </trkpt>
      <trkpt lat="46.36251" lon="5.01786">
        <ele>207</ele>
        <time>2021-01-02T13:28:01.000Z</time>
      </trkpt>
      <trkpt lat="46.36251" lon="5.01786">
        <ele>207</ele>
        <time>2021-01-02T13:28:02.000Z</time>
      </trkpt>
      <trkpt lat="46.36251" lon="5.01786">
        <ele>207</ele>
        <time>2021-01-02T13:28:03.000Z</time>
      </trkpt>
      <trkpt lat="46.36251" lon="5.01786">
        <ele>207</ele>
        <time>2021-01-02T13:28:04.000Z</time>
      </trkpt>
      <trkpt lat="46.36251" lon="5.01786">
        <ele>207</ele>
        <time>2021-01-02T13:28:05.000Z</time>
      </trkpt>
      <trkpt lat="46.36251" lon="5.01786">
        <ele>207</ele>
        <time>2021-01-02T13:28:06.000Z</time>
      </trkpt>
      <trkpt lat="46.36251" lon="5.01786">
        <ele>207</ele>
        <time>2021-01-02T13:28:07.000Z</time>
      </trkpt>
      <trkpt lat="46.36251" lon="5.01786">
        <ele>207</ele>
        <time>2021-01-02T13:28:08.000Z</time>
      </trkpt>
      <trkpt lat="46.36251" lon="5.01786">
        <ele>207</ele>
        <time>2021-01-02T13:28:09.000Z</time>
      </trkpt>
      <trkpt lat="46.36251" lon="5.01786">
        <ele>207</ele>
        <time>2021-01-02T13:28:10.000Z</time>
      </trkpt>
      <trkpt lat="46.36251" lon="5.01786">
        <ele>207</ele>
        <time>2021-01-02T13:28:11.000Z</time>
      </trkpt>
      <trkpt lat="46.36251" lon="5.01786">
        <ele>207</ele>
        <time>2021-01-02T13:28:12.000Z</time>
      </trkpt>
      <trkpt lat="46.36251" lon="5.01786">
        <ele>207</ele>
        <time>2021-01-02T13:28:13.000Z</time>
      </trkpt>
      <trkpt lat="46.36251" lon="5.01786">
        <ele>208</ele>
        <time>2021-01-02T13:28:14.000Z</time>
      </trkpt>
      <trkpt lat="46.36251" lon="5.01786">
        <ele>208</ele>
        <time>2021-01-02T13:28:15.000Z</time>
      </trkpt>
      <trkpt lat="46.36251" lon="5.01786">
        <ele>208</ele>
        <time>2021-01-02T13:28:16.000Z</time>
      </trkpt>
      <trkpt lat="46.36251" lon="5.01786">
        <ele>208</ele>
        <time>2021-01-02T13:28:17.000Z</time>
      </trkpt>
      <trkpt lat="46.36251" lon="5.01786">
        <ele>208</ele>
        <time>2021-01-02T13:28:18.000Z</time>
      </trkpt>
      <trkpt lat="46.36251" lon="5.01786">
        <ele>208</ele>
        <time>2021-01-02T13:28:19.000Z</time>
      </trkpt>
      <trkpt lat="46.36251" lon="5.01786">
        <ele>208</ele>
        <time>2021-01-02T13:28:20.000Z</time>
      </trkpt>
      <trkpt lat="46.36251" lon="5.01786">
        <ele>208</ele>
        <time>2021-01-02T13:28:21.000Z</time>
      </trkpt>
      <trkpt lat="46.36251" lon="5.01786">
        <ele>208</ele>
        <time>2021-01-02T13:28:22.000Z</time>
      </trkpt>
      <trkpt lat="46.36251" lon="5.01786">
        <ele>208</ele>
        <time>2021-01-02T13:28:23.000Z</time>
      </trkpt>
      <trkpt lat="46.36251" lon="5.01786">
        <ele>208</ele>
        <time>2021-01-02T13:28:24.000Z</time>
      </trkpt>
      <trkpt lat="46.36251" lon="5.01786">
        <ele>208</ele>
        <time>2021-01-02T13:28:25.000Z</time>
      </trkpt>
      <trkpt lat="46.36251" lon="5.01786">
        <ele>208</ele>
        <time>2021-01-02T13:28:26.000Z</time>
      </trkpt>
      <trkpt lat="46.36251" lon="5.01786">
        <ele>208</ele>
        <time>2021-01-02T13:28:27.000Z</time>
      </trkpt>
      <trkpt lat="46.36251" lon="5.01786">
        <ele>208</ele>
        <time>2021-01-02T13:28:28.000Z</time>
      </trkpt>
      <trkpt lat="46.36251" lon="5.01786">
        <ele>208</ele>
        <time>2021-01-02T13:28:29.000Z</time>
      </trkpt>
      <trkpt lat="46.36251" lon="5.01786">
        <ele>208</ele>
        <time>2021-01-02T13:28:30.000Z</time>
      </trkpt>
      <trkpt lat="46.36251" lon="5.01786">
        <ele>208</ele>
        <time>2021-01-02T13:28:31.000Z</time>
      </trkpt>
      <trkpt lat="46.36251" lon="5.01786">
        <ele>208</ele>
        <time>2021-01-02T13:28:32.000Z</time>
      </trkpt>
      <trkpt lat="46.36251" lon="5.01786">
        <ele>208</ele>
        <time>2021-01-02T13:28:33.000Z</time>
      </trkpt>
      <trkpt lat="46.36251" lon="5.01786">
        <ele>208</ele>
        <time>2021-01-02T13:28:34.000Z</time>
      </trkpt>
      <trkpt lat="46.36251" lon="5.01786">
        <ele>208</ele>
        <time>2021-01-02T13:28:35.000Z</time>
      </trkpt>
      <trkpt lat="46.36251" lon="5.01786">
        <ele>208</ele>
        <time>2021-01-02T13:28:36.000Z</time>
      </trkpt>
      <trkpt lat="46.36251" lon="5.01786">
        <ele>208</ele>
        <time>2021-01-02T13:28:37.000Z</time>
      </trkpt>
      <trkpt lat="46.36251" lon="5.01786">
        <ele>208</ele>
        <time>2021-01-02T13:28:38.000Z</time>
      </trkpt>
      <trkpt lat="46.36251" lon="5.01786">
        <ele>208</ele>
        <time>2021-01-02T13:28:39.000Z</time>
      </trkpt>
      <trkpt lat="46.36251" lon="5.01786">
        <ele>208</ele>
        <time>2021-01-02T13:28:40.000Z</time>
      </trkpt>
      <trkpt lat="46.36251" lon="5.01786">
        <ele>208</ele>
        <time>2021-01-02T13:28:41.000Z</time>
      </trkpt>
      <trkpt lat="46.36251" lon="5.01786">
        <ele>208</ele>
        <time>2021-01-02T13:28:42.000Z</time>
      </trkpt>
      <trkpt lat="46.36251" lon="5.01786">
        <ele>208</ele>
        <time>2021-01-02T13:28:43.000Z</time>
      </trkpt>
      <trkpt lat="46.36251" lon="5.01786">
        <ele>208</ele>
        <time>2021-01-02T13:28:44.000Z</time>
      </trkpt>
      <trkpt lat="46.36251" lon="5.01786">
        <ele>208</ele>
        <time>2021-01-02T13:28:45.000Z</time>
      </trkpt>
      <trkpt lat="46.36251" lon="5.01786">
        <ele>208</ele>
        <time>2021-01-02T13:28:46.000Z</time>
      </trkpt>
      <trkpt lat="46.36251" lon="5.01786">
        <ele>208</ele>
        <time>2021-01-02T13:28:47.000Z</time>
      </trkpt>
      <trkpt lat="46.36251" lon="5.01786">
        <ele>208</ele>
        <time>2021-01-02T13:28:48.000Z</time>
      </trkpt>
      <trkpt lat="46.36251" lon="5.01786">
        <ele>208</ele>
        <time>2021-01-02T13:28:49.000Z</time>
      </trkpt>
      <trkpt lat="46.36251" lon="5.01786">
        <ele>208</ele>
        <time>2021-01-02T13:28:50.000Z</time>
      </trkpt>
      <trkpt lat="46.36251" lon="5.01786">
        <ele>208</ele>
        <time>2021-01-02T13:28:51.000Z</time>
      </trkpt>
      <trkpt lat="46.36251" lon="5.01786">
        <ele>208</ele>
        <time>2021-01-02T13:28:52.000Z</time>
      </trkpt>
      <trkpt lat="46.36251" lon="5.01786">
        <ele>208</ele>
        <time>2021-01-02T13:28:53.000Z</time>
      </trkpt>
      <trkpt lat="46.36251" lon="5.01786">
        <ele>208</ele>
        <time>2021-01-02T13:28:54.000Z</time>
      </trkpt>
      <trkpt lat="46.36251" lon="5.01786">
        <ele>208</ele>
        <time>2021-01-02T13:28:55.000Z</time>
      </trkpt>
      <trkpt lat="46.36251" lon="5.01786">
        <ele>208</ele>
        <time>2021-01-02T13:28:56.000Z</time>
      </trkpt>
      <trkpt lat="46.36251" lon="5.01786">
        <ele>208</ele>
        <time>2021-01-02T13:28:57.000Z</time>
      </trkpt>
      <trkpt lat="46.36251" lon="5.01786">
        <ele>208</ele>
        <time>2021-01-02T13:28:58.000Z</time>
      </trkpt>
      <trkpt lat="46.36251" lon="5.01786">
        <ele>208</ele>
        <time>2021-01-02T13:28:59.000Z</time>
      </trkpt>
      <trkpt lat="46.36251" lon="5.01786">
        <ele>208</ele>
        <time>2021-01-02T13:29:00.000Z</time>
      </trkpt>
      <trkpt lat="46.36251" lon="5.01786">
        <ele>208</ele>
        <time>2021-01-02T13:29:01.000Z</time>
      </trkpt>
      <trkpt lat="46.36251" lon="5.01786">
        <ele>208</ele>
        <time>2021-01-02T13:29:02.000Z</time>
      </trkpt>
      <trkpt lat="46.36251" lon="5.01786">
        <ele>208</ele>
        <time>2021-01-02T13:29:03.000Z</time>
      </trkpt>
      <trkpt lat="46.36251" lon="5.01786">
        <ele>208</ele>
        <time>2021-01-02T13:29:04.000Z</time>
      </trkpt>
      <trkpt lat="46.36251" lon="5.01786">
        <ele>208</ele>
        <time>2021-01-02T13:29:05.000Z</time>
      </trkpt>
      <trkpt lat="46.36251" lon="5.01786">
        <ele>208</ele>
        <time>2021-01-02T13:29:06.000Z</time>
      </trkpt>
      <trkpt lat="46.36251" lon="5.01786">
        <ele>208</ele>
        <time>2021-01-02T13:29:07.000Z</time>
      </trkpt>
      <trkpt lat="46.36251" lon="5.01786">
        <ele>208</ele>
        <time>2021-01-02T13:29:08.000Z</time>
      </trkpt>
      <trkpt lat="46.36251" lon="5.01786">
        <ele>208</ele>
        <time>2021-01-02T13:29:09.000Z</time>
      </trkpt>
      <trkpt lat="46.36251" lon="5.01786">
        <ele>208</ele>
        <time>2021-01-02T13:29:10.000Z</time>
      </trkpt>
      <trkpt lat="46.36251" lon="5.01786">
        <ele>208</ele>
        <time>2021-01-02T13:29:11.000Z</time>
      </trkpt>
      <trkpt lat="46.36251" lon="5.01786">
        <ele>208</ele>
        <time>2021-01-02T13:29:12.000Z</time>
      </trkpt>
      <trkpt lat="46.36251" lon="5.01786">
        <ele>208</ele>
        <time>2021-01-02T13:29:13.000Z</time>
      </trkpt>
      <trkpt lat="46.36251" lon="5.01786">
        <ele>208</ele>
        <time>2021-01-02T13:29:14.000Z</time>
      </trkpt>
      <trkpt lat="46.36251" lon="5.01786">
        <ele>208</ele>
        <time>2021-01-02T13:29:15.000Z</time>
      </trkpt>
      <trkpt lat="46.36251" lon="5.01786">
        <ele>208</ele>
        <time>2021-01-02T13:29:16.000Z</time>
      </trkpt>
      <trkpt lat="46.36251" lon="5.01786">
        <ele>208</ele>
        <time>2021-01-02T13:29:17.000Z</time>
      </trkpt>
      <trkpt lat="46.36251" lon="5.01786">
        <ele>208</ele>
        <time>2021-01-02T13:29:18.000Z</time>
      </trkpt>
      <trkpt lat="46.36251" lon="5.01786">
        <ele>208</ele>
        <time>2021-01-02T13:29:19.000Z</time>
      </trkpt>
      <trkpt lat="46.36251" lon="5.01786">
        <ele>208</ele>
        <time>2021-01-02T13:29:20.000Z</time>
      </trkpt>
      <trkpt lat="46.36251" lon="5.01786">
        <ele>208</ele>
        <time>2021-01-02T13:29:21.000Z</time>
      </trkpt>
      <trkpt lat="46.36251" lon="5.01786">
        <ele>208</ele>
        <time>2021-01-02T13:29:22.000Z</time>
      </trkpt>
      <trkpt lat="46.36251" lon="5.01786">
        <ele>208</ele>
        <time>2021-01-02T13:29:23.000Z</time>
      </trkpt>
      <trkpt lat="46.36251" lon="5.01786">
        <ele>208</ele>
        <time>2021-01-02T13:29:24.000Z</time>
      </trkpt>
      <trkpt lat="46.36251" lon="5.01786">
        <ele>208</ele>
        <time>2021-01-02T13:29:25.000Z</time>
      </trkpt>
      <trkpt lat="46.36251" lon="5.01786">
        <ele>208</ele>
        <time>2021-01-02T13:29:26.000Z</time>
      </trkpt>
      <trkpt lat="46.36251" lon="5.01786">
        <ele>208</ele>
        <time>2021-01-02T13:29:27.000Z</time>
      </trkpt>
      <trkpt lat="46.36251" lon="5.01786">
        <ele>208</ele>
        <time>2021-01-02T13:29:28.000Z</time>
      </trkpt>
      <trkpt lat="46.36251" lon="5.01786">
        <ele>208</ele>
        <time>2021-01-02T13:29:29.000Z</time>
      </trkpt>
      <trkpt lat="46.36251" lon="5.01786">
        <ele>208</ele>
        <time>2021-01-02T13:29:30.000Z</time>
      </trkpt>
      <trkpt lat="46.36251" lon="5.01786">
        <ele>208</ele>
        <time>2021-01-02T13:29:31.000Z</time>
      </trkpt>
      <trkpt lat="46.36251" lon="5.01786">
        <ele>208</ele>
        <time>2021-01-02T13:29:32.000Z</time>
      </trkpt>
      <trkpt lat="46.36251" lon="5.01786">
        <ele>208</ele>
        <time>2021-01-02T13:29:33.000Z</time>
      </trkpt>
      <trkpt lat="46.36251" lon="5.01786">
        <ele>208</ele>
        <time>2021-01-02T13:29:34.000Z</time>
      </trkpt>
      <trkpt lat="46.36251" lon="5.01786">
        <ele>208</ele>
        <time>2021-01-02T13:29:35.000Z</time>
      </trkpt>
      <trkpt lat="46.36251" lon="5.01786">
        <ele>208</ele>
        <time>2021-01-02T13:29:36.000Z</time>
      </trkpt>
      <trkpt lat="46.36251" lon="5.01786">
        <ele>208</ele>
        <time>2021-01-02T13:29:37.000Z</time>
      </trkpt>
      <trkpt lat="46.36251" lon="5.01786">
        <ele>208</ele>
        <time>2021-01-02T13:29:38.000Z</time>
      </trkpt>
      <trkpt lat="46.36251" lon="5.01786">
        <ele>208</ele>
        <time>2021-01-02T13:29:39.000Z</time>
      </trkpt>
      <trkpt lat="46.36251" lon="5.01786">
        <ele>208</ele>
        <time>2021-01-02T13:29:40.000Z</time>
      </trkpt>
      <trkpt lat="46.36251" lon="5.01786">
        <ele>208</ele>
        <time>2021-01-02T13:29:41.000Z</time>
      </trkpt>
      <trkpt lat="46.36251" lon="5.01786">
        <ele>208</ele>
        <time>2021-01-02T13:29:42.000Z</time>
      </trkpt>
      <trkpt lat="46.36251" lon="5.01786">
        <ele>208</ele>
        <time>2021-01-02T13:29:43.000Z</time>
      </trkpt>
      <trkpt lat="46.36251" lon="5.01786">
        <ele>208</ele>
        <time>2021-01-02T13:29:44.000Z</time>
      </trkpt>
      <trkpt lat="46.36251" lon="5.01785">
        <ele>208</ele>
        <time>2021-01-02T13:29:45.000Z</time>
      </trkpt>
      <trkpt lat="46.36251" lon="5.01785">
        <ele>208</ele>
        <time>2021-01-02T13:29:46.000Z</time>
      </trkpt>
      <trkpt lat="46.36251" lon="5.01785">
        <ele>208</ele>
        <time>2021-01-02T13:29:47.000Z</time>
      </trkpt>
      <trkpt lat="46.36251" lon="5.01785">
        <ele>208</ele>
        <time>2021-01-02T13:29:48.000Z</time>
      </trkpt>
      <trkpt lat="46.36251" lon="5.01785">
        <ele>208</ele>
        <time>2021-01-02T13:29:49.000Z</time>
      </trkpt>
      <trkpt lat="46.36251" lon="5.01785">
        <ele>208</ele>
        <time>2021-01-02T13:29:50.000Z</time>
      </trkpt>
      <trkpt lat="46.36251" lon="5.01785">
        <ele>208</ele>
        <time>2021-01-02T13:29:51.000Z</time>
      </trkpt>
      <trkpt lat="46.36251" lon="5.01785">
        <ele>208</ele>
        <time>2021-01-02T13:29:52.000Z</time>
      </trkpt>
      <trkpt lat="46.36251" lon="5.01785">
        <ele>208</ele>
        <time>2021-01-02T13:29:53.000Z</time>
      </trkpt>
      <trkpt lat="46.36251" lon="5.01785">
        <ele>208</ele>
        <time>2021-01-02T13:29:54.000Z</time>
      </trkpt>
      <trkpt lat="46.36251" lon="5.01785">
        <ele>208</ele>
        <time>2021-01-02T13:29:55.000Z</time>
      </trkpt>
      <trkpt lat="46.36251" lon="5.01785">
        <ele>208</ele>
        <time>2021-01-02T13:29:56.000Z</time>
      </trkpt>
      <trkpt lat="46.36251" lon="5.01785">
        <ele>208</ele>
        <time>2021-01-02T13:29:57.000Z</time>
      </trkpt>
      <trkpt lat="46.36251" lon="5.01785">
        <ele>208</ele>
        <time>2021-01-02T13:29:58.000Z</time>
      </trkpt>
      <trkpt lat="46.36251" lon="5.01785">
        <ele>208</ele>
        <time>2021-01-02T13:29:59.000Z</time>
      </trkpt>
      <trkpt lat="46.36251" lon="5.01785">
        <ele>208</ele>
        <time>2021-01-02T13:30:00.000Z</time>
      </trkpt>
      <trkpt lat="46.36251" lon="5.01785">
        <ele>208</ele>
        <time>2021-01-02T13:30:01.000Z</time>
      </trkpt>
      <trkpt lat="46.36251" lon="5.01785">
        <ele>208</ele>
        <time>2021-01-02T13:30:02.000Z</time>
      </trkpt>
      <trkpt lat="46.36251" lon="5.01785">
        <ele>208</ele>
        <time>2021-01-02T13:30:03.000Z</time>
      </trkpt>
      <trkpt lat="46.36251" lon="5.01785">
        <ele>208</ele>
        <time>2021-01-02T13:30:04.000Z</time>
      </trkpt>
      <trkpt lat="46.36251" lon="5.01785">
        <ele>208</ele>
        <time>2021-01-02T13:30:05.000Z</time>
      </trkpt>
      <trkpt lat="46.36251" lon="5.01785">
        <ele>208</ele>
        <time>2021-01-02T13:30:06.000Z</time>
      </trkpt>
      <trkpt lat="46.36251" lon="5.01785">
        <ele>208</ele>
        <time>2021-01-02T13:30:07.000Z</time>
      </trkpt>
      <trkpt lat="46.36251" lon="5.01785">
        <ele>208</ele>
        <time>2021-01-02T13:30:08.000Z</time>
      </trkpt>
      <trkpt lat="46.36251" lon="5.01785">
        <ele>208</ele>
        <time>2021-01-02T13:30:09.000Z</time>
      </trkpt>
      <trkpt lat="46.36251" lon="5.01785">
        <ele>208</ele>
        <time>2021-01-02T13:30:10.000Z</time>
      </trkpt>
      <trkpt lat="46.36251" lon="5.01785">
        <ele>208</ele>
        <time>2021-01-02T13:30:11.000Z</time>
      </trkpt>
      <trkpt lat="46.36251" lon="5.01785">
        <ele>208</ele>
        <time>2021-01-02T13:30:12.000Z</time>
      </trkpt>
      <trkpt lat="46.36251" lon="5.01785">
        <ele>208</ele>
        <time>2021-01-02T13:30:13.000Z</time>
      </trkpt>
      <trkpt lat="46.36251" lon="5.01785">
        <ele>208</ele>
        <time>2021-01-02T13:30:14.000Z</time>
      </trkpt>
      <trkpt lat="46.36251" lon="5.01785">
        <ele>208</ele>
        <time>2021-01-02T13:30:15.000Z</time>
      </trkpt>
      <trkpt lat="46.36251" lon="5.01785">
        <ele>208</ele>
        <time>2021-01-02T13:30:16.000Z</time>
      </trkpt>
      <trkpt lat="46.36251" lon="5.01785">
        <ele>208</ele>
        <time>2021-01-02T13:30:17.000Z</time>
      </trkpt>
      <trkpt lat="46.36251" lon="5.01785">
        <ele>208</ele>
        <time>2021-01-02T13:30:18.000Z</time>
      </trkpt>
      <trkpt lat="46.36251" lon="5.01785">
        <ele>208</ele>
        <time>2021-01-02T13:30:19.000Z</time>
      </trkpt>
      <trkpt lat="46.36251" lon="5.01785">
        <ele>208</ele>
        <time>2021-01-02T13:30:20.000Z</time>
      </trkpt>
      <trkpt lat="46.36251" lon="5.01785">
        <ele>208</ele>
        <time>2021-01-02T13:30:21.000Z</time>
      </trkpt>
      <trkpt lat="46.36251" lon="5.01785">
        <ele>208</ele>
        <time>2021-01-02T13:30:22.000Z</time>
      </trkpt>
      <trkpt lat="46.36251" lon="5.01785">
        <ele>208</ele>
        <time>2021-01-02T13:30:23.000Z</time>
      </trkpt>
      <trkpt lat="46.36251" lon="5.01785">
        <ele>208</ele>
        <time>2021-01-02T13:30:24.000Z</time>
      </trkpt>
      <trkpt lat="46.36251" lon="5.01785">
        <ele>208</ele>
        <time>2021-01-02T13:30:25.000Z</time>
      </trkpt>
      <trkpt lat="46.36251" lon="5.01785">
        <ele>208</ele>
        <time>2021-01-02T13:30:26.000Z</time>
      </trkpt>
      <trkpt lat="46.36251" lon="5.01785">
        <ele>208</ele>
        <time>2021-01-02T13:30:27.000Z</time>
      </trkpt>
      <trkpt lat="46.36251" lon="5.01785">
        <ele>208</ele>
        <time>2021-01-02T13:30:28.000Z</time>
      </trkpt>
      <trkpt lat="46.36251" lon="5.01785">
        <ele>208</ele>
        <time>2021-01-02T13:30:29.000Z</time>
      </trkpt>
      <trkpt lat="46.36251" lon="5.01785">
        <ele>208</ele>
        <time>2021-01-02T13:30:30.000Z</time>
      </trkpt>
      <trkpt lat="46.36251" lon="5.01785">
        <ele>208</ele>
        <time>2021-01-02T13:30:31.000Z</time>
      </trkpt>
      <trkpt lat="46.36251" lon="5.01785">
        <ele>208</ele>
        <time>2021-01-02T13:30:32.000Z</time>
      </trkpt>
      <trkpt lat="46.36251" lon="5.01785">
        <ele>208</ele>
        <time>2021-01-02T13:30:33.000Z</time>
      </trkpt>
      <trkpt lat="46.36251" lon="5.01785">
        <ele>208</ele>
        <time>2021-01-02T13:30:34.000Z</time>
      </trkpt>
      <trkpt lat="46.36251" lon="5.01785">
        <ele>208</ele>
        <time>2021-01-02T13:30:35.000Z</time>
      </trkpt>
      <trkpt lat="46.36251" lon="5.01785">
        <ele>208</ele>
        <time>2021-01-02T13:30:36.000Z</time>
      </trkpt>
      <trkpt lat="46.36251" lon="5.01785">
        <ele>208</ele>
        <time>2021-01-02T13:30:37.000Z</time>
      </trkpt>
      <trkpt lat="46.36251" lon="5.01785">
        <ele>208</ele>
        <time>2021-01-02T13:30:38.000Z</time>
      </trkpt>
      <trkpt lat="46.36251" lon="5.01785">
        <ele>208</ele>
        <time>2021-01-02T13:30:39.000Z</time>
      </trkpt>
      <trkpt lat="46.36251" lon="5.01785">
        <ele>208</ele>
        <time>2021-01-02T13:30:40.000Z</time>
      </trkpt>
      <trkpt lat="46.36251" lon="5.01785">
        <ele>208</ele>
        <time>2021-01-02T13:30:41.000Z</time>
      </trkpt>
      <trkpt lat="46.36251" lon="5.01785">
        <ele>208</ele>
        <time>2021-01-02T13:30:42.000Z</time>
      </trkpt>
      <trkpt lat="46.36251" lon="5.01784">
        <ele>208</ele>
        <time>2021-01-02T13:30:43.000Z</time>
      </trkpt>
      <trkpt lat="46.36251" lon="5.01783">
        <ele>208</ele>
        <time>2021-01-02T13:30:44.000Z</time>
      </trkpt>
      <trkpt lat="46.3625" lon="5.01781">
        <ele>208</ele>
        <time>2021-01-02T13:30:45.000Z</time>
      </trkpt>
      <trkpt lat="46.3625" lon="5.01779">
        <ele>208</ele>
        <time>2021-01-02T13:30:46.000Z</time>
      </trkpt>
      <trkpt lat="46.36249" lon="5.01777">
        <ele>208</ele>
        <time>2021-01-02T13:30:47.000Z</time>
      </trkpt>
      <trkpt lat="46.36249" lon="5.01775">
        <ele>208</ele>
        <time>2021-01-02T13:30:48.000Z</time>
      </trkpt>
      <trkpt lat="46.36249" lon="5.01773">
        <ele>208</ele>
        <time>2021-01-02T13:30:49.000Z</time>
      </trkpt>
      <trkpt lat="46.36248" lon="5.0177">
        <ele>208</ele>
        <time>2021-01-02T13:30:50.000Z</time>
      </trkpt>
      <trkpt lat="46.36248" lon="5.01768">
        <ele>208</ele>
        <time>2021-01-02T13:30:51.000Z</time>
      </trkpt>
      <trkpt lat="46.36248" lon="5.01765">
        <ele>208</ele>
        <time>2021-01-02T13:30:52.000Z</time>
      </trkpt>
      <trkpt lat="46.36247" lon="5.01763">
        <ele>208</ele>
        <time>2021-01-02T13:30:53.000Z</time>
      </trkpt>
      <trkpt lat="46.36247" lon="5.0176">
        <ele>208</ele>
        <time>2021-01-02T13:30:54.000Z</time>
      </trkpt>
      <trkpt lat="46.36246" lon="5.01758">
        <ele>208</ele>
        <time>2021-01-02T13:30:55.000Z</time>
      </trkpt>
      <trkpt lat="46.36246" lon="5.01756">
        <ele>208</ele>
        <time>2021-01-02T13:30:56.000Z</time>
      </trkpt>
      <trkpt lat="46.36245" lon="5.01753">
        <ele>208</ele>
        <time>2021-01-02T13:30:57.000Z</time>
      </trkpt>
      <trkpt lat="46.36245" lon="5.0175">
        <ele>208</ele>
        <time>2021-01-02T13:30:58.000Z</time>
      </trkpt>
      <trkpt lat="46.36245" lon="5.01748">
        <ele>208</ele>
        <time>2021-01-02T13:30:59.000Z</time>
      </trkpt>
      <trkpt lat="46.36244" lon="5.01745">
        <ele>208</ele>
        <time>2021-01-02T13:31:00.000Z</time>
      </trkpt>
      <trkpt lat="46.36243" lon="5.01742">
        <ele>208</ele>
        <time>2021-01-02T13:31:01.000Z</time>
      </trkpt>
      <trkpt lat="46.36243" lon="5.01739">
        <ele>207</ele>
        <time>2021-01-02T13:31:02.000Z</time>
      </trkpt>
      <trkpt lat="46.36243" lon="5.01737">
        <ele>207</ele>
        <time>2021-01-02T13:31:03.000Z</time>
      </trkpt>
      <trkpt lat="46.36242" lon="5.01734">
        <ele>207</ele>
        <time>2021-01-02T13:31:04.000Z</time>
      </trkpt>
      <trkpt lat="46.36242" lon="5.01732">
        <ele>207</ele>
        <time>2021-01-02T13:31:05.000Z</time>
      </trkpt>
      <trkpt lat="46.36242" lon="5.0173">
        <ele>207</ele>
        <time>2021-01-02T13:31:06.000Z</time>
      </trkpt>
      <trkpt lat="46.36241" lon="5.01728">
        <ele>207</ele>
        <time>2021-01-02T13:31:07.000Z</time>
      </trkpt>
      <trkpt lat="46.36241" lon="5.01726">
        <ele>207</ele>
        <time>2021-01-02T13:31:08.000Z</time>
      </trkpt>
      <trkpt lat="46.36241" lon="5.01725">
        <ele>207</ele>
        <time>2021-01-02T13:31:09.000Z</time>
      </trkpt>
      <trkpt lat="46.36241" lon="5.01723">
        <ele>207</ele>
        <time>2021-01-02T13:31:10.000Z</time>
      </trkpt>
      <trkpt lat="46.36241" lon="5.01721">
        <ele>208</ele>
        <time>2021-01-02T13:31:11.000Z</time>
      </trkpt>
      <trkpt lat="46.3624" lon="5.01718">
        <ele>208</ele>
        <time>2021-01-02T13:31:12.000Z</time>
      </trkpt>
      <trkpt lat="46.3624" lon="5.01716">
        <ele>208</ele>
        <time>2021-01-02T13:31:13.000Z</time>
      </trkpt>
      <trkpt lat="46.3624" lon="5.01713">
        <ele>208</ele>
        <time>2021-01-02T13:31:14.000Z</time>
      </trkpt>
      <trkpt lat="46.3624" lon="5.01711">
        <ele>208</ele>
        <time>2021-01-02T13:31:15.000Z</time>
      </trkpt>
      <trkpt lat="46.3624" lon="5.01709">
        <ele>208</ele>
        <time>2021-01-02T13:31:16.000Z</time>
      </trkpt>
      <trkpt lat="46.3624" lon="5.01707">
        <ele>208</ele>
        <time>2021-01-02T13:31:17.000Z</time>
      </trkpt>
      <trkpt lat="46.36241" lon="5.01705">
        <ele>208</ele>
        <time>2021-01-02T13:31:18.000Z</time>
      </trkpt>
      <trkpt lat="46.36242" lon="5.01704">
        <ele>208</ele>
        <time>2021-01-02T13:31:19.000Z</time>
      </trkpt>
      <trkpt lat="46.36243" lon="5.01703">
        <ele>208</ele>
        <time>2021-01-02T13:31:20.000Z</time>
      </trkpt>
      <trkpt lat="46.36244" lon="5.01702">
        <ele>208</ele>
        <time>2021-01-02T13:31:21.000Z</time>
      </trkpt>
      <trkpt lat="46.36245" lon="5.01701">
        <ele>209</ele>
        <time>2021-01-02T13:31:22.000Z</time>
      </trkpt>
      <trkpt lat="46.36246" lon="5.01701">
        <ele>209</ele>
        <time>2021-01-02T13:31:23.000Z</time>
      </trkpt>
      <trkpt lat="46.36247" lon="5.01701">
        <ele>209</ele>
        <time>2021-01-02T13:31:24.000Z</time>
      </trkpt>
      <trkpt lat="46.36248" lon="5.01701">
        <ele>209</ele>
        <time>2021-01-02T13:31:25.000Z</time>
      </trkpt>
      <trkpt lat="46.3625" lon="5.01701">
        <ele>209</ele>
        <time>2021-01-02T13:31:26.000Z</time>
      </trkpt>
      <trkpt lat="46.36251" lon="5.01701">
        <ele>209</ele>
        <time>2021-01-02T13:31:27.000Z</time>
      </trkpt>
      <trkpt lat="46.36252" lon="5.01701">
        <ele>209</ele>
        <time>2021-01-02T13:31:28.000Z</time>
      </trkpt>
      <trkpt lat="46.36253" lon="5.01701">
        <ele>209</ele>
        <time>2021-01-02T13:31:29.000Z</time>
      </trkpt>
      <trkpt lat="46.36254" lon="5.01702">
        <ele>210</ele>
        <time>2021-01-02T13:31:30.000Z</time>
      </trkpt>
      <trkpt lat="46.36255" lon="5.01703">
        <ele>210</ele>
        <time>2021-01-02T13:31:31.000Z</time>
      </trkpt>
      <trkpt lat="46.36257" lon="5.01704">
        <ele>210</ele>
        <time>2021-01-02T13:31:32.000Z</time>
      </trkpt>
      <trkpt lat="46.36258" lon="5.01703">
        <ele>210</ele>
        <time>2021-01-02T13:31:33.000Z</time>
      </trkpt>
      <trkpt lat="46.36259" lon="5.01703">
        <ele>210</ele>
        <time>2021-01-02T13:31:34.000Z</time>
      </trkpt>
      <trkpt lat="46.3626" lon="5.01703">
        <ele>210</ele>
        <time>2021-01-02T13:31:35.000Z</time>
      </trkpt>
      <trkpt lat="46.36261" lon="5.01703">
        <ele>210</ele>
        <time>2021-01-02T13:31:36.000Z</time>
      </trkpt>
      <trkpt lat="46.36263" lon="5.01704">
        <ele>210</ele>
        <time>2021-01-02T13:31:37.000Z</time>
      </trkpt>
      <trkpt lat="46.36264" lon="5.01705">
        <ele>210</ele>
        <time>2021-01-02T13:31:38.000Z</time>
      </trkpt>
      <trkpt lat="46.36265" lon="5.01705">
        <ele>210</ele>
        <time>2021-01-02T13:31:39.000Z</time>
      </trkpt>
      <trkpt lat="46.36266" lon="5.01705">
        <ele>210</ele>
        <time>2021-01-02T13:31:40.000Z</time>
      </trkpt>
      <trkpt lat="46.36267" lon="5.01705">
        <ele>210</ele>
        <time>2021-01-02T13:31:41.000Z</time>
      </trkpt>
      <trkpt lat="46.36268" lon="5.01705">
        <ele>210</ele>
        <time>2021-01-02T13:31:42.000Z</time>
      </trkpt>
      <trkpt lat="46.36269" lon="5.01705">
        <ele>210</ele>
        <time>2021-01-02T13:31:43.000Z</time>
      </trkpt>
      <trkpt lat="46.36269" lon="5.01705">
        <ele>210</ele>
        <time>2021-01-02T13:31:44.000Z</time>
      </trkpt>
      <trkpt lat="46.36269" lon="5.01705">
        <ele>210</ele>
        <time>2021-01-02T13:31:45.000Z</time>
      </trkpt>
      <trkpt lat="46.36269" lon="5.01705">
        <ele>210</ele>
        <time>2021-01-02T13:31:46.000Z</time>
      </trkpt>
      <trkpt lat="46.36269" lon="5.01705">
        <ele>210</ele>
        <time>2021-01-02T13:31:47.000Z</time>
      </trkpt>
      <trkpt lat="46.36269" lon="5.01705">
        <ele>210</ele>
        <time>2021-01-02T13:31:48.000Z</time>
      </trkpt>
      <trkpt lat="46.36269" lon="5.01705">
        <ele>210</ele>
        <time>2021-01-02T13:31:49.000Z</time>
      </trkpt>
      <trkpt lat="46.36269" lon="5.01705">
        <ele>210</ele>
        <time>2021-01-02T13:31:50.000Z</time>
      </trkpt>
      <trkpt lat="46.36269" lon="5.01705">
        <ele>210</ele>
        <time>2021-01-02T13:31:51.000Z</time>
      </trkpt>
      <trkpt lat="46.3627" lon="5.01705">
        <ele>210</ele>
        <time>2021-01-02T13:31:52.000Z</time>
      </trkpt>
      <trkpt lat="46.3627" lon="5.01705">
        <ele>210</ele>
        <time>2021-01-02T13:31:53.000Z</time>
      </trkpt>
      <trkpt lat="46.3627" lon="5.01705">
        <ele>210</ele>
        <time>2021-01-02T13:31:54.000Z</time>
      </trkpt>
      <trkpt lat="46.3627" lon="5.01705">
        <ele>210</ele>
        <time>2021-01-02T13:31:55.000Z</time>
      </trkpt>
      <trkpt lat="46.3627" lon="5.01705">
        <ele>210</ele>
        <time>2021-01-02T13:31:56.000Z</time>
      </trkpt>
      <trkpt lat="46.3627" lon="5.01705">
        <ele>210</ele>
        <time>2021-01-02T13:31:57.000Z</time>
      </trkpt>
      <trkpt lat="46.3627" lon="5.01705">
        <ele>210</ele>
        <time>2021-01-02T13:31:58.000Z</time>
      </trkpt>
      <trkpt lat="46.3627" lon="5.01705">
        <ele>210</ele>
        <time>2021-01-02T13:31:59.000Z</time>
      </trkpt>
      <trkpt lat="46.3627" lon="5.01705">
        <ele>210</ele>
        <time>2021-01-02T13:32:00.000Z</time>
      </trkpt>
      <trkpt lat="46.3627" lon="5.01705">
        <ele>210</ele>
        <time>2021-01-02T13:32:01.000Z</time>
      </trkpt>
      <trkpt lat="46.3627" lon="5.01705">
        <ele>210</ele>
        <time>2021-01-02T13:32:02.000Z</time>
      </trkpt>
      <trkpt lat="46.3627" lon="5.01704">
        <ele>210</ele>
        <time>2021-01-02T13:32:03.000Z</time>
      </trkpt>
      <trkpt lat="46.3627" lon="5.01704">
        <ele>210</ele>
        <time>2021-01-02T13:32:04.000Z</time>
      </trkpt>
      <trkpt lat="46.3627" lon="5.01704">
        <ele>210</ele>
        <time>2021-01-02T13:32:05.000Z</time>
      </trkpt>
      <trkpt lat="46.36271" lon="5.01704">
        <ele>210</ele>
        <time>2021-01-02T13:32:06.000Z</time>
      </trkpt>
      <trkpt lat="46.36271" lon="5.01704">
        <ele>210</ele>
        <time>2021-01-02T13:32:07.000Z</time>
      </trkpt>
      <trkpt lat="46.36271" lon="5.01704">
        <ele>210</ele>
        <time>2021-01-02T13:32:08.000Z</time>
      </trkpt>
      <trkpt lat="46.36271" lon="5.01704">
        <ele>210</ele>
        <time>2021-01-02T13:32:09.000Z</time>
      </trkpt>
      <trkpt lat="46.36271" lon="5.01704">
        <ele>211</ele>
        <time>2021-01-02T13:32:10.000Z</time>
      </trkpt>
      <trkpt lat="46.36271" lon="5.01704">
        <ele>211</ele>
        <time>2021-01-02T13:32:11.000Z</time>
      </trkpt>
      <trkpt lat="46.36271" lon="5.01704">
        <ele>211</ele>
        <time>2021-01-02T13:32:12.000Z</time>
      </trkpt>
      <trkpt lat="46.36271" lon="5.01704">
        <ele>211</ele>
        <time>2021-01-02T13:32:13.000Z</time>
      </trkpt>
      <trkpt lat="46.36271" lon="5.01704">
        <ele>211</ele>
        <time>2021-01-02T13:32:14.000Z</time>
      </trkpt>
      <trkpt lat="46.36271" lon="5.01704">
        <ele>211</ele>
        <time>2021-01-02T13:32:15.000Z</time>
      </trkpt>
      <trkpt lat="46.36271" lon="5.01704">
        <ele>211</ele>
        <time>2021-01-02T13:32:16.000Z</time>
      </trkpt>
      <trkpt lat="46.36271" lon="5.01704">
        <ele>211</ele>
        <time>2021-01-02T13:32:17.000Z</time>
      </trkpt>
      <trkpt lat="46.36271" lon="5.01704">
        <ele>211</ele>
        <time>2021-01-02T13:32:18.000Z</time>
      </trkpt>
      <trkpt lat="46.36271" lon="5.01705">
        <ele>210</ele>
        <time>2021-01-02T13:32:19.000Z</time>
      </trkpt>
      <trkpt lat="46.36271" lon="5.01705">
        <ele>210</ele>
        <time>2021-01-02T13:32:20.000Z</time>
      </trkpt>
      <trkpt lat="46.36271" lon="5.01705">
        <ele>210</ele>
        <time>2021-01-02T13:32:21.000Z</time>
      </trkpt>
      <trkpt lat="46.36271" lon="5.01704">
        <ele>210</ele>
        <time>2021-01-02T13:32:22.000Z</time>
      </trkpt>
      <trkpt lat="46.36271" lon="5.01704">
        <ele>210</ele>
        <time>2021-01-02T13:32:23.000Z</time>
      </trkpt>
      <trkpt lat="46.36271" lon="5.01704">
        <ele>210</ele>
        <time>2021-01-02T13:32:24.000Z</time>
      </trkpt>
      <trkpt lat="46.36271" lon="5.01704">
        <ele>210</ele>
        <time>2021-01-02T13:32:25.000Z</time>
      </trkpt>
      <trkpt lat="46.36271" lon="5.01704">
        <ele>210</ele>
        <time>2021-01-02T13:32:26.000Z</time>
      </trkpt>
      <trkpt lat="46.36271" lon="5.01704">
        <ele>210</ele>
        <time>2021-01-02T13:32:27.000Z</time>
      </trkpt>
      <trkpt lat="46.36271" lon="5.01705">
        <ele>210</ele>
        <time>2021-01-02T13:32:28.000Z</time>
      </trkpt>
      <trkpt lat="46.36271" lon="5.01705">
        <ele>210</ele>
        <time>2021-01-02T13:32:29.000Z</time>
      </trkpt>
      <trkpt lat="46.36271" lon="5.01705">
        <ele>210</ele>
        <time>2021-01-02T13:32:30.000Z</time>
      </trkpt>
      <trkpt lat="46.36271" lon="5.01705">
        <ele>210</ele>
        <time>2021-01-02T13:32:31.000Z</time>
      </trkpt>
      <trkpt lat="46.36271" lon="5.01705">
        <ele>210</ele>
        <time>2021-01-02T13:32:32.000Z</time>
      </trkpt>
      <trkpt lat="46.36271" lon="5.01705">
        <ele>210</ele>
        <time>2021-01-02T13:32:33.000Z</time>
      </trkpt>
      <trkpt lat="46.36271" lon="5.01705">
        <ele>211</ele>
        <time>2021-01-02T13:32:34.000Z</time>
      </trkpt>
      <trkpt lat="46.36271" lon="5.01704">
        <ele>211</ele>
        <time>2021-01-02T13:32:35.000Z</time>
      </trkpt>
      <trkpt lat="46.36271" lon="5.01705">
        <ele>211</ele>
        <time>2021-01-02T13:32:36.000Z</time>
      </trkpt>
      <trkpt lat="46.36271" lon="5.01705">
        <ele>211</ele>
        <time>2021-01-02T13:32:37.000Z</time>
      </trkpt>
      <trkpt lat="46.36271" lon="5.01705">
        <ele>211</ele>
        <time>2021-01-02T13:32:38.000Z</time>
      </trkpt>
      <trkpt lat="46.36271" lon="5.01705">
        <ele>211</ele>
        <time>2021-01-02T13:32:39.000Z</time>
      </trkpt>
      <trkpt lat="46.36271" lon="5.01705">
        <ele>211</ele>
        <time>2021-01-02T13:32:40.000Z</time>
      </trkpt>
      <trkpt lat="46.36271" lon="5.01705">
        <ele>211</ele>
        <time>2021-01-02T13:32:41.000Z</time>
      </trkpt>
      <trkpt lat="46.36271" lon="5.01705">
        <ele>211</ele>
        <time>2021-01-02T13:32:42.000Z</time>
      </trkpt>
      <trkpt lat="46.36271" lon="5.01705">
        <ele>211</ele>
        <time>2021-01-02T13:32:43.000Z</time>
      </trkpt>
      <trkpt lat="46.36271" lon="5.01706">
        <ele>211</ele>
        <time>2021-01-02T13:32:44.000Z</time>
      </trkpt>
      <trkpt lat="46.36271" lon="5.01706">
        <ele>211</ele>
        <time>2021-01-02T13:32:45.000Z</time>
      </trkpt>
      <trkpt lat="46.36271" lon="5.01706">
        <ele>211</ele>
        <time>2021-01-02T13:32:46.000Z</time>
      </trkpt>
      <trkpt lat="46.3627" lon="5.01706">
        <ele>211</ele>
        <time>2021-01-02T13:32:47.000Z</time>
      </trkpt>
      <trkpt lat="46.3627" lon="5.01707">
        <ele>211</ele>
        <time>2021-01-02T13:32:48.000Z</time>
      </trkpt>
      <trkpt lat="46.3627" lon="5.01707">
        <ele>211</ele>
        <time>2021-01-02T13:32:49.000Z</time>
      </trkpt>
      <trkpt lat="46.3627" lon="5.01707">
        <ele>211</ele>
        <time>2021-01-02T13:32:50.000Z</time>
      </trkpt>
      <trkpt lat="46.3627" lon="5.01707">
        <ele>211</ele>
        <time>2021-01-02T13:32:51.000Z</time>
      </trkpt>
      <trkpt lat="46.3627" lon="5.01707">
        <ele>211</ele>
        <time>2021-01-02T13:32:52.000Z</time>
      </trkpt>
      <trkpt lat="46.3627" lon="5.01707">
        <ele>211</ele>
        <time>2021-01-02T13:32:53.000Z</time>
      </trkpt>
      <trkpt lat="46.3627" lon="5.01707">
        <ele>211</ele>
        <time>2021-01-02T13:32:54.000Z</time>
      </trkpt>
      <trkpt lat="46.3627" lon="5.01707">
        <ele>211</ele>
        <time>2021-01-02T13:32:55.000Z</time>
      </trkpt>
      <trkpt lat="46.3627" lon="5.01708">
        <ele>211</ele>
        <time>2021-01-02T13:32:56.000Z</time>
      </trkpt>
      <trkpt lat="46.3627" lon="5.01708">
        <ele>211</ele>
        <time>2021-01-02T13:32:57.000Z</time>
      </trkpt>
      <trkpt lat="46.3627" lon="5.01708">
        <ele>211</ele>
        <time>2021-01-02T13:32:58.000Z</time>
      </trkpt>
      <trkpt lat="46.3627" lon="5.01708">
        <ele>211</ele>
        <time>2021-01-02T13:32:59.000Z</time>
      </trkpt>
      <trkpt lat="46.3627" lon="5.01708">
        <ele>211</ele>
        <time>2021-01-02T13:33:00.000Z</time>
      </trkpt>
      <trkpt lat="46.3627" lon="5.01708">
        <ele>211</ele>
        <time>2021-01-02T13:33:01.000Z</time>
      </trkpt>
      <trkpt lat="46.3627" lon="5.01708">
        <ele>211</ele>
        <time>2021-01-02T13:33:02.000Z</time>
      </trkpt>
      <trkpt lat="46.36269" lon="5.01708">
        <ele>211</ele>
        <time>2021-01-02T13:33:03.000Z</time>
      </trkpt>
      <trkpt lat="46.3627" lon="5.01708">
        <ele>211</ele>
        <time>2021-01-02T13:33:04.000Z</time>
      </trkpt>
      <trkpt lat="46.3627" lon="5.01708">
        <ele>211</ele>
        <time>2021-01-02T13:33:05.000Z</time>
      </trkpt>
      <trkpt lat="46.36269" lon="5.01708">
        <ele>211</ele>
        <time>2021-01-02T13:33:06.000Z</time>
      </trkpt>
      <trkpt lat="46.36269" lon="5.01708">
        <ele>211</ele>
        <time>2021-01-02T13:33:07.000Z</time>
      </trkpt>
      <trkpt lat="46.3627" lon="5.01708">
        <ele>211</ele>
        <time>2021-01-02T13:33:08.000Z</time>
      </trkpt>
      <trkpt lat="46.36269" lon="5.01708">
        <ele>211</ele>
        <time>2021-01-02T13:33:09.000Z</time>
      </trkpt>
      <trkpt lat="46.36269" lon="5.01708">
        <ele>210</ele>
        <time>2021-01-02T13:33:10.000Z</time>
      </trkpt>
      <trkpt lat="46.36269" lon="5.01708">
        <ele>210</ele>
        <time>2021-01-02T13:33:11.000Z</time>
      </trkpt>
      <trkpt lat="46.36269" lon="5.01708">
        <ele>210</ele>
        <time>2021-01-02T13:33:12.000Z</time>
      </trkpt>
      <trkpt lat="46.36269" lon="5.01708">
        <ele>210</ele>
        <time>2021-01-02T13:33:13.000Z</time>
      </trkpt>
      <trkpt lat="46.36269" lon="5.01708">
        <ele>210</ele>
        <time>2021-01-02T13:33:14.000Z</time>
      </trkpt>
      <trkpt lat="46.36269" lon="5.01708">
        <ele>210</ele>
        <time>2021-01-02T13:33:15.000Z</time>
      </trkpt>
      <trkpt lat="46.36269" lon="5.01708">
        <ele>210</ele>
        <time>2021-01-02T13:33:16.000Z</time>
      </trkpt>
      <trkpt lat="46.36269" lon="5.01708">
        <ele>210</ele>
        <time>2021-01-02T13:33:17.000Z</time>
      </trkpt>
      <trkpt lat="46.36269" lon="5.01708">
        <ele>210</ele>
        <time>2021-01-02T13:33:18.000Z</time>
      </trkpt>
      <trkpt lat="46.36269" lon="5.01708">
        <ele>210</ele>
        <time>2021-01-02T13:33:19.000Z</time>
      </trkpt>
      <trkpt lat="46.36269" lon="5.01708">
        <ele>210</ele>
        <time>2021-01-02T13:33:20.000Z</time>
      </trkpt>
      <trkpt lat="46.36269" lon="5.01707">
        <ele>210</ele>
        <time>2021-01-02T13:33:21.000Z</time>
      </trkpt>
      <trkpt lat="46.36269" lon="5.01707">
        <ele>210</ele>
        <time>2021-01-02T13:33:22.000Z</time>
      </trkpt>
      <trkpt lat="46.36269" lon="5.01707">
        <ele>210</ele>
        <time>2021-01-02T13:33:23.000Z</time>
      </trkpt>
      <trkpt lat="46.36269" lon="5.01707">
        <ele>210</ele>
        <time>2021-01-02T13:33:24.000Z</time>
      </trkpt>
      <trkpt lat="46.36269" lon="5.01708">
        <ele>210</ele>
        <time>2021-01-02T13:33:25.000Z</time>
      </trkpt>
      <trkpt lat="46.36269" lon="5.01708">
        <ele>210</ele>
        <time>2021-01-02T13:33:26.000Z</time>
      </trkpt>
      <trkpt lat="46.36269" lon="5.01708">
        <ele>210</ele>
        <time>2021-01-02T13:33:27.000Z</time>
      </trkpt>
      <trkpt lat="46.36269" lon="5.01707">
        <ele>210</ele>
        <time>2021-01-02T13:33:28.000Z</time>
      </trkpt>
      <trkpt lat="46.36269" lon="5.01707">
        <ele>210</ele>
        <time>2021-01-02T13:33:29.000Z</time>
      </trkpt>
      <trkpt lat="46.36269" lon="5.01707">
        <ele>210</ele>
        <time>2021-01-02T13:33:30.000Z</time>
      </trkpt>
      <trkpt lat="46.36269" lon="5.01707">
        <ele>210</ele>
        <time>2021-01-02T13:33:31.000Z</time>
      </trkpt>
      <trkpt lat="46.36268" lon="5.01707">
        <ele>210</ele>
        <time>2021-01-02T13:33:32.000Z</time>
      </trkpt>
      <trkpt lat="46.36268" lon="5.01707">
        <ele>210</ele>
        <time>2021-01-02T13:33:33.000Z</time>
      </trkpt>
      <trkpt lat="46.36269" lon="5.01707">
        <ele>210</ele>
        <time>2021-01-02T13:33:34.000Z</time>
      </trkpt>
      <trkpt lat="46.36269" lon="5.01707">
        <ele>210</ele>
        <time>2021-01-02T13:33:35.000Z</time>
      </trkpt>
      <trkpt lat="46.36268" lon="5.01707">
        <ele>210</ele>
        <time>2021-01-02T13:33:36.000Z</time>
      </trkpt>
      <trkpt lat="46.36268" lon="5.01707">
        <ele>210</ele>
        <time>2021-01-02T13:33:37.000Z</time>
      </trkpt>
      <trkpt lat="46.36268" lon="5.01707">
        <ele>210</ele>
        <time>2021-01-02T13:33:38.000Z</time>
      </trkpt>
      <trkpt lat="46.36268" lon="5.01707">
        <ele>210</ele>
        <time>2021-01-02T13:33:39.000Z</time>
      </trkpt>
      <trkpt lat="46.36268" lon="5.01707">
        <ele>210</ele>
        <time>2021-01-02T13:33:40.000Z</time>
      </trkpt>
      <trkpt lat="46.36268" lon="5.01707">
        <ele>210</ele>
        <time>2021-01-02T13:33:41.000Z</time>
      </trkpt>
      <trkpt lat="46.36268" lon="5.01707">
        <ele>210</ele>
        <time>2021-01-02T13:33:42.000Z</time>
      </trkpt>
      <trkpt lat="46.36268" lon="5.01707">
        <ele>210</ele>
        <time>2021-01-02T13:33:43.000Z</time>
      </trkpt>
      <trkpt lat="46.36268" lon="5.01707">
        <ele>210</ele>
        <time>2021-01-02T13:33:44.000Z</time>
      </trkpt>
      <trkpt lat="46.36268" lon="5.01707">
        <ele>210</ele>
        <time>2021-01-02T13:33:45.000Z</time>
      </trkpt>
      <trkpt lat="46.36268" lon="5.01707">
        <ele>210</ele>
        <time>2021-01-02T13:33:46.000Z</time>
      </trkpt>
      <trkpt lat="46.36269" lon="5.01707">
        <ele>210</ele>
        <time>2021-01-02T13:33:47.000Z</time>
      </trkpt>
      <trkpt lat="46.36269" lon="5.01707">
        <ele>210</ele>
        <time>2021-01-02T13:33:48.000Z</time>
      </trkpt>
      <trkpt lat="46.36269" lon="5.01707">
        <ele>210</ele>
        <time>2021-01-02T13:33:49.000Z</time>
      </trkpt>
      <trkpt lat="46.36269" lon="5.01707">
        <ele>210</ele>
        <time>2021-01-02T13:33:50.000Z</time>
      </trkpt>
      <trkpt lat="46.36269" lon="5.01707">
        <ele>210</ele>
        <time>2021-01-02T13:33:51.000Z</time>
      </trkpt>
      <trkpt lat="46.36269" lon="5.01707">
        <ele>210</ele>
        <time>2021-01-02T13:33:52.000Z</time>
      </trkpt>
      <trkpt lat="46.36269" lon="5.01707">
        <ele>210</ele>
        <time>2021-01-02T13:33:53.000Z</time>
      </trkpt>
      <trkpt lat="46.36269" lon="5.01707">
        <ele>210</ele>
        <time>2021-01-02T13:33:54.000Z</time>
      </trkpt>
      <trkpt lat="46.36269" lon="5.01707">
        <ele>210</ele>
        <time>2021-01-02T13:33:55.000Z</time>
      </trkpt>
      <trkpt lat="46.36269" lon="5.01707">
        <ele>210</ele>
        <time>2021-01-02T13:33:56.000Z</time>
      </trkpt>
      <trkpt lat="46.36269" lon="5.01707">
        <ele>210</ele>
        <time>2021-01-02T13:33:57.000Z</time>
      </trkpt>
      <trkpt lat="46.36269" lon="5.01707">
        <ele>210</ele>
        <time>2021-01-02T13:33:58.000Z</time>
      </trkpt>
      <trkpt lat="46.36268" lon="5.01707">
        <ele>210</ele>
        <time>2021-01-02T13:33:59.000Z</time>
      </trkpt>
      <trkpt lat="46.36268" lon="5.01706">
        <ele>210</ele>
        <time>2021-01-02T13:34:00.000Z</time>
      </trkpt>
      <trkpt lat="46.36268" lon="5.01706">
        <ele>210</ele>
        <time>2021-01-02T13:34:01.000Z</time>
      </trkpt>
      <trkpt lat="46.36268" lon="5.01706">
        <ele>210</ele>
        <time>2021-01-02T13:34:02.000Z</time>
      </trkpt>
      <trkpt lat="46.36268" lon="5.01706">
        <ele>210</ele>
        <time>2021-01-02T13:34:03.000Z</time>
      </trkpt>
      <trkpt lat="46.36268" lon="5.01706">
        <ele>210</ele>
        <time>2021-01-02T13:34:04.000Z</time>
      </trkpt>
      <trkpt lat="46.36268" lon="5.01706">
        <ele>210</ele>
        <time>2021-01-02T13:34:05.000Z</time>
      </trkpt>
      <trkpt lat="46.36268" lon="5.01706">
        <ele>210</ele>
        <time>2021-01-02T13:34:06.000Z</time>
      </trkpt>
      <trkpt lat="46.36268" lon="5.01706">
        <ele>210</ele>
        <time>2021-01-02T13:34:07.000Z</time>
      </trkpt>
      <trkpt lat="46.36268" lon="5.01706">
        <ele>210</ele>
        <time>2021-01-02T13:34:08.000Z</time>
      </trkpt>
      <trkpt lat="46.36268" lon="5.01706">
        <ele>210</ele>
        <time>2021-01-02T13:34:09.000Z</time>
      </trkpt>
      <trkpt lat="46.36268" lon="5.01706">
        <ele>210</ele>
        <time>2021-01-02T13:34:10.000Z</time>
      </trkpt>
      <trkpt lat="46.36268" lon="5.01706">
        <ele>210</ele>
        <time>2021-01-02T13:34:11.000Z</time>
      </trkpt>
      <trkpt lat="46.36268" lon="5.01706">
        <ele>210</ele>
        <time>2021-01-02T13:34:12.000Z</time>
      </trkpt>
      <trkpt lat="46.36268" lon="5.01706">
        <ele>210</ele>
        <time>2021-01-02T13:34:13.000Z</time>
      </trkpt>
      <trkpt lat="46.36268" lon="5.01706">
        <ele>210</ele>
        <time>2021-01-02T13:34:14.000Z</time>
      </trkpt>
      <trkpt lat="46.36268" lon="5.01706">
        <ele>210</ele>
        <time>2021-01-02T13:34:15.000Z</time>
      </trkpt>
      <trkpt lat="46.36268" lon="5.01706">
        <ele>210</ele>
        <time>2021-01-02T13:34:16.000Z</time>
      </trkpt>
      <trkpt lat="46.36268" lon="5.01706">
        <ele>210</ele>
        <time>2021-01-02T13:34:17.000Z</time>
      </trkpt>
      <trkpt lat="46.36268" lon="5.01706">
        <ele>210</ele>
        <time>2021-01-02T13:34:18.000Z</time>
      </trkpt>
      <trkpt lat="46.36269" lon="5.01707">
        <ele>210</ele>
        <time>2021-01-02T13:34:19.000Z</time>
      </trkpt>
      <trkpt lat="46.36269" lon="5.01707">
        <ele>210</ele>
        <time>2021-01-02T13:34:20.000Z</time>
      </trkpt>
      <trkpt lat="46.36269" lon="5.01707">
        <ele>210</ele>
        <time>2021-01-02T13:34:21.000Z</time>
      </trkpt>
      <trkpt lat="46.36269" lon="5.01707">
        <ele>210</ele>
        <time>2021-01-02T13:34:22.000Z</time>
      </trkpt>
      <trkpt lat="46.36269" lon="5.01707">
        <ele>210</ele>
        <time>2021-01-02T13:34:23.000Z</time>
      </trkpt>
      <trkpt lat="46.36269" lon="5.01707">
        <ele>210</ele>
        <time>2021-01-02T13:34:24.000Z</time>
      </trkpt>
      <trkpt lat="46.36269" lon="5.01706">
        <ele>210</ele>
        <time>2021-01-02T13:34:25.000Z</time>
      </trkpt>
      <trkpt lat="46.36269" lon="5.01707">
        <ele>210</ele>
        <time>2021-01-02T13:34:26.000Z</time>
      </trkpt>
      <trkpt lat="46.36269" lon="5.01707">
        <ele>210</ele>
        <time>2021-01-02T13:34:27.000Z</time>
      </trkpt>
      <trkpt lat="46.36269" lon="5.01706">
        <ele>210</ele>
        <time>2021-01-02T13:34:28.000Z</time>
      </trkpt>
      <trkpt lat="46.36269" lon="5.01706">
        <ele>210</ele>
        <time>2021-01-02T13:34:29.000Z</time>
      </trkpt>
      <trkpt lat="46.36269" lon="5.01706">
        <ele>210</ele>
        <time>2021-01-02T13:34:30.000Z</time>
      </trkpt>
      <trkpt lat="46.36269" lon="5.01706">
        <ele>210</ele>
        <time>2021-01-02T13:34:31.000Z</time>
      </trkpt>
      <trkpt lat="46.36269" lon="5.01707">
        <ele>210</ele>
        <time>2021-01-02T13:34:32.000Z</time>
      </trkpt>
      <trkpt lat="46.36269" lon="5.01707">
        <ele>210</ele>
        <time>2021-01-02T13:34:33.000Z</time>
      </trkpt>
      <trkpt lat="46.36269" lon="5.01707">
        <ele>210</ele>
        <time>2021-01-02T13:34:34.000Z</time>
      </trkpt>
      <trkpt lat="46.36269" lon="5.01706">
        <ele>210</ele>
        <time>2021-01-02T13:34:35.000Z</time>
      </trkpt>
      <trkpt lat="46.36269" lon="5.01706">
        <ele>210</ele>
        <time>2021-01-02T13:34:36.000Z</time>
      </trkpt>
      <trkpt lat="46.36269" lon="5.01706">
        <ele>210</ele>
        <time>2021-01-02T13:34:37.000Z</time>
      </trkpt>
      <trkpt lat="46.36269" lon="5.01706">
        <ele>210</ele>
        <time>2021-01-02T13:34:38.000Z</time>
      </trkpt>
      <trkpt lat="46.36269" lon="5.01706">
        <ele>210</ele>
        <time>2021-01-02T13:34:39.000Z</time>
      </trkpt>
      <trkpt lat="46.36269" lon="5.01706">
        <ele>210</ele>
        <time>2021-01-02T13:34:40.000Z</time>
      </trkpt>
      <trkpt lat="46.36269" lon="5.01706">
        <ele>210</ele>
        <time>2021-01-02T13:34:41.000Z</time>
      </trkpt>
      <trkpt lat="46.36269" lon="5.01706">
        <ele>210</ele>
        <time>2021-01-02T13:34:42.000Z</time>
      </trkpt>
      <trkpt lat="46.36269" lon="5.01706">
        <ele>210</ele>
        <time>2021-01-02T13:34:43.000Z</time>
      </trkpt>
      <trkpt lat="46.36269" lon="5.01706">
        <ele>211</ele>
        <time>2021-01-02T13:34:44.000Z</time>
      </trkpt>
      <trkpt lat="46.36269" lon="5.01706">
        <ele>211</ele>
        <time>2021-01-02T13:34:45.000Z</time>
      </trkpt>
      <trkpt lat="46.36269" lon="5.01706">
        <ele>211</ele>
        <time>2021-01-02T13:34:46.000Z</time>
      </trkpt>
      <trkpt lat="46.36269" lon="5.01706">
        <ele>211</ele>
        <time>2021-01-02T13:34:47.000Z</time>
      </trkpt>
      <trkpt lat="46.36269" lon="5.01706">
        <ele>211</ele>
        <time>2021-01-02T13:34:48.000Z</time>
      </trkpt>
      <trkpt lat="46.36269" lon="5.01706">
        <ele>211</ele>
        <time>2021-01-02T13:34:49.000Z</time>
      </trkpt>
      <trkpt lat="46.36269" lon="5.01706">
        <ele>211</ele>
        <time>2021-01-02T13:34:50.000Z</time>
      </trkpt>
      <trkpt lat="46.36268" lon="5.01705">
        <ele>211</ele>
        <time>2021-01-02T13:34:51.000Z</time>
      </trkpt>
      <trkpt lat="46.36268" lon="5.01706">
        <ele>211</ele>
        <time>2021-01-02T13:34:52.000Z</time>
      </trkpt>
      <trkpt lat="46.36268" lon="5.01706">
        <ele>211</ele>
        <time>2021-01-02T13:34:53.000Z</time>
      </trkpt>
      <trkpt lat="46.36268" lon="5.01706">
        <ele>211</ele>
        <time>2021-01-02T13:34:54.000Z</time>
      </trkpt>
      <trkpt lat="46.36268" lon="5.01706">
        <ele>211</ele>
        <time>2021-01-02T13:34:55.000Z</time>
      </trkpt>
      <trkpt lat="46.36269" lon="5.01706">
        <ele>211</ele>
        <time>2021-01-02T13:34:56.000Z</time>
      </trkpt>
      <trkpt lat="46.36269" lon="5.01706">
        <ele>211</ele>
        <time>2021-01-02T13:34:57.000Z</time>
      </trkpt>
      <trkpt lat="46.36269" lon="5.01706">
        <ele>211</ele>
        <time>2021-01-02T13:34:58.000Z</time>
      </trkpt>
      <trkpt lat="46.36269" lon="5.01706">
        <ele>211</ele>
        <time>2021-01-02T13:34:59.000Z</time>
      </trkpt>
      <trkpt lat="46.36269" lon="5.01706">
        <ele>211</ele>
        <time>2021-01-02T13:35:00.000Z</time>
      </trkpt>
      <trkpt lat="46.36269" lon="5.01706">
        <ele>211</ele>
        <time>2021-01-02T13:35:01.000Z</time>
      </trkpt>
      <trkpt lat="46.36269" lon="5.01706">
        <ele>211</ele>
        <time>2021-01-02T13:35:02.000Z</time>
      </trkpt>
      <trkpt lat="46.36269" lon="5.01706">
        <ele>211</ele>
        <time>2021-01-02T13:35:03.000Z</time>
      </trkpt>
      <trkpt lat="46.3627" lon="5.01706">
        <ele>211</ele>
        <time>2021-01-02T13:35:04.000Z</time>
      </trkpt>
      <trkpt lat="46.3627" lon="5.01706">
        <ele>211</ele>
        <time>2021-01-02T13:35:05.000Z</time>
      </trkpt>
      <trkpt lat="46.3627" lon="5.01706">
        <ele>211</ele>
        <time>2021-01-02T13:35:06.000Z</time>
      </trkpt>
      <trkpt lat="46.3627" lon="5.01706">
        <ele>211</ele>
        <time>2021-01-02T13:35:07.000Z</time>
      </trkpt>
      <trkpt lat="46.3627" lon="5.01706">
        <ele>211</ele>
        <time>2021-01-02T13:35:08.000Z</time>
      </trkpt>
      <trkpt lat="46.3627" lon="5.01706">
        <ele>211</ele>
        <time>2021-01-02T13:35:09.000Z</time>
      </trkpt>
      <trkpt lat="46.36271" lon="5.01706">
        <ele>211</ele>
        <time>2021-01-02T13:35:10.000Z</time>
      </trkpt>
      <trkpt lat="46.36271" lon="5.01706">
        <ele>211</ele>
        <time>2021-01-02T13:35:11.000Z</time>
      </trkpt>
      <trkpt lat="46.36272" lon="5.01707">
        <ele>211</ele>
        <time>2021-01-02T13:35:12.000Z</time>
      </trkpt>
      <trkpt lat="46.36272" lon="5.01707">
        <ele>211</ele>
        <time>2021-01-02T13:35:13.000Z</time>
      </trkpt>
      <trkpt lat="46.36273" lon="5.01707">
        <ele>211</ele>
        <time>2021-01-02T13:35:14.000Z</time>
      </trkpt>
      <trkpt lat="46.36274" lon="5.01707">
        <ele>211</ele>
        <time>2021-01-02T13:35:15.000Z</time>
      </trkpt>
      <trkpt lat="46.36275" lon="5.01708">
        <ele>211</ele>
        <time>2021-01-02T13:35:16.000Z</time>
      </trkpt>
      <trkpt lat="46.36277" lon="5.01708">
        <ele>211</ele>
        <time>2021-01-02T13:35:17.000Z</time>
      </trkpt>
      <trkpt lat="46.36278" lon="5.01708">
        <ele>211</ele>
        <time>2021-01-02T13:35:18.000Z</time>
      </trkpt>
      <trkpt lat="46.36279" lon="5.01708">
        <ele>211</ele>
        <time>2021-01-02T13:35:19.000Z</time>
      </trkpt>
      <trkpt lat="46.36281" lon="5.01708">
        <ele>211</ele>
        <time>2021-01-02T13:35:20.000Z</time>
      </trkpt>
      <trkpt lat="46.36282" lon="5.01709">
        <ele>212</ele>
        <time>2021-01-02T13:35:21.000Z</time>
      </trkpt>
      <trkpt lat="46.36283" lon="5.01709">
        <ele>211</ele>
        <time>2021-01-02T13:35:22.000Z</time>
      </trkpt>
      <trkpt lat="46.36285" lon="5.01709">
        <ele>211</ele>
        <time>2021-01-02T13:35:23.000Z</time>
      </trkpt>
      <trkpt lat="46.36286" lon="5.0171">
        <ele>211</ele>
        <time>2021-01-02T13:35:24.000Z</time>
      </trkpt>
      <trkpt lat="46.36287" lon="5.0171">
        <ele>211</ele>
        <time>2021-01-02T13:35:25.000Z</time>
      </trkpt>
      <trkpt lat="46.36289" lon="5.01711">
        <ele>211</ele>
        <time>2021-01-02T13:35:26.000Z</time>
      </trkpt>
      <trkpt lat="46.3629" lon="5.01711">
        <ele>211</ele>
        <time>2021-01-02T13:35:27.000Z</time>
      </trkpt>
      <trkpt lat="46.36291" lon="5.01711">
        <ele>211</ele>
        <time>2021-01-02T13:35:28.000Z</time>
      </trkpt>
      <trkpt lat="46.36292" lon="5.01712">
        <ele>211</ele>
        <time>2021-01-02T13:35:29.000Z</time>
      </trkpt>
      <trkpt lat="46.36293" lon="5.01712">
        <ele>211</ele>
        <time>2021-01-02T13:35:30.000Z</time>
      </trkpt>
      <trkpt lat="46.36294" lon="5.01712">
        <ele>211</ele>
        <time>2021-01-02T13:35:31.000Z</time>
      </trkpt>
      <trkpt lat="46.36296" lon="5.01713">
        <ele>211</ele>
        <time>2021-01-02T13:35:32.000Z</time>
      </trkpt>
      <trkpt lat="46.36297" lon="5.01713">
        <ele>211</ele>
        <time>2021-01-02T13:35:33.000Z</time>
      </trkpt>
      <trkpt lat="46.36298" lon="5.01714">
        <ele>211</ele>
        <time>2021-01-02T13:35:34.000Z</time>
      </trkpt>
      <trkpt lat="46.363" lon="5.01715">
        <ele>211</ele>
        <time>2021-01-02T13:35:35.000Z</time>
      </trkpt>
      <trkpt lat="46.36301" lon="5.01715">
        <ele>211</ele>
        <time>2021-01-02T13:35:36.000Z</time>
      </trkpt>
      <trkpt lat="46.36303" lon="5.01716">
        <ele>211</ele>
        <time>2021-01-02T13:35:37.000Z</time>
      </trkpt>
      <trkpt lat="46.36304" lon="5.01717">
        <ele>211</ele>
        <time>2021-01-02T13:35:38.000Z</time>
      </trkpt>
      <trkpt lat="46.36306" lon="5.01717">
        <ele>211</ele>
        <time>2021-01-02T13:35:39.000Z</time>
      </trkpt>
      <trkpt lat="46.36308" lon="5.01718">
        <ele>211</ele>
        <time>2021-01-02T13:35:40.000Z</time>
      </trkpt>
      <trkpt lat="46.3631" lon="5.01718">
        <ele>211</ele>
        <time>2021-01-02T13:35:41.000Z</time>
      </trkpt>
      <trkpt lat="46.36311" lon="5.01719">
        <ele>211</ele>
        <time>2021-01-02T13:35:42.000Z</time>
      </trkpt>
      <trkpt lat="46.36312" lon="5.01719">
        <ele>211</ele>
        <time>2021-01-02T13:35:43.000Z</time>
      </trkpt>
      <trkpt lat="46.36314" lon="5.01719">
        <ele>212</ele>
        <time>2021-01-02T13:35:44.000Z</time>
      </trkpt>
      <trkpt lat="46.36315" lon="5.01719">
        <ele>212</ele>
        <time>2021-01-02T13:35:45.000Z</time>
      </trkpt>
      <trkpt lat="46.36317" lon="5.01719">
        <ele>212</ele>
        <time>2021-01-02T13:35:46.000Z</time>
      </trkpt>
      <trkpt lat="46.36319" lon="5.01719">
        <ele>212</ele>
        <time>2021-01-02T13:35:47.000Z</time>
      </trkpt>
      <trkpt lat="46.36321" lon="5.01719">
        <ele>212</ele>
        <time>2021-01-02T13:35:48.000Z</time>
      </trkpt>
      <trkpt lat="46.36323" lon="5.01719">
        <ele>212</ele>
        <time>2021-01-02T13:35:49.000Z</time>
      </trkpt>
      <trkpt lat="46.36324" lon="5.01718">
        <ele>212</ele>
        <time>2021-01-02T13:35:50.000Z</time>
      </trkpt>
      <trkpt lat="46.36326" lon="5.01718">
        <ele>212</ele>
        <time>2021-01-02T13:35:51.000Z</time>
      </trkpt>
      <trkpt lat="46.36328" lon="5.01718">
        <ele>212</ele>
        <time>2021-01-02T13:35:52.000Z</time>
      </trkpt>
      <trkpt lat="46.3633" lon="5.01718">
        <ele>212</ele>
        <time>2021-01-02T13:35:53.000Z</time>
      </trkpt>
      <trkpt lat="46.36331" lon="5.01718">
        <ele>212</ele>
        <time>2021-01-02T13:35:54.000Z</time>
      </trkpt>
      <trkpt lat="46.36333" lon="5.01717">
        <ele>212</ele>
        <time>2021-01-02T13:35:55.000Z</time>
      </trkpt>
      <trkpt lat="46.36335" lon="5.01717">
        <ele>212</ele>
        <time>2021-01-02T13:35:56.000Z</time>
      </trkpt>
      <trkpt lat="46.36336" lon="5.01717">
        <ele>212</ele>
        <time>2021-01-02T13:35:57.000Z</time>
      </trkpt>
      <trkpt lat="46.36337" lon="5.01716">
        <ele>212</ele>
        <time>2021-01-02T13:35:58.000Z</time>
      </trkpt>
      <trkpt lat="46.36338" lon="5.01717">
        <ele>212</ele>
        <time>2021-01-02T13:35:59.000Z</time>
      </trkpt>
      <trkpt lat="46.3634" lon="5.01717">
        <ele>212</ele>
        <time>2021-01-02T13:36:00.000Z</time>
      </trkpt>
      <trkpt lat="46.36342" lon="5.01717">
        <ele>212</ele>
        <time>2021-01-02T13:36:01.000Z</time>
      </trkpt>
      <trkpt lat="46.36344" lon="5.01716">
        <ele>212</ele>
        <time>2021-01-02T13:36:02.000Z</time>
      </trkpt>
      <trkpt lat="46.36346" lon="5.01714">
        <ele>212</ele>
        <time>2021-01-02T13:36:03.000Z</time>
      </trkpt>
      <trkpt lat="46.36347" lon="5.01713">
        <ele>212</ele>
        <time>2021-01-02T13:36:04.000Z</time>
      </trkpt>
      <trkpt lat="46.36348" lon="5.01711">
        <ele>212</ele>
        <time>2021-01-02T13:36:05.000Z</time>
      </trkpt>
      <trkpt lat="46.36348" lon="5.01709">
        <ele>212</ele>
        <time>2021-01-02T13:36:06.000Z</time>
      </trkpt>
      <trkpt lat="46.36348" lon="5.01707">
        <ele>212</ele>
        <time>2021-01-02T13:36:07.000Z</time>
      </trkpt>
      <trkpt lat="46.36349" lon="5.01705">
        <ele>212</ele>
        <time>2021-01-02T13:36:08.000Z</time>
      </trkpt>
      <trkpt lat="46.36349" lon="5.01703">
        <ele>212</ele>
        <time>2021-01-02T13:36:09.000Z</time>
      </trkpt>
      <trkpt lat="46.36349" lon="5.01701">
        <ele>212</ele>
        <time>2021-01-02T13:36:10.000Z</time>
      </trkpt>
      <trkpt lat="46.36349" lon="5.01699">
        <ele>213</ele>
        <time>2021-01-02T13:36:11.000Z</time>
      </trkpt>
      <trkpt lat="46.36349" lon="5.01697">
        <ele>213</ele>
        <time>2021-01-02T13:36:12.000Z</time>
      </trkpt>
      <trkpt lat="46.36348" lon="5.01696">
        <ele>213</ele>
        <time>2021-01-02T13:36:13.000Z</time>
      </trkpt>
      <trkpt lat="46.36348" lon="5.01694">
        <ele>213</ele>
        <time>2021-01-02T13:36:14.000Z</time>
      </trkpt>
      <trkpt lat="46.36348" lon="5.01692">
        <ele>213</ele>
        <time>2021-01-02T13:36:15.000Z</time>
      </trkpt>
      <trkpt lat="46.36348" lon="5.0169">
        <ele>213</ele>
        <time>2021-01-02T13:36:16.000Z</time>
      </trkpt>
      <trkpt lat="46.36348" lon="5.01687">
        <ele>213</ele>
        <time>2021-01-02T13:36:17.000Z</time>
      </trkpt>
      <trkpt lat="46.36347" lon="5.01685">
        <ele>213</ele>
        <time>2021-01-02T13:36:18.000Z</time>
      </trkpt>
      <trkpt lat="46.36347" lon="5.01682">
        <ele>213</ele>
        <time>2021-01-02T13:36:19.000Z</time>
      </trkpt>
      <trkpt lat="46.36347" lon="5.0168">
        <ele>213</ele>
        <time>2021-01-02T13:36:20.000Z</time>
      </trkpt>
      <trkpt lat="46.36347" lon="5.01677">
        <ele>213</ele>
        <time>2021-01-02T13:36:21.000Z</time>
      </trkpt>
      <trkpt lat="46.36347" lon="5.01675">
        <ele>213</ele>
        <time>2021-01-02T13:36:22.000Z</time>
      </trkpt>
      <trkpt lat="46.36347" lon="5.01672">
        <ele>213</ele>
        <time>2021-01-02T13:36:23.000Z</time>
      </trkpt>
      <trkpt lat="46.36347" lon="5.01669">
        <ele>213</ele>
        <time>2021-01-02T13:36:24.000Z</time>
      </trkpt>
      <trkpt lat="46.36347" lon="5.01666">
        <ele>213</ele>
        <time>2021-01-02T13:36:25.000Z</time>
      </trkpt>
      <trkpt lat="46.36347" lon="5.01663">
        <ele>213</ele>
        <time>2021-01-02T13:36:26.000Z</time>
      </trkpt>
      <trkpt lat="46.36347" lon="5.0166">
        <ele>213</ele>
        <time>2021-01-02T13:36:27.000Z</time>
      </trkpt>
      <trkpt lat="46.36347" lon="5.01658">
        <ele>212</ele>
        <time>2021-01-02T13:36:28.000Z</time>
      </trkpt>
      <trkpt lat="46.36347" lon="5.01655">
        <ele>212</ele>
        <time>2021-01-02T13:36:29.000Z</time>
      </trkpt>
      <trkpt lat="46.36347" lon="5.01652">
        <ele>212</ele>
        <time>2021-01-02T13:36:30.000Z</time>
      </trkpt>
      <trkpt lat="46.36348" lon="5.01649">
        <ele>212</ele>
        <time>2021-01-02T13:36:31.000Z</time>
      </trkpt>
      <trkpt lat="46.36348" lon="5.01646">
        <ele>212</ele>
        <time>2021-01-02T13:36:32.000Z</time>
      </trkpt>
      <trkpt lat="46.36349" lon="5.01644">
        <ele>212</ele>
        <time>2021-01-02T13:36:33.000Z</time>
      </trkpt>
      <trkpt lat="46.36349" lon="5.0164">
        <ele>212</ele>
        <time>2021-01-02T13:36:34.000Z</time>
      </trkpt>
      <trkpt lat="46.36349" lon="5.01637">
        <ele>212</ele>
        <time>2021-01-02T13:36:35.000Z</time>
      </trkpt>
      <trkpt lat="46.36349" lon="5.01633">
        <ele>212</ele>
        <time>2021-01-02T13:36:36.000Z</time>
      </trkpt>
      <trkpt lat="46.3635" lon="5.0163">
        <ele>212</ele>
        <time>2021-01-02T13:36:37.000Z</time>
      </trkpt>
      <trkpt lat="46.3635" lon="5.01626">
        <ele>212</ele>
        <time>2021-01-02T13:36:38.000Z</time>
      </trkpt>
      <trkpt lat="46.3635" lon="5.01623">
        <ele>212</ele>
        <time>2021-01-02T13:36:39.000Z</time>
      </trkpt>
      <trkpt lat="46.3635" lon="5.0162">
        <ele>212</ele>
        <time>2021-01-02T13:36:40.000Z</time>
      </trkpt>
      <trkpt lat="46.36351" lon="5.01617">
        <ele>212</ele>
        <time>2021-01-02T13:36:41.000Z</time>
      </trkpt>
      <trkpt lat="46.36351" lon="5.01614">
        <ele>212</ele>
        <time>2021-01-02T13:36:42.000Z</time>
      </trkpt>
      <trkpt lat="46.36352" lon="5.01611">
        <ele>211</ele>
        <time>2021-01-02T13:36:43.000Z</time>
      </trkpt>
      <trkpt lat="46.36352" lon="5.01608">
        <ele>211</ele>
        <time>2021-01-02T13:36:44.000Z</time>
      </trkpt>
      <trkpt lat="46.36352" lon="5.01605">
        <ele>211</ele>
        <time>2021-01-02T13:36:45.000Z</time>
      </trkpt>
      <trkpt lat="46.36353" lon="5.01603">
        <ele>211</ele>
        <time>2021-01-02T13:36:46.000Z</time>
      </trkpt>
      <trkpt lat="46.36353" lon="5.016">
        <ele>211</ele>
        <time>2021-01-02T13:36:47.000Z</time>
      </trkpt>
      <trkpt lat="46.36353" lon="5.01597">
        <ele>211</ele>
        <time>2021-01-02T13:36:48.000Z</time>
      </trkpt>
      <trkpt lat="46.36354" lon="5.01593">
        <ele>211</ele>
        <time>2021-01-02T13:36:49.000Z</time>
      </trkpt>
      <trkpt lat="46.36354" lon="5.01589">
        <ele>211</ele>
        <time>2021-01-02T13:36:50.000Z</time>
      </trkpt>
      <trkpt lat="46.36354" lon="5.01586">
        <ele>211</ele>
        <time>2021-01-02T13:36:51.000Z</time>
      </trkpt>
      <trkpt lat="46.36355" lon="5.01583">
        <ele>210</ele>
        <time>2021-01-02T13:36:52.000Z</time>
      </trkpt>
      <trkpt lat="46.36356" lon="5.01581">
        <ele>210</ele>
        <time>2021-01-02T13:36:53.000Z</time>
      </trkpt>
      <trkpt lat="46.36356" lon="5.01578">
        <ele>210</ele>
        <time>2021-01-02T13:36:54.000Z</time>
      </trkpt>
      <trkpt lat="46.36356" lon="5.01576">
        <ele>210</ele>
        <time>2021-01-02T13:36:55.000Z</time>
      </trkpt>
      <trkpt lat="46.36357" lon="5.01574">
        <ele>210</ele>
        <time>2021-01-02T13:36:56.000Z</time>
      </trkpt>
      <trkpt lat="46.36357" lon="5.01572">
        <ele>210</ele>
        <time>2021-01-02T13:36:57.000Z</time>
      </trkpt>
      <trkpt lat="46.36358" lon="5.01571">
        <ele>210</ele>
        <time>2021-01-02T13:36:58.000Z</time>
      </trkpt>
      <trkpt lat="46.36358" lon="5.0157">
        <ele>210</ele>
        <time>2021-01-02T13:36:59.000Z</time>
      </trkpt>
      <trkpt lat="46.36358" lon="5.01569">
        <ele>209</ele>
        <time>2021-01-02T13:37:00.000Z</time>
      </trkpt>
      <trkpt lat="46.36358" lon="5.01569">
        <ele>209</ele>
        <time>2021-01-02T13:37:01.000Z</time>
      </trkpt>
      <trkpt lat="46.36358" lon="5.01569">
        <ele>209</ele>
        <time>2021-01-02T13:37:02.000Z</time>
      </trkpt>
      <trkpt lat="46.36358" lon="5.01569">
        <ele>209</ele>
        <time>2021-01-02T13:37:03.000Z</time>
      </trkpt>
      <trkpt lat="46.36358" lon="5.01569">
        <ele>209</ele>
        <time>2021-01-02T13:37:04.000Z</time>
      </trkpt>
      <trkpt lat="46.36358" lon="5.01569">
        <ele>209</ele>
        <time>2021-01-02T13:37:05.000Z</time>
      </trkpt>
      <trkpt lat="46.36358" lon="5.01569">
        <ele>209</ele>
        <time>2021-01-02T13:37:06.000Z</time>
      </trkpt>
      <trkpt lat="46.36358" lon="5.01568">
        <ele>209</ele>
        <time>2021-01-02T13:37:07.000Z</time>
      </trkpt>
      <trkpt lat="46.36358" lon="5.01568">
        <ele>209</ele>
        <time>2021-01-02T13:37:08.000Z</time>
      </trkpt>
      <trkpt lat="46.36358" lon="5.01568">
        <ele>209</ele>
        <time>2021-01-02T13:37:09.000Z</time>
      </trkpt>
      <trkpt lat="46.36358" lon="5.01568">
        <ele>209</ele>
        <time>2021-01-02T13:37:10.000Z</time>
      </trkpt>
      <trkpt lat="46.36358" lon="5.01568">
        <ele>209</ele>
        <time>2021-01-02T13:37:11.000Z</time>
      </trkpt>
      <trkpt lat="46.36358" lon="5.01568">
        <ele>209</ele>
        <time>2021-01-02T13:37:12.000Z</time>
      </trkpt>
      <trkpt lat="46.36358" lon="5.01568">
        <ele>209</ele>
        <time>2021-01-02T13:37:13.000Z</time>
      </trkpt>
      <trkpt lat="46.36358" lon="5.01568">
        <ele>209</ele>
        <time>2021-01-02T13:37:14.000Z</time>
      </trkpt>
      <trkpt lat="46.36358" lon="5.01568">
        <ele>209</ele>
        <time>2021-01-02T13:37:15.000Z</time>
      </trkpt>
      <trkpt lat="46.36358" lon="5.01568">
        <ele>209</ele>
        <time>2021-01-02T13:37:16.000Z</time>
      </trkpt>
      <trkpt lat="46.36358" lon="5.01568">
        <ele>209</ele>
        <time>2021-01-02T13:37:17.000Z</time>
      </trkpt>
      <trkpt lat="46.36358" lon="5.01568">
        <ele>209</ele>
        <time>2021-01-02T13:37:18.000Z</time>
      </trkpt>
      <trkpt lat="46.36358" lon="5.01568">
        <ele>209</ele>
        <time>2021-01-02T13:37:19.000Z</time>
      </trkpt>
      <trkpt lat="46.36358" lon="5.01568">
        <ele>209</ele>
        <time>2021-01-02T13:37:20.000Z</time>
      </trkpt>
      <trkpt lat="46.36358" lon="5.01568">
        <ele>209</ele>
        <time>2021-01-02T13:37:21.000Z</time>
      </trkpt>
      <trkpt lat="46.36358" lon="5.01568">
        <ele>209</ele>
        <time>2021-01-02T13:37:22.000Z</time>
      </trkpt>
      <trkpt lat="46.36358" lon="5.01568">
        <ele>209</ele>
        <time>2021-01-02T13:37:23.000Z</time>
      </trkpt>
      <trkpt lat="46.36358" lon="5.01568">
        <ele>209</ele>
        <time>2021-01-02T13:37:24.000Z</time>
      </trkpt>
      <trkpt lat="46.36358" lon="5.01568">
        <ele>209</ele>
        <time>2021-01-02T13:37:25.000Z</time>
      </trkpt>
      <trkpt lat="46.36358" lon="5.01568">
        <ele>209</ele>
        <time>2021-01-02T13:37:26.000Z</time>
      </trkpt>
      <trkpt lat="46.36358" lon="5.01568">
        <ele>209</ele>
        <time>2021-01-02T13:37:27.000Z</time>
      </trkpt>
      <trkpt lat="46.36358" lon="5.01568">
        <ele>209</ele>
        <time>2021-01-02T13:37:28.000Z</time>
      </trkpt>
      <trkpt lat="46.36358" lon="5.01568">
        <ele>209</ele>
        <time>2021-01-02T13:37:29.000Z</time>
      </trkpt>
      <trkpt lat="46.36358" lon="5.01568">
        <ele>209</ele>
        <time>2021-01-02T13:37:30.000Z</time>
      </trkpt>
      <trkpt lat="46.36358" lon="5.01568">
        <ele>209</ele>
        <time>2021-01-02T13:37:31.000Z</time>
      </trkpt>
      <trkpt lat="46.36358" lon="5.01568">
        <ele>209</ele>
        <time>2021-01-02T13:37:32.000Z</time>
      </trkpt>
      <trkpt lat="46.36358" lon="5.01568">
        <ele>209</ele>
        <time>2021-01-02T13:37:33.000Z</time>
      </trkpt>
      <trkpt lat="46.36358" lon="5.01568">
        <ele>209</ele>
        <time>2021-01-02T13:37:34.000Z</time>
      </trkpt>
      <trkpt lat="46.36358" lon="5.01568">
        <ele>209</ele>
        <time>2021-01-02T13:37:35.000Z</time>
      </trkpt>
      <trkpt lat="46.36358" lon="5.01568">
        <ele>209</ele>
        <time>2021-01-02T13:37:36.000Z</time>
      </trkpt>
      <trkpt lat="46.36358" lon="5.01568">
        <ele>209</ele>
        <time>2021-01-02T13:37:37.000Z</time>
      </trkpt>
      <trkpt lat="46.36358" lon="5.01568">
        <ele>209</ele>
        <time>2021-01-02T13:37:38.000Z</time>
      </trkpt>
      <trkpt lat="46.36358" lon="5.01567">
        <ele>209</ele>
        <time>2021-01-02T13:37:39.000Z</time>
      </trkpt>
      <trkpt lat="46.36358" lon="5.01567">
        <ele>209</ele>
        <time>2021-01-02T13:37:40.000Z</time>
      </trkpt>
      <trkpt lat="46.36358" lon="5.01567">
        <ele>209</ele>
        <time>2021-01-02T13:37:41.000Z</time>
      </trkpt>
      <trkpt lat="46.36358" lon="5.01567">
        <ele>209</ele>
        <time>2021-01-02T13:37:42.000Z</time>
      </trkpt>
      <trkpt lat="46.36358" lon="5.01567">
        <ele>209</ele>
        <time>2021-01-02T13:37:43.000Z</time>
      </trkpt>
      <trkpt lat="46.36358" lon="5.01567">
        <ele>209</ele>
        <time>2021-01-02T13:37:44.000Z</time>
      </trkpt>
      <trkpt lat="46.36358" lon="5.01567">
        <ele>209</ele>
        <time>2021-01-02T13:37:45.000Z</time>
      </trkpt>
      <trkpt lat="46.36358" lon="5.01567">
        <ele>209</ele>
        <time>2021-01-02T13:37:46.000Z</time>
      </trkpt>
      <trkpt lat="46.36358" lon="5.01567">
        <ele>209</ele>
        <time>2021-01-02T13:37:47.000Z</time>
      </trkpt>
      <trkpt lat="46.36358" lon="5.01567">
        <ele>209</ele>
        <time>2021-01-02T13:37:48.000Z</time>
      </trkpt>
      <trkpt lat="46.36358" lon="5.01567">
        <ele>209</ele>
        <time>2021-01-02T13:37:49.000Z</time>
      </trkpt>
      <trkpt lat="46.36358" lon="5.01567">
        <ele>209</ele>
        <time>2021-01-02T13:37:50.000Z</time>
      </trkpt>
      <trkpt lat="46.36358" lon="5.01567">
        <ele>209</ele>
        <time>2021-01-02T13:37:51.000Z</time>
      </trkpt>
      <trkpt lat="46.36358" lon="5.01567">
        <ele>209</ele>
        <time>2021-01-02T13:37:52.000Z</time>
      </trkpt>
      <trkpt lat="46.36358" lon="5.01567">
        <ele>209</ele>
        <time>2021-01-02T13:37:53.000Z</time>
      </trkpt>
      <trkpt lat="46.36358" lon="5.01567">
        <ele>209</ele>
        <time>2021-01-02T13:37:54.000Z</time>
      </trkpt>
      <trkpt lat="46.36358" lon="5.01567">
        <ele>209</ele>
        <time>2021-01-02T13:37:55.000Z</time>
      </trkpt>
      <trkpt lat="46.36358" lon="5.01567">
        <ele>209</ele>
        <time>2021-01-02T13:37:56.000Z</time>
      </trkpt>
      <trkpt lat="46.36358" lon="5.01567">
        <ele>209</ele>
        <time>2021-01-02T13:37:57.000Z</time>
      </trkpt>
      <trkpt lat="46.36358" lon="5.01567">
        <ele>209</ele>
        <time>2021-01-02T13:37:58.000Z</time>
      </trkpt>
      <trkpt lat="46.36358" lon="5.01567">
        <ele>209</ele>
        <time>2021-01-02T13:37:59.000Z</time>
      </trkpt>
      <trkpt lat="46.36358" lon="5.01567">
        <ele>209</ele>
        <time>2021-01-02T13:38:00.000Z</time>
      </trkpt>
      <trkpt lat="46.36358" lon="5.01567">
        <ele>209</ele>
        <time>2021-01-02T13:38:01.000Z</time>
      </trkpt>
      <trkpt lat="46.36358" lon="5.01567">
        <ele>209</ele>
        <time>2021-01-02T13:38:02.000Z</time>
      </trkpt>
      <trkpt lat="46.36358" lon="5.01567">
        <ele>209</ele>
        <time>2021-01-02T13:38:03.000Z</time>
      </trkpt>
      <trkpt lat="46.36358" lon="5.01567">
        <ele>209</ele>
        <time>2021-01-02T13:38:04.000Z</time>
      </trkpt>
      <trkpt lat="46.36358" lon="5.01567">
        <ele>209</ele>
        <time>2021-01-02T13:38:05.000Z</time>
      </trkpt>
      <trkpt lat="46.36358" lon="5.01567">
        <ele>209</ele>
        <time>2021-01-02T13:38:06.000Z</time>
      </trkpt>
      <trkpt lat="46.36358" lon="5.01567">
        <ele>209</ele>
        <time>2021-01-02T13:38:07.000Z</time>
      </trkpt>
      <trkpt lat="46.36358" lon="5.01567">
        <ele>209</ele>
        <time>2021-01-02T13:38:08.000Z</time>
      </trkpt>
      <trkpt lat="46.36358" lon="5.01567">
        <ele>209</ele>
        <time>2021-01-02T13:38:09.000Z</time>
      </trkpt>
      <trkpt lat="46.36358" lon="5.01567">
        <ele>209</ele>
        <time>2021-01-02T13:38:10.000Z</time>
      </trkpt>
      <trkpt lat="46.36358" lon="5.01567">
        <ele>209</ele>
        <time>2021-01-02T13:38:11.000Z</time>
      </trkpt>
      <trkpt lat="46.36358" lon="5.01567">
        <ele>209</ele>
        <time>2021-01-02T13:38:12.000Z</time>
      </trkpt>
      <trkpt lat="46.36358" lon="5.01567">
        <ele>209</ele>
        <time>2021-01-02T13:38:13.000Z</time>
      </trkpt>
      <trkpt lat="46.36358" lon="5.01567">
        <ele>209</ele>
        <time>2021-01-02T13:38:14.000Z</time>
      </trkpt>
      <trkpt lat="46.36358" lon="5.01567">
        <ele>209</ele>
        <time>2021-01-02T13:38:15.000Z</time>
      </trkpt>
      <trkpt lat="46.36358" lon="5.01567">
        <ele>209</ele>
        <time>2021-01-02T13:38:16.000Z</time>
      </trkpt>
      <trkpt lat="46.36358" lon="5.01567">
        <ele>209</ele>
        <time>2021-01-02T13:38:17.000Z</time>
      </trkpt>
      <trkpt lat="46.36358" lon="5.01567">
        <ele>209</ele>
        <time>2021-01-02T13:38:18.000Z</time>
      </trkpt>
      <trkpt lat="46.36358" lon="5.01567">
        <ele>209</ele>
        <time>2021-01-02T13:38:19.000Z</time>
      </trkpt>
      <trkpt lat="46.36358" lon="5.01567">
        <ele>209</ele>
        <time>2021-01-02T13:38:20.000Z</time>
      </trkpt>
      <trkpt lat="46.36358" lon="5.01567">
        <ele>209</ele>
        <time>2021-01-02T13:38:21.000Z</time>
      </trkpt>
      <trkpt lat="46.36358" lon="5.01567">
        <ele>209</ele>
        <time>2021-01-02T13:38:22.000Z</time>
      </trkpt>
      <trkpt lat="46.36358" lon="5.01567">
        <ele>209</ele>
        <time>2021-01-02T13:38:23.000Z</time>
      </trkpt>
      <trkpt lat="46.36358" lon="5.01567">
        <ele>209</ele>
        <time>2021-01-02T13:38:24.000Z</time>
      </trkpt>
      <trkpt lat="46.36358" lon="5.01567">
        <ele>209</ele>
        <time>2021-01-02T13:38:25.000Z</time>
      </trkpt>
      <trkpt lat="46.36358" lon="5.01567">
        <ele>209</ele>
        <time>2021-01-02T13:38:26.000Z</time>
      </trkpt>
      <trkpt lat="46.36358" lon="5.01567">
        <ele>209</ele>
        <time>2021-01-02T13:38:27.000Z</time>
      </trkpt>
      <trkpt lat="46.36358" lon="5.01567">
        <ele>209</ele>
        <time>2021-01-02T13:38:28.000Z</time>
      </trkpt>
      <trkpt lat="46.36358" lon="5.01567">
        <ele>209</ele>
        <time>2021-01-02T13:38:29.000Z</time>
      </trkpt>
      <trkpt lat="46.36358" lon="5.01567">
        <ele>209</ele>
        <time>2021-01-02T13:38:30.000Z</time>
      </trkpt>
      <trkpt lat="46.36358" lon="5.01567">
        <ele>209</ele>
        <time>2021-01-02T13:38:31.000Z</time>
      </trkpt>
      <trkpt lat="46.36358" lon="5.01567">
        <ele>209</ele>
        <time>2021-01-02T13:38:32.000Z</time>
      </trkpt>
      <trkpt lat="46.36358" lon="5.01567">
        <ele>209</ele>
        <time>2021-01-02T13:38:33.000Z</time>
      </trkpt>
      <trkpt lat="46.36358" lon="5.01567">
        <ele>209</ele>
        <time>2021-01-02T13:38:34.000Z</time>
      </trkpt>
      <trkpt lat="46.36358" lon="5.01567">
        <ele>209</ele>
        <time>2021-01-02T13:38:35.000Z</time>
      </trkpt>
      <trkpt lat="46.36358" lon="5.01567">
        <ele>209</ele>
        <time>2021-01-02T13:38:36.000Z</time>
      </trkpt>
      <trkpt lat="46.36358" lon="5.01567">
        <ele>209</ele>
        <time>2021-01-02T13:38:37.000Z</time>
      </trkpt>
      <trkpt lat="46.36358" lon="5.01567">
        <ele>209</ele>
        <time>2021-01-02T13:38:38.000Z</time>
      </trkpt>
      <trkpt lat="46.36358" lon="5.01567">
        <ele>209</ele>
        <time>2021-01-02T13:38:39.000Z</time>
      </trkpt>
      <trkpt lat="46.36358" lon="5.01567">
        <ele>209</ele>
        <time>2021-01-02T13:38:40.000Z</time>
      </trkpt>
      <trkpt lat="46.36358" lon="5.01567">
        <ele>209</ele>
        <time>2021-01-02T13:38:41.000Z</time>
      </trkpt>
      <trkpt lat="46.36358" lon="5.01567">
        <ele>209</ele>
        <time>2021-01-02T13:38:42.000Z</time>
      </trkpt>
      <trkpt lat="46.36358" lon="5.01567">
        <ele>209</ele>
        <time>2021-01-02T13:38:43.000Z</time>
      </trkpt>
      <trkpt lat="46.36358" lon="5.01567">
        <ele>209</ele>
        <time>2021-01-02T13:38:44.000Z</time>
      </trkpt>
      <trkpt lat="46.36358" lon="5.01567">
        <ele>209</ele>
        <time>2021-01-02T13:38:45.000Z</time>
      </trkpt>
      <trkpt lat="46.36358" lon="5.01567">
        <ele>209</ele>
        <time>2021-01-02T13:38:46.000Z</time>
      </trkpt>
      <trkpt lat="46.36358" lon="5.01567">
        <ele>209</ele>
        <time>2021-01-02T13:38:47.000Z</time>
      </trkpt>
      <trkpt lat="46.36358" lon="5.01567">
        <ele>209</ele>
        <time>2021-01-02T13:38:48.000Z</time>
      </trkpt>
      <trkpt lat="46.36358" lon="5.01567">
        <ele>209</ele>
        <time>2021-01-02T13:38:49.000Z</time>
      </trkpt>
      <trkpt lat="46.36358" lon="5.01567">
        <ele>209</ele>
        <time>2021-01-02T13:38:50.000Z</time>
      </trkpt>
      <trkpt lat="46.36358" lon="5.01567">
        <ele>209</ele>
        <time>2021-01-02T13:38:51.000Z</time>
      </trkpt>
      <trkpt lat="46.36358" lon="5.01567">
        <ele>209</ele>
        <time>2021-01-02T13:38:52.000Z</time>
      </trkpt>
      <trkpt lat="46.36358" lon="5.01567">
        <ele>209</ele>
        <time>2021-01-02T13:38:53.000Z</time>
      </trkpt>
      <trkpt lat="46.36358" lon="5.01567">
        <ele>209</ele>
        <time>2021-01-02T13:38:54.000Z</time>
      </trkpt>
      <trkpt lat="46.36358" lon="5.01567">
        <ele>209</ele>
        <time>2021-01-02T13:38:55.000Z</time>
      </trkpt>
      <trkpt lat="46.36358" lon="5.01567">
        <ele>209</ele>
        <time>2021-01-02T13:38:56.000Z</time>
      </trkpt>
      <trkpt lat="46.36358" lon="5.01567">
        <ele>209</ele>
        <time>2021-01-02T13:38:57.000Z</time>
      </trkpt>
      <trkpt lat="46.36358" lon="5.01567">
        <ele>209</ele>
        <time>2021-01-02T13:38:58.000Z</time>
      </trkpt>
      <trkpt lat="46.36358" lon="5.01567">
        <ele>209</ele>
        <time>2021-01-02T13:38:59.000Z</time>
      </trkpt>
      <trkpt lat="46.36358" lon="5.01567">
        <ele>209</ele>
        <time>2021-01-02T13:39:00.000Z</time>
      </trkpt>
      <trkpt lat="46.36358" lon="5.01567">
        <ele>209</ele>
        <time>2021-01-02T13:39:01.000Z</time>
      </trkpt>
      <trkpt lat="46.36358" lon="5.01567">
        <ele>209</ele>
        <time>2021-01-02T13:39:02.000Z</time>
      </trkpt>
      <trkpt lat="46.36358" lon="5.01567">
        <ele>209</ele>
        <time>2021-01-02T13:39:03.000Z</time>
      </trkpt>
      <trkpt lat="46.36358" lon="5.01567">
        <ele>209</ele>
        <time>2021-01-02T13:39:04.000Z</time>
      </trkpt>
      <trkpt lat="46.36358" lon="5.01567">
        <ele>209</ele>
        <time>2021-01-02T13:39:05.000Z</time>
      </trkpt>
      <trkpt lat="46.36358" lon="5.01567">
        <ele>209</ele>
        <time>2021-01-02T13:39:06.000Z</time>
      </trkpt>
      <trkpt lat="46.36358" lon="5.01567">
        <ele>209</ele>
        <time>2021-01-02T13:39:07.000Z</time>
      </trkpt>
      <trkpt lat="46.36358" lon="5.01567">
        <ele>209</ele>
        <time>2021-01-02T13:39:08.000Z</time>
      </trkpt>
      <trkpt lat="46.36358" lon="5.01567">
        <ele>209</ele>
        <time>2021-01-02T13:39:09.000Z</time>
      </trkpt>
      <trkpt lat="46.36358" lon="5.01567">
        <ele>209</ele>
        <time>2021-01-02T13:39:10.000Z</time>
      </trkpt>
      <trkpt lat="46.36358" lon="5.01567">
        <ele>209</ele>
        <time>2021-01-02T13:39:11.000Z</time>
      </trkpt>
      <trkpt lat="46.36358" lon="5.01567">
        <ele>209</ele>
        <time>2021-01-02T13:39:12.000Z</time>
      </trkpt>
      <trkpt lat="46.36358" lon="5.01567">
        <ele>209</ele>
        <time>2021-01-02T13:39:13.000Z</time>
      </trkpt>
      <trkpt lat="46.36358" lon="5.01567">
        <ele>209</ele>
        <time>2021-01-02T13:39:14.000Z</time>
      </trkpt>
      <trkpt lat="46.36358" lon="5.01567">
        <ele>209</ele>
        <time>2021-01-02T13:39:15.000Z</time>
      </trkpt>
      <trkpt lat="46.36358" lon="5.01567">
        <ele>209</ele>
        <time>2021-01-02T13:39:16.000Z</time>
      </trkpt>
      <trkpt lat="46.36358" lon="5.01567">
        <ele>209</ele>
        <time>2021-01-02T13:39:17.000Z</time>
      </trkpt>
      <trkpt lat="46.36358" lon="5.01567">
        <ele>209</ele>
        <time>2021-01-02T13:39:18.000Z</time>
      </trkpt>
      <trkpt lat="46.36358" lon="5.01567">
        <ele>209</ele>
        <time>2021-01-02T13:39:19.000Z</time>
      </trkpt>
      <trkpt lat="46.36358" lon="5.01567">
        <ele>209</ele>
        <time>2021-01-02T13:39:20.000Z</time>
      </trkpt>
      <trkpt lat="46.36358" lon="5.01567">
        <ele>209</ele>
        <time>2021-01-02T13:39:21.000Z</time>
      </trkpt>
      <trkpt lat="46.36358" lon="5.01567">
        <ele>209</ele>
        <time>2021-01-02T13:39:22.000Z</time>
      </trkpt>
      <trkpt lat="46.36358" lon="5.01567">
        <ele>209</ele>
        <time>2021-01-02T13:39:23.000Z</time>
      </trkpt>
      <trkpt lat="46.36358" lon="5.01567">
        <ele>209</ele>
        <time>2021-01-02T13:39:24.000Z</time>
      </trkpt>
      <trkpt lat="46.36358" lon="5.01567">
        <ele>209</ele>
        <time>2021-01-02T13:39:25.000Z</time>
      </trkpt>
      <trkpt lat="46.36358" lon="5.01567">
        <ele>209</ele>
        <time>2021-01-02T13:39:26.000Z</time>
      </trkpt>
      <trkpt lat="46.36358" lon="5.01567">
        <ele>209</ele>
        <time>2021-01-02T13:39:27.000Z</time>
      </trkpt>
      <trkpt lat="46.36358" lon="5.01567">
        <ele>209</ele>
        <time>2021-01-02T13:39:28.000Z</time>
      </trkpt>
      <trkpt lat="46.36358" lon="5.01567">
        <ele>209</ele>
        <time>2021-01-02T13:39:29.000Z</time>
      </trkpt>
      <trkpt lat="46.36358" lon="5.01567">
        <ele>209</ele>
        <time>2021-01-02T13:39:30.000Z</time>
      </trkpt>
      <trkpt lat="46.36358" lon="5.01567">
        <ele>209</ele>
        <time>2021-01-02T13:39:31.000Z</time>
      </trkpt>
      <trkpt lat="46.36358" lon="5.01567">
        <ele>209</ele>
        <time>2021-01-02T13:39:32.000Z</time>
      </trkpt>
      <trkpt lat="46.36358" lon="5.01567">
        <ele>209</ele>
        <time>2021-01-02T13:39:33.000Z</time>
      </trkpt>
      <trkpt lat="46.36358" lon="5.01567">
        <ele>209</ele>
        <time>2021-01-02T13:39:34.000Z</time>
      </trkpt>
      <trkpt lat="46.36358" lon="5.01567">
        <ele>209</ele>
        <time>2021-01-02T13:39:35.000Z</time>
      </trkpt>
      <trkpt lat="46.36358" lon="5.01567">
        <ele>209</ele>
        <time>2021-01-02T13:39:36.000Z</time>
      </trkpt>
      <trkpt lat="46.36358" lon="5.01567">
        <ele>209</ele>
        <time>2021-01-02T13:39:37.000Z</time>
      </trkpt>
      <trkpt lat="46.36358" lon="5.01567">
        <ele>209</ele>
        <time>2021-01-02T13:39:38.000Z</time>
      </trkpt>
      <trkpt lat="46.36358" lon="5.01567">
        <ele>209</ele>
        <time>2021-01-02T13:39:39.000Z</time>
      </trkpt>
      <trkpt lat="46.36358" lon="5.01567">
        <ele>209</ele>
        <time>2021-01-02T13:39:40.000Z</time>
      </trkpt>
      <trkpt lat="46.36358" lon="5.01567">
        <ele>209</ele>
        <time>2021-01-02T13:39:41.000Z</time>
      </trkpt>
      <trkpt lat="46.36358" lon="5.01567">
        <ele>209</ele>
        <time>2021-01-02T13:39:42.000Z</time>
      </trkpt>
      <trkpt lat="46.36358" lon="5.01567">
        <ele>209</ele>
        <time>2021-01-02T13:39:43.000Z</time>
      </trkpt>
      <trkpt lat="46.36358" lon="5.01567">
        <ele>209</ele>
        <time>2021-01-02T13:39:44.000Z</time>
      </trkpt>
      <trkpt lat="46.36358" lon="5.01567">
        <ele>209</ele>
        <time>2021-01-02T13:39:45.000Z</time>
      </trkpt>
      <trkpt lat="46.36358" lon="5.01567">
        <ele>209</ele>
        <time>2021-01-02T13:39:46.000Z</time>
      </trkpt>
      <trkpt lat="46.36358" lon="5.01567">
        <ele>209</ele>
        <time>2021-01-02T13:39:47.000Z</time>
      </trkpt>
      <trkpt lat="46.36358" lon="5.01567">
        <ele>209</ele>
        <time>2021-01-02T13:39:48.000Z</time>
      </trkpt>
      <trkpt lat="46.36358" lon="5.01567">
        <ele>209</ele>
        <time>2021-01-02T13:39:49.000Z</time>
      </trkpt>
      <trkpt lat="46.36358" lon="5.01567">
        <ele>209</ele>
        <time>2021-01-02T13:39:50.000Z</time>
      </trkpt>
      <trkpt lat="46.36358" lon="5.01567">
        <ele>209</ele>
        <time>2021-01-02T13:39:51.000Z</time>
      </trkpt>
      <trkpt lat="46.36358" lon="5.01567">
        <ele>209</ele>
        <time>2021-01-02T13:39:52.000Z</time>
      </trkpt>
      <trkpt lat="46.36358" lon="5.01567">
        <ele>209</ele>
        <time>2021-01-02T13:39:53.000Z</time>
      </trkpt>
      <trkpt lat="46.36358" lon="5.01567">
        <ele>209</ele>
        <time>2021-01-02T13:39:54.000Z</time>
      </trkpt>
      <trkpt lat="46.36358" lon="5.01567">
        <ele>209</ele>
        <time>2021-01-02T13:39:55.000Z</time>
      </trkpt>
      <trkpt lat="46.36358" lon="5.01567">
        <ele>209</ele>
        <time>2021-01-02T13:39:56.000Z</time>
      </trkpt>
      <trkpt lat="46.36358" lon="5.01567">
        <ele>209</ele>
        <time>2021-01-02T13:39:57.000Z</time>
      </trkpt>
      <trkpt lat="46.36358" lon="5.01567">
        <ele>209</ele>
        <time>2021-01-02T13:39:58.000Z</time>
      </trkpt>
      <trkpt lat="46.36358" lon="5.01567">
        <ele>209</ele>
        <time>2021-01-02T13:39:59.000Z</time>
      </trkpt>
      <trkpt lat="46.36358" lon="5.01566">
        <ele>209</ele>
        <time>2021-01-02T13:40:00.000Z</time>
      </trkpt>
      <trkpt lat="46.36358" lon="5.01564">
        <ele>209</ele>
        <time>2021-01-02T13:40:01.000Z</time>
      </trkpt>
      <trkpt lat="46.36358" lon="5.01563">
        <ele>208</ele>
        <time>2021-01-02T13:40:02.000Z</time>
      </trkpt>
      <trkpt lat="46.36358" lon="5.0156">
        <ele>208</ele>
        <time>2021-01-02T13:40:03.000Z</time>
      </trkpt>
      <trkpt lat="46.36358" lon="5.01558">
        <ele>208</ele>
        <time>2021-01-02T13:40:04.000Z</time>
      </trkpt>
      <trkpt lat="46.36359" lon="5.01555">
        <ele>208</ele>
        <time>2021-01-02T13:40:05.000Z</time>
      </trkpt>
      <trkpt lat="46.36359" lon="5.01552">
        <ele>208</ele>
        <time>2021-01-02T13:40:06.000Z</time>
      </trkpt>
      <trkpt lat="46.36359" lon="5.0155">
        <ele>208</ele>
        <time>2021-01-02T13:40:07.000Z</time>
      </trkpt>
      <trkpt lat="46.36359" lon="5.01547">
        <ele>208</ele>
        <time>2021-01-02T13:40:08.000Z</time>
      </trkpt>
      <trkpt lat="46.3636" lon="5.01544">
        <ele>208</ele>
        <time>2021-01-02T13:40:09.000Z</time>
      </trkpt>
      <trkpt lat="46.3636" lon="5.01541">
        <ele>208</ele>
        <time>2021-01-02T13:40:10.000Z</time>
      </trkpt>
      <trkpt lat="46.3636" lon="5.01538">
        <ele>208</ele>
        <time>2021-01-02T13:40:11.000Z</time>
      </trkpt>
      <trkpt lat="46.36361" lon="5.01535">
        <ele>208</ele>
        <time>2021-01-02T13:40:12.000Z</time>
      </trkpt>
      <trkpt lat="46.36361" lon="5.01533">
        <ele>208</ele>
        <time>2021-01-02T13:40:13.000Z</time>
      </trkpt>
      <trkpt lat="46.36361" lon="5.0153">
        <ele>208</ele>
        <time>2021-01-02T13:40:14.000Z</time>
      </trkpt>
      <trkpt lat="46.36362" lon="5.01527">
        <ele>208</ele>
        <time>2021-01-02T13:40:15.000Z</time>
      </trkpt>
      <trkpt lat="46.36362" lon="5.01525">
        <ele>208</ele>
        <time>2021-01-02T13:40:16.000Z</time>
      </trkpt>
      <trkpt lat="46.36362" lon="5.01522">
        <ele>208</ele>
        <time>2021-01-02T13:40:17.000Z</time>
      </trkpt>
      <trkpt lat="46.36362" lon="5.01518">
        <ele>207</ele>
        <time>2021-01-02T13:40:18.000Z</time>
      </trkpt>
      <trkpt lat="46.36363" lon="5.01514">
        <ele>207</ele>
        <time>2021-01-02T13:40:19.000Z</time>
      </trkpt>
      <trkpt lat="46.36364" lon="5.0151">
        <ele>207</ele>
        <time>2021-01-02T13:40:20.000Z</time>
      </trkpt>
      <trkpt lat="46.36364" lon="5.01506">
        <ele>207</ele>
        <time>2021-01-02T13:40:21.000Z</time>
      </trkpt>
      <trkpt lat="46.36365" lon="5.01501">
        <ele>207</ele>
        <time>2021-01-02T13:40:22.000Z</time>
      </trkpt>
      <trkpt lat="46.36365" lon="5.01497">
        <ele>207</ele>
        <time>2021-01-02T13:40:23.000Z</time>
      </trkpt>
      <trkpt lat="46.36365" lon="5.01492">
        <ele>207</ele>
        <time>2021-01-02T13:40:24.000Z</time>
      </trkpt>
      <trkpt lat="46.36366" lon="5.01488">
        <ele>206</ele>
        <time>2021-01-02T13:40:25.000Z</time>
      </trkpt>
      <trkpt lat="46.36366" lon="5.01484">
        <ele>206</ele>
        <time>2021-01-02T13:40:26.000Z</time>
      </trkpt>
      <trkpt lat="46.36366" lon="5.01482">
        <ele>206</ele>
        <time>2021-01-02T13:40:27.000Z</time>
      </trkpt>
      <trkpt lat="46.36367" lon="5.0148">
        <ele>206</ele>
        <time>2021-01-02T13:40:28.000Z</time>
      </trkpt>
      <trkpt lat="46.36367" lon="5.01479">
        <ele>206</ele>
        <time>2021-01-02T13:40:29.000Z</time>
      </trkpt>
      <trkpt lat="46.36367" lon="5.01477">
        <ele>206</ele>
        <time>2021-01-02T13:40:30.000Z</time>
      </trkpt>
      <trkpt lat="46.36367" lon="5.01474">
        <ele>206</ele>
        <time>2021-01-02T13:40:31.000Z</time>
      </trkpt>
      <trkpt lat="46.36367" lon="5.01472">
        <ele>206</ele>
        <time>2021-01-02T13:40:32.000Z</time>
      </trkpt>
      <trkpt lat="46.36368" lon="5.0147">
        <ele>206</ele>
        <time>2021-01-02T13:40:33.000Z</time>
      </trkpt>
      <trkpt lat="46.36368" lon="5.01468">
        <ele>206</ele>
        <time>2021-01-02T13:40:34.000Z</time>
      </trkpt>
      <trkpt lat="46.36368" lon="5.01468">
        <ele>206</ele>
        <time>2021-01-02T13:40:35.000Z</time>
      </trkpt>
      <trkpt lat="46.36368" lon="5.01468">
        <ele>206</ele>
        <time>2021-01-02T13:40:36.000Z</time>
      </trkpt>
      <trkpt lat="46.36369" lon="5.01467">
        <ele>207</ele>
        <time>2021-01-02T13:40:37.000Z</time>
      </trkpt>
      <trkpt lat="46.36369" lon="5.01467">
        <ele>207</ele>
        <time>2021-01-02T13:40:38.000Z</time>
      </trkpt>
      <trkpt lat="46.36369" lon="5.01467">
        <ele>207</ele>
        <time>2021-01-02T13:40:39.000Z</time>
      </trkpt>
      <trkpt lat="46.36369" lon="5.01467">
        <ele>207</ele>
        <time>2021-01-02T13:40:40.000Z</time>
      </trkpt>
      <trkpt lat="46.36369" lon="5.01467">
        <ele>207</ele>
        <time>2021-01-02T13:40:41.000Z</time>
      </trkpt>
      <trkpt lat="46.36369" lon="5.01467">
        <ele>207</ele>
        <time>2021-01-02T13:40:42.000Z</time>
      </trkpt>
      <trkpt lat="46.36369" lon="5.01467">
        <ele>207</ele>
        <time>2021-01-02T13:40:43.000Z</time>
      </trkpt>
      <trkpt lat="46.36369" lon="5.01467">
        <ele>207</ele>
        <time>2021-01-02T13:40:44.000Z</time>
      </trkpt>
      <trkpt lat="46.36369" lon="5.01467">
        <ele>207</ele>
        <time>2021-01-02T13:40:45.000Z</time>
      </trkpt>
      <trkpt lat="46.36369" lon="5.01467">
        <ele>207</ele>
        <time>2021-01-02T13:40:46.000Z</time>
      </trkpt>
      <trkpt lat="46.36369" lon="5.01466">
        <ele>207</ele>
        <time>2021-01-02T13:40:47.000Z</time>
      </trkpt>
      <trkpt lat="46.36369" lon="5.01466">
        <ele>207</ele>
        <time>2021-01-02T13:40:48.000Z</time>
      </trkpt>
      <trkpt lat="46.3637" lon="5.01466">
        <ele>207</ele>
        <time>2021-01-02T13:40:49.000Z</time>
      </trkpt>
      <trkpt lat="46.3637" lon="5.01466">
        <ele>207</ele>
        <time>2021-01-02T13:40:50.000Z</time>
      </trkpt>
      <trkpt lat="46.3637" lon="5.01466">
        <ele>207</ele>
        <time>2021-01-02T13:40:51.000Z</time>
      </trkpt>
      <trkpt lat="46.3637" lon="5.01466">
        <ele>208</ele>
        <time>2021-01-02T13:40:52.000Z</time>
      </trkpt>
      <trkpt lat="46.3637" lon="5.01466">
        <ele>208</ele>
        <time>2021-01-02T13:40:53.000Z</time>
      </trkpt>
      <trkpt lat="46.3637" lon="5.01466">
        <ele>208</ele>
        <time>2021-01-02T13:40:54.000Z</time>
      </trkpt>
      <trkpt lat="46.3637" lon="5.01466">
        <ele>208</ele>
        <time>2021-01-02T13:40:55.000Z</time>
      </trkpt>
      <trkpt lat="46.3637" lon="5.01466">
        <ele>208</ele>
        <time>2021-01-02T13:40:56.000Z</time>
      </trkpt>
      <trkpt lat="46.3637" lon="5.01466">
        <ele>208</ele>
        <time>2021-01-02T13:40:57.000Z</time>
      </trkpt>
      <trkpt lat="46.3637" lon="5.01466">
        <ele>208</ele>
        <time>2021-01-02T13:40:58.000Z</time>
      </trkpt>
      <trkpt lat="46.3637" lon="5.01466">
        <ele>208</ele>
        <time>2021-01-02T13:40:59.000Z</time>
      </trkpt>
      <trkpt lat="46.3637" lon="5.01466">
        <ele>208</ele>
        <time>2021-01-02T13:41:00.000Z</time>
      </trkpt>
      <trkpt lat="46.3637" lon="5.01466">
        <ele>208</ele>
        <time>2021-01-02T13:41:01.000Z</time>
      </trkpt>
      <trkpt lat="46.3637" lon="5.01466">
        <ele>208</ele>
        <time>2021-01-02T13:41:02.000Z</time>
      </trkpt>
      <trkpt lat="46.3637" lon="5.01466">
        <ele>208</ele>
        <time>2021-01-02T13:41:03.000Z</time>
      </trkpt>
      <trkpt lat="46.3637" lon="5.01466">
        <ele>208</ele>
        <time>2021-01-02T13:41:04.000Z</time>
      </trkpt>
      <trkpt lat="46.3637" lon="5.01466">
        <ele>208</ele>
        <time>2021-01-02T13:41:05.000Z</time>
      </trkpt>
      <trkpt lat="46.3637" lon="5.01466">
        <ele>208</ele>
        <time>2021-01-02T13:41:06.000Z</time>
      </trkpt>
      <trkpt lat="46.3637" lon="5.01465">
        <ele>208</ele>
        <time>2021-01-02T13:41:07.000Z</time>
      </trkpt>
      <trkpt lat="46.3637" lon="5.01464">
        <ele>207</ele>
        <time>2021-01-02T13:41:08.000Z</time>
      </trkpt>
      <trkpt lat="46.3637" lon="5.01463">
        <ele>207</ele>
        <time>2021-01-02T13:41:09.000Z</time>
      </trkpt>
      <trkpt lat="46.3637" lon="5.01463">
        <ele>207</ele>
        <time>2021-01-02T13:41:10.000Z</time>
      </trkpt>
      <trkpt lat="46.3637" lon="5.01463">
        <ele>208</ele>
        <time>2021-01-02T13:41:11.000Z</time>
      </trkpt>
      <trkpt lat="46.3637" lon="5.01462">
        <ele>208</ele>
        <time>2021-01-02T13:41:12.000Z</time>
      </trkpt>
      <trkpt lat="46.3637" lon="5.01461">
        <ele>208</ele>
        <time>2021-01-02T13:41:13.000Z</time>
      </trkpt>
      <trkpt lat="46.3637" lon="5.01459">
        <ele>208</ele>
        <time>2021-01-02T13:41:14.000Z</time>
      </trkpt>
      <trkpt lat="46.3637" lon="5.01456">
        <ele>208</ele>
        <time>2021-01-02T13:41:15.000Z</time>
      </trkpt>
      <trkpt lat="46.3637" lon="5.01453">
        <ele>208</ele>
        <time>2021-01-02T13:41:16.000Z</time>
      </trkpt>
      <trkpt lat="46.3637" lon="5.01449">
        <ele>208</ele>
        <time>2021-01-02T13:41:17.000Z</time>
      </trkpt>
      <trkpt lat="46.3637" lon="5.01445">
        <ele>208</ele>
        <time>2021-01-02T13:41:18.000Z</time>
      </trkpt>
      <trkpt lat="46.3637" lon="5.01441">
        <ele>208</ele>
        <time>2021-01-02T13:41:19.000Z</time>
      </trkpt>
      <trkpt lat="46.36369" lon="5.01436">
        <ele>208</ele>
        <time>2021-01-02T13:41:20.000Z</time>
      </trkpt>
      <trkpt lat="46.36368" lon="5.0143">
        <ele>208</ele>
        <time>2021-01-02T13:41:21.000Z</time>
      </trkpt>
      <trkpt lat="46.36368" lon="5.01423">
        <ele>207</ele>
        <time>2021-01-02T13:41:22.000Z</time>
      </trkpt>
      <trkpt lat="46.36366" lon="5.01415">
        <ele>207</ele>
        <time>2021-01-02T13:41:23.000Z</time>
      </trkpt>
      <trkpt lat="46.36365" lon="5.01406">
        <ele>207</ele>
        <time>2021-01-02T13:41:24.000Z</time>
      </trkpt>
      <trkpt lat="46.36363" lon="5.01398">
        <ele>206</ele>
        <time>2021-01-02T13:41:25.000Z</time>
      </trkpt>
      <trkpt lat="46.36361" lon="5.0139">
        <ele>206</ele>
        <time>2021-01-02T13:41:26.000Z</time>
      </trkpt>
      <trkpt lat="46.3636" lon="5.01382">
        <ele>206</ele>
        <time>2021-01-02T13:41:27.000Z</time>
      </trkpt>
      <trkpt lat="46.36358" lon="5.01373">
        <ele>206</ele>
        <time>2021-01-02T13:41:28.000Z</time>
      </trkpt>
      <trkpt lat="46.36356" lon="5.01365">
        <ele>205</ele>
        <time>2021-01-02T13:41:29.000Z</time>
      </trkpt>
      <trkpt lat="46.36353" lon="5.01356">
        <ele>205</ele>
        <time>2021-01-02T13:41:30.000Z</time>
      </trkpt>
      <trkpt lat="46.36351" lon="5.01347">
        <ele>205</ele>
        <time>2021-01-02T13:41:31.000Z</time>
      </trkpt>
      <trkpt lat="46.36349" lon="5.01338">
        <ele>204</ele>
        <time>2021-01-02T13:41:32.000Z</time>
      </trkpt>
      <trkpt lat="46.36347" lon="5.01329">
        <ele>204</ele>
        <time>2021-01-02T13:41:33.000Z</time>
      </trkpt>
      <trkpt lat="46.36345" lon="5.0132">
        <ele>204</ele>
        <time>2021-01-02T13:41:34.000Z</time>
      </trkpt>
      <trkpt lat="46.36343" lon="5.01311">
        <ele>203</ele>
        <time>2021-01-02T13:41:35.000Z</time>
      </trkpt>
      <trkpt lat="46.36341" lon="5.01302">
        <ele>203</ele>
        <time>2021-01-02T13:41:36.000Z</time>
      </trkpt>
      <trkpt lat="46.3634" lon="5.01294">
        <ele>202</ele>
        <time>2021-01-02T13:41:37.000Z</time>
      </trkpt>
      <trkpt lat="46.36338" lon="5.01286">
        <ele>202</ele>
        <time>2021-01-02T13:41:38.000Z</time>
      </trkpt>
      <trkpt lat="46.36337" lon="5.01279">
        <ele>202</ele>
        <time>2021-01-02T13:41:39.000Z</time>
      </trkpt>
      <trkpt lat="46.36335" lon="5.01275">
        <ele>202</ele>
        <time>2021-01-02T13:41:40.000Z</time>
      </trkpt>
      <trkpt lat="46.36334" lon="5.01273">
        <ele>201</ele>
        <time>2021-01-02T13:41:41.000Z</time>
      </trkpt>
      <trkpt lat="46.36333" lon="5.0127">
        <ele>201</ele>
        <time>2021-01-02T13:41:42.000Z</time>
      </trkpt>
      <trkpt lat="46.36333" lon="5.01268">
        <ele>201</ele>
        <time>2021-01-02T13:41:43.000Z</time>
      </trkpt>
      <trkpt lat="46.36332" lon="5.01265">
        <ele>201</ele>
        <time>2021-01-02T13:41:44.000Z</time>
      </trkpt>
      <trkpt lat="46.36332" lon="5.01263">
        <ele>201</ele>
        <time>2021-01-02T13:41:45.000Z</time>
      </trkpt>
      <trkpt lat="46.36331" lon="5.0126">
        <ele>201</ele>
        <time>2021-01-02T13:41:46.000Z</time>
      </trkpt>
      <trkpt lat="46.3633" lon="5.01258">
        <ele>201</ele>
        <time>2021-01-02T13:41:47.000Z</time>
      </trkpt>
      <trkpt lat="46.36329" lon="5.01255">
        <ele>201</ele>
        <time>2021-01-02T13:41:48.000Z</time>
      </trkpt>
      <trkpt lat="46.36328" lon="5.01253">
        <ele>201</ele>
        <time>2021-01-02T13:41:49.000Z</time>
      </trkpt>
      <trkpt lat="46.36327" lon="5.01251">
        <ele>201</ele>
        <time>2021-01-02T13:41:50.000Z</time>
      </trkpt>
      <trkpt lat="46.36325" lon="5.0125">
        <ele>201</ele>
        <time>2021-01-02T13:41:51.000Z</time>
      </trkpt>
      <trkpt lat="46.36323" lon="5.01248">
        <ele>201</ele>
        <time>2021-01-02T13:41:52.000Z</time>
      </trkpt>
      <trkpt lat="46.36322" lon="5.01247">
        <ele>201</ele>
        <time>2021-01-02T13:41:53.000Z</time>
      </trkpt>
      <trkpt lat="46.3632" lon="5.01246">
        <ele>201</ele>
        <time>2021-01-02T13:41:54.000Z</time>
      </trkpt>
      <trkpt lat="46.36318" lon="5.01245">
        <ele>201</ele>
        <time>2021-01-02T13:41:55.000Z</time>
      </trkpt>
      <trkpt lat="46.36316" lon="5.01244">
        <ele>201</ele>
        <time>2021-01-02T13:41:56.000Z</time>
      </trkpt>
      <trkpt lat="46.36315" lon="5.01243">
        <ele>201</ele>
        <time>2021-01-02T13:41:57.000Z</time>
      </trkpt>
      <trkpt lat="46.36313" lon="5.01242">
        <ele>201</ele>
        <time>2021-01-02T13:41:58.000Z</time>
      </trkpt>
      <trkpt lat="46.36312" lon="5.01242">
        <ele>201</ele>
        <time>2021-01-02T13:41:59.000Z</time>
      </trkpt>
      <trkpt lat="46.3631" lon="5.01241">
        <ele>201</ele>
        <time>2021-01-02T13:42:00.000Z</time>
      </trkpt>
      <trkpt lat="46.36308" lon="5.0124">
        <ele>201</ele>
        <time>2021-01-02T13:42:01.000Z</time>
      </trkpt>
      <trkpt lat="46.36306" lon="5.01238">
        <ele>201</ele>
        <time>2021-01-02T13:42:02.000Z</time>
      </trkpt>
      <trkpt lat="46.36305" lon="5.01237">
        <ele>201</ele>
        <time>2021-01-02T13:42:03.000Z</time>
      </trkpt>
      <trkpt lat="46.36304" lon="5.01235">
        <ele>201</ele>
        <time>2021-01-02T13:42:04.000Z</time>
      </trkpt>
      <trkpt lat="46.36304" lon="5.01233">
        <ele>201</ele>
        <time>2021-01-02T13:42:05.000Z</time>
      </trkpt>
      <trkpt lat="46.36304" lon="5.01231">
        <ele>200</ele>
        <time>2021-01-02T13:42:06.000Z</time>
      </trkpt>
      <trkpt lat="46.36304" lon="5.01228">
        <ele>200</ele>
        <time>2021-01-02T13:42:07.000Z</time>
      </trkpt>
      <trkpt lat="46.36304" lon="5.01226">
        <ele>201</ele>
        <time>2021-01-02T13:42:08.000Z</time>
      </trkpt>
      <trkpt lat="46.36304" lon="5.01224">
        <ele>201</ele>
        <time>2021-01-02T13:42:09.000Z</time>
      </trkpt>
      <trkpt lat="46.36304" lon="5.01221">
        <ele>201</ele>
        <time>2021-01-02T13:42:10.000Z</time>
      </trkpt>
      <trkpt lat="46.36304" lon="5.01219">
        <ele>201</ele>
        <time>2021-01-02T13:42:11.000Z</time>
      </trkpt>
      <trkpt lat="46.36304" lon="5.01217">
        <ele>201</ele>
        <time>2021-01-02T13:42:12.000Z</time>
      </trkpt>
      <trkpt lat="46.36304" lon="5.01215">
        <ele>201</ele>
        <time>2021-01-02T13:42:13.000Z</time>
      </trkpt>
      <trkpt lat="46.36304" lon="5.01212">
        <ele>201</ele>
        <time>2021-01-02T13:42:14.000Z</time>
      </trkpt>
      <trkpt lat="46.36305" lon="5.0121">
        <ele>201</ele>
        <time>2021-01-02T13:42:15.000Z</time>
      </trkpt>
      <trkpt lat="46.36305" lon="5.01208">
        <ele>201</ele>
        <time>2021-01-02T13:42:16.000Z</time>
      </trkpt>
      <trkpt lat="46.36305" lon="5.01205">
        <ele>201</ele>
        <time>2021-01-02T13:42:17.000Z</time>
      </trkpt>
      <trkpt lat="46.36305" lon="5.01203">
        <ele>201</ele>
        <time>2021-01-02T13:42:18.000Z</time>
      </trkpt>
      <trkpt lat="46.36305" lon="5.01201">
        <ele>201</ele>
        <time>2021-01-02T13:42:19.000Z</time>
      </trkpt>
      <trkpt lat="46.36305" lon="5.01198">
        <ele>201</ele>
        <time>2021-01-02T13:42:20.000Z</time>
      </trkpt>
      <trkpt lat="46.36306" lon="5.01196">
        <ele>201</ele>
        <time>2021-01-02T13:42:21.000Z</time>
      </trkpt>
      <trkpt lat="46.36306" lon="5.01194">
        <ele>201</ele>
        <time>2021-01-02T13:42:22.000Z</time>
      </trkpt>
      <trkpt lat="46.36306" lon="5.01191">
        <ele>201</ele>
        <time>2021-01-02T13:42:23.000Z</time>
      </trkpt>
      <trkpt lat="46.36306" lon="5.01189">
        <ele>202</ele>
        <time>2021-01-02T13:42:24.000Z</time>
      </trkpt>
      <trkpt lat="46.36307" lon="5.01187">
        <ele>202</ele>
        <time>2021-01-02T13:42:25.000Z</time>
      </trkpt>
      <trkpt lat="46.36307" lon="5.01185">
        <ele>202</ele>
        <time>2021-01-02T13:42:26.000Z</time>
      </trkpt>
      <trkpt lat="46.36307" lon="5.01183">
        <ele>202</ele>
        <time>2021-01-02T13:42:27.000Z</time>
      </trkpt>
      <trkpt lat="46.36307" lon="5.01181">
        <ele>202</ele>
        <time>2021-01-02T13:42:28.000Z</time>
      </trkpt>
      <trkpt lat="46.36307" lon="5.01179">
        <ele>202</ele>
        <time>2021-01-02T13:42:29.000Z</time>
      </trkpt>
      <trkpt lat="46.36307" lon="5.01177">
        <ele>202</ele>
        <time>2021-01-02T13:42:30.000Z</time>
      </trkpt>
      <trkpt lat="46.36308" lon="5.01175">
        <ele>202</ele>
        <time>2021-01-02T13:42:31.000Z</time>
      </trkpt>
      <trkpt lat="46.36308" lon="5.01173">
        <ele>202</ele>
        <time>2021-01-02T13:42:32.000Z</time>
      </trkpt>
      <trkpt lat="46.36308" lon="5.01171">
        <ele>203</ele>
        <time>2021-01-02T13:42:33.000Z</time>
      </trkpt>
      <trkpt lat="46.36308" lon="5.01169">
        <ele>203</ele>
        <time>2021-01-02T13:42:34.000Z</time>
      </trkpt>
      <trkpt lat="46.36308" lon="5.01167">
        <ele>203</ele>
        <time>2021-01-02T13:42:35.000Z</time>
      </trkpt>
      <trkpt lat="46.36309" lon="5.01165">
        <ele>203</ele>
        <time>2021-01-02T13:42:36.000Z</time>
      </trkpt>
      <trkpt lat="46.36309" lon="5.01163">
        <ele>203</ele>
        <time>2021-01-02T13:42:37.000Z</time>
      </trkpt>
      <trkpt lat="46.36309" lon="5.01161">
        <ele>204</ele>
        <time>2021-01-02T13:42:38.000Z</time>
      </trkpt>
      <trkpt lat="46.36309" lon="5.01159">
        <ele>204</ele>
        <time>2021-01-02T13:42:39.000Z</time>
      </trkpt>
      <trkpt lat="46.36309" lon="5.01157">
        <ele>204</ele>
        <time>2021-01-02T13:42:40.000Z</time>
      </trkpt>
      <trkpt lat="46.36309" lon="5.01155">
        <ele>204</ele>
        <time>2021-01-02T13:42:41.000Z</time>
      </trkpt>
      <trkpt lat="46.36309" lon="5.01153">
        <ele>204</ele>
        <time>2021-01-02T13:42:42.000Z</time>
      </trkpt>
      <trkpt lat="46.36309" lon="5.01151">
        <ele>205</ele>
        <time>2021-01-02T13:42:43.000Z</time>
      </trkpt>
      <trkpt lat="46.36309" lon="5.01149">
        <ele>205</ele>
        <time>2021-01-02T13:42:44.000Z</time>
      </trkpt>
      <trkpt lat="46.3631" lon="5.01147">
        <ele>205</ele>
        <time>2021-01-02T13:42:45.000Z</time>
      </trkpt>
      <trkpt lat="46.3631" lon="5.01145">
        <ele>205</ele>
        <time>2021-01-02T13:42:46.000Z</time>
      </trkpt>
      <trkpt lat="46.3631" lon="5.01143">
        <ele>205</ele>
        <time>2021-01-02T13:42:47.000Z</time>
      </trkpt>
      <trkpt lat="46.3631" lon="5.01141">
        <ele>205</ele>
        <time>2021-01-02T13:42:48.000Z</time>
      </trkpt>
      <trkpt lat="46.3631" lon="5.01139">
        <ele>205</ele>
        <time>2021-01-02T13:42:49.000Z</time>
      </trkpt>
      <trkpt lat="46.3631" lon="5.01137">
        <ele>206</ele>
        <time>2021-01-02T13:42:50.000Z</time>
      </trkpt>
      <trkpt lat="46.36311" lon="5.01135">
        <ele>206</ele>
        <time>2021-01-02T13:42:51.000Z</time>
      </trkpt>
      <trkpt lat="46.36311" lon="5.01133">
        <ele>206</ele>
        <time>2021-01-02T13:42:52.000Z</time>
      </trkpt>
      <trkpt lat="46.36311" lon="5.0113">
        <ele>206</ele>
        <time>2021-01-02T13:42:53.000Z</time>
      </trkpt>
      <trkpt lat="46.36311" lon="5.01129">
        <ele>206</ele>
        <time>2021-01-02T13:42:54.000Z</time>
      </trkpt>
      <trkpt lat="46.36311" lon="5.01127">
        <ele>207</ele>
        <time>2021-01-02T13:42:55.000Z</time>
      </trkpt>
      <trkpt lat="46.36311" lon="5.01125">
        <ele>207</ele>
        <time>2021-01-02T13:42:56.000Z</time>
      </trkpt>
      <trkpt lat="46.36311" lon="5.01123">
        <ele>207</ele>
        <time>2021-01-02T13:42:57.000Z</time>
      </trkpt>
      <trkpt lat="46.36311" lon="5.01121">
        <ele>207</ele>
        <time>2021-01-02T13:42:58.000Z</time>
      </trkpt>
      <trkpt lat="46.36312" lon="5.01119">
        <ele>207</ele>
        <time>2021-01-02T13:42:59.000Z</time>
      </trkpt>
      <trkpt lat="46.36312" lon="5.01116">
        <ele>207</ele>
        <time>2021-01-02T13:43:00.000Z</time>
      </trkpt>
      <trkpt lat="46.36312" lon="5.01114">
        <ele>208</ele>
        <time>2021-01-02T13:43:01.000Z</time>
      </trkpt>
      <trkpt lat="46.36312" lon="5.01112">
        <ele>208</ele>
        <time>2021-01-02T13:43:02.000Z</time>
      </trkpt>
      <trkpt lat="46.36312" lon="5.0111">
        <ele>208</ele>
        <time>2021-01-02T13:43:03.000Z</time>
      </trkpt>
      <trkpt lat="46.36313" lon="5.01109">
        <ele>208</ele>
        <time>2021-01-02T13:43:04.000Z</time>
      </trkpt>
      <trkpt lat="46.36313" lon="5.01107">
        <ele>208</ele>
        <time>2021-01-02T13:43:05.000Z</time>
      </trkpt>
      <trkpt lat="46.36313" lon="5.01105">
        <ele>209</ele>
        <time>2021-01-02T13:43:06.000Z</time>
      </trkpt>
      <trkpt lat="46.36313" lon="5.01103">
        <ele>209</ele>
        <time>2021-01-02T13:43:07.000Z</time>
      </trkpt>
      <trkpt lat="46.36313" lon="5.01101">
        <ele>209</ele>
        <time>2021-01-02T13:43:08.000Z</time>
      </trkpt>
      <trkpt lat="46.36313" lon="5.01099">
        <ele>210</ele>
        <time>2021-01-02T13:43:09.000Z</time>
      </trkpt>
      <trkpt lat="46.36313" lon="5.01098">
        <ele>210</ele>
        <time>2021-01-02T13:43:10.000Z</time>
      </trkpt>
      <trkpt lat="46.36313" lon="5.01096">
        <ele>210</ele>
        <time>2021-01-02T13:43:11.000Z</time>
      </trkpt>
      <trkpt lat="46.36313" lon="5.01095">
        <ele>210</ele>
        <time>2021-01-02T13:43:12.000Z</time>
      </trkpt>
      <trkpt lat="46.36313" lon="5.01094">
        <ele>210</ele>
        <time>2021-01-02T13:43:13.000Z</time>
      </trkpt>
      <trkpt lat="46.36313" lon="5.01094">
        <ele>211</ele>
        <time>2021-01-02T13:43:14.000Z</time>
      </trkpt>
      <trkpt lat="46.36313" lon="5.01094">
        <ele>211</ele>
        <time>2021-01-02T13:43:15.000Z</time>
      </trkpt>
      <trkpt lat="46.36312" lon="5.01094">
        <ele>211</ele>
        <time>2021-01-02T13:43:16.000Z</time>
      </trkpt>
      <trkpt lat="46.36312" lon="5.01094">
        <ele>211</ele>
        <time>2021-01-02T13:43:17.000Z</time>
      </trkpt>
      <trkpt lat="46.36312" lon="5.01094">
        <ele>211</ele>
        <time>2021-01-02T13:43:18.000Z</time>
      </trkpt>
      <trkpt lat="46.36312" lon="5.01094">
        <ele>211</ele>
        <time>2021-01-02T13:43:19.000Z</time>
      </trkpt>
      <trkpt lat="46.36312" lon="5.01094">
        <ele>211</ele>
        <time>2021-01-02T13:43:20.000Z</time>
      </trkpt>
      <trkpt lat="46.36312" lon="5.01094">
        <ele>211</ele>
        <time>2021-01-02T13:43:21.000Z</time>
      </trkpt>
      <trkpt lat="46.36312" lon="5.01094">
        <ele>211</ele>
        <time>2021-01-02T13:43:22.000Z</time>
      </trkpt>
      <trkpt lat="46.36312" lon="5.01094">
        <ele>211</ele>
        <time>2021-01-02T13:43:23.000Z</time>
      </trkpt>
      <trkpt lat="46.36312" lon="5.01094">
        <ele>211</ele>
        <time>2021-01-02T13:43:24.000Z</time>
      </trkpt>
      <trkpt lat="46.36312" lon="5.01094">
        <ele>211</ele>
        <time>2021-01-02T13:43:25.000Z</time>
      </trkpt>
      <trkpt lat="46.36312" lon="5.01094">
        <ele>212</ele>
        <time>2021-01-02T13:43:26.000Z</time>
      </trkpt>
      <trkpt lat="46.36312" lon="5.01094">
        <ele>212</ele>
        <time>2021-01-02T13:43:27.000Z</time>
      </trkpt>
      <trkpt lat="46.36312" lon="5.01094">
        <ele>212</ele>
        <time>2021-01-02T13:43:28.000Z</time>
      </trkpt>
      <trkpt lat="46.36312" lon="5.01094">
        <ele>212</ele>
        <time>2021-01-02T13:43:29.000Z</time>
      </trkpt>
      <trkpt lat="46.36312" lon="5.01094">
        <ele>212</ele>
        <time>2021-01-02T13:43:30.000Z</time>
      </trkpt>
      <trkpt lat="46.36312" lon="5.01094">
        <ele>212</ele>
        <time>2021-01-02T13:43:31.000Z</time>
      </trkpt>
      <trkpt lat="46.36312" lon="5.01094">
        <ele>212</ele>
        <time>2021-01-02T13:43:32.000Z</time>
      </trkpt>
      <trkpt lat="46.36312" lon="5.01094">
        <ele>212</ele>
        <time>2021-01-02T13:43:33.000Z</time>
      </trkpt>
      <trkpt lat="46.36312" lon="5.01094">
        <ele>212</ele>
        <time>2021-01-02T13:43:34.000Z</time>
      </trkpt>
      <trkpt lat="46.36311" lon="5.01094">
        <ele>212</ele>
        <time>2021-01-02T13:43:35.000Z</time>
      </trkpt>
      <trkpt lat="46.36311" lon="5.01094">
        <ele>212</ele>
        <time>2021-01-02T13:43:36.000Z</time>
      </trkpt>
      <trkpt lat="46.36311" lon="5.01094">
        <ele>212</ele>
        <time>2021-01-02T13:43:37.000Z</time>
      </trkpt>
      <trkpt lat="46.36311" lon="5.01094">
        <ele>212</ele>
        <time>2021-01-02T13:43:38.000Z</time>
      </trkpt>
      <trkpt lat="46.36311" lon="5.01094">
        <ele>212</ele>
        <time>2021-01-02T13:43:39.000Z</time>
      </trkpt>
      <trkpt lat="46.36311" lon="5.01094">
        <ele>212</ele>
        <time>2021-01-02T13:43:40.000Z</time>
      </trkpt>
      <trkpt lat="46.36311" lon="5.01094">
        <ele>212</ele>
        <time>2021-01-02T13:43:41.000Z</time>
      </trkpt>
      <trkpt lat="46.36311" lon="5.01094">
        <ele>212</ele>
        <time>2021-01-02T13:43:42.000Z</time>
      </trkpt>
      <trkpt lat="46.36311" lon="5.01094">
        <ele>212</ele>
        <time>2021-01-02T13:43:43.000Z</time>
      </trkpt>
      <trkpt lat="46.36311" lon="5.01094">
        <ele>212</ele>
        <time>2021-01-02T13:43:44.000Z</time>
      </trkpt>
      <trkpt lat="46.36311" lon="5.01094">
        <ele>212</ele>
        <time>2021-01-02T13:43:45.000Z</time>
      </trkpt>
      <trkpt lat="46.36311" lon="5.01094">
        <ele>212</ele>
        <time>2021-01-02T13:43:46.000Z</time>
      </trkpt>
      <trkpt lat="46.36311" lon="5.01094">
        <ele>212</ele>
        <time>2021-01-02T13:43:47.000Z</time>
      </trkpt>
      <trkpt lat="46.36311" lon="5.01094">
        <ele>212</ele>
        <time>2021-01-02T13:43:48.000Z</time>
      </trkpt>
      <trkpt lat="46.36311" lon="5.01094">
        <ele>212</ele>
        <time>2021-01-02T13:43:49.000Z</time>
      </trkpt>
      <trkpt lat="46.36311" lon="5.01094">
        <ele>212</ele>
        <time>2021-01-02T13:43:50.000Z</time>
      </trkpt>
      <trkpt lat="46.36311" lon="5.01094">
        <ele>212</ele>
        <time>2021-01-02T13:43:51.000Z</time>
      </trkpt>
      <trkpt lat="46.36311" lon="5.01094">
        <ele>212</ele>
        <time>2021-01-02T13:43:52.000Z</time>
      </trkpt>
      <trkpt lat="46.36311" lon="5.01094">
        <ele>212</ele>
        <time>2021-01-02T13:43:53.000Z</time>
      </trkpt>
      <trkpt lat="46.36311" lon="5.01094">
        <ele>212</ele>
        <time>2021-01-02T13:43:54.000Z</time>
      </trkpt>
      <trkpt lat="46.36311" lon="5.01094">
        <ele>212</ele>
        <time>2021-01-02T13:43:55.000Z</time>
      </trkpt>
      <trkpt lat="46.36311" lon="5.01094">
        <ele>212</ele>
        <time>2021-01-02T13:43:56.000Z</time>
      </trkpt>
      <trkpt lat="46.36311" lon="5.01094">
        <ele>212</ele>
        <time>2021-01-02T13:43:57.000Z</time>
      </trkpt>
      <trkpt lat="46.36311" lon="5.01094">
        <ele>212</ele>
        <time>2021-01-02T13:43:58.000Z</time>
      </trkpt>
      <trkpt lat="46.36311" lon="5.01094">
        <ele>212</ele>
        <time>2021-01-02T13:43:59.000Z</time>
      </trkpt>
      <trkpt lat="46.36311" lon="5.01094">
        <ele>212</ele>
        <time>2021-01-02T13:44:00.000Z</time>
      </trkpt>
      <trkpt lat="46.36311" lon="5.01094">
        <ele>212</ele>
        <time>2021-01-02T13:44:01.000Z</time>
      </trkpt>
      <trkpt lat="46.36311" lon="5.01094">
        <ele>212</ele>
        <time>2021-01-02T13:44:02.000Z</time>
      </trkpt>
      <trkpt lat="46.36311" lon="5.01094">
        <ele>212</ele>
        <time>2021-01-02T13:44:03.000Z</time>
      </trkpt>
      <trkpt lat="46.36311" lon="5.01094">
        <ele>212</ele>
        <time>2021-01-02T13:44:04.000Z</time>
      </trkpt>
      <trkpt lat="46.36311" lon="5.01094">
        <ele>212</ele>
        <time>2021-01-02T13:44:05.000Z</time>
      </trkpt>
      <trkpt lat="46.36311" lon="5.01094">
        <ele>212</ele>
        <time>2021-01-02T13:44:06.000Z</time>
      </trkpt>
      <trkpt lat="46.36311" lon="5.01093">
        <ele>212</ele>
        <time>2021-01-02T13:44:07.000Z</time>
      </trkpt>
      <trkpt lat="46.36311" lon="5.01093">
        <ele>212</ele>
        <time>2021-01-02T13:44:08.000Z</time>
      </trkpt>
      <trkpt lat="46.36311" lon="5.01093">
        <ele>212</ele>
        <time>2021-01-02T13:44:09.000Z</time>
      </trkpt>
      <trkpt lat="46.36311" lon="5.01093">
        <ele>212</ele>
        <time>2021-01-02T13:44:10.000Z</time>
      </trkpt>
      <trkpt lat="46.36311" lon="5.01093">
        <ele>212</ele>
        <time>2021-01-02T13:44:11.000Z</time>
      </trkpt>
      <trkpt lat="46.36311" lon="5.01093">
        <ele>212</ele>
        <time>2021-01-02T13:44:12.000Z</time>
      </trkpt>
      <trkpt lat="46.36311" lon="5.01093">
        <ele>212</ele>
        <time>2021-01-02T13:44:13.000Z</time>
      </trkpt>
      <trkpt lat="46.36311" lon="5.01093">
        <ele>212</ele>
        <time>2021-01-02T13:44:14.000Z</time>
      </trkpt>
      <trkpt lat="46.36311" lon="5.01093">
        <ele>212</ele>
        <time>2021-01-02T13:44:15.000Z</time>
      </trkpt>
      <trkpt lat="46.36311" lon="5.01093">
        <ele>212</ele>
        <time>2021-01-02T13:44:16.000Z</time>
      </trkpt>
      <trkpt lat="46.36311" lon="5.01093">
        <ele>212</ele>
        <time>2021-01-02T13:44:17.000Z</time>
      </trkpt>
      <trkpt lat="46.36311" lon="5.01093">
        <ele>212</ele>
        <time>2021-01-02T13:44:18.000Z</time>
      </trkpt>
      <trkpt lat="46.36311" lon="5.01093">
        <ele>212</ele>
        <time>2021-01-02T13:44:19.000Z</time>
      </trkpt>
      <trkpt lat="46.36311" lon="5.01093">
        <ele>212</ele>
        <time>2021-01-02T13:44:20.000Z</time>
      </trkpt>
      <trkpt lat="46.36311" lon="5.01093">
        <ele>212</ele>
        <time>2021-01-02T13:44:21.000Z</time>
      </trkpt>
      <trkpt lat="46.36311" lon="5.01093">
        <ele>212</ele>
        <time>2021-01-02T13:44:22.000Z</time>
      </trkpt>
      <trkpt lat="46.36311" lon="5.01093">
        <ele>212</ele>
        <time>2021-01-02T13:44:23.000Z</time>
      </trkpt>
      <trkpt lat="46.36311" lon="5.01093">
        <ele>212</ele>
        <time>2021-01-02T13:44:24.000Z</time>
      </trkpt>
      <trkpt lat="46.36311" lon="5.01093">
        <ele>212</ele>
        <time>2021-01-02T13:44:25.000Z</time>
      </trkpt>
      <trkpt lat="46.36311" lon="5.01093">
        <ele>212</ele>
        <time>2021-01-02T13:44:26.000Z</time>
      </trkpt>
      <trkpt lat="46.36311" lon="5.01093">
        <ele>212</ele>
        <time>2021-01-02T13:44:27.000Z</time>
      </trkpt>
      <trkpt lat="46.36311" lon="5.01093">
        <ele>212</ele>
        <time>2021-01-02T13:44:28.000Z</time>
      </trkpt>
      <trkpt lat="46.36311" lon="5.01093">
        <ele>212</ele>
        <time>2021-01-02T13:44:29.000Z</time>
      </trkpt>
      <trkpt lat="46.36311" lon="5.01093">
        <ele>212</ele>
        <time>2021-01-02T13:44:30.000Z</time>
      </trkpt>
      <trkpt lat="46.36311" lon="5.01093">
        <ele>212</ele>
        <time>2021-01-02T13:44:31.000Z</time>
      </trkpt>
      <trkpt lat="46.36311" lon="5.01093">
        <ele>212</ele>
        <time>2021-01-02T13:44:32.000Z</time>
      </trkpt>
      <trkpt lat="46.36311" lon="5.01093">
        <ele>212</ele>
        <time>2021-01-02T13:44:33.000Z</time>
      </trkpt>
      <trkpt lat="46.36311" lon="5.01093">
        <ele>212</ele>
        <time>2021-01-02T13:44:34.000Z</time>
      </trkpt>
      <trkpt lat="46.36311" lon="5.01093">
        <ele>212</ele>
        <time>2021-01-02T13:44:35.000Z</time>
      </trkpt>
      <trkpt lat="46.36311" lon="5.01093">
        <ele>212</ele>
        <time>2021-01-02T13:44:36.000Z</time>
      </trkpt>
      <trkpt lat="46.36311" lon="5.01093">
        <ele>212</ele>
        <time>2021-01-02T13:44:37.000Z</time>
      </trkpt>
      <trkpt lat="46.36311" lon="5.01093">
        <ele>212</ele>
        <time>2021-01-02T13:44:38.000Z</time>
      </trkpt>
      <trkpt lat="46.36311" lon="5.01093">
        <ele>212</ele>
        <time>2021-01-02T13:44:39.000Z</time>
      </trkpt>
      <trkpt lat="46.36311" lon="5.01093">
        <ele>212</ele>
        <time>2021-01-02T13:44:40.000Z</time>
      </trkpt>
      <trkpt lat="46.36311" lon="5.01093">
        <ele>212</ele>
        <time>2021-01-02T13:44:41.000Z</time>
      </trkpt>
      <trkpt lat="46.36311" lon="5.01093">
        <ele>212</ele>
        <time>2021-01-02T13:44:42.000Z</time>
      </trkpt>
      <trkpt lat="46.36311" lon="5.01093">
        <ele>212</ele>
        <time>2021-01-02T13:44:43.000Z</time>
      </trkpt>
      <trkpt lat="46.36311" lon="5.01093">
        <ele>212</ele>
        <time>2021-01-02T13:44:44.000Z</time>
      </trkpt>
      <trkpt lat="46.36311" lon="5.01093">
        <ele>212</ele>
        <time>2021-01-02T13:44:45.000Z</time>
      </trkpt>
      <trkpt lat="46.36311" lon="5.01093">
        <ele>212</ele>
        <time>2021-01-02T13:44:46.000Z</time>
      </trkpt>
      <trkpt lat="46.36311" lon="5.01093">
        <ele>212</ele>
        <time>2021-01-02T13:44:47.000Z</time>
      </trkpt>
      <trkpt lat="46.36311" lon="5.01093">
        <ele>212</ele>
        <time>2021-01-02T13:44:48.000Z</time>
      </trkpt>
      <trkpt lat="46.36311" lon="5.01093">
        <ele>212</ele>
        <time>2021-01-02T13:44:49.000Z</time>
      </trkpt>
      <trkpt lat="46.36311" lon="5.01093">
        <ele>212</ele>
        <time>2021-01-02T13:44:50.000Z</time>
      </trkpt>
      <trkpt lat="46.36311" lon="5.01093">
        <ele>212</ele>
        <time>2021-01-02T13:44:51.000Z</time>
      </trkpt>
      <trkpt lat="46.36311" lon="5.01093">
        <ele>212</ele>
        <time>2021-01-02T13:44:52.000Z</time>
      </trkpt>
      <trkpt lat="46.3631" lon="5.01093">
        <ele>212</ele>
        <time>2021-01-02T13:44:53.000Z</time>
      </trkpt>
      <trkpt lat="46.3631" lon="5.01093">
        <ele>212</ele>
        <time>2021-01-02T13:44:54.000Z</time>
      </trkpt>
      <trkpt lat="46.3631" lon="5.01093">
        <ele>212</ele>
        <time>2021-01-02T13:44:55.000Z</time>
      </trkpt>
      <trkpt lat="46.3631" lon="5.01093">
        <ele>212</ele>
        <time>2021-01-02T13:44:56.000Z</time>
      </trkpt>
      <trkpt lat="46.3631" lon="5.01093">
        <ele>212</ele>
        <time>2021-01-02T13:44:57.000Z</time>
      </trkpt>
      <trkpt lat="46.3631" lon="5.01093">
        <ele>212</ele>
        <time>2021-01-02T13:44:58.000Z</time>
      </trkpt>
      <trkpt lat="46.3631" lon="5.01093">
        <ele>212</ele>
        <time>2021-01-02T13:44:59.000Z</time>
      </trkpt>
      <trkpt lat="46.36311" lon="5.01094">
        <ele>212</ele>
        <time>2021-01-02T13:45:00.000Z</time>
      </trkpt>
      <trkpt lat="46.36311" lon="5.01094">
        <ele>212</ele>
        <time>2021-01-02T13:45:01.000Z</time>
      </trkpt>
      <trkpt lat="46.36311" lon="5.01094">
        <ele>212</ele>
        <time>2021-01-02T13:45:02.000Z</time>
      </trkpt>
      <trkpt lat="46.3631" lon="5.01093">
        <ele>212</ele>
        <time>2021-01-02T13:45:03.000Z</time>
      </trkpt>
      <trkpt lat="46.3631" lon="5.01093">
        <ele>212</ele>
        <time>2021-01-02T13:45:04.000Z</time>
      </trkpt>
      <trkpt lat="46.3631" lon="5.01093">
        <ele>212</ele>
        <time>2021-01-02T13:45:05.000Z</time>
      </trkpt>
      <trkpt lat="46.3631" lon="5.01093">
        <ele>212</ele>
        <time>2021-01-02T13:45:06.000Z</time>
      </trkpt>
      <trkpt lat="46.3631" lon="5.01093">
        <ele>212</ele>
        <time>2021-01-02T13:45:07.000Z</time>
      </trkpt>
      <trkpt lat="46.3631" lon="5.01093">
        <ele>212</ele>
        <time>2021-01-02T13:45:08.000Z</time>
      </trkpt>
      <trkpt lat="46.3631" lon="5.01093">
        <ele>212</ele>
        <time>2021-01-02T13:45:09.000Z</time>
      </trkpt>
      <trkpt lat="46.3631" lon="5.01093">
        <ele>212</ele>
        <time>2021-01-02T13:45:10.000Z</time>
      </trkpt>
      <trkpt lat="46.3631" lon="5.01093">
        <ele>212</ele>
        <time>2021-01-02T13:45:11.000Z</time>
      </trkpt>
      <trkpt lat="46.3631" lon="5.01093">
        <ele>212</ele>
        <time>2021-01-02T13:45:12.000Z</time>
      </trkpt>
      <trkpt lat="46.3631" lon="5.01093">
        <ele>212</ele>
        <time>2021-01-02T13:45:13.000Z</time>
      </trkpt>
      <trkpt lat="46.3631" lon="5.01093">
        <ele>212</ele>
        <time>2021-01-02T13:45:14.000Z</time>
      </trkpt>
      <trkpt lat="46.3631" lon="5.01093">
        <ele>212</ele>
        <time>2021-01-02T13:45:15.000Z</time>
      </trkpt>
      <trkpt lat="46.3631" lon="5.01093">
        <ele>212</ele>
        <time>2021-01-02T13:45:16.000Z</time>
      </trkpt>
      <trkpt lat="46.3631" lon="5.01093">
        <ele>212</ele>
        <time>2021-01-02T13:45:17.000Z</time>
      </trkpt>
      <trkpt lat="46.3631" lon="5.01093">
        <ele>212</ele>
        <time>2021-01-02T13:45:18.000Z</time>
      </trkpt>
      <trkpt lat="46.3631" lon="5.01093">
        <ele>212</ele>
        <time>2021-01-02T13:45:19.000Z</time>
      </trkpt>
      <trkpt lat="46.3631" lon="5.01093">
        <ele>212</ele>
        <time>2021-01-02T13:45:20.000Z</time>
      </trkpt>
      <trkpt lat="46.3631" lon="5.01093">
        <ele>212</ele>
        <time>2021-01-02T13:45:21.000Z</time>
      </trkpt>
      <trkpt lat="46.3631" lon="5.01093">
        <ele>212</ele>
        <time>2021-01-02T13:45:22.000Z</time>
      </trkpt>
      <trkpt lat="46.3631" lon="5.01093">
        <ele>212</ele>
        <time>2021-01-02T13:45:23.000Z</time>
      </trkpt>
      <trkpt lat="46.3631" lon="5.01093">
        <ele>212</ele>
        <time>2021-01-02T13:45:24.000Z</time>
      </trkpt>
      <trkpt lat="46.3631" lon="5.01093">
        <ele>212</ele>
        <time>2021-01-02T13:45:25.000Z</time>
      </trkpt>
      <trkpt lat="46.3631" lon="5.01093">
        <ele>212</ele>
        <time>2021-01-02T13:45:26.000Z</time>
      </trkpt>
      <trkpt lat="46.3631" lon="5.01093">
        <ele>212</ele>
        <time>2021-01-02T13:45:27.000Z</time>
      </trkpt>
      <trkpt lat="46.3631" lon="5.01093">
        <ele>212</ele>
        <time>2021-01-02T13:45:28.000Z</time>
      </trkpt>
      <trkpt lat="46.3631" lon="5.01093">
        <ele>212</ele>
        <time>2021-01-02T13:45:29.000Z</time>
      </trkpt>
      <trkpt lat="46.3631" lon="5.01092">
        <ele>212</ele>
        <time>2021-01-02T13:45:30.000Z</time>
      </trkpt>
      <trkpt lat="46.3631" lon="5.01091">
        <ele>212</ele>
        <time>2021-01-02T13:45:31.000Z</time>
      </trkpt>
      <trkpt lat="46.3631" lon="5.0109">
        <ele>212</ele>
        <time>2021-01-02T13:45:32.000Z</time>
      </trkpt>
      <trkpt lat="46.3631" lon="5.01088">
        <ele>212</ele>
        <time>2021-01-02T13:45:33.000Z</time>
      </trkpt>
      <trkpt lat="46.3631" lon="5.01086">
        <ele>212</ele>
        <time>2021-01-02T13:45:34.000Z</time>
      </trkpt>
      <trkpt lat="46.3631" lon="5.01085">
        <ele>212</ele>
        <time>2021-01-02T13:45:35.000Z</time>
      </trkpt>
      <trkpt lat="46.36311" lon="5.01083">
        <ele>212</ele>
        <time>2021-01-02T13:45:36.000Z</time>
      </trkpt>
      <trkpt lat="46.36311" lon="5.01081">
        <ele>212</ele>
        <time>2021-01-02T13:45:37.000Z</time>
      </trkpt>
      <trkpt lat="46.36311" lon="5.01078">
        <ele>212</ele>
        <time>2021-01-02T13:45:38.000Z</time>
      </trkpt>
      <trkpt lat="46.36311" lon="5.01076">
        <ele>212</ele>
        <time>2021-01-02T13:45:39.000Z</time>
      </trkpt>
      <trkpt lat="46.36312" lon="5.01074">
        <ele>212</ele>
        <time>2021-01-02T13:45:40.000Z</time>
      </trkpt>
      <trkpt lat="46.36312" lon="5.01072">
        <ele>213</ele>
        <time>2021-01-02T13:45:41.000Z</time>
      </trkpt>
      <trkpt lat="46.36312" lon="5.01069">
        <ele>213</ele>
        <time>2021-01-02T13:45:42.000Z</time>
      </trkpt>
      <trkpt lat="46.36312" lon="5.01067">
        <ele>213</ele>
        <time>2021-01-02T13:45:43.000Z</time>
      </trkpt>
      <trkpt lat="46.36312" lon="5.01065">
        <ele>213</ele>
        <time>2021-01-02T13:45:44.000Z</time>
      </trkpt>
      <trkpt lat="46.36313" lon="5.01063">
        <ele>213</ele>
        <time>2021-01-02T13:45:45.000Z</time>
      </trkpt>
      <trkpt lat="46.36313" lon="5.0106">
        <ele>213</ele>
        <time>2021-01-02T13:45:46.000Z</time>
      </trkpt>
      <trkpt lat="46.36314" lon="5.01057">
        <ele>213</ele>
        <time>2021-01-02T13:45:47.000Z</time>
      </trkpt>
      <trkpt lat="46.36314" lon="5.01055">
        <ele>213</ele>
        <time>2021-01-02T13:45:48.000Z</time>
      </trkpt>
      <trkpt lat="46.36315" lon="5.01053">
        <ele>213</ele>
        <time>2021-01-02T13:45:49.000Z</time>
      </trkpt>
      <trkpt lat="46.36315" lon="5.01051">
        <ele>213</ele>
        <time>2021-01-02T13:45:50.000Z</time>
      </trkpt>
      <trkpt lat="46.36315" lon="5.01049">
        <ele>214</ele>
        <time>2021-01-02T13:45:51.000Z</time>
      </trkpt>
      <trkpt lat="46.36316" lon="5.01048">
        <ele>214</ele>
        <time>2021-01-02T13:45:52.000Z</time>
      </trkpt>
      <trkpt lat="46.36317" lon="5.01046">
        <ele>214</ele>
        <time>2021-01-02T13:45:53.000Z</time>
      </trkpt>
      <trkpt lat="46.36317" lon="5.01044">
        <ele>214</ele>
        <time>2021-01-02T13:45:54.000Z</time>
      </trkpt>
      <trkpt lat="46.36318" lon="5.01041">
        <ele>214</ele>
        <time>2021-01-02T13:45:55.000Z</time>
      </trkpt>
      <trkpt lat="46.36318" lon="5.01039">
        <ele>214</ele>
        <time>2021-01-02T13:45:56.000Z</time>
      </trkpt>
      <trkpt lat="46.36318" lon="5.01036">
        <ele>214</ele>
        <time>2021-01-02T13:45:57.000Z</time>
      </trkpt>
      <trkpt lat="46.36319" lon="5.01034">
        <ele>215</ele>
        <time>2021-01-02T13:45:58.000Z</time>
      </trkpt>
      <trkpt lat="46.36319" lon="5.01031">
        <ele>215</ele>
        <time>2021-01-02T13:45:59.000Z</time>
      </trkpt>
      <trkpt lat="46.3632" lon="5.01029">
        <ele>215</ele>
        <time>2021-01-02T13:46:00.000Z</time>
      </trkpt>
      <trkpt lat="46.36321" lon="5.01027">
        <ele>215</ele>
        <time>2021-01-02T13:46:01.000Z</time>
      </trkpt>
      <trkpt lat="46.36321" lon="5.01024">
        <ele>215</ele>
        <time>2021-01-02T13:46:02.000Z</time>
      </trkpt>
      <trkpt lat="46.36321" lon="5.01022">
        <ele>215</ele>
        <time>2021-01-02T13:46:03.000Z</time>
      </trkpt>
      <trkpt lat="46.36322" lon="5.01019">
        <ele>215</ele>
        <time>2021-01-02T13:46:04.000Z</time>
      </trkpt>
      <trkpt lat="46.36322" lon="5.01016">
        <ele>215</ele>
        <time>2021-01-02T13:46:05.000Z</time>
      </trkpt>
      <trkpt lat="46.36323" lon="5.01014">
        <ele>214</ele>
        <time>2021-01-02T13:46:06.000Z</time>
      </trkpt>
      <trkpt lat="46.36324" lon="5.01011">
        <ele>214</ele>
        <time>2021-01-02T13:46:07.000Z</time>
      </trkpt>
      <trkpt lat="46.36325" lon="5.01009">
        <ele>214</ele>
        <time>2021-01-02T13:46:08.000Z</time>
      </trkpt>
      <trkpt lat="46.36325" lon="5.01006">
        <ele>214</ele>
        <time>2021-01-02T13:46:09.000Z</time>
      </trkpt>
      <trkpt lat="46.36326" lon="5.01003">
        <ele>213</ele>
        <time>2021-01-02T13:46:10.000Z</time>
      </trkpt>
      <trkpt lat="46.36327" lon="5.01001">
        <ele>213</ele>
        <time>2021-01-02T13:46:11.000Z</time>
      </trkpt>
      <trkpt lat="46.36328" lon="5.00998">
        <ele>213</ele>
        <time>2021-01-02T13:46:12.000Z</time>
      </trkpt>
      <trkpt lat="46.36329" lon="5.00995">
        <ele>213</ele>
        <time>2021-01-02T13:46:13.000Z</time>
      </trkpt>
      <trkpt lat="46.36329" lon="5.00993">
        <ele>213</ele>
        <time>2021-01-02T13:46:14.000Z</time>
      </trkpt>
      <trkpt lat="46.3633" lon="5.0099">
        <ele>213</ele>
        <time>2021-01-02T13:46:15.000Z</time>
      </trkpt>
      <trkpt lat="46.36331" lon="5.00987">
        <ele>213</ele>
        <time>2021-01-02T13:46:16.000Z</time>
      </trkpt>
      <trkpt lat="46.36331" lon="5.00985">
        <ele>212</ele>
        <time>2021-01-02T13:46:17.000Z</time>
      </trkpt>
      <trkpt lat="46.36332" lon="5.00982">
        <ele>212</ele>
        <time>2021-01-02T13:46:18.000Z</time>
      </trkpt>
      <trkpt lat="46.36333" lon="5.00979">
        <ele>212</ele>
        <time>2021-01-02T13:46:19.000Z</time>
      </trkpt>
      <trkpt lat="46.36334" lon="5.00977">
        <ele>212</ele>
        <time>2021-01-02T13:46:20.000Z</time>
      </trkpt>
      <trkpt lat="46.36335" lon="5.00974">
        <ele>212</ele>
        <time>2021-01-02T13:46:21.000Z</time>
      </trkpt>
      <trkpt lat="46.36336" lon="5.00972">
        <ele>212</ele>
        <time>2021-01-02T13:46:22.000Z</time>
      </trkpt>
      <trkpt lat="46.36337" lon="5.00969">
        <ele>212</ele>
        <time>2021-01-02T13:46:23.000Z</time>
      </trkpt>
      <trkpt lat="46.36338" lon="5.00967">
        <ele>212</ele>
        <time>2021-01-02T13:46:24.000Z</time>
      </trkpt>
      <trkpt lat="46.36339" lon="5.00964">
        <ele>212</ele>
        <time>2021-01-02T13:46:25.000Z</time>
      </trkpt>
      <trkpt lat="46.3634" lon="5.00962">
        <ele>212</ele>
        <time>2021-01-02T13:46:26.000Z</time>
      </trkpt>
      <trkpt lat="46.3634" lon="5.00959">
        <ele>212</ele>
        <time>2021-01-02T13:46:27.000Z</time>
      </trkpt>
      <trkpt lat="46.36341" lon="5.00957">
        <ele>212</ele>
        <time>2021-01-02T13:46:28.000Z</time>
      </trkpt>
      <trkpt lat="46.36341" lon="5.00954">
        <ele>212</ele>
        <time>2021-01-02T13:46:29.000Z</time>
      </trkpt>
      <trkpt lat="46.36342" lon="5.00951">
        <ele>212</ele>
        <time>2021-01-02T13:46:30.000Z</time>
      </trkpt>
      <trkpt lat="46.36342" lon="5.00949">
        <ele>212</ele>
        <time>2021-01-02T13:46:31.000Z</time>
      </trkpt>
      <trkpt lat="46.36342" lon="5.00946">
        <ele>212</ele>
        <time>2021-01-02T13:46:32.000Z</time>
      </trkpt>
      <trkpt lat="46.36342" lon="5.00944">
        <ele>212</ele>
        <time>2021-01-02T13:46:33.000Z</time>
      </trkpt>
      <trkpt lat="46.36342" lon="5.00942">
        <ele>212</ele>
        <time>2021-01-02T13:46:34.000Z</time>
      </trkpt>
      <trkpt lat="46.36342" lon="5.00939">
        <ele>213</ele>
        <time>2021-01-02T13:46:35.000Z</time>
      </trkpt>
      <trkpt lat="46.36341" lon="5.00937">
        <ele>213</ele>
        <time>2021-01-02T13:46:36.000Z</time>
      </trkpt>
      <trkpt lat="46.36341" lon="5.00935">
        <ele>213</ele>
        <time>2021-01-02T13:46:37.000Z</time>
      </trkpt>
      <trkpt lat="46.36341" lon="5.00933">
        <ele>213</ele>
        <time>2021-01-02T13:46:38.000Z</time>
      </trkpt>
      <trkpt lat="46.36341" lon="5.00931">
        <ele>213</ele>
        <time>2021-01-02T13:46:39.000Z</time>
      </trkpt>
      <trkpt lat="46.36341" lon="5.00929">
        <ele>214</ele>
        <time>2021-01-02T13:46:40.000Z</time>
      </trkpt>
      <trkpt lat="46.36341" lon="5.00927">
        <ele>214</ele>
        <time>2021-01-02T13:46:41.000Z</time>
      </trkpt>
      <trkpt lat="46.36341" lon="5.00926">
        <ele>214</ele>
        <time>2021-01-02T13:46:42.000Z</time>
      </trkpt>
      <trkpt lat="46.36341" lon="5.00924">
        <ele>214</ele>
        <time>2021-01-02T13:46:43.000Z</time>
      </trkpt>
      <trkpt lat="46.36341" lon="5.00923">
        <ele>214</ele>
        <time>2021-01-02T13:46:44.000Z</time>
      </trkpt>
      <trkpt lat="46.3634" lon="5.00922">
        <ele>215</ele>
        <time>2021-01-02T13:46:45.000Z</time>
      </trkpt>
      <trkpt lat="46.3634" lon="5.0092">
        <ele>215</ele>
        <time>2021-01-02T13:46:46.000Z</time>
      </trkpt>
      <trkpt lat="46.3634" lon="5.00919">
        <ele>215</ele>
        <time>2021-01-02T13:46:47.000Z</time>
      </trkpt>
      <trkpt lat="46.3634" lon="5.00916">
        <ele>215</ele>
        <time>2021-01-02T13:46:48.000Z</time>
      </trkpt>
      <trkpt lat="46.36339" lon="5.00913">
        <ele>215</ele>
        <time>2021-01-02T13:46:49.000Z</time>
      </trkpt>
      <trkpt lat="46.36337" lon="5.00908">
        <ele>215</ele>
        <time>2021-01-02T13:46:50.000Z</time>
      </trkpt>
      <trkpt lat="46.36336" lon="5.00903">
        <ele>216</ele>
        <time>2021-01-02T13:46:51.000Z</time>
      </trkpt>
      <trkpt lat="46.36334" lon="5.00898">
        <ele>216</ele>
        <time>2021-01-02T13:46:52.000Z</time>
      </trkpt>
      <trkpt lat="46.36333" lon="5.00893">
        <ele>216</ele>
        <time>2021-01-02T13:46:53.000Z</time>
      </trkpt>
      <trkpt lat="46.36332" lon="5.00889">
        <ele>216</ele>
        <time>2021-01-02T13:46:54.000Z</time>
      </trkpt>
      <trkpt lat="46.36332" lon="5.00885">
        <ele>216</ele>
        <time>2021-01-02T13:46:55.000Z</time>
      </trkpt>
      <trkpt lat="46.36331" lon="5.00882">
        <ele>215</ele>
        <time>2021-01-02T13:46:56.000Z</time>
      </trkpt>
      <trkpt lat="46.36331" lon="5.00879">
        <ele>215</ele>
        <time>2021-01-02T13:46:57.000Z</time>
      </trkpt>
      <trkpt lat="46.36331" lon="5.00877">
        <ele>215</ele>
        <time>2021-01-02T13:46:58.000Z</time>
      </trkpt>
      <trkpt lat="46.36331" lon="5.00874">
        <ele>215</ele>
        <time>2021-01-02T13:46:59.000Z</time>
      </trkpt>
      <trkpt lat="46.36331" lon="5.00872">
        <ele>214</ele>
        <time>2021-01-02T13:47:00.000Z</time>
      </trkpt>
      <trkpt lat="46.36331" lon="5.0087">
        <ele>214</ele>
        <time>2021-01-02T13:47:01.000Z</time>
      </trkpt>
      <trkpt lat="46.36331" lon="5.00868">
        <ele>214</ele>
        <time>2021-01-02T13:47:02.000Z</time>
      </trkpt>
      <trkpt lat="46.36331" lon="5.00866">
        <ele>214</ele>
        <time>2021-01-02T13:47:03.000Z</time>
      </trkpt>
      <trkpt lat="46.36331" lon="5.00865">
        <ele>214</ele>
        <time>2021-01-02T13:47:04.000Z</time>
      </trkpt>
      <trkpt lat="46.36331" lon="5.00863">
        <ele>214</ele>
        <time>2021-01-02T13:47:05.000Z</time>
      </trkpt>
      <trkpt lat="46.36331" lon="5.00861">
        <ele>214</ele>
        <time>2021-01-02T13:47:06.000Z</time>
      </trkpt>
      <trkpt lat="46.3633" lon="5.00859">
        <ele>213</ele>
        <time>2021-01-02T13:47:07.000Z</time>
      </trkpt>
      <trkpt lat="46.3633" lon="5.00858">
        <ele>213</ele>
        <time>2021-01-02T13:47:08.000Z</time>
      </trkpt>
      <trkpt lat="46.36329" lon="5.00856">
        <ele>213</ele>
        <time>2021-01-02T13:47:09.000Z</time>
      </trkpt>
      <trkpt lat="46.3633" lon="5.00854">
        <ele>213</ele>
        <time>2021-01-02T13:47:10.000Z</time>
      </trkpt>
      <trkpt lat="46.3633" lon="5.00853">
        <ele>213</ele>
        <time>2021-01-02T13:47:11.000Z</time>
      </trkpt>
      <trkpt lat="46.3633" lon="5.00851">
        <ele>212</ele>
        <time>2021-01-02T13:47:12.000Z</time>
      </trkpt>
      <trkpt lat="46.3633" lon="5.00849">
        <ele>212</ele>
        <time>2021-01-02T13:47:13.000Z</time>
      </trkpt>
      <trkpt lat="46.3633" lon="5.00847">
        <ele>212</ele>
        <time>2021-01-02T13:47:14.000Z</time>
      </trkpt>
      <trkpt lat="46.3633" lon="5.00845">
        <ele>212</ele>
        <time>2021-01-02T13:47:15.000Z</time>
      </trkpt>
      <trkpt lat="46.36331" lon="5.00843">
        <ele>212</ele>
        <time>2021-01-02T13:47:16.000Z</time>
      </trkpt>
      <trkpt lat="46.36331" lon="5.00841">
        <ele>212</ele>
        <time>2021-01-02T13:47:17.000Z</time>
      </trkpt>
      <trkpt lat="46.36331" lon="5.0084">
        <ele>212</ele>
        <time>2021-01-02T13:47:18.000Z</time>
      </trkpt>
      <trkpt lat="46.36331" lon="5.00838">
        <ele>211</ele>
        <time>2021-01-02T13:47:19.000Z</time>
      </trkpt>
      <trkpt lat="46.36332" lon="5.00837">
        <ele>211</ele>
        <time>2021-01-02T13:47:20.000Z</time>
      </trkpt>
      <trkpt lat="46.36332" lon="5.00835">
        <ele>211</ele>
        <time>2021-01-02T13:47:21.000Z</time>
      </trkpt>
      <trkpt lat="46.36332" lon="5.00834">
        <ele>211</ele>
        <time>2021-01-02T13:47:22.000Z</time>
      </trkpt>
      <trkpt lat="46.36333" lon="5.00832">
        <ele>211</ele>
        <time>2021-01-02T13:47:23.000Z</time>
      </trkpt>
      <trkpt lat="46.36334" lon="5.00831">
        <ele>211</ele>
        <time>2021-01-02T13:47:24.000Z</time>
      </trkpt>
      <trkpt lat="46.36334" lon="5.00829">
        <ele>211</ele>
        <time>2021-01-02T13:47:25.000Z</time>
      </trkpt>
      <trkpt lat="46.36334" lon="5.00827">
        <ele>211</ele>
        <time>2021-01-02T13:47:26.000Z</time>
      </trkpt>
      <trkpt lat="46.36334" lon="5.00825">
        <ele>211</ele>
        <time>2021-01-02T13:47:27.000Z</time>
      </trkpt>
      <trkpt lat="46.36335" lon="5.00823">
        <ele>211</ele>
        <time>2021-01-02T13:47:28.000Z</time>
      </trkpt>
      <trkpt lat="46.36335" lon="5.00821">
        <ele>211</ele>
        <time>2021-01-02T13:47:29.000Z</time>
      </trkpt>
      <trkpt lat="46.36335" lon="5.00819">
        <ele>211</ele>
        <time>2021-01-02T13:47:30.000Z</time>
      </trkpt>
      <trkpt lat="46.36335" lon="5.00817">
        <ele>211</ele>
        <time>2021-01-02T13:47:31.000Z</time>
      </trkpt>
      <trkpt lat="46.36336" lon="5.00815">
        <ele>211</ele>
        <time>2021-01-02T13:47:32.000Z</time>
      </trkpt>
      <trkpt lat="46.36336" lon="5.00813">
        <ele>211</ele>
        <time>2021-01-02T13:47:33.000Z</time>
      </trkpt>
      <trkpt lat="46.36336" lon="5.0081">
        <ele>211</ele>
        <time>2021-01-02T13:47:34.000Z</time>
      </trkpt>
      <trkpt lat="46.36337" lon="5.00808">
        <ele>211</ele>
        <time>2021-01-02T13:47:35.000Z</time>
      </trkpt>
      <trkpt lat="46.36337" lon="5.00805">
        <ele>211</ele>
        <time>2021-01-02T13:47:36.000Z</time>
      </trkpt>
      <trkpt lat="46.36337" lon="5.00803">
        <ele>211</ele>
        <time>2021-01-02T13:47:37.000Z</time>
      </trkpt>
      <trkpt lat="46.36338" lon="5.00801">
        <ele>211</ele>
        <time>2021-01-02T13:47:38.000Z</time>
      </trkpt>
      <trkpt lat="46.36339" lon="5.00798">
        <ele>211</ele>
        <time>2021-01-02T13:47:39.000Z</time>
      </trkpt>
      <trkpt lat="46.36339" lon="5.00796">
        <ele>211</ele>
        <time>2021-01-02T13:47:40.000Z</time>
      </trkpt>
      <trkpt lat="46.36339" lon="5.00793">
        <ele>211</ele>
        <time>2021-01-02T13:47:41.000Z</time>
      </trkpt>
      <trkpt lat="46.3634" lon="5.0079">
        <ele>211</ele>
        <time>2021-01-02T13:47:42.000Z</time>
      </trkpt>
      <trkpt lat="46.3634" lon="5.00788">
        <ele>211</ele>
        <time>2021-01-02T13:47:43.000Z</time>
      </trkpt>
      <trkpt lat="46.36339" lon="5.00785">
        <ele>211</ele>
        <time>2021-01-02T13:47:44.000Z</time>
      </trkpt>
      <trkpt lat="46.36339" lon="5.00782">
        <ele>210</ele>
        <time>2021-01-02T13:47:45.000Z</time>
      </trkpt>
      <trkpt lat="46.36338" lon="5.00779">
        <ele>210</ele>
        <time>2021-01-02T13:47:46.000Z</time>
      </trkpt>
      <trkpt lat="46.36338" lon="5.00775">
        <ele>210</ele>
        <time>2021-01-02T13:47:47.000Z</time>
      </trkpt>
      <trkpt lat="46.36338" lon="5.00772">
        <ele>210</ele>
        <time>2021-01-02T13:47:48.000Z</time>
      </trkpt>
      <trkpt lat="46.36339" lon="5.00769">
        <ele>210</ele>
        <time>2021-01-02T13:47:49.000Z</time>
      </trkpt>
      <trkpt lat="46.36338" lon="5.00766">
        <ele>210</ele>
        <time>2021-01-02T13:47:50.000Z</time>
      </trkpt>
      <trkpt lat="46.36338" lon="5.00763">
        <ele>210</ele>
        <time>2021-01-02T13:47:51.000Z</time>
      </trkpt>
      <trkpt lat="46.36337" lon="5.0076">
        <ele>210</ele>
        <time>2021-01-02T13:47:52.000Z</time>
      </trkpt>
      <trkpt lat="46.36337" lon="5.00757">
        <ele>210</ele>
        <time>2021-01-02T13:47:53.000Z</time>
      </trkpt>
      <trkpt lat="46.36337" lon="5.00753">
        <ele>210</ele>
        <time>2021-01-02T13:47:54.000Z</time>
      </trkpt>
      <trkpt lat="46.36337" lon="5.0075">
        <ele>210</ele>
        <time>2021-01-02T13:47:55.000Z</time>
      </trkpt>
      <trkpt lat="46.36337" lon="5.00747">
        <ele>210</ele>
        <time>2021-01-02T13:47:56.000Z</time>
      </trkpt>
      <trkpt lat="46.36338" lon="5.00744">
        <ele>210</ele>
        <time>2021-01-02T13:47:57.000Z</time>
      </trkpt>
      <trkpt lat="46.36338" lon="5.00741">
        <ele>210</ele>
        <time>2021-01-02T13:47:58.000Z</time>
      </trkpt>
      <trkpt lat="46.36338" lon="5.00738">
        <ele>210</ele>
        <time>2021-01-02T13:47:59.000Z</time>
      </trkpt>
      <trkpt lat="46.36339" lon="5.00736">
        <ele>210</ele>
        <time>2021-01-02T13:48:00.000Z</time>
      </trkpt>
      <trkpt lat="46.3634" lon="5.00733">
        <ele>210</ele>
        <time>2021-01-02T13:48:01.000Z</time>
      </trkpt>
      <trkpt lat="46.36341" lon="5.0073">
        <ele>210</ele>
        <time>2021-01-02T13:48:02.000Z</time>
      </trkpt>
      <trkpt lat="46.36342" lon="5.00727">
        <ele>210</ele>
        <time>2021-01-02T13:48:03.000Z</time>
      </trkpt>
      <trkpt lat="46.36343" lon="5.00725">
        <ele>210</ele>
        <time>2021-01-02T13:48:04.000Z</time>
      </trkpt>
      <trkpt lat="46.36344" lon="5.00722">
        <ele>210</ele>
        <time>2021-01-02T13:48:05.000Z</time>
      </trkpt>
      <trkpt lat="46.36345" lon="5.0072">
        <ele>210</ele>
        <time>2021-01-02T13:48:06.000Z</time>
      </trkpt>
      <trkpt lat="46.36346" lon="5.00718">
        <ele>210</ele>
        <time>2021-01-02T13:48:07.000Z</time>
      </trkpt>
      <trkpt lat="46.36347" lon="5.00716">
        <ele>210</ele>
        <time>2021-01-02T13:48:08.000Z</time>
      </trkpt>
      <trkpt lat="46.36349" lon="5.00714">
        <ele>210</ele>
        <time>2021-01-02T13:48:09.000Z</time>
      </trkpt>
      <trkpt lat="46.3635" lon="5.00711">
        <ele>210</ele>
        <time>2021-01-02T13:48:10.000Z</time>
      </trkpt>
      <trkpt lat="46.36352" lon="5.00709">
        <ele>210</ele>
        <time>2021-01-02T13:48:11.000Z</time>
      </trkpt>
      <trkpt lat="46.36353" lon="5.00706">
        <ele>210</ele>
        <time>2021-01-02T13:48:12.000Z</time>
      </trkpt>
      <trkpt lat="46.36354" lon="5.00703">
        <ele>210</ele>
        <time>2021-01-02T13:48:13.000Z</time>
      </trkpt>
      <trkpt lat="46.36356" lon="5.007">
        <ele>210</ele>
        <time>2021-01-02T13:48:14.000Z</time>
      </trkpt>
      <trkpt lat="46.36357" lon="5.00697">
        <ele>210</ele>
        <time>2021-01-02T13:48:15.000Z</time>
      </trkpt>
      <trkpt lat="46.36358" lon="5.00694">
        <ele>210</ele>
        <time>2021-01-02T13:48:16.000Z</time>
      </trkpt>
      <trkpt lat="46.36359" lon="5.00691">
        <ele>210</ele>
        <time>2021-01-02T13:48:17.000Z</time>
      </trkpt>
      <trkpt lat="46.3636" lon="5.00688">
        <ele>210</ele>
        <time>2021-01-02T13:48:18.000Z</time>
      </trkpt>
      <trkpt lat="46.36361" lon="5.00685">
        <ele>210</ele>
        <time>2021-01-02T13:48:19.000Z</time>
      </trkpt>
      <trkpt lat="46.36362" lon="5.00681">
        <ele>210</ele>
        <time>2021-01-02T13:48:20.000Z</time>
      </trkpt>
      <trkpt lat="46.36363" lon="5.00678">
        <ele>209</ele>
        <time>2021-01-02T13:48:21.000Z</time>
      </trkpt>
      <trkpt lat="46.36364" lon="5.00675">
        <ele>209</ele>
        <time>2021-01-02T13:48:22.000Z</time>
      </trkpt>
      <trkpt lat="46.36364" lon="5.00671">
        <ele>209</ele>
        <time>2021-01-02T13:48:23.000Z</time>
      </trkpt>
      <trkpt lat="46.36365" lon="5.00668">
        <ele>209</ele>
        <time>2021-01-02T13:48:24.000Z</time>
      </trkpt>
      <trkpt lat="46.36365" lon="5.00665">
        <ele>209</ele>
        <time>2021-01-02T13:48:25.000Z</time>
      </trkpt>
      <trkpt lat="46.36366" lon="5.00661">
        <ele>209</ele>
        <time>2021-01-02T13:48:26.000Z</time>
      </trkpt>
      <trkpt lat="46.36366" lon="5.00658">
        <ele>209</ele>
        <time>2021-01-02T13:48:27.000Z</time>
      </trkpt>
      <trkpt lat="46.36366" lon="5.00655">
        <ele>209</ele>
        <time>2021-01-02T13:48:28.000Z</time>
      </trkpt>
      <trkpt lat="46.36366" lon="5.00651">
        <ele>209</ele>
        <time>2021-01-02T13:48:29.000Z</time>
      </trkpt>
      <trkpt lat="46.36366" lon="5.00648">
        <ele>209</ele>
        <time>2021-01-02T13:48:30.000Z</time>
      </trkpt>
      <trkpt lat="46.36366" lon="5.00645">
        <ele>209</ele>
        <time>2021-01-02T13:48:31.000Z</time>
      </trkpt>
      <trkpt lat="46.36366" lon="5.00641">
        <ele>209</ele>
        <time>2021-01-02T13:48:32.000Z</time>
      </trkpt>
      <trkpt lat="46.36367" lon="5.00638">
        <ele>209</ele>
        <time>2021-01-02T13:48:33.000Z</time>
      </trkpt>
      <trkpt lat="46.36367" lon="5.00635">
        <ele>209</ele>
        <time>2021-01-02T13:48:34.000Z</time>
      </trkpt>
      <trkpt lat="46.36367" lon="5.00631">
        <ele>209</ele>
        <time>2021-01-02T13:48:35.000Z</time>
      </trkpt>
      <trkpt lat="46.36367" lon="5.00628">
        <ele>209</ele>
        <time>2021-01-02T13:48:36.000Z</time>
      </trkpt>
      <trkpt lat="46.36367" lon="5.00625">
        <ele>208</ele>
        <time>2021-01-02T13:48:37.000Z</time>
      </trkpt>
      <trkpt lat="46.36367" lon="5.00622">
        <ele>208</ele>
        <time>2021-01-02T13:48:38.000Z</time>
      </trkpt>
      <trkpt lat="46.36367" lon="5.00619">
        <ele>208</ele>
        <time>2021-01-02T13:48:39.000Z</time>
      </trkpt>
      <trkpt lat="46.36367" lon="5.00616">
        <ele>208</ele>
        <time>2021-01-02T13:48:40.000Z</time>
      </trkpt>
      <trkpt lat="46.36367" lon="5.00613">
        <ele>208</ele>
        <time>2021-01-02T13:48:41.000Z</time>
      </trkpt>
      <trkpt lat="46.36367" lon="5.0061">
        <ele>208</ele>
        <time>2021-01-02T13:48:42.000Z</time>
      </trkpt>
      <trkpt lat="46.36367" lon="5.00607">
        <ele>208</ele>
        <time>2021-01-02T13:48:43.000Z</time>
      </trkpt>
      <trkpt lat="46.36367" lon="5.00604">
        <ele>208</ele>
        <time>2021-01-02T13:48:44.000Z</time>
      </trkpt>
      <trkpt lat="46.36367" lon="5.00601">
        <ele>208</ele>
        <time>2021-01-02T13:48:45.000Z</time>
      </trkpt>
      <trkpt lat="46.36367" lon="5.00598">
        <ele>208</ele>
        <time>2021-01-02T13:48:46.000Z</time>
      </trkpt>
      <trkpt lat="46.36366" lon="5.00595">
        <ele>208</ele>
        <time>2021-01-02T13:48:47.000Z</time>
      </trkpt>
      <trkpt lat="46.36366" lon="5.00592">
        <ele>208</ele>
        <time>2021-01-02T13:48:48.000Z</time>
      </trkpt>
      <trkpt lat="46.36366" lon="5.00589">
        <ele>208</ele>
        <time>2021-01-02T13:48:49.000Z</time>
      </trkpt>
      <trkpt lat="46.36366" lon="5.00586">
        <ele>208</ele>
        <time>2021-01-02T13:48:50.000Z</time>
      </trkpt>
      <trkpt lat="46.36365" lon="5.00583">
        <ele>208</ele>
        <time>2021-01-02T13:48:51.000Z</time>
      </trkpt>
      <trkpt lat="46.36365" lon="5.0058">
        <ele>208</ele>
        <time>2021-01-02T13:48:52.000Z</time>
      </trkpt>
      <trkpt lat="46.36365" lon="5.00577">
        <ele>209</ele>
        <time>2021-01-02T13:48:53.000Z</time>
      </trkpt>
      <trkpt lat="46.36365" lon="5.00574">
        <ele>209</ele>
        <time>2021-01-02T13:48:54.000Z</time>
      </trkpt>
      <trkpt lat="46.36364" lon="5.00571">
        <ele>209</ele>
        <time>2021-01-02T13:48:55.000Z</time>
      </trkpt>
      <trkpt lat="46.36364" lon="5.00568">
        <ele>209</ele>
        <time>2021-01-02T13:48:56.000Z</time>
      </trkpt>
      <trkpt lat="46.36364" lon="5.00565">
        <ele>209</ele>
        <time>2021-01-02T13:48:57.000Z</time>
      </trkpt>
      <trkpt lat="46.36364" lon="5.00562">
        <ele>209</ele>
        <time>2021-01-02T13:48:58.000Z</time>
      </trkpt>
      <trkpt lat="46.36364" lon="5.00559">
        <ele>209</ele>
        <time>2021-01-02T13:48:59.000Z</time>
      </trkpt>
      <trkpt lat="46.36364" lon="5.00555">
        <ele>209</ele>
        <time>2021-01-02T13:49:00.000Z</time>
      </trkpt>
      <trkpt lat="46.36363" lon="5.00552">
        <ele>209</ele>
        <time>2021-01-02T13:49:01.000Z</time>
      </trkpt>
      <trkpt lat="46.36363" lon="5.00549">
        <ele>209</ele>
        <time>2021-01-02T13:49:02.000Z</time>
      </trkpt>
      <trkpt lat="46.36363" lon="5.00546">
        <ele>209</ele>
        <time>2021-01-02T13:49:03.000Z</time>
      </trkpt>
      <trkpt lat="46.36364" lon="5.00542">
        <ele>209</ele>
        <time>2021-01-02T13:49:04.000Z</time>
      </trkpt>
      <trkpt lat="46.36364" lon="5.00539">
        <ele>209</ele>
        <time>2021-01-02T13:49:05.000Z</time>
      </trkpt>
      <trkpt lat="46.36364" lon="5.00536">
        <ele>209</ele>
        <time>2021-01-02T13:49:06.000Z</time>
      </trkpt>
      <trkpt lat="46.36364" lon="5.00533">
        <ele>209</ele>
        <time>2021-01-02T13:49:07.000Z</time>
      </trkpt>
      <trkpt lat="46.36364" lon="5.0053">
        <ele>209</ele>
        <time>2021-01-02T13:49:08.000Z</time>
      </trkpt>
      <trkpt lat="46.36365" lon="5.00528">
        <ele>209</ele>
        <time>2021-01-02T13:49:09.000Z</time>
      </trkpt>
      <trkpt lat="46.36365" lon="5.00525">
        <ele>209</ele>
        <time>2021-01-02T13:49:10.000Z</time>
      </trkpt>
      <trkpt lat="46.36366" lon="5.00522">
        <ele>209</ele>
        <time>2021-01-02T13:49:11.000Z</time>
      </trkpt>
      <trkpt lat="46.36366" lon="5.0052">
        <ele>209</ele>
        <time>2021-01-02T13:49:12.000Z</time>
      </trkpt>
      <trkpt lat="46.36367" lon="5.00517">
        <ele>209</ele>
        <time>2021-01-02T13:49:13.000Z</time>
      </trkpt>
      <trkpt lat="46.36367" lon="5.00514">
        <ele>209</ele>
        <time>2021-01-02T13:49:14.000Z</time>
      </trkpt>
      <trkpt lat="46.36368" lon="5.00511">
        <ele>209</ele>
        <time>2021-01-02T13:49:15.000Z</time>
      </trkpt>
      <trkpt lat="46.36367" lon="5.00508">
        <ele>209</ele>
        <time>2021-01-02T13:49:16.000Z</time>
      </trkpt>
      <trkpt lat="46.36367" lon="5.00505">
        <ele>209</ele>
        <time>2021-01-02T13:49:17.000Z</time>
      </trkpt>
      <trkpt lat="46.36367" lon="5.00501">
        <ele>209</ele>
        <time>2021-01-02T13:49:18.000Z</time>
      </trkpt>
      <trkpt lat="46.36367" lon="5.00499">
        <ele>209</ele>
        <time>2021-01-02T13:49:19.000Z</time>
      </trkpt>
      <trkpt lat="46.36368" lon="5.00496">
        <ele>208</ele>
        <time>2021-01-02T13:49:20.000Z</time>
      </trkpt>
      <trkpt lat="46.36368" lon="5.00493">
        <ele>208</ele>
        <time>2021-01-02T13:49:21.000Z</time>
      </trkpt>
      <trkpt lat="46.36368" lon="5.0049">
        <ele>208</ele>
        <time>2021-01-02T13:49:22.000Z</time>
      </trkpt>
      <trkpt lat="46.36369" lon="5.00488">
        <ele>208</ele>
        <time>2021-01-02T13:49:23.000Z</time>
      </trkpt>
      <trkpt lat="46.36369" lon="5.00485">
        <ele>208</ele>
        <time>2021-01-02T13:49:24.000Z</time>
      </trkpt>
      <trkpt lat="46.36369" lon="5.00482">
        <ele>208</ele>
        <time>2021-01-02T13:49:25.000Z</time>
      </trkpt>
      <trkpt lat="46.3637" lon="5.00479">
        <ele>208</ele>
        <time>2021-01-02T13:49:26.000Z</time>
      </trkpt>
      <trkpt lat="46.3637" lon="5.00477">
        <ele>208</ele>
        <time>2021-01-02T13:49:27.000Z</time>
      </trkpt>
      <trkpt lat="46.36371" lon="5.00474">
        <ele>208</ele>
        <time>2021-01-02T13:49:28.000Z</time>
      </trkpt>
      <trkpt lat="46.36371" lon="5.00472">
        <ele>208</ele>
        <time>2021-01-02T13:49:29.000Z</time>
      </trkpt>
      <trkpt lat="46.36371" lon="5.0047">
        <ele>208</ele>
        <time>2021-01-02T13:49:30.000Z</time>
      </trkpt>
      <trkpt lat="46.36371" lon="5.00467">
        <ele>208</ele>
        <time>2021-01-02T13:49:31.000Z</time>
      </trkpt>
      <trkpt lat="46.36372" lon="5.00464">
        <ele>208</ele>
        <time>2021-01-02T13:49:32.000Z</time>
      </trkpt>
      <trkpt lat="46.36372" lon="5.00462">
        <ele>208</ele>
        <time>2021-01-02T13:49:33.000Z</time>
      </trkpt>
      <trkpt lat="46.36373" lon="5.0046">
        <ele>208</ele>
        <time>2021-01-02T13:49:34.000Z</time>
      </trkpt>
      <trkpt lat="46.36373" lon="5.00458">
        <ele>208</ele>
        <time>2021-01-02T13:49:35.000Z</time>
      </trkpt>
      <trkpt lat="46.36374" lon="5.00455">
        <ele>208</ele>
        <time>2021-01-02T13:49:36.000Z</time>
      </trkpt>
      <trkpt lat="46.36374" lon="5.00453">
        <ele>208</ele>
        <time>2021-01-02T13:49:37.000Z</time>
      </trkpt>
      <trkpt lat="46.36375" lon="5.0045">
        <ele>208</ele>
        <time>2021-01-02T13:49:38.000Z</time>
      </trkpt>
      <trkpt lat="46.36376" lon="5.00448">
        <ele>208</ele>
        <time>2021-01-02T13:49:39.000Z</time>
      </trkpt>
      <trkpt lat="46.36376" lon="5.00445">
        <ele>208</ele>
        <time>2021-01-02T13:49:40.000Z</time>
      </trkpt>
      <trkpt lat="46.36377" lon="5.00443">
        <ele>208</ele>
        <time>2021-01-02T13:49:41.000Z</time>
      </trkpt>
      <trkpt lat="46.36378" lon="5.00441">
        <ele>208</ele>
        <time>2021-01-02T13:49:42.000Z</time>
      </trkpt>
      <trkpt lat="46.36379" lon="5.00439">
        <ele>209</ele>
        <time>2021-01-02T13:49:43.000Z</time>
      </trkpt>
      <trkpt lat="46.3638" lon="5.00437">
        <ele>209</ele>
        <time>2021-01-02T13:49:44.000Z</time>
      </trkpt>
      <trkpt lat="46.36381" lon="5.00435">
        <ele>209</ele>
        <time>2021-01-02T13:49:45.000Z</time>
      </trkpt>
      <trkpt lat="46.36382" lon="5.00433">
        <ele>209</ele>
        <time>2021-01-02T13:49:46.000Z</time>
      </trkpt>
      <trkpt lat="46.36383" lon="5.00431">
        <ele>209</ele>
        <time>2021-01-02T13:49:47.000Z</time>
      </trkpt>
      <trkpt lat="46.36385" lon="5.00429">
        <ele>209</ele>
        <time>2021-01-02T13:49:48.000Z</time>
      </trkpt>
      <trkpt lat="46.36386" lon="5.00427">
        <ele>209</ele>
        <time>2021-01-02T13:49:49.000Z</time>
      </trkpt>
      <trkpt lat="46.36387" lon="5.00425">
        <ele>209</ele>
        <time>2021-01-02T13:49:50.000Z</time>
      </trkpt>
      <trkpt lat="46.36387" lon="5.00424">
        <ele>209</ele>
        <time>2021-01-02T13:49:51.000Z</time>
      </trkpt>
      <trkpt lat="46.36388" lon="5.00422">
        <ele>209</ele>
        <time>2021-01-02T13:49:52.000Z</time>
      </trkpt>
      <trkpt lat="46.36389" lon="5.0042">
        <ele>209</ele>
        <time>2021-01-02T13:49:53.000Z</time>
      </trkpt>
      <trkpt lat="46.3639" lon="5.00419">
        <ele>209</ele>
        <time>2021-01-02T13:49:54.000Z</time>
      </trkpt>
      <trkpt lat="46.36391" lon="5.00417">
        <ele>209</ele>
        <time>2021-01-02T13:49:55.000Z</time>
      </trkpt>
      <trkpt lat="46.36392" lon="5.00415">
        <ele>209</ele>
        <time>2021-01-02T13:49:56.000Z</time>
      </trkpt>
      <trkpt lat="46.36393" lon="5.00414">
        <ele>209</ele>
        <time>2021-01-02T13:49:57.000Z</time>
      </trkpt>
      <trkpt lat="46.36393" lon="5.00412">
        <ele>209</ele>
        <time>2021-01-02T13:49:58.000Z</time>
      </trkpt>
      <trkpt lat="46.36394" lon="5.00411">
        <ele>209</ele>
        <time>2021-01-02T13:49:59.000Z</time>
      </trkpt>
      <trkpt lat="46.36394" lon="5.0041">
        <ele>209</ele>
        <time>2021-01-02T13:50:00.000Z</time>
      </trkpt>
      <trkpt lat="46.36395" lon="5.00408">
        <ele>209</ele>
        <time>2021-01-02T13:50:01.000Z</time>
      </trkpt>
      <trkpt lat="46.36396" lon="5.00406">
        <ele>209</ele>
        <time>2021-01-02T13:50:02.000Z</time>
      </trkpt>
      <trkpt lat="46.36397" lon="5.00404">
        <ele>209</ele>
        <time>2021-01-02T13:50:03.000Z</time>
      </trkpt>
      <trkpt lat="46.36398" lon="5.00402">
        <ele>209</ele>
        <time>2021-01-02T13:50:04.000Z</time>
      </trkpt>
      <trkpt lat="46.36399" lon="5.004">
        <ele>209</ele>
        <time>2021-01-02T13:50:05.000Z</time>
      </trkpt>
      <trkpt lat="46.364" lon="5.00397">
        <ele>209</ele>
        <time>2021-01-02T13:50:06.000Z</time>
      </trkpt>
      <trkpt lat="46.36401" lon="5.00394">
        <ele>209</ele>
        <time>2021-01-02T13:50:07.000Z</time>
      </trkpt>
      <trkpt lat="46.36402" lon="5.00392">
        <ele>209</ele>
        <time>2021-01-02T13:50:08.000Z</time>
      </trkpt>
      <trkpt lat="46.36402" lon="5.0039">
        <ele>209</ele>
        <time>2021-01-02T13:50:09.000Z</time>
      </trkpt>
      <trkpt lat="46.36403" lon="5.00388">
        <ele>209</ele>
        <time>2021-01-02T13:50:10.000Z</time>
      </trkpt>
      <trkpt lat="46.36403" lon="5.00385">
        <ele>209</ele>
        <time>2021-01-02T13:50:11.000Z</time>
      </trkpt>
      <trkpt lat="46.36403" lon="5.00383">
        <ele>209</ele>
        <time>2021-01-02T13:50:12.000Z</time>
      </trkpt>
      <trkpt lat="46.36404" lon="5.00381">
        <ele>209</ele>
        <time>2021-01-02T13:50:13.000Z</time>
      </trkpt>
      <trkpt lat="46.36404" lon="5.00378">
        <ele>209</ele>
        <time>2021-01-02T13:50:14.000Z</time>
      </trkpt>
      <trkpt lat="46.36404" lon="5.00376">
        <ele>209</ele>
        <time>2021-01-02T13:50:15.000Z</time>
      </trkpt>
      <trkpt lat="46.36405" lon="5.00373">
        <ele>209</ele>
        <time>2021-01-02T13:50:16.000Z</time>
      </trkpt>
      <trkpt lat="46.36405" lon="5.00371">
        <ele>209</ele>
        <time>2021-01-02T13:50:17.000Z</time>
      </trkpt>
      <trkpt lat="46.36405" lon="5.00369">
        <ele>209</ele>
        <time>2021-01-02T13:50:18.000Z</time>
      </trkpt>
      <trkpt lat="46.36405" lon="5.00367">
        <ele>210</ele>
        <time>2021-01-02T13:50:19.000Z</time>
      </trkpt>
      <trkpt lat="46.36405" lon="5.00364">
        <ele>210</ele>
        <time>2021-01-02T13:50:20.000Z</time>
      </trkpt>
      <trkpt lat="46.36405" lon="5.00362">
        <ele>210</ele>
        <time>2021-01-02T13:50:21.000Z</time>
      </trkpt>
      <trkpt lat="46.36406" lon="5.0036">
        <ele>210</ele>
        <time>2021-01-02T13:50:22.000Z</time>
      </trkpt>
      <trkpt lat="46.36406" lon="5.00358">
        <ele>210</ele>
        <time>2021-01-02T13:50:23.000Z</time>
      </trkpt>
      <trkpt lat="46.36406" lon="5.00355">
        <ele>210</ele>
        <time>2021-01-02T13:50:24.000Z</time>
      </trkpt>
      <trkpt lat="46.36406" lon="5.00353">
        <ele>210</ele>
        <time>2021-01-02T13:50:25.000Z</time>
      </trkpt>
      <trkpt lat="46.36406" lon="5.00351">
        <ele>210</ele>
        <time>2021-01-02T13:50:26.000Z</time>
      </trkpt>
      <trkpt lat="46.36406" lon="5.00349">
        <ele>210</ele>
        <time>2021-01-02T13:50:27.000Z</time>
      </trkpt>
      <trkpt lat="46.36406" lon="5.00347">
        <ele>210</ele>
        <time>2021-01-02T13:50:28.000Z</time>
      </trkpt>
      <trkpt lat="46.36407" lon="5.00346">
        <ele>210</ele>
        <time>2021-01-02T13:50:29.000Z</time>
      </trkpt>
      <trkpt lat="46.36407" lon="5.00344">
        <ele>210</ele>
        <time>2021-01-02T13:50:30.000Z</time>
      </trkpt>
      <trkpt lat="46.36407" lon="5.00342">
        <ele>210</ele>
        <time>2021-01-02T13:50:31.000Z</time>
      </trkpt>
      <trkpt lat="46.36407" lon="5.0034">
        <ele>210</ele>
        <time>2021-01-02T13:50:32.000Z</time>
      </trkpt>
      <trkpt lat="46.36407" lon="5.00338">
        <ele>210</ele>
        <time>2021-01-02T13:50:33.000Z</time>
      </trkpt>
      <trkpt lat="46.36407" lon="5.00336">
        <ele>210</ele>
        <time>2021-01-02T13:50:34.000Z</time>
      </trkpt>
      <trkpt lat="46.36407" lon="5.00334">
        <ele>210</ele>
        <time>2021-01-02T13:50:35.000Z</time>
      </trkpt>
      <trkpt lat="46.36407" lon="5.00332">
        <ele>210</ele>
        <time>2021-01-02T13:50:36.000Z</time>
      </trkpt>
      <trkpt lat="46.36408" lon="5.0033">
        <ele>210</ele>
        <time>2021-01-02T13:50:37.000Z</time>
      </trkpt>
      <trkpt lat="46.36408" lon="5.00328">
        <ele>210</ele>
        <time>2021-01-02T13:50:38.000Z</time>
      </trkpt>
      <trkpt lat="46.36408" lon="5.00326">
        <ele>210</ele>
        <time>2021-01-02T13:50:39.000Z</time>
      </trkpt>
      <trkpt lat="46.36408" lon="5.00324">
        <ele>210</ele>
        <time>2021-01-02T13:50:40.000Z</time>
      </trkpt>
      <trkpt lat="46.36408" lon="5.00322">
        <ele>210</ele>
        <time>2021-01-02T13:50:41.000Z</time>
      </trkpt>
      <trkpt lat="46.36409" lon="5.0032">
        <ele>210</ele>
        <time>2021-01-02T13:50:42.000Z</time>
      </trkpt>
      <trkpt lat="46.36409" lon="5.00318">
        <ele>210</ele>
        <time>2021-01-02T13:50:43.000Z</time>
      </trkpt>
      <trkpt lat="46.36409" lon="5.00316">
        <ele>211</ele>
        <time>2021-01-02T13:50:44.000Z</time>
      </trkpt>
      <trkpt lat="46.36409" lon="5.00314">
        <ele>211</ele>
        <time>2021-01-02T13:50:45.000Z</time>
      </trkpt>
      <trkpt lat="46.3641" lon="5.00312">
        <ele>211</ele>
        <time>2021-01-02T13:50:46.000Z</time>
      </trkpt>
      <trkpt lat="46.3641" lon="5.0031">
        <ele>211</ele>
        <time>2021-01-02T13:50:47.000Z</time>
      </trkpt>
      <trkpt lat="46.3641" lon="5.00308">
        <ele>211</ele>
        <time>2021-01-02T13:50:48.000Z</time>
      </trkpt>
      <trkpt lat="46.36411" lon="5.00306">
        <ele>211</ele>
        <time>2021-01-02T13:50:49.000Z</time>
      </trkpt>
      <trkpt lat="46.36411" lon="5.00304">
        <ele>211</ele>
        <time>2021-01-02T13:50:50.000Z</time>
      </trkpt>
      <trkpt lat="46.36411" lon="5.00302">
        <ele>211</ele>
        <time>2021-01-02T13:50:51.000Z</time>
      </trkpt>
      <trkpt lat="46.36411" lon="5.003">
        <ele>211</ele>
        <time>2021-01-02T13:50:52.000Z</time>
      </trkpt>
      <trkpt lat="46.36411" lon="5.00298">
        <ele>211</ele>
        <time>2021-01-02T13:50:53.000Z</time>
      </trkpt>
      <trkpt lat="46.36411" lon="5.00297">
        <ele>211</ele>
        <time>2021-01-02T13:50:54.000Z</time>
      </trkpt>
      <trkpt lat="46.36411" lon="5.00295">
        <ele>211</ele>
        <time>2021-01-02T13:50:55.000Z</time>
      </trkpt>
      <trkpt lat="46.36412" lon="5.00293">
        <ele>211</ele>
        <time>2021-01-02T13:50:56.000Z</time>
      </trkpt>
      <trkpt lat="46.36412" lon="5.0029">
        <ele>211</ele>
        <time>2021-01-02T13:50:57.000Z</time>
      </trkpt>
      <trkpt lat="46.36413" lon="5.00288">
        <ele>211</ele>
        <time>2021-01-02T13:50:58.000Z</time>
      </trkpt>
      <trkpt lat="46.36413" lon="5.00286">
        <ele>212</ele>
        <time>2021-01-02T13:50:59.000Z</time>
      </trkpt>
      <trkpt lat="46.36413" lon="5.00284">
        <ele>212</ele>
        <time>2021-01-02T13:51:00.000Z</time>
      </trkpt>
      <trkpt lat="46.36413" lon="5.00282">
        <ele>212</ele>
        <time>2021-01-02T13:51:01.000Z</time>
      </trkpt>
      <trkpt lat="46.36413" lon="5.0028">
        <ele>212</ele>
        <time>2021-01-02T13:51:02.000Z</time>
      </trkpt>
      <trkpt lat="46.36414" lon="5.00278">
        <ele>212</ele>
        <time>2021-01-02T13:51:03.000Z</time>
      </trkpt>
      <trkpt lat="46.36414" lon="5.00277">
        <ele>212</ele>
        <time>2021-01-02T13:51:04.000Z</time>
      </trkpt>
      <trkpt lat="46.36414" lon="5.00276">
        <ele>212</ele>
        <time>2021-01-02T13:51:05.000Z</time>
      </trkpt>
      <trkpt lat="46.36414" lon="5.00275">
        <ele>211</ele>
        <time>2021-01-02T13:51:06.000Z</time>
      </trkpt>
      <trkpt lat="46.36414" lon="5.00275">
        <ele>211</ele>
        <time>2021-01-02T13:51:07.000Z</time>
      </trkpt>
      <trkpt lat="46.36414" lon="5.00275">
        <ele>211</ele>
        <time>2021-01-02T13:51:08.000Z</time>
      </trkpt>
      <trkpt lat="46.36414" lon="5.00275">
        <ele>211</ele>
        <time>2021-01-02T13:51:09.000Z</time>
      </trkpt>
      <trkpt lat="46.36415" lon="5.00275">
        <ele>211</ele>
        <time>2021-01-02T13:51:10.000Z</time>
      </trkpt>
      <trkpt lat="46.36415" lon="5.00275">
        <ele>211</ele>
        <time>2021-01-02T13:51:11.000Z</time>
      </trkpt>
      <trkpt lat="46.36414" lon="5.00275">
        <ele>211</ele>
        <time>2021-01-02T13:51:12.000Z</time>
      </trkpt>
      <trkpt lat="46.36414" lon="5.00275">
        <ele>211</ele>
        <time>2021-01-02T13:51:13.000Z</time>
      </trkpt>
      <trkpt lat="46.36415" lon="5.00275">
        <ele>211</ele>
        <time>2021-01-02T13:51:14.000Z</time>
      </trkpt>
      <trkpt lat="46.36414" lon="5.00274">
        <ele>211</ele>
        <time>2021-01-02T13:51:15.000Z</time>
      </trkpt>
      <trkpt lat="46.36414" lon="5.00274">
        <ele>211</ele>
        <time>2021-01-02T13:51:16.000Z</time>
      </trkpt>
      <trkpt lat="46.36415" lon="5.00274">
        <ele>211</ele>
        <time>2021-01-02T13:51:17.000Z</time>
      </trkpt>
      <trkpt lat="46.36414" lon="5.00274">
        <ele>211</ele>
        <time>2021-01-02T13:51:18.000Z</time>
      </trkpt>
      <trkpt lat="46.36414" lon="5.00274">
        <ele>211</ele>
        <time>2021-01-02T13:51:19.000Z</time>
      </trkpt>
      <trkpt lat="46.36414" lon="5.00274">
        <ele>211</ele>
        <time>2021-01-02T13:51:20.000Z</time>
      </trkpt>
      <trkpt lat="46.36414" lon="5.00274">
        <ele>211</ele>
        <time>2021-01-02T13:51:21.000Z</time>
      </trkpt>
      <trkpt lat="46.36414" lon="5.00274">
        <ele>211</ele>
        <time>2021-01-02T13:51:22.000Z</time>
      </trkpt>
      <trkpt lat="46.36414" lon="5.00274">
        <ele>211</ele>
        <time>2021-01-02T13:51:23.000Z</time>
      </trkpt>
      <trkpt lat="46.36414" lon="5.00274">
        <ele>211</ele>
        <time>2021-01-02T13:51:24.000Z</time>
      </trkpt>
      <trkpt lat="46.36414" lon="5.00274">
        <ele>211</ele>
        <time>2021-01-02T13:51:25.000Z</time>
      </trkpt>
      <trkpt lat="46.36414" lon="5.00273">
        <ele>211</ele>
        <time>2021-01-02T13:51:26.000Z</time>
      </trkpt>
      <trkpt lat="46.36414" lon="5.00273">
        <ele>211</ele>
        <time>2021-01-02T13:51:27.000Z</time>
      </trkpt>
      <trkpt lat="46.36414" lon="5.00273">
        <ele>211</ele>
        <time>2021-01-02T13:51:28.000Z</time>
      </trkpt>
      <trkpt lat="46.36414" lon="5.00273">
        <ele>211</ele>
        <time>2021-01-02T13:51:29.000Z</time>
      </trkpt>
      <trkpt lat="46.36414" lon="5.00273">
        <ele>211</ele>
        <time>2021-01-02T13:51:30.000Z</time>
      </trkpt>
      <trkpt lat="46.36414" lon="5.00273">
        <ele>211</ele>
        <time>2021-01-02T13:51:31.000Z</time>
      </trkpt>
      <trkpt lat="46.36414" lon="5.00273">
        <ele>211</ele>
        <time>2021-01-02T13:51:32.000Z</time>
      </trkpt>
      <trkpt lat="46.36414" lon="5.00273">
        <ele>211</ele>
        <time>2021-01-02T13:51:33.000Z</time>
      </trkpt>
      <trkpt lat="46.36414" lon="5.00273">
        <ele>211</ele>
        <time>2021-01-02T13:51:34.000Z</time>
      </trkpt>
      <trkpt lat="46.36414" lon="5.00273">
        <ele>211</ele>
        <time>2021-01-02T13:51:35.000Z</time>
      </trkpt>
      <trkpt lat="46.36414" lon="5.00273">
        <ele>211</ele>
        <time>2021-01-02T13:51:36.000Z</time>
      </trkpt>
      <trkpt lat="46.36414" lon="5.00273">
        <ele>211</ele>
        <time>2021-01-02T13:51:37.000Z</time>
      </trkpt>
      <trkpt lat="46.36414" lon="5.00273">
        <ele>211</ele>
        <time>2021-01-02T13:51:38.000Z</time>
      </trkpt>
      <trkpt lat="46.36414" lon="5.00273">
        <ele>211</ele>
        <time>2021-01-02T13:51:39.000Z</time>
      </trkpt>
      <trkpt lat="46.36414" lon="5.00273">
        <ele>211</ele>
        <time>2021-01-02T13:51:40.000Z</time>
      </trkpt>
      <trkpt lat="46.36414" lon="5.00273">
        <ele>211</ele>
        <time>2021-01-02T13:51:41.000Z</time>
      </trkpt>
      <trkpt lat="46.36414" lon="5.00272">
        <ele>211</ele>
        <time>2021-01-02T13:51:42.000Z</time>
      </trkpt>
      <trkpt lat="46.36414" lon="5.00272">
        <ele>211</ele>
        <time>2021-01-02T13:51:43.000Z</time>
      </trkpt>
      <trkpt lat="46.36414" lon="5.00272">
        <ele>211</ele>
        <time>2021-01-02T13:51:44.000Z</time>
      </trkpt>
      <trkpt lat="46.36414" lon="5.00272">
        <ele>211</ele>
        <time>2021-01-02T13:51:45.000Z</time>
      </trkpt>
      <trkpt lat="46.36414" lon="5.00272">
        <ele>211</ele>
        <time>2021-01-02T13:51:46.000Z</time>
      </trkpt>
      <trkpt lat="46.36414" lon="5.00272">
        <ele>211</ele>
        <time>2021-01-02T13:51:47.000Z</time>
      </trkpt>
      <trkpt lat="46.36414" lon="5.00272">
        <ele>211</ele>
        <time>2021-01-02T13:51:48.000Z</time>
      </trkpt>
      <trkpt lat="46.36414" lon="5.00272">
        <ele>211</ele>
        <time>2021-01-02T13:51:49.000Z</time>
      </trkpt>
      <trkpt lat="46.36414" lon="5.00272">
        <ele>211</ele>
        <time>2021-01-02T13:51:50.000Z</time>
      </trkpt>
      <trkpt lat="46.36414" lon="5.00272">
        <ele>211</ele>
        <time>2021-01-02T13:51:51.000Z</time>
      </trkpt>
      <trkpt lat="46.36414" lon="5.00272">
        <ele>211</ele>
        <time>2021-01-02T13:51:52.000Z</time>
      </trkpt>
      <trkpt lat="46.36414" lon="5.00272">
        <ele>211</ele>
        <time>2021-01-02T13:51:53.000Z</time>
      </trkpt>
      <trkpt lat="46.36414" lon="5.00272">
        <ele>211</ele>
        <time>2021-01-02T13:51:54.000Z</time>
      </trkpt>
      <trkpt lat="46.36414" lon="5.00272">
        <ele>211</ele>
        <time>2021-01-02T13:51:55.000Z</time>
      </trkpt>
      <trkpt lat="46.36414" lon="5.00272">
        <ele>211</ele>
        <time>2021-01-02T13:51:56.000Z</time>
      </trkpt>
      <trkpt lat="46.36414" lon="5.00272">
        <ele>211</ele>
        <time>2021-01-02T13:51:57.000Z</time>
      </trkpt>
      <trkpt lat="46.36414" lon="5.00272">
        <ele>211</ele>
        <time>2021-01-02T13:51:58.000Z</time>
      </trkpt>
      <trkpt lat="46.36414" lon="5.00272">
        <ele>211</ele>
        <time>2021-01-02T13:51:59.000Z</time>
      </trkpt>
      <trkpt lat="46.36414" lon="5.00272">
        <ele>211</ele>
        <time>2021-01-02T13:52:00.000Z</time>
      </trkpt>
      <trkpt lat="46.36414" lon="5.00272">
        <ele>211</ele>
        <time>2021-01-02T13:52:01.000Z</time>
      </trkpt>
      <trkpt lat="46.36414" lon="5.00272">
        <ele>212</ele>
        <time>2021-01-02T13:52:02.000Z</time>
      </trkpt>
      <trkpt lat="46.36414" lon="5.00273">
        <ele>212</ele>
        <time>2021-01-02T13:52:03.000Z</time>
      </trkpt>
      <trkpt lat="46.36414" lon="5.00272">
        <ele>212</ele>
        <time>2021-01-02T13:52:04.000Z</time>
      </trkpt>
      <trkpt lat="46.36414" lon="5.00272">
        <ele>212</ele>
        <time>2021-01-02T13:52:05.000Z</time>
      </trkpt>
      <trkpt lat="46.36414" lon="5.00272">
        <ele>212</ele>
        <time>2021-01-02T13:52:06.000Z</time>
      </trkpt>
      <trkpt lat="46.36414" lon="5.00272">
        <ele>212</ele>
        <time>2021-01-02T13:52:07.000Z</time>
      </trkpt>
      <trkpt lat="46.36414" lon="5.00272">
        <ele>212</ele>
        <time>2021-01-02T13:52:08.000Z</time>
      </trkpt>
      <trkpt lat="46.36414" lon="5.00272">
        <ele>212</ele>
        <time>2021-01-02T13:52:09.000Z</time>
      </trkpt>
      <trkpt lat="46.36414" lon="5.00272">
        <ele>212</ele>
        <time>2021-01-02T13:52:10.000Z</time>
      </trkpt>
      <trkpt lat="46.36414" lon="5.00272">
        <ele>212</ele>
        <time>2021-01-02T13:52:11.000Z</time>
      </trkpt>
      <trkpt lat="46.36414" lon="5.00272">
        <ele>212</ele>
        <time>2021-01-02T13:52:12.000Z</time>
      </trkpt>
      <trkpt lat="46.36414" lon="5.00272">
        <ele>212</ele>
        <time>2021-01-02T13:52:13.000Z</time>
      </trkpt>
      <trkpt lat="46.36414" lon="5.00272">
        <ele>212</ele>
        <time>2021-01-02T13:52:14.000Z</time>
      </trkpt>
      <trkpt lat="46.36414" lon="5.00272">
        <ele>212</ele>
        <time>2021-01-02T13:52:15.000Z</time>
      </trkpt>
      <trkpt lat="46.36414" lon="5.00272">
        <ele>212</ele>
        <time>2021-01-02T13:52:16.000Z</time>
      </trkpt>
      <trkpt lat="46.36414" lon="5.00272">
        <ele>212</ele>
        <time>2021-01-02T13:52:17.000Z</time>
      </trkpt>
      <trkpt lat="46.36414" lon="5.00272">
        <ele>212</ele>
        <time>2021-01-02T13:52:18.000Z</time>
      </trkpt>
      <trkpt lat="46.36414" lon="5.00272">
        <ele>212</ele>
        <time>2021-01-02T13:52:19.000Z</time>
      </trkpt>
      <trkpt lat="46.36414" lon="5.00272">
        <ele>212</ele>
        <time>2021-01-02T13:52:20.000Z</time>
      </trkpt>
      <trkpt lat="46.36414" lon="5.00272">
        <ele>212</ele>
        <time>2021-01-02T13:52:21.000Z</time>
      </trkpt>
      <trkpt lat="46.36414" lon="5.00272">
        <ele>212</ele>
        <time>2021-01-02T13:52:22.000Z</time>
      </trkpt>
      <trkpt lat="46.36414" lon="5.00272">
        <ele>212</ele>
        <time>2021-01-02T13:52:23.000Z</time>
      </trkpt>
      <trkpt lat="46.36414" lon="5.00272">
        <ele>212</ele>
        <time>2021-01-02T13:52:24.000Z</time>
      </trkpt>
      <trkpt lat="46.36414" lon="5.00272">
        <ele>212</ele>
        <time>2021-01-02T13:52:25.000Z</time>
      </trkpt>
      <trkpt lat="46.36414" lon="5.00272">
        <ele>212</ele>
        <time>2021-01-02T13:52:26.000Z</time>
      </trkpt>
      <trkpt lat="46.36414" lon="5.00272">
        <ele>212</ele>
        <time>2021-01-02T13:52:27.000Z</time>
      </trkpt>
      <trkpt lat="46.36414" lon="5.00272">
        <ele>212</ele>
        <time>2021-01-02T13:52:28.000Z</time>
      </trkpt>
      <trkpt lat="46.36414" lon="5.00272">
        <ele>212</ele>
        <time>2021-01-02T13:52:29.000Z</time>
      </trkpt>
      <trkpt lat="46.36414" lon="5.00272">
        <ele>212</ele>
        <time>2021-01-02T13:52:30.000Z</time>
      </trkpt>
      <trkpt lat="46.36414" lon="5.00272">
        <ele>212</ele>
        <time>2021-01-02T13:52:31.000Z</time>
      </trkpt>
      <trkpt lat="46.36414" lon="5.00272">
        <ele>212</ele>
        <time>2021-01-02T13:52:32.000Z</time>
      </trkpt>
      <trkpt lat="46.36414" lon="5.00272">
        <ele>212</ele>
        <time>2021-01-02T13:52:33.000Z</time>
      </trkpt>
      <trkpt lat="46.36414" lon="5.00272">
        <ele>212</ele>
        <time>2021-01-02T13:52:34.000Z</time>
      </trkpt>
      <trkpt lat="46.36414" lon="5.00272">
        <ele>212</ele>
        <time>2021-01-02T13:52:35.000Z</time>
      </trkpt>
      <trkpt lat="46.36414" lon="5.00272">
        <ele>212</ele>
        <time>2021-01-02T13:52:36.000Z</time>
      </trkpt>
      <trkpt lat="46.36414" lon="5.00272">
        <ele>212</ele>
        <time>2021-01-02T13:52:37.000Z</time>
      </trkpt>
      <trkpt lat="46.36414" lon="5.00272">
        <ele>212</ele>
        <time>2021-01-02T13:52:38.000Z</time>
      </trkpt>
      <trkpt lat="46.36414" lon="5.00272">
        <ele>212</ele>
        <time>2021-01-02T13:52:39.000Z</time>
      </trkpt>
      <trkpt lat="46.36414" lon="5.00272">
        <ele>212</ele>
        <time>2021-01-02T13:52:40.000Z</time>
      </trkpt>
      <trkpt lat="46.36414" lon="5.00272">
        <ele>212</ele>
        <time>2021-01-02T13:52:41.000Z</time>
      </trkpt>
      <trkpt lat="46.36414" lon="5.00272">
        <ele>212</ele>
        <time>2021-01-02T13:52:42.000Z</time>
      </trkpt>
      <trkpt lat="46.36414" lon="5.00272">
        <ele>212</ele>
        <time>2021-01-02T13:52:43.000Z</time>
      </trkpt>
      <trkpt lat="46.36414" lon="5.00272">
        <ele>212</ele>
        <time>2021-01-02T13:52:44.000Z</time>
      </trkpt>
      <trkpt lat="46.36414" lon="5.00272">
        <ele>212</ele>
        <time>2021-01-02T13:52:45.000Z</time>
      </trkpt>
      <trkpt lat="46.36414" lon="5.00272">
        <ele>212</ele>
        <time>2021-01-02T13:52:46.000Z</time>
      </trkpt>
      <trkpt lat="46.36414" lon="5.00272">
        <ele>212</ele>
        <time>2021-01-02T13:52:47.000Z</time>
      </trkpt>
      <trkpt lat="46.36414" lon="5.00272">
        <ele>212</ele>
        <time>2021-01-02T13:52:48.000Z</time>
      </trkpt>
      <trkpt lat="46.36414" lon="5.00272">
        <ele>212</ele>
        <time>2021-01-02T13:52:49.000Z</time>
      </trkpt>
      <trkpt lat="46.36414" lon="5.00272">
        <ele>212</ele>
        <time>2021-01-02T13:52:50.000Z</time>
      </trkpt>
      <trkpt lat="46.36414" lon="5.00272">
        <ele>212</ele>
        <time>2021-01-02T13:52:51.000Z</time>
      </trkpt>
      <trkpt lat="46.36414" lon="5.00272">
        <ele>212</ele>
        <time>2021-01-02T13:52:52.000Z</time>
      </trkpt>
      <trkpt lat="46.36414" lon="5.00272">
        <ele>212</ele>
        <time>2021-01-02T13:52:53.000Z</time>
      </trkpt>
      <trkpt lat="46.36414" lon="5.00272">
        <ele>212</ele>
        <time>2021-01-02T13:52:54.000Z</time>
      </trkpt>
      <trkpt lat="46.36414" lon="5.00272">
        <ele>212</ele>
        <time>2021-01-02T13:52:55.000Z</time>
      </trkpt>
      <trkpt lat="46.36414" lon="5.00272">
        <ele>212</ele>
        <time>2021-01-02T13:52:56.000Z</time>
      </trkpt>
      <trkpt lat="46.36414" lon="5.00272">
        <ele>212</ele>
        <time>2021-01-02T13:52:57.000Z</time>
      </trkpt>
      <trkpt lat="46.36414" lon="5.00272">
        <ele>212</ele>
        <time>2021-01-02T13:52:58.000Z</time>
      </trkpt>
      <trkpt lat="46.36414" lon="5.00272">
        <ele>212</ele>
        <time>2021-01-02T13:52:59.000Z</time>
      </trkpt>
      <trkpt lat="46.36414" lon="5.00272">
        <ele>212</ele>
        <time>2021-01-02T13:53:00.000Z</time>
      </trkpt>
      <trkpt lat="46.36414" lon="5.00272">
        <ele>212</ele>
        <time>2021-01-02T13:53:01.000Z</time>
      </trkpt>
      <trkpt lat="46.36414" lon="5.00272">
        <ele>212</ele>
        <time>2021-01-02T13:53:02.000Z</time>
      </trkpt>
      <trkpt lat="46.36414" lon="5.00272">
        <ele>212</ele>
        <time>2021-01-02T13:53:03.000Z</time>
      </trkpt>
      <trkpt lat="46.36414" lon="5.00272">
        <ele>212</ele>
        <time>2021-01-02T13:53:04.000Z</time>
      </trkpt>
      <trkpt lat="46.36414" lon="5.00272">
        <ele>212</ele>
        <time>2021-01-02T13:53:05.000Z</time>
      </trkpt>
      <trkpt lat="46.36414" lon="5.00272">
        <ele>212</ele>
        <time>2021-01-02T13:53:06.000Z</time>
      </trkpt>
      <trkpt lat="46.36413" lon="5.00272">
        <ele>212</ele>
        <time>2021-01-02T13:53:07.000Z</time>
      </trkpt>
      <trkpt lat="46.36414" lon="5.00272">
        <ele>212</ele>
        <time>2021-01-02T13:53:08.000Z</time>
      </trkpt>
      <trkpt lat="46.36414" lon="5.00272">
        <ele>212</ele>
        <time>2021-01-02T13:53:09.000Z</time>
      </trkpt>
      <trkpt lat="46.36414" lon="5.00272">
        <ele>212</ele>
        <time>2021-01-02T13:53:10.000Z</time>
      </trkpt>
      <trkpt lat="46.36414" lon="5.00272">
        <ele>212</ele>
        <time>2021-01-02T13:53:11.000Z</time>
      </trkpt>
      <trkpt lat="46.36414" lon="5.00272">
        <ele>212</ele>
        <time>2021-01-02T13:53:12.000Z</time>
      </trkpt>
      <trkpt lat="46.36414" lon="5.00271">
        <ele>212</ele>
        <time>2021-01-02T13:53:13.000Z</time>
      </trkpt>
      <trkpt lat="46.36414" lon="5.00271">
        <ele>212</ele>
        <time>2021-01-02T13:53:14.000Z</time>
      </trkpt>
      <trkpt lat="46.36415" lon="5.0027">
        <ele>212</ele>
        <time>2021-01-02T13:53:15.000Z</time>
      </trkpt>
      <trkpt lat="46.36415" lon="5.00269">
        <ele>212</ele>
        <time>2021-01-02T13:53:16.000Z</time>
      </trkpt>
      <trkpt lat="46.36416" lon="5.00267">
        <ele>212</ele>
        <time>2021-01-02T13:53:17.000Z</time>
      </trkpt>
      <trkpt lat="46.36417" lon="5.00266">
        <ele>212</ele>
        <time>2021-01-02T13:53:18.000Z</time>
      </trkpt>
      <trkpt lat="46.36417" lon="5.00264">
        <ele>212</ele>
        <time>2021-01-02T13:53:19.000Z</time>
      </trkpt>
      <trkpt lat="46.36419" lon="5.00262">
        <ele>212</ele>
        <time>2021-01-02T13:53:20.000Z</time>
      </trkpt>
      <trkpt lat="46.3642" lon="5.0026">
        <ele>212</ele>
        <time>2021-01-02T13:53:21.000Z</time>
      </trkpt>
      <trkpt lat="46.36421" lon="5.00259">
        <ele>212</ele>
        <time>2021-01-02T13:53:22.000Z</time>
      </trkpt>
      <trkpt lat="46.36421" lon="5.00256">
        <ele>212</ele>
        <time>2021-01-02T13:53:23.000Z</time>
      </trkpt>
      <trkpt lat="46.36422" lon="5.00254">
        <ele>212</ele>
        <time>2021-01-02T13:53:24.000Z</time>
      </trkpt>
      <trkpt lat="46.36422" lon="5.00252">
        <ele>212</ele>
        <time>2021-01-02T13:53:25.000Z</time>
      </trkpt>
      <trkpt lat="46.36421" lon="5.0025">
        <ele>212</ele>
        <time>2021-01-02T13:53:26.000Z</time>
      </trkpt>
      <trkpt lat="46.36421" lon="5.00247">
        <ele>212</ele>
        <time>2021-01-02T13:53:27.000Z</time>
      </trkpt>
      <trkpt lat="46.36422" lon="5.00244">
        <ele>212</ele>
        <time>2021-01-02T13:53:28.000Z</time>
      </trkpt>
      <trkpt lat="46.36422" lon="5.00241">
        <ele>212</ele>
        <time>2021-01-02T13:53:29.000Z</time>
      </trkpt>
      <trkpt lat="46.36422" lon="5.00238">
        <ele>212</ele>
        <time>2021-01-02T13:53:30.000Z</time>
      </trkpt>
      <trkpt lat="46.36423" lon="5.00235">
        <ele>211</ele>
        <time>2021-01-02T13:53:31.000Z</time>
      </trkpt>
      <trkpt lat="46.36423" lon="5.00232">
        <ele>211</ele>
        <time>2021-01-02T13:53:32.000Z</time>
      </trkpt>
      <trkpt lat="46.36424" lon="5.00229">
        <ele>211</ele>
        <time>2021-01-02T13:53:33.000Z</time>
      </trkpt>
      <trkpt lat="46.36424" lon="5.00226">
        <ele>211</ele>
        <time>2021-01-02T13:53:34.000Z</time>
      </trkpt>
      <trkpt lat="46.36425" lon="5.00222">
        <ele>211</ele>
        <time>2021-01-02T13:53:35.000Z</time>
      </trkpt>
      <trkpt lat="46.36425" lon="5.00219">
        <ele>211</ele>
        <time>2021-01-02T13:53:36.000Z</time>
      </trkpt>
      <trkpt lat="46.36425" lon="5.00216">
        <ele>211</ele>
        <time>2021-01-02T13:53:37.000Z</time>
      </trkpt>
      <trkpt lat="46.36425" lon="5.00213">
        <ele>211</ele>
        <time>2021-01-02T13:53:38.000Z</time>
      </trkpt>
      <trkpt lat="46.36426" lon="5.0021">
        <ele>211</ele>
        <time>2021-01-02T13:53:39.000Z</time>
      </trkpt>
      <trkpt lat="46.36426" lon="5.00206">
        <ele>211</ele>
        <time>2021-01-02T13:53:40.000Z</time>
      </trkpt>
      <trkpt lat="46.36427" lon="5.00203">
        <ele>211</ele>
        <time>2021-01-02T13:53:41.000Z</time>
      </trkpt>
      <trkpt lat="46.36427" lon="5.00199">
        <ele>210</ele>
        <time>2021-01-02T13:53:42.000Z</time>
      </trkpt>
      <trkpt lat="46.36428" lon="5.00196">
        <ele>210</ele>
        <time>2021-01-02T13:53:43.000Z</time>
      </trkpt>
      <trkpt lat="46.36428" lon="5.00193">
        <ele>210</ele>
        <time>2021-01-02T13:53:44.000Z</time>
      </trkpt>
      <trkpt lat="46.36429" lon="5.00189">
        <ele>210</ele>
        <time>2021-01-02T13:53:45.000Z</time>
      </trkpt>
      <trkpt lat="46.36429" lon="5.00186">
        <ele>210</ele>
        <time>2021-01-02T13:53:46.000Z</time>
      </trkpt>
      <trkpt lat="46.3643" lon="5.00182">
        <ele>210</ele>
        <time>2021-01-02T13:53:47.000Z</time>
      </trkpt>
      <trkpt lat="46.3643" lon="5.00179">
        <ele>210</ele>
        <time>2021-01-02T13:53:48.000Z</time>
      </trkpt>
      <trkpt lat="46.36431" lon="5.00175">
        <ele>210</ele>
        <time>2021-01-02T13:53:49.000Z</time>
      </trkpt>
      <trkpt lat="46.36432" lon="5.00172">
        <ele>210</ele>
        <time>2021-01-02T13:53:50.000Z</time>
      </trkpt>
      <trkpt lat="46.36432" lon="5.00169">
        <ele>210</ele>
        <time>2021-01-02T13:53:51.000Z</time>
      </trkpt>
      <trkpt lat="46.36433" lon="5.00166">
        <ele>210</ele>
        <time>2021-01-02T13:53:52.000Z</time>
      </trkpt>
      <trkpt lat="46.36433" lon="5.00162">
        <ele>210</ele>
        <time>2021-01-02T13:53:53.000Z</time>
      </trkpt>
      <trkpt lat="46.36434" lon="5.00159">
        <ele>210</ele>
        <time>2021-01-02T13:53:54.000Z</time>
      </trkpt>
      <trkpt lat="46.36435" lon="5.00156">
        <ele>210</ele>
        <time>2021-01-02T13:53:55.000Z</time>
      </trkpt>
      <trkpt lat="46.36436" lon="5.00152">
        <ele>210</ele>
        <time>2021-01-02T13:53:56.000Z</time>
      </trkpt>
      <trkpt lat="46.36437" lon="5.00149">
        <ele>210</ele>
        <time>2021-01-02T13:53:57.000Z</time>
      </trkpt>
      <trkpt lat="46.36438" lon="5.00145">
        <ele>210</ele>
        <time>2021-01-02T13:53:58.000Z</time>
      </trkpt>
      <trkpt lat="46.36439" lon="5.00142">
        <ele>210</ele>
        <time>2021-01-02T13:53:59.000Z</time>
      </trkpt>
      <trkpt lat="46.3644" lon="5.00138">
        <ele>210</ele>
        <time>2021-01-02T13:54:00.000Z</time>
      </trkpt>
      <trkpt lat="46.3644" lon="5.00135">
        <ele>210</ele>
        <time>2021-01-02T13:54:01.000Z</time>
      </trkpt>
      <trkpt lat="46.36442" lon="5.00131">
        <ele>210</ele>
        <time>2021-01-02T13:54:02.000Z</time>
      </trkpt>
      <trkpt lat="46.36443" lon="5.00128">
        <ele>210</ele>
        <time>2021-01-02T13:54:03.000Z</time>
      </trkpt>
      <trkpt lat="46.36444" lon="5.00125">
        <ele>210</ele>
        <time>2021-01-02T13:54:04.000Z</time>
      </trkpt>
      <trkpt lat="46.36445" lon="5.00121">
        <ele>210</ele>
        <time>2021-01-02T13:54:05.000Z</time>
      </trkpt>
      <trkpt lat="46.36446" lon="5.00118">
        <ele>210</ele>
        <time>2021-01-02T13:54:06.000Z</time>
      </trkpt>
      <trkpt lat="46.36446" lon="5.00115">
        <ele>210</ele>
        <time>2021-01-02T13:54:07.000Z</time>
      </trkpt>
      <trkpt lat="46.36447" lon="5.00111">
        <ele>210</ele>
        <time>2021-01-02T13:54:08.000Z</time>
      </trkpt>
      <trkpt lat="46.36447" lon="5.00108">
        <ele>210</ele>
        <time>2021-01-02T13:54:09.000Z</time>
      </trkpt>
      <trkpt lat="46.36447" lon="5.00105">
        <ele>210</ele>
        <time>2021-01-02T13:54:10.000Z</time>
      </trkpt>
      <trkpt lat="46.36448" lon="5.00102">
        <ele>210</ele>
        <time>2021-01-02T13:54:11.000Z</time>
      </trkpt>
      <trkpt lat="46.36448" lon="5.00098">
        <ele>210</ele>
        <time>2021-01-02T13:54:12.000Z</time>
      </trkpt>
      <trkpt lat="46.36448" lon="5.00095">
        <ele>210</ele>
        <time>2021-01-02T13:54:13.000Z</time>
      </trkpt>
      <trkpt lat="46.36447" lon="5.00092">
        <ele>210</ele>
        <time>2021-01-02T13:54:14.000Z</time>
      </trkpt>
      <trkpt lat="46.36447" lon="5.0009">
        <ele>210</ele>
        <time>2021-01-02T13:54:15.000Z</time>
      </trkpt>
      <trkpt lat="46.36447" lon="5.00087">
        <ele>210</ele>
        <time>2021-01-02T13:54:16.000Z</time>
      </trkpt>
      <trkpt lat="46.36447" lon="5.00084">
        <ele>210</ele>
        <time>2021-01-02T13:54:17.000Z</time>
      </trkpt>
      <trkpt lat="46.36447" lon="5.00081">
        <ele>210</ele>
        <time>2021-01-02T13:54:18.000Z</time>
      </trkpt>
      <trkpt lat="46.36447" lon="5.00078">
        <ele>210</ele>
        <time>2021-01-02T13:54:19.000Z</time>
      </trkpt>
      <trkpt lat="46.36446" lon="5.00076">
        <ele>210</ele>
        <time>2021-01-02T13:54:20.000Z</time>
      </trkpt>
      <trkpt lat="46.36445" lon="5.00073">
        <ele>210</ele>
        <time>2021-01-02T13:54:21.000Z</time>
      </trkpt>
      <trkpt lat="46.36444" lon="5.0007">
        <ele>210</ele>
        <time>2021-01-02T13:54:22.000Z</time>
      </trkpt>
      <trkpt lat="46.36444" lon="5.00068">
        <ele>210</ele>
        <time>2021-01-02T13:54:23.000Z</time>
      </trkpt>
      <trkpt lat="46.36443" lon="5.00065">
        <ele>210</ele>
        <time>2021-01-02T13:54:24.000Z</time>
      </trkpt>
      <trkpt lat="46.36442" lon="5.00063">
        <ele>210</ele>
        <time>2021-01-02T13:54:25.000Z</time>
      </trkpt>
      <trkpt lat="46.36441" lon="5.00061">
        <ele>210</ele>
        <time>2021-01-02T13:54:26.000Z</time>
      </trkpt>
      <trkpt lat="46.36441" lon="5.00058">
        <ele>210</ele>
        <time>2021-01-02T13:54:27.000Z</time>
      </trkpt>
      <trkpt lat="46.36439" lon="5.00056">
        <ele>210</ele>
        <time>2021-01-02T13:54:28.000Z</time>
      </trkpt>
      <trkpt lat="46.36438" lon="5.00054">
        <ele>211</ele>
        <time>2021-01-02T13:54:29.000Z</time>
      </trkpt>
      <trkpt lat="46.36437" lon="5.00052">
        <ele>211</ele>
        <time>2021-01-02T13:54:30.000Z</time>
      </trkpt>
      <trkpt lat="46.36436" lon="5.00049">
        <ele>211</ele>
        <time>2021-01-02T13:54:31.000Z</time>
      </trkpt>
      <trkpt lat="46.36436" lon="5.00047">
        <ele>211</ele>
        <time>2021-01-02T13:54:32.000Z</time>
      </trkpt>
      <trkpt lat="46.36435" lon="5.00045">
        <ele>211</ele>
        <time>2021-01-02T13:54:33.000Z</time>
      </trkpt>
      <trkpt lat="46.36434" lon="5.00042">
        <ele>211</ele>
        <time>2021-01-02T13:54:34.000Z</time>
      </trkpt>
      <trkpt lat="46.36433" lon="5.0004">
        <ele>211</ele>
        <time>2021-01-02T13:54:35.000Z</time>
      </trkpt>
      <trkpt lat="46.36433" lon="5.00038">
        <ele>211</ele>
        <time>2021-01-02T13:54:36.000Z</time>
      </trkpt>
      <trkpt lat="46.36432" lon="5.00035">
        <ele>211</ele>
        <time>2021-01-02T13:54:37.000Z</time>
      </trkpt>
      <trkpt lat="46.36432" lon="5.00032">
        <ele>211</ele>
        <time>2021-01-02T13:54:38.000Z</time>
      </trkpt>
      <trkpt lat="46.36432" lon="5.0003">
        <ele>211</ele>
        <time>2021-01-02T13:54:39.000Z</time>
      </trkpt>
      <trkpt lat="46.36431" lon="5.00028">
        <ele>211</ele>
        <time>2021-01-02T13:54:40.000Z</time>
      </trkpt>
      <trkpt lat="46.36431" lon="5.00025">
        <ele>211</ele>
        <time>2021-01-02T13:54:41.000Z</time>
      </trkpt>
      <trkpt lat="46.3643" lon="5.00023">
        <ele>211</ele>
        <time>2021-01-02T13:54:42.000Z</time>
      </trkpt>
      <trkpt lat="46.3643" lon="5.0002">
        <ele>211</ele>
        <time>2021-01-02T13:54:43.000Z</time>
      </trkpt>
      <trkpt lat="46.36429" lon="5.00018">
        <ele>211</ele>
        <time>2021-01-02T13:54:44.000Z</time>
      </trkpt>
      <trkpt lat="46.36429" lon="5.00016">
        <ele>211</ele>
        <time>2021-01-02T13:54:45.000Z</time>
      </trkpt>
      <trkpt lat="46.36429" lon="5.00013">
        <ele>211</ele>
        <time>2021-01-02T13:54:46.000Z</time>
      </trkpt>
      <trkpt lat="46.36429" lon="5.0001">
        <ele>211</ele>
        <time>2021-01-02T13:54:47.000Z</time>
      </trkpt>
      <trkpt lat="46.36428" lon="5.00007">
        <ele>211</ele>
        <time>2021-01-02T13:54:48.000Z</time>
      </trkpt>
      <trkpt lat="46.36428" lon="5.00004">
        <ele>211</ele>
        <time>2021-01-02T13:54:49.000Z</time>
      </trkpt>
      <trkpt lat="46.36428" lon="5.00001">
        <ele>211</ele>
        <time>2021-01-02T13:54:50.000Z</time>
      </trkpt>
      <trkpt lat="46.36428" lon="4.99998">
        <ele>211</ele>
        <time>2021-01-02T13:54:51.000Z</time>
      </trkpt>
      <trkpt lat="46.36428" lon="4.99994">
        <ele>211</ele>
        <time>2021-01-02T13:54:52.000Z</time>
      </trkpt>
      <trkpt lat="46.36427" lon="4.99992">
        <ele>211</ele>
        <time>2021-01-02T13:54:53.000Z</time>
      </trkpt>
      <trkpt lat="46.36427" lon="4.99989">
        <ele>211</ele>
        <time>2021-01-02T13:54:54.000Z</time>
      </trkpt>
      <trkpt lat="46.36427" lon="4.99986">
        <ele>211</ele>
        <time>2021-01-02T13:54:55.000Z</time>
      </trkpt>
      <trkpt lat="46.36427" lon="4.99983">
        <ele>211</ele>
        <time>2021-01-02T13:54:56.000Z</time>
      </trkpt>
      <trkpt lat="46.36427" lon="4.9998">
        <ele>211</ele>
        <time>2021-01-02T13:54:57.000Z</time>
      </trkpt>
      <trkpt lat="46.36427" lon="4.99976">
        <ele>211</ele>
        <time>2021-01-02T13:54:58.000Z</time>
      </trkpt>
      <trkpt lat="46.36427" lon="4.99973">
        <ele>211</ele>
        <time>2021-01-02T13:54:59.000Z</time>
      </trkpt>
      <trkpt lat="46.36427" lon="4.9997">
        <ele>210</ele>
        <time>2021-01-02T13:55:00.000Z</time>
      </trkpt>
      <trkpt lat="46.36427" lon="4.99967">
        <ele>210</ele>
        <time>2021-01-02T13:55:01.000Z</time>
      </trkpt>
      <trkpt lat="46.36428" lon="4.99964">
        <ele>210</ele>
        <time>2021-01-02T13:55:02.000Z</time>
      </trkpt>
      <trkpt lat="46.36428" lon="4.9996">
        <ele>210</ele>
        <time>2021-01-02T13:55:03.000Z</time>
      </trkpt>
      <trkpt lat="46.36428" lon="4.99957">
        <ele>210</ele>
        <time>2021-01-02T13:55:04.000Z</time>
      </trkpt>
      <trkpt lat="46.36428" lon="4.99953">
        <ele>210</ele>
        <time>2021-01-02T13:55:05.000Z</time>
      </trkpt>
      <trkpt lat="46.36428" lon="4.9995">
        <ele>210</ele>
        <time>2021-01-02T13:55:06.000Z</time>
      </trkpt>
      <trkpt lat="46.36428" lon="4.99946">
        <ele>210</ele>
        <time>2021-01-02T13:55:07.000Z</time>
      </trkpt>
      <trkpt lat="46.36429" lon="4.99942">
        <ele>210</ele>
        <time>2021-01-02T13:55:08.000Z</time>
      </trkpt>
      <trkpt lat="46.36429" lon="4.99938">
        <ele>210</ele>
        <time>2021-01-02T13:55:09.000Z</time>
      </trkpt>
      <trkpt lat="46.3643" lon="4.99934">
        <ele>210</ele>
        <time>2021-01-02T13:55:10.000Z</time>
      </trkpt>
      <trkpt lat="46.3643" lon="4.99931">
        <ele>210</ele>
        <time>2021-01-02T13:55:11.000Z</time>
      </trkpt>
      <trkpt lat="46.36431" lon="4.99928">
        <ele>210</ele>
        <time>2021-01-02T13:55:12.000Z</time>
      </trkpt>
      <trkpt lat="46.36432" lon="4.99925">
        <ele>210</ele>
        <time>2021-01-02T13:55:13.000Z</time>
      </trkpt>
      <trkpt lat="46.36433" lon="4.99922">
        <ele>210</ele>
        <time>2021-01-02T13:55:14.000Z</time>
      </trkpt>
      <trkpt lat="46.36434" lon="4.99918">
        <ele>210</ele>
        <time>2021-01-02T13:55:15.000Z</time>
      </trkpt>
      <trkpt lat="46.36435" lon="4.99915">
        <ele>210</ele>
        <time>2021-01-02T13:55:16.000Z</time>
      </trkpt>
      <trkpt lat="46.36437" lon="4.99911">
        <ele>209</ele>
        <time>2021-01-02T13:55:17.000Z</time>
      </trkpt>
      <trkpt lat="46.36438" lon="4.99908">
        <ele>209</ele>
        <time>2021-01-02T13:55:18.000Z</time>
      </trkpt>
      <trkpt lat="46.3644" lon="4.99904">
        <ele>209</ele>
        <time>2021-01-02T13:55:19.000Z</time>
      </trkpt>
      <trkpt lat="46.36441" lon="4.999">
        <ele>209</ele>
        <time>2021-01-02T13:55:20.000Z</time>
      </trkpt>
      <trkpt lat="46.36443" lon="4.99896">
        <ele>209</ele>
        <time>2021-01-02T13:55:21.000Z</time>
      </trkpt>
      <trkpt lat="46.36444" lon="4.99893">
        <ele>209</ele>
        <time>2021-01-02T13:55:22.000Z</time>
      </trkpt>
      <trkpt lat="46.36445" lon="4.99889">
        <ele>209</ele>
        <time>2021-01-02T13:55:23.000Z</time>
      </trkpt>
      <trkpt lat="46.36447" lon="4.99887">
        <ele>209</ele>
        <time>2021-01-02T13:55:24.000Z</time>
      </trkpt>
      <trkpt lat="46.36448" lon="4.99885">
        <ele>209</ele>
        <time>2021-01-02T13:55:25.000Z</time>
      </trkpt>
      <trkpt lat="46.36449" lon="4.99882">
        <ele>209</ele>
        <time>2021-01-02T13:55:26.000Z</time>
      </trkpt>
      <trkpt lat="46.3645" lon="4.9988">
        <ele>209</ele>
        <time>2021-01-02T13:55:27.000Z</time>
      </trkpt>
      <trkpt lat="46.36451" lon="4.99878">
        <ele>209</ele>
        <time>2021-01-02T13:55:28.000Z</time>
      </trkpt>
      <trkpt lat="46.36453" lon="4.99877">
        <ele>209</ele>
        <time>2021-01-02T13:55:29.000Z</time>
      </trkpt>
      <trkpt lat="46.36454" lon="4.99877">
        <ele>209</ele>
        <time>2021-01-02T13:55:30.000Z</time>
      </trkpt>
      <trkpt lat="46.36456" lon="4.99875">
        <ele>209</ele>
        <time>2021-01-02T13:55:31.000Z</time>
      </trkpt>
      <trkpt lat="46.36457" lon="4.99873">
        <ele>209</ele>
        <time>2021-01-02T13:55:32.000Z</time>
      </trkpt>
      <trkpt lat="46.36458" lon="4.99871">
        <ele>209</ele>
        <time>2021-01-02T13:55:33.000Z</time>
      </trkpt>
      <trkpt lat="46.36459" lon="4.9987">
        <ele>209</ele>
        <time>2021-01-02T13:55:34.000Z</time>
      </trkpt>
      <trkpt lat="46.36461" lon="4.99869">
        <ele>209</ele>
        <time>2021-01-02T13:55:35.000Z</time>
      </trkpt>
      <trkpt lat="46.36463" lon="4.99868">
        <ele>209</ele>
        <time>2021-01-02T13:55:36.000Z</time>
      </trkpt>
      <trkpt lat="46.36464" lon="4.99866">
        <ele>209</ele>
        <time>2021-01-02T13:55:37.000Z</time>
      </trkpt>
      <trkpt lat="46.36466" lon="4.99864">
        <ele>209</ele>
        <time>2021-01-02T13:55:38.000Z</time>
      </trkpt>
      <trkpt lat="46.36467" lon="4.99863">
        <ele>209</ele>
        <time>2021-01-02T13:55:39.000Z</time>
      </trkpt>
      <trkpt lat="46.36469" lon="4.99862">
        <ele>209</ele>
        <time>2021-01-02T13:55:40.000Z</time>
      </trkpt>
      <trkpt lat="46.3647" lon="4.9986">
        <ele>209</ele>
        <time>2021-01-02T13:55:41.000Z</time>
      </trkpt>
      <trkpt lat="46.36471" lon="4.99859">
        <ele>209</ele>
        <time>2021-01-02T13:55:42.000Z</time>
      </trkpt>
      <trkpt lat="46.36473" lon="4.99857">
        <ele>209</ele>
        <time>2021-01-02T13:55:43.000Z</time>
      </trkpt>
      <trkpt lat="46.36474" lon="4.99856">
        <ele>209</ele>
        <time>2021-01-02T13:55:44.000Z</time>
      </trkpt>
      <trkpt lat="46.36476" lon="4.99855">
        <ele>209</ele>
        <time>2021-01-02T13:55:45.000Z</time>
      </trkpt>
      <trkpt lat="46.36478" lon="4.99854">
        <ele>209</ele>
        <time>2021-01-02T13:55:46.000Z</time>
      </trkpt>
      <trkpt lat="46.3648" lon="4.99853">
        <ele>209</ele>
        <time>2021-01-02T13:55:47.000Z</time>
      </trkpt>
      <trkpt lat="46.36482" lon="4.99853">
        <ele>209</ele>
        <time>2021-01-02T13:55:48.000Z</time>
      </trkpt>
      <trkpt lat="46.36485" lon="4.99852">
        <ele>209</ele>
        <time>2021-01-02T13:55:49.000Z</time>
      </trkpt>
      <trkpt lat="46.36486" lon="4.99851">
        <ele>209</ele>
        <time>2021-01-02T13:55:50.000Z</time>
      </trkpt>
      <trkpt lat="46.36488" lon="4.99851">
        <ele>209</ele>
        <time>2021-01-02T13:55:51.000Z</time>
      </trkpt>
      <trkpt lat="46.3649" lon="4.9985">
        <ele>209</ele>
        <time>2021-01-02T13:55:52.000Z</time>
      </trkpt>
      <trkpt lat="46.36492" lon="4.99849">
        <ele>209</ele>
        <time>2021-01-02T13:55:53.000Z</time>
      </trkpt>
      <trkpt lat="46.36494" lon="4.99849">
        <ele>209</ele>
        <time>2021-01-02T13:55:54.000Z</time>
      </trkpt>
      <trkpt lat="46.36495" lon="4.99849">
        <ele>209</ele>
        <time>2021-01-02T13:55:55.000Z</time>
      </trkpt>
      <trkpt lat="46.36497" lon="4.99849">
        <ele>209</ele>
        <time>2021-01-02T13:55:56.000Z</time>
      </trkpt>
      <trkpt lat="46.36499" lon="4.99849">
        <ele>209</ele>
        <time>2021-01-02T13:55:57.000Z</time>
      </trkpt>
      <trkpt lat="46.365" lon="4.99849">
        <ele>209</ele>
        <time>2021-01-02T13:55:58.000Z</time>
      </trkpt>
      <trkpt lat="46.36502" lon="4.99849">
        <ele>209</ele>
        <time>2021-01-02T13:55:59.000Z</time>
      </trkpt>
      <trkpt lat="46.36504" lon="4.99849">
        <ele>209</ele>
        <time>2021-01-02T13:56:00.000Z</time>
      </trkpt>
      <trkpt lat="46.36506" lon="4.99849">
        <ele>209</ele>
        <time>2021-01-02T13:56:01.000Z</time>
      </trkpt>
      <trkpt lat="46.36507" lon="4.99849">
        <ele>209</ele>
        <time>2021-01-02T13:56:02.000Z</time>
      </trkpt>
      <trkpt lat="46.36509" lon="4.9985">
        <ele>209</ele>
        <time>2021-01-02T13:56:03.000Z</time>
      </trkpt>
      <trkpt lat="46.36511" lon="4.9985">
        <ele>209</ele>
        <time>2021-01-02T13:56:04.000Z</time>
      </trkpt>
      <trkpt lat="46.36513" lon="4.9985">
        <ele>209</ele>
        <time>2021-01-02T13:56:05.000Z</time>
      </trkpt>
      <trkpt lat="46.36515" lon="4.9985">
        <ele>209</ele>
        <time>2021-01-02T13:56:06.000Z</time>
      </trkpt>
      <trkpt lat="46.36517" lon="4.99851">
        <ele>209</ele>
        <time>2021-01-02T13:56:07.000Z</time>
      </trkpt>
      <trkpt lat="46.36519" lon="4.99851">
        <ele>209</ele>
        <time>2021-01-02T13:56:08.000Z</time>
      </trkpt>
      <trkpt lat="46.36521" lon="4.99851">
        <ele>209</ele>
        <time>2021-01-02T13:56:09.000Z</time>
      </trkpt>
      <trkpt lat="46.36522" lon="4.99852">
        <ele>208</ele>
        <time>2021-01-02T13:56:10.000Z</time>
      </trkpt>
      <trkpt lat="46.36524" lon="4.99852">
        <ele>208</ele>
        <time>2021-01-02T13:56:11.000Z</time>
      </trkpt>
      <trkpt lat="46.36526" lon="4.99852">
        <ele>208</ele>
        <time>2021-01-02T13:56:12.000Z</time>
      </trkpt>
      <trkpt lat="46.36527" lon="4.99852">
        <ele>208</ele>
        <time>2021-01-02T13:56:13.000Z</time>
      </trkpt>
      <trkpt lat="46.36529" lon="4.99853">
        <ele>208</ele>
        <time>2021-01-02T13:56:14.000Z</time>
      </trkpt>
      <trkpt lat="46.3653" lon="4.99853">
        <ele>208</ele>
        <time>2021-01-02T13:56:15.000Z</time>
      </trkpt>
      <trkpt lat="46.36532" lon="4.99853">
        <ele>208</ele>
        <time>2021-01-02T13:56:16.000Z</time>
      </trkpt>
      <trkpt lat="46.36534" lon="4.99853">
        <ele>208</ele>
        <time>2021-01-02T13:56:17.000Z</time>
      </trkpt>
      <trkpt lat="46.36535" lon="4.99853">
        <ele>208</ele>
        <time>2021-01-02T13:56:18.000Z</time>
      </trkpt>
      <trkpt lat="46.36537" lon="4.99853">
        <ele>208</ele>
        <time>2021-01-02T13:56:19.000Z</time>
      </trkpt>
      <trkpt lat="46.36539" lon="4.99854">
        <ele>208</ele>
        <time>2021-01-02T13:56:20.000Z</time>
      </trkpt>
      <trkpt lat="46.36541" lon="4.99854">
        <ele>208</ele>
        <time>2021-01-02T13:56:21.000Z</time>
      </trkpt>
      <trkpt lat="46.36543" lon="4.99855">
        <ele>208</ele>
        <time>2021-01-02T13:56:22.000Z</time>
      </trkpt>
      <trkpt lat="46.36545" lon="4.99855">
        <ele>208</ele>
        <time>2021-01-02T13:56:23.000Z</time>
      </trkpt>
      <trkpt lat="46.36546" lon="4.99855">
        <ele>208</ele>
        <time>2021-01-02T13:56:24.000Z</time>
      </trkpt>
      <trkpt lat="46.36548" lon="4.99855">
        <ele>208</ele>
        <time>2021-01-02T13:56:25.000Z</time>
      </trkpt>
      <trkpt lat="46.3655" lon="4.99856">
        <ele>208</ele>
        <time>2021-01-02T13:56:26.000Z</time>
      </trkpt>
      <trkpt lat="46.36552" lon="4.99856">
        <ele>208</ele>
        <time>2021-01-02T13:56:27.000Z</time>
      </trkpt>
      <trkpt lat="46.36553" lon="4.99856">
        <ele>208</ele>
        <time>2021-01-02T13:56:28.000Z</time>
      </trkpt>
      <trkpt lat="46.36555" lon="4.99856">
        <ele>208</ele>
        <time>2021-01-02T13:56:29.000Z</time>
      </trkpt>
      <trkpt lat="46.36557" lon="4.99856">
        <ele>208</ele>
        <time>2021-01-02T13:56:30.000Z</time>
      </trkpt>
      <trkpt lat="46.36558" lon="4.99857">
        <ele>208</ele>
        <time>2021-01-02T13:56:31.000Z</time>
      </trkpt>
      <trkpt lat="46.36558" lon="4.99857">
        <ele>208</ele>
        <time>2021-01-02T13:56:32.000Z</time>
      </trkpt>
      <trkpt lat="46.36558" lon="4.99857">
        <ele>208</ele>
        <time>2021-01-02T13:56:33.000Z</time>
      </trkpt>
      <trkpt lat="46.36559" lon="4.99857">
        <ele>208</ele>
        <time>2021-01-02T13:56:34.000Z</time>
      </trkpt>
      <trkpt lat="46.3656" lon="4.99857">
        <ele>208</ele>
        <time>2021-01-02T13:56:35.000Z</time>
      </trkpt>
      <trkpt lat="46.36561" lon="4.99857">
        <ele>208</ele>
        <time>2021-01-02T13:56:36.000Z</time>
      </trkpt>
      <trkpt lat="46.36562" lon="4.99858">
        <ele>208</ele>
        <time>2021-01-02T13:56:37.000Z</time>
      </trkpt>
      <trkpt lat="46.36562" lon="4.99859">
        <ele>208</ele>
        <time>2021-01-02T13:56:38.000Z</time>
      </trkpt>
      <trkpt lat="46.36562" lon="4.99858">
        <ele>208</ele>
        <time>2021-01-02T13:56:39.000Z</time>
      </trkpt>
      <trkpt lat="46.36562" lon="4.99857">
        <ele>208</ele>
        <time>2021-01-02T13:56:40.000Z</time>
      </trkpt>
      <trkpt lat="46.3656" lon="4.99857">
        <ele>208</ele>
        <time>2021-01-02T13:56:41.000Z</time>
      </trkpt>
      <trkpt lat="46.36559" lon="4.99857">
        <ele>208</ele>
        <time>2021-01-02T13:56:42.000Z</time>
      </trkpt>
      <trkpt lat="46.36559" lon="4.99857">
        <ele>208</ele>
        <time>2021-01-02T13:56:43.000Z</time>
      </trkpt>
      <trkpt lat="46.36559" lon="4.99857">
        <ele>208</ele>
        <time>2021-01-02T13:56:44.000Z</time>
      </trkpt>
      <trkpt lat="46.36559" lon="4.99856">
        <ele>208</ele>
        <time>2021-01-02T13:56:45.000Z</time>
      </trkpt>
      <trkpt lat="46.36559" lon="4.99856">
        <ele>208</ele>
        <time>2021-01-02T13:56:46.000Z</time>
      </trkpt>
      <trkpt lat="46.3656" lon="4.99856">
        <ele>208</ele>
        <time>2021-01-02T13:56:47.000Z</time>
      </trkpt>
      <trkpt lat="46.3656" lon="4.99856">
        <ele>208</ele>
        <time>2021-01-02T13:56:48.000Z</time>
      </trkpt>
      <trkpt lat="46.3656" lon="4.99856">
        <ele>208</ele>
        <time>2021-01-02T13:56:49.000Z</time>
      </trkpt>
      <trkpt lat="46.3656" lon="4.99856">
        <ele>208</ele>
        <time>2021-01-02T13:56:50.000Z</time>
      </trkpt>
      <trkpt lat="46.3656" lon="4.99857">
        <ele>208</ele>
        <time>2021-01-02T13:56:51.000Z</time>
      </trkpt>
      <trkpt lat="46.3656" lon="4.99857">
        <ele>208</ele>
        <time>2021-01-02T13:56:52.000Z</time>
      </trkpt>
      <trkpt lat="46.3656" lon="4.99858">
        <ele>208</ele>
        <time>2021-01-02T13:56:53.000Z</time>
      </trkpt>
      <trkpt lat="46.3656" lon="4.99857">
        <ele>208</ele>
        <time>2021-01-02T13:56:54.000Z</time>
      </trkpt>
      <trkpt lat="46.3656" lon="4.99857">
        <ele>208</ele>
        <time>2021-01-02T13:56:55.000Z</time>
      </trkpt>
      <trkpt lat="46.3656" lon="4.99857">
        <ele>208</ele>
        <time>2021-01-02T13:56:56.000Z</time>
      </trkpt>
      <trkpt lat="46.3656" lon="4.99857">
        <ele>208</ele>
        <time>2021-01-02T13:56:57.000Z</time>
      </trkpt>
      <trkpt lat="46.3656" lon="4.99857">
        <ele>208</ele>
        <time>2021-01-02T13:56:58.000Z</time>
      </trkpt>
      <trkpt lat="46.3656" lon="4.99857">
        <ele>208</ele>
        <time>2021-01-02T13:56:59.000Z</time>
      </trkpt>
      <trkpt lat="46.3656" lon="4.99857">
        <ele>208</ele>
        <time>2021-01-02T13:57:00.000Z</time>
      </trkpt>
      <trkpt lat="46.3656" lon="4.99857">
        <ele>208</ele>
        <time>2021-01-02T13:57:01.000Z</time>
      </trkpt>
      <trkpt lat="46.3656" lon="4.99857">
        <ele>208</ele>
        <time>2021-01-02T13:57:02.000Z</time>
      </trkpt>
      <trkpt lat="46.3656" lon="4.99857">
        <ele>208</ele>
        <time>2021-01-02T13:57:03.000Z</time>
      </trkpt>
      <trkpt lat="46.3656" lon="4.99857">
        <ele>208</ele>
        <time>2021-01-02T13:57:04.000Z</time>
      </trkpt>
      <trkpt lat="46.3656" lon="4.99857">
        <ele>208</ele>
        <time>2021-01-02T13:57:05.000Z</time>
      </trkpt>
      <trkpt lat="46.3656" lon="4.99857">
        <ele>208</ele>
        <time>2021-01-02T13:57:06.000Z</time>
      </trkpt>
      <trkpt lat="46.3656" lon="4.99857">
        <ele>208</ele>
        <time>2021-01-02T13:57:07.000Z</time>
      </trkpt>
      <trkpt lat="46.3656" lon="4.99857">
        <ele>208</ele>
        <time>2021-01-02T13:57:08.000Z</time>
      </trkpt>
      <trkpt lat="46.3656" lon="4.99857">
        <ele>208</ele>
        <time>2021-01-02T13:57:09.000Z</time>
      </trkpt>
      <trkpt lat="46.3656" lon="4.99857">
        <ele>208</ele>
        <time>2021-01-02T13:57:10.000Z</time>
      </trkpt>
      <trkpt lat="46.3656" lon="4.99857">
        <ele>208</ele>
        <time>2021-01-02T13:57:11.000Z</time>
      </trkpt>
      <trkpt lat="46.3656" lon="4.99857">
        <ele>208</ele>
        <time>2021-01-02T13:57:12.000Z</time>
      </trkpt>
      <trkpt lat="46.3656" lon="4.99857">
        <ele>208</ele>
        <time>2021-01-02T13:57:13.000Z</time>
      </trkpt>
      <trkpt lat="46.3656" lon="4.99857">
        <ele>208</ele>
        <time>2021-01-02T13:57:14.000Z</time>
      </trkpt>
      <trkpt lat="46.3656" lon="4.99857">
        <ele>208</ele>
        <time>2021-01-02T13:57:15.000Z</time>
      </trkpt>
      <trkpt lat="46.3656" lon="4.99857">
        <ele>208</ele>
        <time>2021-01-02T13:57:16.000Z</time>
      </trkpt>
      <trkpt lat="46.3656" lon="4.99857">
        <ele>208</ele>
        <time>2021-01-02T13:57:17.000Z</time>
      </trkpt>
      <trkpt lat="46.3656" lon="4.99857">
        <ele>208</ele>
        <time>2021-01-02T13:57:18.000Z</time>
      </trkpt>
      <trkpt lat="46.3656" lon="4.99857">
        <ele>208</ele>
        <time>2021-01-02T13:57:19.000Z</time>
      </trkpt>
      <trkpt lat="46.3656" lon="4.99857">
        <ele>208</ele>
        <time>2021-01-02T13:57:20.000Z</time>
      </trkpt>
      <trkpt lat="46.3656" lon="4.99857">
        <ele>208</ele>
        <time>2021-01-02T13:57:21.000Z</time>
      </trkpt>
      <trkpt lat="46.3656" lon="4.99857">
        <ele>208</ele>
        <time>2021-01-02T13:57:22.000Z</time>
      </trkpt>
      <trkpt lat="46.3656" lon="4.99857">
        <ele>208</ele>
        <time>2021-01-02T13:57:23.000Z</time>
      </trkpt>
      <trkpt lat="46.3656" lon="4.99857">
        <ele>208</ele>
        <time>2021-01-02T13:57:24.000Z</time>
      </trkpt>
      <trkpt lat="46.3656" lon="4.99857">
        <ele>208</ele>
        <time>2021-01-02T13:57:25.000Z</time>
      </trkpt>
      <trkpt lat="46.3656" lon="4.99857">
        <ele>208</ele>
        <time>2021-01-02T13:57:26.000Z</time>
      </trkpt>
      <trkpt lat="46.3656" lon="4.99857">
        <ele>208</ele>
        <time>2021-01-02T13:57:27.000Z</time>
      </trkpt>
      <trkpt lat="46.3656" lon="4.99857">
        <ele>208</ele>
        <time>2021-01-02T13:57:28.000Z</time>
      </trkpt>
      <trkpt lat="46.3656" lon="4.99857">
        <ele>208</ele>
        <time>2021-01-02T13:57:29.000Z</time>
      </trkpt>
      <trkpt lat="46.3656" lon="4.99857">
        <ele>208</ele>
        <time>2021-01-02T13:57:30.000Z</time>
      </trkpt>
      <trkpt lat="46.3656" lon="4.99857">
        <ele>208</ele>
        <time>2021-01-02T13:57:31.000Z</time>
      </trkpt>
      <trkpt lat="46.3656" lon="4.99857">
        <ele>208</ele>
        <time>2021-01-02T13:57:32.000Z</time>
      </trkpt>
      <trkpt lat="46.3656" lon="4.99857">
        <ele>208</ele>
        <time>2021-01-02T13:57:33.000Z</time>
      </trkpt>
      <trkpt lat="46.3656" lon="4.99857">
        <ele>208</ele>
        <time>2021-01-02T13:57:34.000Z</time>
      </trkpt>
      <trkpt lat="46.3656" lon="4.99857">
        <ele>208</ele>
        <time>2021-01-02T13:57:35.000Z</time>
      </trkpt>
      <trkpt lat="46.3656" lon="4.99857">
        <ele>208</ele>
        <time>2021-01-02T13:57:36.000Z</time>
      </trkpt>
      <trkpt lat="46.3656" lon="4.99857">
        <ele>208</ele>
        <time>2021-01-02T13:57:37.000Z</time>
      </trkpt>
      <trkpt lat="46.3656" lon="4.99857">
        <ele>208</ele>
        <time>2021-01-02T13:57:38.000Z</time>
      </trkpt>
      <trkpt lat="46.3656" lon="4.99857">
        <ele>208</ele>
        <time>2021-01-02T13:57:39.000Z</time>
      </trkpt>
      <trkpt lat="46.3656" lon="4.99857">
        <ele>208</ele>
        <time>2021-01-02T13:57:40.000Z</time>
      </trkpt>
      <trkpt lat="46.3656" lon="4.99857">
        <ele>208</ele>
        <time>2021-01-02T13:57:41.000Z</time>
      </trkpt>
      <trkpt lat="46.3656" lon="4.99857">
        <ele>208</ele>
        <time>2021-01-02T13:57:42.000Z</time>
      </trkpt>
      <trkpt lat="46.3656" lon="4.99857">
        <ele>208</ele>
        <time>2021-01-02T13:57:43.000Z</time>
      </trkpt>
      <trkpt lat="46.3656" lon="4.99857">
        <ele>208</ele>
        <time>2021-01-02T13:57:44.000Z</time>
      </trkpt>
      <trkpt lat="46.36561" lon="4.99857">
        <ele>208</ele>
        <time>2021-01-02T13:57:45.000Z</time>
      </trkpt>
      <trkpt lat="46.3656" lon="4.99857">
        <ele>208</ele>
        <time>2021-01-02T13:57:46.000Z</time>
      </trkpt>
      <trkpt lat="46.3656" lon="4.99857">
        <ele>208</ele>
        <time>2021-01-02T13:57:47.000Z</time>
      </trkpt>
      <trkpt lat="46.3656" lon="4.99857">
        <ele>208</ele>
        <time>2021-01-02T13:57:48.000Z</time>
      </trkpt>
      <trkpt lat="46.3656" lon="4.99858">
        <ele>208</ele>
        <time>2021-01-02T13:57:49.000Z</time>
      </trkpt>
      <trkpt lat="46.3656" lon="4.99858">
        <ele>208</ele>
        <time>2021-01-02T13:57:50.000Z</time>
      </trkpt>
      <trkpt lat="46.3656" lon="4.99857">
        <ele>208</ele>
        <time>2021-01-02T13:57:51.000Z</time>
      </trkpt>
      <trkpt lat="46.3656" lon="4.99857">
        <ele>208</ele>
        <time>2021-01-02T13:57:52.000Z</time>
      </trkpt>
      <trkpt lat="46.3656" lon="4.99857">
        <ele>208</ele>
        <time>2021-01-02T13:57:53.000Z</time>
      </trkpt>
      <trkpt lat="46.3656" lon="4.99856">
        <ele>208</ele>
        <time>2021-01-02T13:57:54.000Z</time>
      </trkpt>
      <trkpt lat="46.3656" lon="4.99856">
        <ele>208</ele>
        <time>2021-01-02T13:57:55.000Z</time>
      </trkpt>
      <trkpt lat="46.3656" lon="4.99856">
        <ele>208</ele>
        <time>2021-01-02T13:57:56.000Z</time>
      </trkpt>
      <trkpt lat="46.3656" lon="4.99856">
        <ele>208</ele>
        <time>2021-01-02T13:57:57.000Z</time>
      </trkpt>
      <trkpt lat="46.3656" lon="4.99856">
        <ele>208</ele>
        <time>2021-01-02T13:57:58.000Z</time>
      </trkpt>
      <trkpt lat="46.3656" lon="4.99856">
        <ele>208</ele>
        <time>2021-01-02T13:57:59.000Z</time>
      </trkpt>
      <trkpt lat="46.3656" lon="4.99856">
        <ele>208</ele>
        <time>2021-01-02T13:58:00.000Z</time>
      </trkpt>
      <trkpt lat="46.3656" lon="4.99856">
        <ele>208</ele>
        <time>2021-01-02T13:58:01.000Z</time>
      </trkpt>
      <trkpt lat="46.3656" lon="4.99856">
        <ele>208</ele>
        <time>2021-01-02T13:58:02.000Z</time>
      </trkpt>
      <trkpt lat="46.3656" lon="4.99856">
        <ele>208</ele>
        <time>2021-01-02T13:58:03.000Z</time>
      </trkpt>
      <trkpt lat="46.3656" lon="4.99856">
        <ele>208</ele>
        <time>2021-01-02T13:58:04.000Z</time>
      </trkpt>
      <trkpt lat="46.3656" lon="4.99856">
        <ele>208</ele>
        <time>2021-01-02T13:58:05.000Z</time>
      </trkpt>
      <trkpt lat="46.3656" lon="4.99856">
        <ele>208</ele>
        <time>2021-01-02T13:58:06.000Z</time>
      </trkpt>
      <trkpt lat="46.3656" lon="4.99856">
        <ele>208</ele>
        <time>2021-01-02T13:58:07.000Z</time>
      </trkpt>
      <trkpt lat="46.3656" lon="4.99856">
        <ele>208</ele>
        <time>2021-01-02T13:58:08.000Z</time>
      </trkpt>
      <trkpt lat="46.3656" lon="4.99856">
        <ele>208</ele>
        <time>2021-01-02T13:58:09.000Z</time>
      </trkpt>
      <trkpt lat="46.3656" lon="4.99856">
        <ele>208</ele>
        <time>2021-01-02T13:58:10.000Z</time>
      </trkpt>
      <trkpt lat="46.3656" lon="4.99856">
        <ele>208</ele>
        <time>2021-01-02T13:58:11.000Z</time>
      </trkpt>
      <trkpt lat="46.3656" lon="4.99856">
        <ele>208</ele>
        <time>2021-01-02T13:58:12.000Z</time>
      </trkpt>
      <trkpt lat="46.3656" lon="4.99856">
        <ele>208</ele>
        <time>2021-01-02T13:58:13.000Z</time>
      </trkpt>
      <trkpt lat="46.3656" lon="4.99856">
        <ele>208</ele>
        <time>2021-01-02T13:58:14.000Z</time>
      </trkpt>
      <trkpt lat="46.3656" lon="4.99856">
        <ele>208</ele>
        <time>2021-01-02T13:58:15.000Z</time>
      </trkpt>
      <trkpt lat="46.3656" lon="4.99856">
        <ele>208</ele>
        <time>2021-01-02T13:58:16.000Z</time>
      </trkpt>
      <trkpt lat="46.3656" lon="4.99856">
        <ele>208</ele>
        <time>2021-01-02T13:58:17.000Z</time>
      </trkpt>
      <trkpt lat="46.3656" lon="4.99856">
        <ele>208</ele>
        <time>2021-01-02T13:58:18.000Z</time>
      </trkpt>
      <trkpt lat="46.3656" lon="4.99856">
        <ele>208</ele>
        <time>2021-01-02T13:58:19.000Z</time>
      </trkpt>
      <trkpt lat="46.3656" lon="4.99856">
        <ele>208</ele>
        <time>2021-01-02T13:58:20.000Z</time>
      </trkpt>
      <trkpt lat="46.3656" lon="4.99856">
        <ele>208</ele>
        <time>2021-01-02T13:58:21.000Z</time>
      </trkpt>
      <trkpt lat="46.3656" lon="4.99856">
        <ele>208</ele>
        <time>2021-01-02T13:58:22.000Z</time>
      </trkpt>
      <trkpt lat="46.3656" lon="4.99856">
        <ele>208</ele>
        <time>2021-01-02T13:58:23.000Z</time>
      </trkpt>
      <trkpt lat="46.3656" lon="4.99856">
        <ele>208</ele>
        <time>2021-01-02T13:58:24.000Z</time>
      </trkpt>
      <trkpt lat="46.3656" lon="4.99856">
        <ele>208</ele>
        <time>2021-01-02T13:58:25.000Z</time>
      </trkpt>
      <trkpt lat="46.3656" lon="4.99856">
        <ele>208</ele>
        <time>2021-01-02T13:58:26.000Z</time>
      </trkpt>
      <trkpt lat="46.3656" lon="4.99856">
        <ele>208</ele>
        <time>2021-01-02T13:58:27.000Z</time>
      </trkpt>
      <trkpt lat="46.3656" lon="4.99856">
        <ele>208</ele>
        <time>2021-01-02T13:58:28.000Z</time>
      </trkpt>
      <trkpt lat="46.3656" lon="4.99856">
        <ele>208</ele>
        <time>2021-01-02T13:58:29.000Z</time>
      </trkpt>
      <trkpt lat="46.3656" lon="4.99856">
        <ele>208</ele>
        <time>2021-01-02T13:58:30.000Z</time>
      </trkpt>
      <trkpt lat="46.3656" lon="4.99856">
        <ele>208</ele>
        <time>2021-01-02T13:58:31.000Z</time>
      </trkpt>
      <trkpt lat="46.3656" lon="4.99856">
        <ele>208</ele>
        <time>2021-01-02T13:58:32.000Z</time>
      </trkpt>
      <trkpt lat="46.3656" lon="4.99856">
        <ele>208</ele>
        <time>2021-01-02T13:58:33.000Z</time>
      </trkpt>
      <trkpt lat="46.3656" lon="4.99856">
        <ele>208</ele>
        <time>2021-01-02T13:58:34.000Z</time>
      </trkpt>
      <trkpt lat="46.3656" lon="4.99856">
        <ele>208</ele>
        <time>2021-01-02T13:58:35.000Z</time>
      </trkpt>
      <trkpt lat="46.3656" lon="4.99856">
        <ele>208</ele>
        <time>2021-01-02T13:58:36.000Z</time>
      </trkpt>
      <trkpt lat="46.3656" lon="4.99856">
        <ele>208</ele>
        <time>2021-01-02T13:58:37.000Z</time>
      </trkpt>
      <trkpt lat="46.3656" lon="4.99856">
        <ele>208</ele>
        <time>2021-01-02T13:58:38.000Z</time>
      </trkpt>
      <trkpt lat="46.3656" lon="4.99856">
        <ele>208</ele>
        <time>2021-01-02T13:58:39.000Z</time>
      </trkpt>
      <trkpt lat="46.3656" lon="4.99856">
        <ele>208</ele>
        <time>2021-01-02T13:58:40.000Z</time>
      </trkpt>
      <trkpt lat="46.3656" lon="4.99856">
        <ele>208</ele>
        <time>2021-01-02T13:58:41.000Z</time>
      </trkpt>
      <trkpt lat="46.3656" lon="4.99856">
        <ele>208</ele>
        <time>2021-01-02T13:58:42.000Z</time>
      </trkpt>
      <trkpt lat="46.3656" lon="4.99856">
        <ele>208</ele>
        <time>2021-01-02T13:58:43.000Z</time>
      </trkpt>
      <trkpt lat="46.3656" lon="4.99856">
        <ele>208</ele>
        <time>2021-01-02T13:58:44.000Z</time>
      </trkpt>
      <trkpt lat="46.3656" lon="4.99856">
        <ele>208</ele>
        <time>2021-01-02T13:58:45.000Z</time>
      </trkpt>
      <trkpt lat="46.3656" lon="4.99856">
        <ele>208</ele>
        <time>2021-01-02T13:58:46.000Z</time>
      </trkpt>
      <trkpt lat="46.3656" lon="4.99856">
        <ele>208</ele>
        <time>2021-01-02T13:58:47.000Z</time>
      </trkpt>
      <trkpt lat="46.3656" lon="4.99856">
        <ele>208</ele>
        <time>2021-01-02T13:58:48.000Z</time>
      </trkpt>
      <trkpt lat="46.3656" lon="4.99856">
        <ele>208</ele>
        <time>2021-01-02T13:58:49.000Z</time>
      </trkpt>
      <trkpt lat="46.3656" lon="4.99856">
        <ele>208</ele>
        <time>2021-01-02T13:58:50.000Z</time>
      </trkpt>
      <trkpt lat="46.3656" lon="4.99856">
        <ele>208</ele>
        <time>2021-01-02T13:58:51.000Z</time>
      </trkpt>
      <trkpt lat="46.3656" lon="4.99856">
        <ele>208</ele>
        <time>2021-01-02T13:58:52.000Z</time>
      </trkpt>
      <trkpt lat="46.3656" lon="4.99856">
        <ele>208</ele>
        <time>2021-01-02T13:58:53.000Z</time>
      </trkpt>
      <trkpt lat="46.3656" lon="4.99856">
        <ele>208</ele>
        <time>2021-01-02T13:58:54.000Z</time>
      </trkpt>
      <trkpt lat="46.3656" lon="4.99856">
        <ele>208</ele>
        <time>2021-01-02T13:58:55.000Z</time>
      </trkpt>
      <trkpt lat="46.3656" lon="4.99856">
        <ele>208</ele>
        <time>2021-01-02T13:58:56.000Z</time>
      </trkpt>
      <trkpt lat="46.3656" lon="4.99856">
        <ele>208</ele>
        <time>2021-01-02T13:58:57.000Z</time>
      </trkpt>
      <trkpt lat="46.3656" lon="4.99856">
        <ele>208</ele>
        <time>2021-01-02T13:58:58.000Z</time>
      </trkpt>
      <trkpt lat="46.3656" lon="4.99856">
        <ele>208</ele>
        <time>2021-01-02T13:58:59.000Z</time>
      </trkpt>
      <trkpt lat="46.3656" lon="4.99857">
        <ele>208</ele>
        <time>2021-01-02T13:59:00.000Z</time>
      </trkpt>
      <trkpt lat="46.3656" lon="4.99857">
        <ele>207</ele>
        <time>2021-01-02T13:59:01.000Z</time>
      </trkpt>
      <trkpt lat="46.3656" lon="4.99857">
        <ele>207</ele>
        <time>2021-01-02T13:59:02.000Z</time>
      </trkpt>
      <trkpt lat="46.3656" lon="4.99857">
        <ele>207</ele>
        <time>2021-01-02T13:59:03.000Z</time>
      </trkpt>
      <trkpt lat="46.3656" lon="4.99857">
        <ele>207</ele>
        <time>2021-01-02T13:59:04.000Z</time>
      </trkpt>
      <trkpt lat="46.3656" lon="4.99857">
        <ele>207</ele>
        <time>2021-01-02T13:59:05.000Z</time>
      </trkpt>
      <trkpt lat="46.36561" lon="4.99857">
        <ele>207</ele>
        <time>2021-01-02T13:59:06.000Z</time>
      </trkpt>
      <trkpt lat="46.36561" lon="4.99857">
        <ele>208</ele>
        <time>2021-01-02T13:59:07.000Z</time>
      </trkpt>
      <trkpt lat="46.36562" lon="4.99858">
        <ele>208</ele>
        <time>2021-01-02T13:59:08.000Z</time>
      </trkpt>
      <trkpt lat="46.36562" lon="4.99858">
        <ele>208</ele>
        <time>2021-01-02T13:59:09.000Z</time>
      </trkpt>
      <trkpt lat="46.36563" lon="4.99858">
        <ele>208</ele>
        <time>2021-01-02T13:59:10.000Z</time>
      </trkpt>
      <trkpt lat="46.36563" lon="4.99858">
        <ele>208</ele>
        <time>2021-01-02T13:59:11.000Z</time>
      </trkpt>
      <trkpt lat="46.36564" lon="4.99857">
        <ele>208</ele>
        <time>2021-01-02T13:59:12.000Z</time>
      </trkpt>
      <trkpt lat="46.36564" lon="4.99857">
        <ele>208</ele>
        <time>2021-01-02T13:59:13.000Z</time>
      </trkpt>
      <trkpt lat="46.36565" lon="4.99856">
        <ele>208</ele>
        <time>2021-01-02T13:59:14.000Z</time>
      </trkpt>
      <trkpt lat="46.36565" lon="4.99856">
        <ele>208</ele>
        <time>2021-01-02T13:59:15.000Z</time>
      </trkpt>
      <trkpt lat="46.36565" lon="4.99856">
        <ele>208</ele>
        <time>2021-01-02T13:59:16.000Z</time>
      </trkpt>
      <trkpt lat="46.36566" lon="4.99856">
        <ele>208</ele>
        <time>2021-01-02T13:59:17.000Z</time>
      </trkpt>
      <trkpt lat="46.36568" lon="4.99855">
        <ele>208</ele>
        <time>2021-01-02T13:59:18.000Z</time>
      </trkpt>
      <trkpt lat="46.36569" lon="4.99855">
        <ele>208</ele>
        <time>2021-01-02T13:59:19.000Z</time>
      </trkpt>
      <trkpt lat="46.3657" lon="4.99854">
        <ele>208</ele>
        <time>2021-01-02T13:59:20.000Z</time>
      </trkpt>
      <trkpt lat="46.36572" lon="4.99854">
        <ele>208</ele>
        <time>2021-01-02T13:59:21.000Z</time>
      </trkpt>
      <trkpt lat="46.36573" lon="4.99853">
        <ele>208</ele>
        <time>2021-01-02T13:59:22.000Z</time>
      </trkpt>
      <trkpt lat="46.36574" lon="4.99852">
        <ele>209</ele>
        <time>2021-01-02T13:59:23.000Z</time>
      </trkpt>
      <trkpt lat="46.36575" lon="4.99851">
        <ele>209</ele>
        <time>2021-01-02T13:59:24.000Z</time>
      </trkpt>
      <trkpt lat="46.36576" lon="4.9985">
        <ele>209</ele>
        <time>2021-01-02T13:59:25.000Z</time>
      </trkpt>
      <trkpt lat="46.36577" lon="4.99848">
        <ele>209</ele>
        <time>2021-01-02T13:59:26.000Z</time>
      </trkpt>
      <trkpt lat="46.36578" lon="4.99847">
        <ele>209</ele>
        <time>2021-01-02T13:59:27.000Z</time>
      </trkpt>
      <trkpt lat="46.36579" lon="4.99845">
        <ele>209</ele>
        <time>2021-01-02T13:59:28.000Z</time>
      </trkpt>
      <trkpt lat="46.3658" lon="4.99844">
        <ele>209</ele>
        <time>2021-01-02T13:59:29.000Z</time>
      </trkpt>
      <trkpt lat="46.36581" lon="4.99841">
        <ele>209</ele>
        <time>2021-01-02T13:59:30.000Z</time>
      </trkpt>
      <trkpt lat="46.36582" lon="4.99839">
        <ele>209</ele>
        <time>2021-01-02T13:59:31.000Z</time>
      </trkpt>
      <trkpt lat="46.36583" lon="4.99837">
        <ele>209</ele>
        <time>2021-01-02T13:59:32.000Z</time>
      </trkpt>
      <trkpt lat="46.36584" lon="4.99835">
        <ele>209</ele>
        <time>2021-01-02T13:59:33.000Z</time>
      </trkpt>
      <trkpt lat="46.36584" lon="4.99832">
        <ele>209</ele>
        <time>2021-01-02T13:59:34.000Z</time>
      </trkpt>
      <trkpt lat="46.36585" lon="4.9983">
        <ele>209</ele>
        <time>2021-01-02T13:59:35.000Z</time>
      </trkpt>
      <trkpt lat="46.36585" lon="4.99828">
        <ele>209</ele>
        <time>2021-01-02T13:59:36.000Z</time>
      </trkpt>
      <trkpt lat="46.36585" lon="4.99825">
        <ele>209</ele>
        <time>2021-01-02T13:59:37.000Z</time>
      </trkpt>
      <trkpt lat="46.36585" lon="4.99822">
        <ele>209</ele>
        <time>2021-01-02T13:59:38.000Z</time>
      </trkpt>
      <trkpt lat="46.36585" lon="4.99819">
        <ele>209</ele>
        <time>2021-01-02T13:59:39.000Z</time>
      </trkpt>
      <trkpt lat="46.36585" lon="4.99816">
        <ele>209</ele>
        <time>2021-01-02T13:59:40.000Z</time>
      </trkpt>
      <trkpt lat="46.36585" lon="4.99813">
        <ele>209</ele>
        <time>2021-01-02T13:59:41.000Z</time>
      </trkpt>
      <trkpt lat="46.36585" lon="4.9981">
        <ele>209</ele>
        <time>2021-01-02T13:59:42.000Z</time>
      </trkpt>
      <trkpt lat="46.36585" lon="4.99807">
        <ele>209</ele>
        <time>2021-01-02T13:59:43.000Z</time>
      </trkpt>
      <trkpt lat="46.36585" lon="4.99804">
        <ele>209</ele>
        <time>2021-01-02T13:59:44.000Z</time>
      </trkpt>
      <trkpt lat="46.36585" lon="4.998">
        <ele>209</ele>
        <time>2021-01-02T13:59:45.000Z</time>
      </trkpt>
      <trkpt lat="46.36585" lon="4.99797">
        <ele>209</ele>
        <time>2021-01-02T13:59:46.000Z</time>
      </trkpt>
      <trkpt lat="46.36586" lon="4.99793">
        <ele>209</ele>
        <time>2021-01-02T13:59:47.000Z</time>
      </trkpt>
      <trkpt lat="46.36585" lon="4.99789">
        <ele>209</ele>
        <time>2021-01-02T13:59:48.000Z</time>
      </trkpt>
      <trkpt lat="46.36586" lon="4.99786">
        <ele>209</ele>
        <time>2021-01-02T13:59:49.000Z</time>
      </trkpt>
      <trkpt lat="46.36586" lon="4.99782">
        <ele>209</ele>
        <time>2021-01-02T13:59:50.000Z</time>
      </trkpt>
      <trkpt lat="46.36586" lon="4.99778">
        <ele>209</ele>
        <time>2021-01-02T13:59:51.000Z</time>
      </trkpt>
      <trkpt lat="46.36586" lon="4.99774">
        <ele>209</ele>
        <time>2021-01-02T13:59:52.000Z</time>
      </trkpt>
      <trkpt lat="46.36586" lon="4.9977">
        <ele>209</ele>
        <time>2021-01-02T13:59:53.000Z</time>
      </trkpt>
      <trkpt lat="46.36586" lon="4.99766">
        <ele>209</ele>
        <time>2021-01-02T13:59:54.000Z</time>
      </trkpt>
      <trkpt lat="46.36586" lon="4.99762">
        <ele>209</ele>
        <time>2021-01-02T13:59:55.000Z</time>
      </trkpt>
      <trkpt lat="46.36586" lon="4.99758">
        <ele>209</ele>
        <time>2021-01-02T13:59:56.000Z</time>
      </trkpt>
      <trkpt lat="46.36586" lon="4.99754">
        <ele>209</ele>
        <time>2021-01-02T13:59:57.000Z</time>
      </trkpt>
      <trkpt lat="46.36586" lon="4.9975">
        <ele>209</ele>
        <time>2021-01-02T13:59:58.000Z</time>
      </trkpt>
      <trkpt lat="46.36587" lon="4.99746">
        <ele>209</ele>
        <time>2021-01-02T13:59:59.000Z</time>
      </trkpt>
      <trkpt lat="46.36587" lon="4.99742">
        <ele>209</ele>
        <time>2021-01-02T14:00:00.000Z</time>
      </trkpt>
      <trkpt lat="46.36587" lon="4.99738">
        <ele>209</ele>
        <time>2021-01-02T14:00:01.000Z</time>
      </trkpt>
      <trkpt lat="46.36587" lon="4.99734">
        <ele>209</ele>
        <time>2021-01-02T14:00:02.000Z</time>
      </trkpt>
      <trkpt lat="46.36587" lon="4.9973">
        <ele>209</ele>
        <time>2021-01-02T14:00:03.000Z</time>
      </trkpt>
      <trkpt lat="46.36587" lon="4.99726">
        <ele>209</ele>
        <time>2021-01-02T14:00:04.000Z</time>
      </trkpt>
      <trkpt lat="46.36587" lon="4.99722">
        <ele>209</ele>
        <time>2021-01-02T14:00:05.000Z</time>
      </trkpt>
      <trkpt lat="46.36587" lon="4.99718">
        <ele>209</ele>
        <time>2021-01-02T14:00:06.000Z</time>
      </trkpt>
      <trkpt lat="46.36587" lon="4.99714">
        <ele>209</ele>
        <time>2021-01-02T14:00:07.000Z</time>
      </trkpt>
      <trkpt lat="46.36587" lon="4.9971">
        <ele>209</ele>
        <time>2021-01-02T14:00:08.000Z</time>
      </trkpt>
      <trkpt lat="46.36587" lon="4.99706">
        <ele>209</ele>
        <time>2021-01-02T14:00:09.000Z</time>
      </trkpt>
      <trkpt lat="46.36587" lon="4.99702">
        <ele>209</ele>
        <time>2021-01-02T14:00:10.000Z</time>
      </trkpt>
      <trkpt lat="46.36587" lon="4.99698">
        <ele>210</ele>
        <time>2021-01-02T14:00:11.000Z</time>
      </trkpt>
      <trkpt lat="46.36587" lon="4.99694">
        <ele>210</ele>
        <time>2021-01-02T14:00:12.000Z</time>
      </trkpt>
      <trkpt lat="46.36588" lon="4.9969">
        <ele>210</ele>
        <time>2021-01-02T14:00:13.000Z</time>
      </trkpt>
      <trkpt lat="46.36588" lon="4.99685">
        <ele>210</ele>
        <time>2021-01-02T14:00:14.000Z</time>
      </trkpt>
      <trkpt lat="46.36588" lon="4.99681">
        <ele>210</ele>
        <time>2021-01-02T14:00:15.000Z</time>
      </trkpt>
      <trkpt lat="46.36588" lon="4.99677">
        <ele>210</ele>
        <time>2021-01-02T14:00:16.000Z</time>
      </trkpt>
      <trkpt lat="46.36588" lon="4.99673">
        <ele>210</ele>
        <time>2021-01-02T14:00:17.000Z</time>
      </trkpt>
      <trkpt lat="46.36589" lon="4.99669">
        <ele>210</ele>
        <time>2021-01-02T14:00:18.000Z</time>
      </trkpt>
      <trkpt lat="46.36589" lon="4.99665">
        <ele>210</ele>
        <time>2021-01-02T14:00:19.000Z</time>
      </trkpt>
      <trkpt lat="46.36589" lon="4.99662">
        <ele>210</ele>
        <time>2021-01-02T14:00:20.000Z</time>
      </trkpt>
      <trkpt lat="46.36589" lon="4.99658">
        <ele>210</ele>
        <time>2021-01-02T14:00:21.000Z</time>
      </trkpt>
      <trkpt lat="46.36589" lon="4.99654">
        <ele>210</ele>
        <time>2021-01-02T14:00:22.000Z</time>
      </trkpt>
      <trkpt lat="46.36589" lon="4.9965">
        <ele>210</ele>
        <time>2021-01-02T14:00:23.000Z</time>
      </trkpt>
      <trkpt lat="46.36589" lon="4.99646">
        <ele>210</ele>
        <time>2021-01-02T14:00:24.000Z</time>
      </trkpt>
      <trkpt lat="46.36589" lon="4.99642">
        <ele>210</ele>
        <time>2021-01-02T14:00:25.000Z</time>
      </trkpt>
      <trkpt lat="46.36589" lon="4.99638">
        <ele>210</ele>
        <time>2021-01-02T14:00:26.000Z</time>
      </trkpt>
      <trkpt lat="46.36589" lon="4.99633">
        <ele>210</ele>
        <time>2021-01-02T14:00:27.000Z</time>
      </trkpt>
      <trkpt lat="46.36589" lon="4.99629">
        <ele>210</ele>
        <time>2021-01-02T14:00:28.000Z</time>
      </trkpt>
      <trkpt lat="46.36588" lon="4.99625">
        <ele>210</ele>
        <time>2021-01-02T14:00:29.000Z</time>
      </trkpt>
      <trkpt lat="46.36588" lon="4.9962">
        <ele>210</ele>
        <time>2021-01-02T14:00:30.000Z</time>
      </trkpt>
      <trkpt lat="46.36587" lon="4.99616">
        <ele>210</ele>
        <time>2021-01-02T14:00:31.000Z</time>
      </trkpt>
      <trkpt lat="46.36587" lon="4.99611">
        <ele>210</ele>
        <time>2021-01-02T14:00:32.000Z</time>
      </trkpt>
      <trkpt lat="46.36586" lon="4.99607">
        <ele>210</ele>
        <time>2021-01-02T14:00:33.000Z</time>
      </trkpt>
      <trkpt lat="46.36585" lon="4.99603">
        <ele>210</ele>
        <time>2021-01-02T14:00:34.000Z</time>
      </trkpt>
      <trkpt lat="46.36585" lon="4.99599">
        <ele>210</ele>
        <time>2021-01-02T14:00:35.000Z</time>
      </trkpt>
      <trkpt lat="46.36585" lon="4.99596">
        <ele>210</ele>
        <time>2021-01-02T14:00:36.000Z</time>
      </trkpt>
      <trkpt lat="46.36584" lon="4.99592">
        <ele>210</ele>
        <time>2021-01-02T14:00:37.000Z</time>
      </trkpt>
      <trkpt lat="46.36584" lon="4.99588">
        <ele>210</ele>
        <time>2021-01-02T14:00:38.000Z</time>
      </trkpt>
      <trkpt lat="46.36584" lon="4.99584">
        <ele>210</ele>
        <time>2021-01-02T14:00:39.000Z</time>
      </trkpt>
      <trkpt lat="46.36584" lon="4.99581">
        <ele>210</ele>
        <time>2021-01-02T14:00:40.000Z</time>
      </trkpt>
      <trkpt lat="46.36583" lon="4.99577">
        <ele>210</ele>
        <time>2021-01-02T14:00:41.000Z</time>
      </trkpt>
      <trkpt lat="46.36583" lon="4.99574">
        <ele>210</ele>
        <time>2021-01-02T14:00:42.000Z</time>
      </trkpt>
      <trkpt lat="46.36583" lon="4.99571">
        <ele>210</ele>
        <time>2021-01-02T14:00:43.000Z</time>
      </trkpt>
      <trkpt lat="46.36583" lon="4.99569">
        <ele>210</ele>
        <time>2021-01-02T14:00:44.000Z</time>
      </trkpt>
      <trkpt lat="46.36583" lon="4.99566">
        <ele>210</ele>
        <time>2021-01-02T14:00:45.000Z</time>
      </trkpt>
      <trkpt lat="46.36582" lon="4.99562">
        <ele>210</ele>
        <time>2021-01-02T14:00:46.000Z</time>
      </trkpt>
      <trkpt lat="46.36582" lon="4.9956">
        <ele>210</ele>
        <time>2021-01-02T14:00:47.000Z</time>
      </trkpt>
      <trkpt lat="46.36582" lon="4.99557">
        <ele>210</ele>
        <time>2021-01-02T14:00:48.000Z</time>
      </trkpt>
      <trkpt lat="46.36582" lon="4.99553">
        <ele>210</ele>
        <time>2021-01-02T14:00:49.000Z</time>
      </trkpt>
      <trkpt lat="46.36582" lon="4.9955">
        <ele>210</ele>
        <time>2021-01-02T14:00:50.000Z</time>
      </trkpt>
      <trkpt lat="46.36582" lon="4.99547">
        <ele>210</ele>
        <time>2021-01-02T14:00:51.000Z</time>
      </trkpt>
      <trkpt lat="46.36582" lon="4.99544">
        <ele>210</ele>
        <time>2021-01-02T14:00:52.000Z</time>
      </trkpt>
      <trkpt lat="46.36583" lon="4.9954">
        <ele>210</ele>
        <time>2021-01-02T14:00:53.000Z</time>
      </trkpt>
      <trkpt lat="46.36583" lon="4.99536">
        <ele>210</ele>
        <time>2021-01-02T14:00:54.000Z</time>
      </trkpt>
      <trkpt lat="46.36583" lon="4.99532">
        <ele>209</ele>
        <time>2021-01-02T14:00:55.000Z</time>
      </trkpt>
      <trkpt lat="46.36583" lon="4.99528">
        <ele>209</ele>
        <time>2021-01-02T14:00:56.000Z</time>
      </trkpt>
      <trkpt lat="46.36583" lon="4.99524">
        <ele>209</ele>
        <time>2021-01-02T14:00:57.000Z</time>
      </trkpt>
      <trkpt lat="46.36583" lon="4.9952">
        <ele>209</ele>
        <time>2021-01-02T14:00:58.000Z</time>
      </trkpt>
      <trkpt lat="46.36583" lon="4.99516">
        <ele>209</ele>
        <time>2021-01-02T14:00:59.000Z</time>
      </trkpt>
      <trkpt lat="46.36584" lon="4.99511">
        <ele>209</ele>
        <time>2021-01-02T14:01:00.000Z</time>
      </trkpt>
      <trkpt lat="46.36584" lon="4.99507">
        <ele>209</ele>
        <time>2021-01-02T14:01:01.000Z</time>
      </trkpt>
      <trkpt lat="46.36584" lon="4.99502">
        <ele>209</ele>
        <time>2021-01-02T14:01:02.000Z</time>
      </trkpt>
      <trkpt lat="46.36584" lon="4.99498">
        <ele>209</ele>
        <time>2021-01-02T14:01:03.000Z</time>
      </trkpt>
      <trkpt lat="46.36584" lon="4.99493">
        <ele>209</ele>
        <time>2021-01-02T14:01:04.000Z</time>
      </trkpt>
      <trkpt lat="46.36584" lon="4.99488">
        <ele>209</ele>
        <time>2021-01-02T14:01:05.000Z</time>
      </trkpt>
      <trkpt lat="46.36583" lon="4.99484">
        <ele>209</ele>
        <time>2021-01-02T14:01:06.000Z</time>
      </trkpt>
      <trkpt lat="46.36583" lon="4.99479">
        <ele>209</ele>
        <time>2021-01-02T14:01:07.000Z</time>
      </trkpt>
      <trkpt lat="46.36583" lon="4.99475">
        <ele>209</ele>
        <time>2021-01-02T14:01:08.000Z</time>
      </trkpt>
      <trkpt lat="46.36583" lon="4.99471">
        <ele>209</ele>
        <time>2021-01-02T14:01:09.000Z</time>
      </trkpt>
      <trkpt lat="46.36582" lon="4.99466">
        <ele>208</ele>
        <time>2021-01-02T14:01:10.000Z</time>
      </trkpt>
      <trkpt lat="46.36582" lon="4.99462">
        <ele>208</ele>
        <time>2021-01-02T14:01:11.000Z</time>
      </trkpt>
      <trkpt lat="46.36581" lon="4.99458">
        <ele>208</ele>
        <time>2021-01-02T14:01:12.000Z</time>
      </trkpt>
      <trkpt lat="46.3658" lon="4.99455">
        <ele>208</ele>
        <time>2021-01-02T14:01:13.000Z</time>
      </trkpt>
      <trkpt lat="46.3658" lon="4.9945">
        <ele>208</ele>
        <time>2021-01-02T14:01:14.000Z</time>
      </trkpt>
      <trkpt lat="46.36579" lon="4.99447">
        <ele>208</ele>
        <time>2021-01-02T14:01:15.000Z</time>
      </trkpt>
      <trkpt lat="46.36578" lon="4.99443">
        <ele>208</ele>
        <time>2021-01-02T14:01:16.000Z</time>
      </trkpt>
      <trkpt lat="46.36577" lon="4.99439">
        <ele>208</ele>
        <time>2021-01-02T14:01:17.000Z</time>
      </trkpt>
      <trkpt lat="46.36576" lon="4.99435">
        <ele>208</ele>
        <time>2021-01-02T14:01:18.000Z</time>
      </trkpt>
      <trkpt lat="46.36575" lon="4.99431">
        <ele>208</ele>
        <time>2021-01-02T14:01:19.000Z</time>
      </trkpt>
      <trkpt lat="46.36575" lon="4.99426">
        <ele>208</ele>
        <time>2021-01-02T14:01:20.000Z</time>
      </trkpt>
      <trkpt lat="46.36574" lon="4.99422">
        <ele>208</ele>
        <time>2021-01-02T14:01:21.000Z</time>
      </trkpt>
      <trkpt lat="46.36573" lon="4.99418">
        <ele>208</ele>
        <time>2021-01-02T14:01:22.000Z</time>
      </trkpt>
      <trkpt lat="46.36572" lon="4.99413">
        <ele>208</ele>
        <time>2021-01-02T14:01:23.000Z</time>
      </trkpt>
      <trkpt lat="46.36572" lon="4.99409">
        <ele>208</ele>
        <time>2021-01-02T14:01:24.000Z</time>
      </trkpt>
      <trkpt lat="46.36572" lon="4.99404">
        <ele>208</ele>
        <time>2021-01-02T14:01:25.000Z</time>
      </trkpt>
      <trkpt lat="46.36571" lon="4.994">
        <ele>208</ele>
        <time>2021-01-02T14:01:26.000Z</time>
      </trkpt>
      <trkpt lat="46.36571" lon="4.99395">
        <ele>207</ele>
        <time>2021-01-02T14:01:27.000Z</time>
      </trkpt>
      <trkpt lat="46.36571" lon="4.9939">
        <ele>207</ele>
        <time>2021-01-02T14:01:28.000Z</time>
      </trkpt>
      <trkpt lat="46.36572" lon="4.99386">
        <ele>207</ele>
        <time>2021-01-02T14:01:29.000Z</time>
      </trkpt>
      <trkpt lat="46.36572" lon="4.99381">
        <ele>207</ele>
        <time>2021-01-02T14:01:30.000Z</time>
      </trkpt>
      <trkpt lat="46.36572" lon="4.99376">
        <ele>207</ele>
        <time>2021-01-02T14:01:31.000Z</time>
      </trkpt>
      <trkpt lat="46.36573" lon="4.99372">
        <ele>207</ele>
        <time>2021-01-02T14:01:32.000Z</time>
      </trkpt>
      <trkpt lat="46.36573" lon="4.99367">
        <ele>207</ele>
        <time>2021-01-02T14:01:33.000Z</time>
      </trkpt>
      <trkpt lat="46.36574" lon="4.99363">
        <ele>207</ele>
        <time>2021-01-02T14:01:34.000Z</time>
      </trkpt>
      <trkpt lat="46.36574" lon="4.99358">
        <ele>207</ele>
        <time>2021-01-02T14:01:35.000Z</time>
      </trkpt>
      <trkpt lat="46.36575" lon="4.99353">
        <ele>207</ele>
        <time>2021-01-02T14:01:36.000Z</time>
      </trkpt>
      <trkpt lat="46.36575" lon="4.99349">
        <ele>207</ele>
        <time>2021-01-02T14:01:37.000Z</time>
      </trkpt>
      <trkpt lat="46.36576" lon="4.99344">
        <ele>207</ele>
        <time>2021-01-02T14:01:38.000Z</time>
      </trkpt>
      <trkpt lat="46.36576" lon="4.99339">
        <ele>207</ele>
        <time>2021-01-02T14:01:39.000Z</time>
      </trkpt>
      <trkpt lat="46.36577" lon="4.99335">
        <ele>207</ele>
        <time>2021-01-02T14:01:40.000Z</time>
      </trkpt>
      <trkpt lat="46.36577" lon="4.9933">
        <ele>207</ele>
        <time>2021-01-02T14:01:41.000Z</time>
      </trkpt>
      <trkpt lat="46.36578" lon="4.99325">
        <ele>206</ele>
        <time>2021-01-02T14:01:42.000Z</time>
      </trkpt>
      <trkpt lat="46.36579" lon="4.9932">
        <ele>206</ele>
        <time>2021-01-02T14:01:43.000Z</time>
      </trkpt>
      <trkpt lat="46.36579" lon="4.99316">
        <ele>206</ele>
        <time>2021-01-02T14:01:44.000Z</time>
      </trkpt>
      <trkpt lat="46.3658" lon="4.99311">
        <ele>206</ele>
        <time>2021-01-02T14:01:45.000Z</time>
      </trkpt>
      <trkpt lat="46.3658" lon="4.99307">
        <ele>206</ele>
        <time>2021-01-02T14:01:46.000Z</time>
      </trkpt>
      <trkpt lat="46.36581" lon="4.99302">
        <ele>206</ele>
        <time>2021-01-02T14:01:47.000Z</time>
      </trkpt>
      <trkpt lat="46.36581" lon="4.99297">
        <ele>206</ele>
        <time>2021-01-02T14:01:48.000Z</time>
      </trkpt>
      <trkpt lat="46.36582" lon="4.99293">
        <ele>206</ele>
        <time>2021-01-02T14:01:49.000Z</time>
      </trkpt>
      <trkpt lat="46.36583" lon="4.99288">
        <ele>206</ele>
        <time>2021-01-02T14:01:50.000Z</time>
      </trkpt>
      <trkpt lat="46.36584" lon="4.99284">
        <ele>206</ele>
        <time>2021-01-02T14:01:51.000Z</time>
      </trkpt>
      <trkpt lat="46.36585" lon="4.9928">
        <ele>206</ele>
        <time>2021-01-02T14:01:52.000Z</time>
      </trkpt>
      <trkpt lat="46.36587" lon="4.99276">
        <ele>205</ele>
        <time>2021-01-02T14:01:53.000Z</time>
      </trkpt>
      <trkpt lat="46.3659" lon="4.99273">
        <ele>205</ele>
        <time>2021-01-02T14:01:54.000Z</time>
      </trkpt>
      <trkpt lat="46.36593" lon="4.99272">
        <ele>205</ele>
        <time>2021-01-02T14:01:55.000Z</time>
      </trkpt>
      <trkpt lat="46.36596" lon="4.99271">
        <ele>205</ele>
        <time>2021-01-02T14:01:56.000Z</time>
      </trkpt>
      <trkpt lat="46.36599" lon="4.99271">
        <ele>205</ele>
        <time>2021-01-02T14:01:57.000Z</time>
      </trkpt>
      <trkpt lat="46.36602" lon="4.99272">
        <ele>205</ele>
        <time>2021-01-02T14:01:58.000Z</time>
      </trkpt>
      <trkpt lat="46.36605" lon="4.99272">
        <ele>205</ele>
        <time>2021-01-02T14:01:59.000Z</time>
      </trkpt>
      <trkpt lat="46.36609" lon="4.99272">
        <ele>205</ele>
        <time>2021-01-02T14:02:00.000Z</time>
      </trkpt>
      <trkpt lat="46.36612" lon="4.99273">
        <ele>205</ele>
        <time>2021-01-02T14:02:01.000Z</time>
      </trkpt>
      <trkpt lat="46.36615" lon="4.99273">
        <ele>205</ele>
        <time>2021-01-02T14:02:02.000Z</time>
      </trkpt>
      <trkpt lat="46.36617" lon="4.99274">
        <ele>205</ele>
        <time>2021-01-02T14:02:03.000Z</time>
      </trkpt>
      <trkpt lat="46.3662" lon="4.99275">
        <ele>205</ele>
        <time>2021-01-02T14:02:04.000Z</time>
      </trkpt>
      <trkpt lat="46.36623" lon="4.99275">
        <ele>205</ele>
        <time>2021-01-02T14:02:05.000Z</time>
      </trkpt>
      <trkpt lat="46.36626" lon="4.99276">
        <ele>205</ele>
        <time>2021-01-02T14:02:06.000Z</time>
      </trkpt>
      <trkpt lat="46.3663" lon="4.99276">
        <ele>205</ele>
        <time>2021-01-02T14:02:07.000Z</time>
      </trkpt>
      <trkpt lat="46.36633" lon="4.99277">
        <ele>205</ele>
        <time>2021-01-02T14:02:08.000Z</time>
      </trkpt>
      <trkpt lat="46.36636" lon="4.99278">
        <ele>205</ele>
        <time>2021-01-02T14:02:09.000Z</time>
      </trkpt>
      <trkpt lat="46.36639" lon="4.99279">
        <ele>205</ele>
        <time>2021-01-02T14:02:10.000Z</time>
      </trkpt>
      <trkpt lat="46.36642" lon="4.99279">
        <ele>205</ele>
        <time>2021-01-02T14:02:11.000Z</time>
      </trkpt>
      <trkpt lat="46.36646" lon="4.9928">
        <ele>205</ele>
        <time>2021-01-02T14:02:12.000Z</time>
      </trkpt>
      <trkpt lat="46.36649" lon="4.99281">
        <ele>205</ele>
        <time>2021-01-02T14:02:13.000Z</time>
      </trkpt>
      <trkpt lat="46.36653" lon="4.99281">
        <ele>205</ele>
        <time>2021-01-02T14:02:14.000Z</time>
      </trkpt>
      <trkpt lat="46.36657" lon="4.99282">
        <ele>205</ele>
        <time>2021-01-02T14:02:15.000Z</time>
      </trkpt>
      <trkpt lat="46.36661" lon="4.99283">
        <ele>205</ele>
        <time>2021-01-02T14:02:16.000Z</time>
      </trkpt>
      <trkpt lat="46.36665" lon="4.99284">
        <ele>205</ele>
        <time>2021-01-02T14:02:17.000Z</time>
      </trkpt>
      <trkpt lat="46.36669" lon="4.99284">
        <ele>205</ele>
        <time>2021-01-02T14:02:18.000Z</time>
      </trkpt>
      <trkpt lat="46.36673" lon="4.99285">
        <ele>205</ele>
        <time>2021-01-02T14:02:19.000Z</time>
      </trkpt>
      <trkpt lat="46.36677" lon="4.99286">
        <ele>205</ele>
        <time>2021-01-02T14:02:20.000Z</time>
      </trkpt>
      <trkpt lat="46.3668" lon="4.99287">
        <ele>205</ele>
        <time>2021-01-02T14:02:21.000Z</time>
      </trkpt>
      <trkpt lat="46.36685" lon="4.99288">
        <ele>205</ele>
        <time>2021-01-02T14:02:22.000Z</time>
      </trkpt>
      <trkpt lat="46.36689" lon="4.99289">
        <ele>204</ele>
        <time>2021-01-02T14:02:23.000Z</time>
      </trkpt>
      <trkpt lat="46.36693" lon="4.9929">
        <ele>204</ele>
        <time>2021-01-02T14:02:24.000Z</time>
      </trkpt>
      <trkpt lat="46.36697" lon="4.99291">
        <ele>204</ele>
        <time>2021-01-02T14:02:25.000Z</time>
      </trkpt>
      <trkpt lat="46.36701" lon="4.99291">
        <ele>204</ele>
        <time>2021-01-02T14:02:26.000Z</time>
      </trkpt>
      <trkpt lat="46.36705" lon="4.99292">
        <ele>204</ele>
        <time>2021-01-02T14:02:27.000Z</time>
      </trkpt>
      <trkpt lat="46.3671" lon="4.99293">
        <ele>204</ele>
        <time>2021-01-02T14:02:28.000Z</time>
      </trkpt>
      <trkpt lat="46.36714" lon="4.99294">
        <ele>204</ele>
        <time>2021-01-02T14:02:29.000Z</time>
      </trkpt>
      <trkpt lat="46.36718" lon="4.99295">
        <ele>204</ele>
        <time>2021-01-02T14:02:30.000Z</time>
      </trkpt>
      <trkpt lat="46.36721" lon="4.99295">
        <ele>204</ele>
        <time>2021-01-02T14:02:31.000Z</time>
      </trkpt>
      <trkpt lat="46.36725" lon="4.99296">
        <ele>204</ele>
        <time>2021-01-02T14:02:32.000Z</time>
      </trkpt>
      <trkpt lat="46.36729" lon="4.99297">
        <ele>204</ele>
        <time>2021-01-02T14:02:33.000Z</time>
      </trkpt>
      <trkpt lat="46.36732" lon="4.99297">
        <ele>204</ele>
        <time>2021-01-02T14:02:34.000Z</time>
      </trkpt>
      <trkpt lat="46.36735" lon="4.99297">
        <ele>204</ele>
        <time>2021-01-02T14:02:35.000Z</time>
      </trkpt>
      <trkpt lat="46.36738" lon="4.99298">
        <ele>204</ele>
        <time>2021-01-02T14:02:36.000Z</time>
      </trkpt>
      <trkpt lat="46.36742" lon="4.99298">
        <ele>204</ele>
        <time>2021-01-02T14:02:37.000Z</time>
      </trkpt>
      <trkpt lat="46.36745" lon="4.99299">
        <ele>204</ele>
        <time>2021-01-02T14:02:38.000Z</time>
      </trkpt>
      <trkpt lat="46.36748" lon="4.99299">
        <ele>204</ele>
        <time>2021-01-02T14:02:39.000Z</time>
      </trkpt>
      <trkpt lat="46.36751" lon="4.993">
        <ele>204</ele>
        <time>2021-01-02T14:02:40.000Z</time>
      </trkpt>
      <trkpt lat="46.36755" lon="4.993">
        <ele>204</ele>
        <time>2021-01-02T14:02:41.000Z</time>
      </trkpt>
      <trkpt lat="46.36758" lon="4.99301">
        <ele>204</ele>
        <time>2021-01-02T14:02:42.000Z</time>
      </trkpt>
      <trkpt lat="46.36761" lon="4.99301">
        <ele>204</ele>
        <time>2021-01-02T14:02:43.000Z</time>
      </trkpt>
      <trkpt lat="46.36764" lon="4.99302">
        <ele>204</ele>
        <time>2021-01-02T14:02:44.000Z</time>
      </trkpt>
      <trkpt lat="46.36767" lon="4.99303">
        <ele>204</ele>
        <time>2021-01-02T14:02:45.000Z</time>
      </trkpt>
      <trkpt lat="46.3677" lon="4.99304">
        <ele>204</ele>
        <time>2021-01-02T14:02:46.000Z</time>
      </trkpt>
      <trkpt lat="46.36773" lon="4.99304">
        <ele>204</ele>
        <time>2021-01-02T14:02:47.000Z</time>
      </trkpt>
      <trkpt lat="46.36776" lon="4.99305">
        <ele>204</ele>
        <time>2021-01-02T14:02:48.000Z</time>
      </trkpt>
      <trkpt lat="46.36779" lon="4.99306">
        <ele>204</ele>
        <time>2021-01-02T14:02:49.000Z</time>
      </trkpt>
      <trkpt lat="46.36782" lon="4.99307">
        <ele>204</ele>
        <time>2021-01-02T14:02:50.000Z</time>
      </trkpt>
      <trkpt lat="46.36786" lon="4.99307">
        <ele>204</ele>
        <time>2021-01-02T14:02:51.000Z</time>
      </trkpt>
      <trkpt lat="46.36789" lon="4.99307">
        <ele>204</ele>
        <time>2021-01-02T14:02:52.000Z</time>
      </trkpt>
      <trkpt lat="46.36792" lon="4.99308">
        <ele>204</ele>
        <time>2021-01-02T14:02:53.000Z</time>
      </trkpt>
      <trkpt lat="46.36795" lon="4.99309">
        <ele>204</ele>
        <time>2021-01-02T14:02:54.000Z</time>
      </trkpt>
      <trkpt lat="46.36798" lon="4.99309">
        <ele>204</ele>
        <time>2021-01-02T14:02:55.000Z</time>
      </trkpt>
      <trkpt lat="46.36801" lon="4.9931">
        <ele>204</ele>
        <time>2021-01-02T14:02:56.000Z</time>
      </trkpt>
      <trkpt lat="46.36804" lon="4.99311">
        <ele>204</ele>
        <time>2021-01-02T14:02:57.000Z</time>
      </trkpt>
      <trkpt lat="46.36807" lon="4.99312">
        <ele>204</ele>
        <time>2021-01-02T14:02:58.000Z</time>
      </trkpt>
      <trkpt lat="46.3681" lon="4.99312">
        <ele>204</ele>
        <time>2021-01-02T14:02:59.000Z</time>
      </trkpt>
      <trkpt lat="46.36814" lon="4.99312">
        <ele>204</ele>
        <time>2021-01-02T14:03:00.000Z</time>
      </trkpt>
      <trkpt lat="46.36817" lon="4.99313">
        <ele>204</ele>
        <time>2021-01-02T14:03:01.000Z</time>
      </trkpt>
      <trkpt lat="46.3682" lon="4.99313">
        <ele>204</ele>
        <time>2021-01-02T14:03:02.000Z</time>
      </trkpt>
      <trkpt lat="46.36823" lon="4.99314">
        <ele>204</ele>
        <time>2021-01-02T14:03:03.000Z</time>
      </trkpt>
      <trkpt lat="46.36826" lon="4.99315">
        <ele>204</ele>
        <time>2021-01-02T14:03:04.000Z</time>
      </trkpt>
      <trkpt lat="46.36829" lon="4.99316">
        <ele>204</ele>
        <time>2021-01-02T14:03:05.000Z</time>
      </trkpt>
      <trkpt lat="46.36832" lon="4.99316">
        <ele>204</ele>
        <time>2021-01-02T14:03:06.000Z</time>
      </trkpt>
      <trkpt lat="46.36835" lon="4.99317">
        <ele>204</ele>
        <time>2021-01-02T14:03:07.000Z</time>
      </trkpt>
      <trkpt lat="46.36838" lon="4.99318">
        <ele>204</ele>
        <time>2021-01-02T14:03:08.000Z</time>
      </trkpt>
      <trkpt lat="46.36841" lon="4.99318">
        <ele>204</ele>
        <time>2021-01-02T14:03:09.000Z</time>
      </trkpt>
      <trkpt lat="46.36844" lon="4.99319">
        <ele>204</ele>
        <time>2021-01-02T14:03:10.000Z</time>
      </trkpt>
      <trkpt lat="46.36847" lon="4.99319">
        <ele>204</ele>
        <time>2021-01-02T14:03:11.000Z</time>
      </trkpt>
      <trkpt lat="46.3685" lon="4.9932">
        <ele>204</ele>
        <time>2021-01-02T14:03:12.000Z</time>
      </trkpt>
      <trkpt lat="46.36853" lon="4.99321">
        <ele>204</ele>
        <time>2021-01-02T14:03:13.000Z</time>
      </trkpt>
      <trkpt lat="46.36856" lon="4.99322">
        <ele>204</ele>
        <time>2021-01-02T14:03:14.000Z</time>
      </trkpt>
      <trkpt lat="46.36859" lon="4.99322">
        <ele>204</ele>
        <time>2021-01-02T14:03:15.000Z</time>
      </trkpt>
      <trkpt lat="46.36862" lon="4.99323">
        <ele>204</ele>
        <time>2021-01-02T14:03:16.000Z</time>
      </trkpt>
      <trkpt lat="46.36865" lon="4.99324">
        <ele>205</ele>
        <time>2021-01-02T14:03:17.000Z</time>
      </trkpt>
      <trkpt lat="46.36868" lon="4.99324">
        <ele>205</ele>
        <time>2021-01-02T14:03:18.000Z</time>
      </trkpt>
      <trkpt lat="46.36871" lon="4.99325">
        <ele>205</ele>
        <time>2021-01-02T14:03:19.000Z</time>
      </trkpt>
      <trkpt lat="46.36874" lon="4.99325">
        <ele>205</ele>
        <time>2021-01-02T14:03:20.000Z</time>
      </trkpt>
      <trkpt lat="46.36877" lon="4.99326">
        <ele>205</ele>
        <time>2021-01-02T14:03:21.000Z</time>
      </trkpt>
      <trkpt lat="46.36879" lon="4.99327">
        <ele>205</ele>
        <time>2021-01-02T14:03:22.000Z</time>
      </trkpt>
      <trkpt lat="46.36882" lon="4.99327">
        <ele>205</ele>
        <time>2021-01-02T14:03:23.000Z</time>
      </trkpt>
      <trkpt lat="46.36885" lon="4.99328">
        <ele>205</ele>
        <time>2021-01-02T14:03:24.000Z</time>
      </trkpt>
      <trkpt lat="46.36888" lon="4.99328">
        <ele>205</ele>
        <time>2021-01-02T14:03:25.000Z</time>
      </trkpt>
      <trkpt lat="46.36891" lon="4.99329">
        <ele>205</ele>
        <time>2021-01-02T14:03:26.000Z</time>
      </trkpt>
      <trkpt lat="46.36894" lon="4.99329">
        <ele>205</ele>
        <time>2021-01-02T14:03:27.000Z</time>
      </trkpt>
      <trkpt lat="46.36896" lon="4.9933">
        <ele>205</ele>
        <time>2021-01-02T14:03:28.000Z</time>
      </trkpt>
      <trkpt lat="46.36899" lon="4.9933">
        <ele>205</ele>
        <time>2021-01-02T14:03:29.000Z</time>
      </trkpt>
      <trkpt lat="46.36902" lon="4.99331">
        <ele>205</ele>
        <time>2021-01-02T14:03:30.000Z</time>
      </trkpt>
      <trkpt lat="46.36905" lon="4.99332">
        <ele>205</ele>
        <time>2021-01-02T14:03:31.000Z</time>
      </trkpt>
      <trkpt lat="46.36908" lon="4.99332">
        <ele>206</ele>
        <time>2021-01-02T14:03:32.000Z</time>
      </trkpt>
      <trkpt lat="46.3691" lon="4.99333">
        <ele>206</ele>
        <time>2021-01-02T14:03:33.000Z</time>
      </trkpt>
      <trkpt lat="46.36913" lon="4.99333">
        <ele>206</ele>
        <time>2021-01-02T14:03:34.000Z</time>
      </trkpt>
      <trkpt lat="46.36916" lon="4.99334">
        <ele>206</ele>
        <time>2021-01-02T14:03:35.000Z</time>
      </trkpt>
      <trkpt lat="46.36918" lon="4.99335">
        <ele>206</ele>
        <time>2021-01-02T14:03:36.000Z</time>
      </trkpt>
      <trkpt lat="46.36921" lon="4.99336">
        <ele>206</ele>
        <time>2021-01-02T14:03:37.000Z</time>
      </trkpt>
      <trkpt lat="46.36924" lon="4.99337">
        <ele>206</ele>
        <time>2021-01-02T14:03:38.000Z</time>
      </trkpt>
      <trkpt lat="46.36927" lon="4.99338">
        <ele>206</ele>
        <time>2021-01-02T14:03:39.000Z</time>
      </trkpt>
      <trkpt lat="46.36929" lon="4.99338">
        <ele>206</ele>
        <time>2021-01-02T14:03:40.000Z</time>
      </trkpt>
      <trkpt lat="46.36932" lon="4.99339">
        <ele>206</ele>
        <time>2021-01-02T14:03:41.000Z</time>
      </trkpt>
      <trkpt lat="46.36934" lon="4.9934">
        <ele>206</ele>
        <time>2021-01-02T14:03:42.000Z</time>
      </trkpt>
      <trkpt lat="46.36937" lon="4.99341">
        <ele>206</ele>
        <time>2021-01-02T14:03:43.000Z</time>
      </trkpt>
      <trkpt lat="46.36939" lon="4.99342">
        <ele>206</ele>
        <time>2021-01-02T14:03:44.000Z</time>
      </trkpt>
      <trkpt lat="46.36942" lon="4.99342">
        <ele>206</ele>
        <time>2021-01-02T14:03:45.000Z</time>
      </trkpt>
      <trkpt lat="46.36945" lon="4.99343">
        <ele>206</ele>
        <time>2021-01-02T14:03:46.000Z</time>
      </trkpt>
      <trkpt lat="46.36947" lon="4.99343">
        <ele>206</ele>
        <time>2021-01-02T14:03:47.000Z</time>
      </trkpt>
      <trkpt lat="46.3695" lon="4.99344">
        <ele>206</ele>
        <time>2021-01-02T14:03:48.000Z</time>
      </trkpt>
      <trkpt lat="46.36952" lon="4.99345">
        <ele>206</ele>
        <time>2021-01-02T14:03:49.000Z</time>
      </trkpt>
      <trkpt lat="46.36955" lon="4.99346">
        <ele>206</ele>
        <time>2021-01-02T14:03:50.000Z</time>
      </trkpt>
      <trkpt lat="46.36957" lon="4.99347">
        <ele>206</ele>
        <time>2021-01-02T14:03:51.000Z</time>
      </trkpt>
      <trkpt lat="46.3696" lon="4.99348">
        <ele>206</ele>
        <time>2021-01-02T14:03:52.000Z</time>
      </trkpt>
      <trkpt lat="46.36962" lon="4.99348">
        <ele>206</ele>
        <time>2021-01-02T14:03:53.000Z</time>
      </trkpt>
      <trkpt lat="46.36965" lon="4.99349">
        <ele>206</ele>
        <time>2021-01-02T14:03:54.000Z</time>
      </trkpt>
      <trkpt lat="46.36967" lon="4.99349">
        <ele>206</ele>
        <time>2021-01-02T14:03:55.000Z</time>
      </trkpt>
      <trkpt lat="46.3697" lon="4.9935">
        <ele>206</ele>
        <time>2021-01-02T14:03:56.000Z</time>
      </trkpt>
      <trkpt lat="46.36972" lon="4.99351">
        <ele>206</ele>
        <time>2021-01-02T14:03:57.000Z</time>
      </trkpt>
      <trkpt lat="46.36975" lon="4.99351">
        <ele>206</ele>
        <time>2021-01-02T14:03:58.000Z</time>
      </trkpt>
      <trkpt lat="46.36978" lon="4.99352">
        <ele>206</ele>
        <time>2021-01-02T14:03:59.000Z</time>
      </trkpt>
      <trkpt lat="46.3698" lon="4.99352">
        <ele>206</ele>
        <time>2021-01-02T14:04:00.000Z</time>
      </trkpt>
      <trkpt lat="46.36982" lon="4.99352">
        <ele>206</ele>
        <time>2021-01-02T14:04:01.000Z</time>
      </trkpt>
      <trkpt lat="46.36985" lon="4.99352">
        <ele>206</ele>
        <time>2021-01-02T14:04:02.000Z</time>
      </trkpt>
      <trkpt lat="46.36986" lon="4.99352">
        <ele>206</ele>
        <time>2021-01-02T14:04:03.000Z</time>
      </trkpt>
      <trkpt lat="46.36988" lon="4.99352">
        <ele>206</ele>
        <time>2021-01-02T14:04:04.000Z</time>
      </trkpt>
      <trkpt lat="46.36989" lon="4.99352">
        <ele>206</ele>
        <time>2021-01-02T14:04:05.000Z</time>
      </trkpt>
      <trkpt lat="46.3699" lon="4.99352">
        <ele>206</ele>
        <time>2021-01-02T14:04:06.000Z</time>
      </trkpt>
      <trkpt lat="46.36991" lon="4.99352">
        <ele>206</ele>
        <time>2021-01-02T14:04:07.000Z</time>
      </trkpt>
      <trkpt lat="46.36993" lon="4.99352">
        <ele>206</ele>
        <time>2021-01-02T14:04:08.000Z</time>
      </trkpt>
      <trkpt lat="46.36994" lon="4.99352">
        <ele>206</ele>
        <time>2021-01-02T14:04:09.000Z</time>
      </trkpt>
      <trkpt lat="46.36995" lon="4.99352">
        <ele>206</ele>
        <time>2021-01-02T14:04:10.000Z</time>
      </trkpt>
      <trkpt lat="46.36997" lon="4.99352">
        <ele>206</ele>
        <time>2021-01-02T14:04:11.000Z</time>
      </trkpt>
      <trkpt lat="46.36998" lon="4.99352">
        <ele>206</ele>
        <time>2021-01-02T14:04:12.000Z</time>
      </trkpt>
      <trkpt lat="46.36999" lon="4.99352">
        <ele>207</ele>
        <time>2021-01-02T14:04:13.000Z</time>
      </trkpt>
      <trkpt lat="46.37001" lon="4.99353">
        <ele>207</ele>
        <time>2021-01-02T14:04:14.000Z</time>
      </trkpt>
      <trkpt lat="46.37003" lon="4.99353">
        <ele>207</ele>
        <time>2021-01-02T14:04:15.000Z</time>
      </trkpt>
      <trkpt lat="46.37005" lon="4.99353">
        <ele>207</ele>
        <time>2021-01-02T14:04:16.000Z</time>
      </trkpt>
      <trkpt lat="46.37007" lon="4.99354">
        <ele>207</ele>
        <time>2021-01-02T14:04:17.000Z</time>
      </trkpt>
      <trkpt lat="46.3701" lon="4.99354">
        <ele>207</ele>
        <time>2021-01-02T14:04:18.000Z</time>
      </trkpt>
      <trkpt lat="46.37012" lon="4.99354">
        <ele>207</ele>
        <time>2021-01-02T14:04:19.000Z</time>
      </trkpt>
      <trkpt lat="46.37015" lon="4.99354">
        <ele>207</ele>
        <time>2021-01-02T14:04:20.000Z</time>
      </trkpt>
      <trkpt lat="46.37017" lon="4.99355">
        <ele>207</ele>
        <time>2021-01-02T14:04:21.000Z</time>
      </trkpt>
      <trkpt lat="46.37019" lon="4.99355">
        <ele>207</ele>
        <time>2021-01-02T14:04:22.000Z</time>
      </trkpt>
      <trkpt lat="46.37021" lon="4.99355">
        <ele>207</ele>
        <time>2021-01-02T14:04:23.000Z</time>
      </trkpt>
      <trkpt lat="46.37024" lon="4.99355">
        <ele>207</ele>
        <time>2021-01-02T14:04:24.000Z</time>
      </trkpt>
      <trkpt lat="46.37027" lon="4.99354">
        <ele>207</ele>
        <time>2021-01-02T14:04:25.000Z</time>
      </trkpt>
      <trkpt lat="46.3703" lon="4.99354">
        <ele>207</ele>
        <time>2021-01-02T14:04:26.000Z</time>
      </trkpt>
      <trkpt lat="46.37032" lon="4.99353">
        <ele>207</ele>
        <time>2021-01-02T14:04:27.000Z</time>
      </trkpt>
      <trkpt lat="46.37035" lon="4.99353">
        <ele>207</ele>
        <time>2021-01-02T14:04:28.000Z</time>
      </trkpt>
      <trkpt lat="46.37037" lon="4.99353">
        <ele>207</ele>
        <time>2021-01-02T14:04:29.000Z</time>
      </trkpt>
      <trkpt lat="46.37039" lon="4.99353">
        <ele>207</ele>
        <time>2021-01-02T14:04:30.000Z</time>
      </trkpt>
      <trkpt lat="46.37042" lon="4.99353">
        <ele>207</ele>
        <time>2021-01-02T14:04:31.000Z</time>
      </trkpt>
      <trkpt lat="46.37044" lon="4.99353">
        <ele>207</ele>
        <time>2021-01-02T14:04:32.000Z</time>
      </trkpt>
      <trkpt lat="46.37046" lon="4.99353">
        <ele>208</ele>
        <time>2021-01-02T14:04:33.000Z</time>
      </trkpt>
      <trkpt lat="46.37049" lon="4.99352">
        <ele>208</ele>
        <time>2021-01-02T14:04:34.000Z</time>
      </trkpt>
      <trkpt lat="46.37051" lon="4.99352">
        <ele>208</ele>
        <time>2021-01-02T14:04:35.000Z</time>
      </trkpt>
      <trkpt lat="46.37053" lon="4.99352">
        <ele>208</ele>
        <time>2021-01-02T14:04:36.000Z</time>
      </trkpt>
      <trkpt lat="46.37055" lon="4.99352">
        <ele>208</ele>
        <time>2021-01-02T14:04:37.000Z</time>
      </trkpt>
      <trkpt lat="46.37058" lon="4.99352">
        <ele>208</ele>
        <time>2021-01-02T14:04:38.000Z</time>
      </trkpt>
      <trkpt lat="46.3706" lon="4.99352">
        <ele>209</ele>
        <time>2021-01-02T14:04:39.000Z</time>
      </trkpt>
      <trkpt lat="46.37062" lon="4.99353">
        <ele>209</ele>
        <time>2021-01-02T14:04:40.000Z</time>
      </trkpt>
      <trkpt lat="46.37065" lon="4.99353">
        <ele>209</ele>
        <time>2021-01-02T14:04:41.000Z</time>
      </trkpt>
      <trkpt lat="46.37067" lon="4.99353">
        <ele>209</ele>
        <time>2021-01-02T14:04:42.000Z</time>
      </trkpt>
      <trkpt lat="46.37069" lon="4.99353">
        <ele>209</ele>
        <time>2021-01-02T14:04:43.000Z</time>
      </trkpt>
      <trkpt lat="46.37072" lon="4.99352">
        <ele>209</ele>
        <time>2021-01-02T14:04:44.000Z</time>
      </trkpt>
      <trkpt lat="46.37074" lon="4.99352">
        <ele>210</ele>
        <time>2021-01-02T14:04:45.000Z</time>
      </trkpt>
      <trkpt lat="46.37076" lon="4.99352">
        <ele>210</ele>
        <time>2021-01-02T14:04:46.000Z</time>
      </trkpt>
      <trkpt lat="46.37079" lon="4.99352">
        <ele>210</ele>
        <time>2021-01-02T14:04:47.000Z</time>
      </trkpt>
      <trkpt lat="46.37081" lon="4.99352">
        <ele>210</ele>
        <time>2021-01-02T14:04:48.000Z</time>
      </trkpt>
      <trkpt lat="46.37083" lon="4.99351">
        <ele>210</ele>
        <time>2021-01-02T14:04:49.000Z</time>
      </trkpt>
      <trkpt lat="46.37085" lon="4.99351">
        <ele>210</ele>
        <time>2021-01-02T14:04:50.000Z</time>
      </trkpt>
      <trkpt lat="46.37087" lon="4.99352">
        <ele>210</ele>
        <time>2021-01-02T14:04:51.000Z</time>
      </trkpt>
      <trkpt lat="46.3709" lon="4.99352">
        <ele>210</ele>
        <time>2021-01-02T14:04:52.000Z</time>
      </trkpt>
      <trkpt lat="46.37092" lon="4.99352">
        <ele>211</ele>
        <time>2021-01-02T14:04:53.000Z</time>
      </trkpt>
      <trkpt lat="46.37094" lon="4.99352">
        <ele>211</ele>
        <time>2021-01-02T14:04:54.000Z</time>
      </trkpt>
      <trkpt lat="46.37097" lon="4.99352">
        <ele>211</ele>
        <time>2021-01-02T14:04:55.000Z</time>
      </trkpt>
      <trkpt lat="46.37099" lon="4.99352">
        <ele>211</ele>
        <time>2021-01-02T14:04:56.000Z</time>
      </trkpt>
      <trkpt lat="46.37101" lon="4.99351">
        <ele>211</ele>
        <time>2021-01-02T14:04:57.000Z</time>
      </trkpt>
      <trkpt lat="46.37104" lon="4.99351">
        <ele>211</ele>
        <time>2021-01-02T14:04:58.000Z</time>
      </trkpt>
      <trkpt lat="46.37106" lon="4.99351">
        <ele>212</ele>
        <time>2021-01-02T14:04:59.000Z</time>
      </trkpt>
      <trkpt lat="46.37108" lon="4.99352">
        <ele>212</ele>
        <time>2021-01-02T14:05:00.000Z</time>
      </trkpt>
      <trkpt lat="46.37111" lon="4.99352">
        <ele>212</ele>
        <time>2021-01-02T14:05:01.000Z</time>
      </trkpt>
      <trkpt lat="46.37113" lon="4.99352">
        <ele>212</ele>
        <time>2021-01-02T14:05:02.000Z</time>
      </trkpt>
      <trkpt lat="46.37115" lon="4.99352">
        <ele>212</ele>
        <time>2021-01-02T14:05:03.000Z</time>
      </trkpt>
      <trkpt lat="46.37118" lon="4.99351">
        <ele>212</ele>
        <time>2021-01-02T14:05:04.000Z</time>
      </trkpt>
      <trkpt lat="46.3712" lon="4.99351">
        <ele>212</ele>
        <time>2021-01-02T14:05:05.000Z</time>
      </trkpt>
      <trkpt lat="46.37122" lon="4.9935">
        <ele>211</ele>
        <time>2021-01-02T14:05:06.000Z</time>
      </trkpt>
      <trkpt lat="46.37124" lon="4.9935">
        <ele>211</ele>
        <time>2021-01-02T14:05:07.000Z</time>
      </trkpt>
      <trkpt lat="46.37127" lon="4.9935">
        <ele>211</ele>
        <time>2021-01-02T14:05:08.000Z</time>
      </trkpt>
      <trkpt lat="46.3713" lon="4.9935">
        <ele>210</ele>
        <time>2021-01-02T14:05:09.000Z</time>
      </trkpt>
      <trkpt lat="46.37132" lon="4.99349">
        <ele>210</ele>
        <time>2021-01-02T14:05:10.000Z</time>
      </trkpt>
      <trkpt lat="46.37135" lon="4.99348">
        <ele>210</ele>
        <time>2021-01-02T14:05:11.000Z</time>
      </trkpt>
      <trkpt lat="46.37137" lon="4.99348">
        <ele>210</ele>
        <time>2021-01-02T14:05:12.000Z</time>
      </trkpt>
      <trkpt lat="46.3714" lon="4.99347">
        <ele>209</ele>
        <time>2021-01-02T14:05:13.000Z</time>
      </trkpt>
      <trkpt lat="46.37143" lon="4.99346">
        <ele>209</ele>
        <time>2021-01-02T14:05:14.000Z</time>
      </trkpt>
      <trkpt lat="46.37146" lon="4.99346">
        <ele>209</ele>
        <time>2021-01-02T14:05:15.000Z</time>
      </trkpt>
      <trkpt lat="46.37149" lon="4.99345">
        <ele>209</ele>
        <time>2021-01-02T14:05:16.000Z</time>
      </trkpt>
      <trkpt lat="46.37152" lon="4.99345">
        <ele>209</ele>
        <time>2021-01-02T14:05:17.000Z</time>
      </trkpt>
      <trkpt lat="46.37156" lon="4.99344">
        <ele>209</ele>
        <time>2021-01-02T14:05:18.000Z</time>
      </trkpt>
      <trkpt lat="46.37159" lon="4.99344">
        <ele>209</ele>
        <time>2021-01-02T14:05:19.000Z</time>
      </trkpt>
      <trkpt lat="46.37162" lon="4.99343">
        <ele>209</ele>
        <time>2021-01-02T14:05:20.000Z</time>
      </trkpt>
      <trkpt lat="46.37166" lon="4.99343">
        <ele>209</ele>
        <time>2021-01-02T14:05:21.000Z</time>
      </trkpt>
      <trkpt lat="46.37169" lon="4.99342">
        <ele>209</ele>
        <time>2021-01-02T14:05:22.000Z</time>
      </trkpt>
      <trkpt lat="46.37173" lon="4.99342">
        <ele>209</ele>
        <time>2021-01-02T14:05:23.000Z</time>
      </trkpt>
      <trkpt lat="46.37176" lon="4.99341">
        <ele>209</ele>
        <time>2021-01-02T14:05:24.000Z</time>
      </trkpt>
      <trkpt lat="46.3718" lon="4.9934">
        <ele>209</ele>
        <time>2021-01-02T14:05:25.000Z</time>
      </trkpt>
      <trkpt lat="46.37184" lon="4.9934">
        <ele>209</ele>
        <time>2021-01-02T14:05:26.000Z</time>
      </trkpt>
      <trkpt lat="46.37188" lon="4.9934">
        <ele>209</ele>
        <time>2021-01-02T14:05:27.000Z</time>
      </trkpt>
      <trkpt lat="46.37192" lon="4.99339">
        <ele>210</ele>
        <time>2021-01-02T14:05:28.000Z</time>
      </trkpt>
      <trkpt lat="46.37196" lon="4.99339">
        <ele>210</ele>
        <time>2021-01-02T14:05:29.000Z</time>
      </trkpt>
      <trkpt lat="46.37199" lon="4.99338">
        <ele>210</ele>
        <time>2021-01-02T14:05:30.000Z</time>
      </trkpt>
      <trkpt lat="46.37203" lon="4.99337">
        <ele>210</ele>
        <time>2021-01-02T14:05:31.000Z</time>
      </trkpt>
      <trkpt lat="46.37207" lon="4.99337">
        <ele>210</ele>
        <time>2021-01-02T14:05:32.000Z</time>
      </trkpt>
      <trkpt lat="46.3721" lon="4.99336">
        <ele>210</ele>
        <time>2021-01-02T14:05:33.000Z</time>
      </trkpt>
      <trkpt lat="46.37214" lon="4.99335">
        <ele>210</ele>
        <time>2021-01-02T14:05:34.000Z</time>
      </trkpt>
      <trkpt lat="46.37217" lon="4.99335">
        <ele>211</ele>
        <time>2021-01-02T14:05:35.000Z</time>
      </trkpt>
      <trkpt lat="46.37221" lon="4.99334">
        <ele>211</ele>
        <time>2021-01-02T14:05:36.000Z</time>
      </trkpt>
      <trkpt lat="46.37224" lon="4.99333">
        <ele>211</ele>
        <time>2021-01-02T14:05:37.000Z</time>
      </trkpt>
      <trkpt lat="46.37228" lon="4.99333">
        <ele>211</ele>
        <time>2021-01-02T14:05:38.000Z</time>
      </trkpt>
      <trkpt lat="46.37232" lon="4.99333">
        <ele>211</ele>
        <time>2021-01-02T14:05:39.000Z</time>
      </trkpt>
      <trkpt lat="46.37235" lon="4.99333">
        <ele>212</ele>
        <time>2021-01-02T14:05:40.000Z</time>
      </trkpt>
      <trkpt lat="46.37239" lon="4.99332">
        <ele>212</ele>
        <time>2021-01-02T14:05:41.000Z</time>
      </trkpt>
      <trkpt lat="46.37242" lon="4.99332">
        <ele>212</ele>
        <time>2021-01-02T14:05:42.000Z</time>
      </trkpt>
      <trkpt lat="46.37245" lon="4.99331">
        <ele>212</ele>
        <time>2021-01-02T14:05:43.000Z</time>
      </trkpt>
      <trkpt lat="46.37249" lon="4.99331">
        <ele>212</ele>
        <time>2021-01-02T14:05:44.000Z</time>
      </trkpt>
      <trkpt lat="46.37252" lon="4.9933">
        <ele>212</ele>
        <time>2021-01-02T14:05:45.000Z</time>
      </trkpt>
      <trkpt lat="46.37256" lon="4.9933">
        <ele>212</ele>
        <time>2021-01-02T14:05:46.000Z</time>
      </trkpt>
      <trkpt lat="46.37259" lon="4.99329">
        <ele>213</ele>
        <time>2021-01-02T14:05:47.000Z</time>
      </trkpt>
      <trkpt lat="46.37262" lon="4.99328">
        <ele>213</ele>
        <time>2021-01-02T14:05:48.000Z</time>
      </trkpt>
      <trkpt lat="46.37266" lon="4.99328">
        <ele>213</ele>
        <time>2021-01-02T14:05:49.000Z</time>
      </trkpt>
      <trkpt lat="46.37269" lon="4.99328">
        <ele>213</ele>
        <time>2021-01-02T14:05:50.000Z</time>
      </trkpt>
      <trkpt lat="46.37273" lon="4.99327">
        <ele>213</ele>
        <time>2021-01-02T14:05:51.000Z</time>
      </trkpt>
      <trkpt lat="46.37276" lon="4.99327">
        <ele>213</ele>
        <time>2021-01-02T14:05:52.000Z</time>
      </trkpt>
      <trkpt lat="46.37279" lon="4.99327">
        <ele>213</ele>
        <time>2021-01-02T14:05:53.000Z</time>
      </trkpt>
      <trkpt lat="46.37282" lon="4.99327">
        <ele>214</ele>
        <time>2021-01-02T14:05:54.000Z</time>
      </trkpt>
      <trkpt lat="46.37286" lon="4.99326">
        <ele>214</ele>
        <time>2021-01-02T14:05:55.000Z</time>
      </trkpt>
      <trkpt lat="46.37289" lon="4.99326">
        <ele>213</ele>
        <time>2021-01-02T14:05:56.000Z</time>
      </trkpt>
      <trkpt lat="46.37293" lon="4.99325">
        <ele>213</ele>
        <time>2021-01-02T14:05:57.000Z</time>
      </trkpt>
      <trkpt lat="46.37296" lon="4.99324">
        <ele>213</ele>
        <time>2021-01-02T14:05:58.000Z</time>
      </trkpt>
      <trkpt lat="46.37299" lon="4.99324">
        <ele>213</ele>
        <time>2021-01-02T14:05:59.000Z</time>
      </trkpt>
      <trkpt lat="46.37302" lon="4.99323">
        <ele>213</ele>
        <time>2021-01-02T14:06:00.000Z</time>
      </trkpt>
      <trkpt lat="46.37306" lon="4.99323">
        <ele>213</ele>
        <time>2021-01-02T14:06:01.000Z</time>
      </trkpt>
      <trkpt lat="46.37309" lon="4.99323">
        <ele>213</ele>
        <time>2021-01-02T14:06:02.000Z</time>
      </trkpt>
      <trkpt lat="46.37312" lon="4.99322">
        <ele>212</ele>
        <time>2021-01-02T14:06:03.000Z</time>
      </trkpt>
      <trkpt lat="46.37316" lon="4.99322">
        <ele>212</ele>
        <time>2021-01-02T14:06:04.000Z</time>
      </trkpt>
      <trkpt lat="46.37319" lon="4.99321">
        <ele>212</ele>
        <time>2021-01-02T14:06:05.000Z</time>
      </trkpt>
      <trkpt lat="46.37323" lon="4.99321">
        <ele>212</ele>
        <time>2021-01-02T14:06:06.000Z</time>
      </trkpt>
      <trkpt lat="46.37326" lon="4.9932">
        <ele>212</ele>
        <time>2021-01-02T14:06:07.000Z</time>
      </trkpt>
      <trkpt lat="46.3733" lon="4.99319">
        <ele>211</ele>
        <time>2021-01-02T14:06:08.000Z</time>
      </trkpt>
      <trkpt lat="46.37333" lon="4.99319">
        <ele>211</ele>
        <time>2021-01-02T14:06:09.000Z</time>
      </trkpt>
      <trkpt lat="46.37337" lon="4.99318">
        <ele>211</ele>
        <time>2021-01-02T14:06:10.000Z</time>
      </trkpt>
      <trkpt lat="46.3734" lon="4.99317">
        <ele>211</ele>
        <time>2021-01-02T14:06:11.000Z</time>
      </trkpt>
      <trkpt lat="46.37344" lon="4.99317">
        <ele>210</ele>
        <time>2021-01-02T14:06:12.000Z</time>
      </trkpt>
      <trkpt lat="46.37347" lon="4.99316">
        <ele>210</ele>
        <time>2021-01-02T14:06:13.000Z</time>
      </trkpt>
      <trkpt lat="46.3735" lon="4.99316">
        <ele>210</ele>
        <time>2021-01-02T14:06:14.000Z</time>
      </trkpt>
      <trkpt lat="46.37353" lon="4.99315">
        <ele>210</ele>
        <time>2021-01-02T14:06:15.000Z</time>
      </trkpt>
      <trkpt lat="46.37357" lon="4.99315">
        <ele>210</ele>
        <time>2021-01-02T14:06:16.000Z</time>
      </trkpt>
      <trkpt lat="46.3736" lon="4.99314">
        <ele>210</ele>
        <time>2021-01-02T14:06:17.000Z</time>
      </trkpt>
      <trkpt lat="46.37363" lon="4.99314">
        <ele>209</ele>
        <time>2021-01-02T14:06:18.000Z</time>
      </trkpt>
      <trkpt lat="46.37366" lon="4.99313">
        <ele>209</ele>
        <time>2021-01-02T14:06:19.000Z</time>
      </trkpt>
      <trkpt lat="46.3737" lon="4.99312">
        <ele>209</ele>
        <time>2021-01-02T14:06:20.000Z</time>
      </trkpt>
      <trkpt lat="46.37373" lon="4.99312">
        <ele>209</ele>
        <time>2021-01-02T14:06:21.000Z</time>
      </trkpt>
      <trkpt lat="46.37376" lon="4.99312">
        <ele>209</ele>
        <time>2021-01-02T14:06:22.000Z</time>
      </trkpt>
      <trkpt lat="46.37379" lon="4.99311">
        <ele>209</ele>
        <time>2021-01-02T14:06:23.000Z</time>
      </trkpt>
      <trkpt lat="46.37382" lon="4.99311">
        <ele>208</ele>
        <time>2021-01-02T14:06:24.000Z</time>
      </trkpt>
      <trkpt lat="46.37386" lon="4.9931">
        <ele>208</ele>
        <time>2021-01-02T14:06:25.000Z</time>
      </trkpt>
      <trkpt lat="46.37389" lon="4.9931">
        <ele>208</ele>
        <time>2021-01-02T14:06:26.000Z</time>
      </trkpt>
      <trkpt lat="46.37392" lon="4.99309">
        <ele>208</ele>
        <time>2021-01-02T14:06:27.000Z</time>
      </trkpt>
      <trkpt lat="46.37395" lon="4.99309">
        <ele>208</ele>
        <time>2021-01-02T14:06:28.000Z</time>
      </trkpt>
      <trkpt lat="46.37398" lon="4.99309">
        <ele>208</ele>
        <time>2021-01-02T14:06:29.000Z</time>
      </trkpt>
      <trkpt lat="46.37401" lon="4.99308">
        <ele>207</ele>
        <time>2021-01-02T14:06:30.000Z</time>
      </trkpt>
      <trkpt lat="46.37404" lon="4.99308">
        <ele>207</ele>
        <time>2021-01-02T14:06:31.000Z</time>
      </trkpt>
      <trkpt lat="46.37407" lon="4.99307">
        <ele>207</ele>
        <time>2021-01-02T14:06:32.000Z</time>
      </trkpt>
      <trkpt lat="46.3741" lon="4.99307">
        <ele>207</ele>
        <time>2021-01-02T14:06:33.000Z</time>
      </trkpt>
      <trkpt lat="46.37413" lon="4.99306">
        <ele>207</ele>
        <time>2021-01-02T14:06:34.000Z</time>
      </trkpt>
      <trkpt lat="46.37416" lon="4.99306">
        <ele>207</ele>
        <time>2021-01-02T14:06:35.000Z</time>
      </trkpt>
      <trkpt lat="46.37419" lon="4.99305">
        <ele>207</ele>
        <time>2021-01-02T14:06:36.000Z</time>
      </trkpt>
      <trkpt lat="46.37422" lon="4.99305">
        <ele>207</ele>
        <time>2021-01-02T14:06:37.000Z</time>
      </trkpt>
      <trkpt lat="46.37424" lon="4.99305">
        <ele>207</ele>
        <time>2021-01-02T14:06:38.000Z</time>
      </trkpt>
      <trkpt lat="46.37427" lon="4.99304">
        <ele>207</ele>
        <time>2021-01-02T14:06:39.000Z</time>
      </trkpt>
      <trkpt lat="46.3743" lon="4.99304">
        <ele>207</ele>
        <time>2021-01-02T14:06:40.000Z</time>
      </trkpt>
      <trkpt lat="46.37433" lon="4.99304">
        <ele>207</ele>
        <time>2021-01-02T14:06:41.000Z</time>
      </trkpt>
      <trkpt lat="46.37436" lon="4.99304">
        <ele>207</ele>
        <time>2021-01-02T14:06:42.000Z</time>
      </trkpt>
      <trkpt lat="46.37439" lon="4.99303">
        <ele>207</ele>
        <time>2021-01-02T14:06:43.000Z</time>
      </trkpt>
      <trkpt lat="46.37442" lon="4.99303">
        <ele>207</ele>
        <time>2021-01-02T14:06:44.000Z</time>
      </trkpt>
      <trkpt lat="46.37445" lon="4.99303">
        <ele>207</ele>
        <time>2021-01-02T14:06:45.000Z</time>
      </trkpt>
      <trkpt lat="46.37448" lon="4.99302">
        <ele>207</ele>
        <time>2021-01-02T14:06:46.000Z</time>
      </trkpt>
      <trkpt lat="46.37451" lon="4.99301">
        <ele>207</ele>
        <time>2021-01-02T14:06:47.000Z</time>
      </trkpt>
      <trkpt lat="46.37453" lon="4.99301">
        <ele>207</ele>
        <time>2021-01-02T14:06:48.000Z</time>
      </trkpt>
      <trkpt lat="46.37456" lon="4.993">
        <ele>208</ele>
        <time>2021-01-02T14:06:49.000Z</time>
      </trkpt>
      <trkpt lat="46.37459" lon="4.993">
        <ele>208</ele>
        <time>2021-01-02T14:06:50.000Z</time>
      </trkpt>
      <trkpt lat="46.37461" lon="4.993">
        <ele>208</ele>
        <time>2021-01-02T14:06:51.000Z</time>
      </trkpt>
      <trkpt lat="46.37464" lon="4.99299">
        <ele>208</ele>
        <time>2021-01-02T14:06:52.000Z</time>
      </trkpt>
      <trkpt lat="46.37467" lon="4.99299">
        <ele>208</ele>
        <time>2021-01-02T14:06:53.000Z</time>
      </trkpt>
      <trkpt lat="46.37469" lon="4.99298">
        <ele>208</ele>
        <time>2021-01-02T14:06:54.000Z</time>
      </trkpt>
      <trkpt lat="46.37472" lon="4.99298">
        <ele>208</ele>
        <time>2021-01-02T14:06:55.000Z</time>
      </trkpt>
      <trkpt lat="46.37475" lon="4.99297">
        <ele>209</ele>
        <time>2021-01-02T14:06:56.000Z</time>
      </trkpt>
      <trkpt lat="46.37478" lon="4.99297">
        <ele>209</ele>
        <time>2021-01-02T14:06:57.000Z</time>
      </trkpt>
      <trkpt lat="46.37481" lon="4.99296">
        <ele>209</ele>
        <time>2021-01-02T14:06:58.000Z</time>
      </trkpt>
      <trkpt lat="46.37484" lon="4.99296">
        <ele>209</ele>
        <time>2021-01-02T14:06:59.000Z</time>
      </trkpt>
      <trkpt lat="46.37487" lon="4.99296">
        <ele>209</ele>
        <time>2021-01-02T14:07:00.000Z</time>
      </trkpt>
      <trkpt lat="46.3749" lon="4.99296">
        <ele>209</ele>
        <time>2021-01-02T14:07:01.000Z</time>
      </trkpt>
      <trkpt lat="46.37493" lon="4.99295">
        <ele>209</ele>
        <time>2021-01-02T14:07:02.000Z</time>
      </trkpt>
      <trkpt lat="46.37496" lon="4.99295">
        <ele>209</ele>
        <time>2021-01-02T14:07:03.000Z</time>
      </trkpt>
      <trkpt lat="46.37499" lon="4.99295">
        <ele>209</ele>
        <time>2021-01-02T14:07:04.000Z</time>
      </trkpt>
      <trkpt lat="46.37502" lon="4.99295">
        <ele>209</ele>
        <time>2021-01-02T14:07:05.000Z</time>
      </trkpt>
      <trkpt lat="46.37505" lon="4.99295">
        <ele>209</ele>
        <time>2021-01-02T14:07:06.000Z</time>
      </trkpt>
      <trkpt lat="46.37509" lon="4.99294">
        <ele>209</ele>
        <time>2021-01-02T14:07:07.000Z</time>
      </trkpt>
      <trkpt lat="46.37512" lon="4.99294">
        <ele>209</ele>
        <time>2021-01-02T14:07:08.000Z</time>
      </trkpt>
      <trkpt lat="46.37515" lon="4.99294">
        <ele>209</ele>
        <time>2021-01-02T14:07:09.000Z</time>
      </trkpt>
      <trkpt lat="46.37518" lon="4.99294">
        <ele>209</ele>
        <time>2021-01-02T14:07:10.000Z</time>
      </trkpt>
      <trkpt lat="46.37521" lon="4.99295">
        <ele>209</ele>
        <time>2021-01-02T14:07:11.000Z</time>
      </trkpt>
      <trkpt lat="46.37524" lon="4.99295">
        <ele>209</ele>
        <time>2021-01-02T14:07:12.000Z</time>
      </trkpt>
      <trkpt lat="46.37527" lon="4.99295">
        <ele>209</ele>
        <time>2021-01-02T14:07:13.000Z</time>
      </trkpt>
      <trkpt lat="46.3753" lon="4.99296">
        <ele>209</ele>
        <time>2021-01-02T14:07:14.000Z</time>
      </trkpt>
      <trkpt lat="46.37533" lon="4.99296">
        <ele>209</ele>
        <time>2021-01-02T14:07:15.000Z</time>
      </trkpt>
      <trkpt lat="46.37536" lon="4.99297">
        <ele>209</ele>
        <time>2021-01-02T14:07:16.000Z</time>
      </trkpt>
      <trkpt lat="46.37539" lon="4.99297">
        <ele>209</ele>
        <time>2021-01-02T14:07:17.000Z</time>
      </trkpt>
      <trkpt lat="46.37542" lon="4.99298">
        <ele>209</ele>
        <time>2021-01-02T14:07:18.000Z</time>
      </trkpt>
      <trkpt lat="46.37546" lon="4.99299">
        <ele>209</ele>
        <time>2021-01-02T14:07:19.000Z</time>
      </trkpt>
      <trkpt lat="46.37549" lon="4.993">
        <ele>209</ele>
        <time>2021-01-02T14:07:20.000Z</time>
      </trkpt>
      <trkpt lat="46.37553" lon="4.99301">
        <ele>209</ele>
        <time>2021-01-02T14:07:21.000Z</time>
      </trkpt>
      <trkpt lat="46.37557" lon="4.99302">
        <ele>209</ele>
        <time>2021-01-02T14:07:22.000Z</time>
      </trkpt>
      <trkpt lat="46.3756" lon="4.99303">
        <ele>209</ele>
        <time>2021-01-02T14:07:23.000Z</time>
      </trkpt>
      <trkpt lat="46.37564" lon="4.99304">
        <ele>209</ele>
        <time>2021-01-02T14:07:24.000Z</time>
      </trkpt>
      <trkpt lat="46.37568" lon="4.99305">
        <ele>209</ele>
        <time>2021-01-02T14:07:25.000Z</time>
      </trkpt>
      <trkpt lat="46.37572" lon="4.99306">
        <ele>209</ele>
        <time>2021-01-02T14:07:26.000Z</time>
      </trkpt>
      <trkpt lat="46.37575" lon="4.99307">
        <ele>209</ele>
        <time>2021-01-02T14:07:27.000Z</time>
      </trkpt>
      <trkpt lat="46.37579" lon="4.99308">
        <ele>209</ele>
        <time>2021-01-02T14:07:28.000Z</time>
      </trkpt>
      <trkpt lat="46.37583" lon="4.9931">
        <ele>209</ele>
        <time>2021-01-02T14:07:29.000Z</time>
      </trkpt>
      <trkpt lat="46.37586" lon="4.99311">
        <ele>208</ele>
        <time>2021-01-02T14:07:30.000Z</time>
      </trkpt>
      <trkpt lat="46.3759" lon="4.99313">
        <ele>208</ele>
        <time>2021-01-02T14:07:31.000Z</time>
      </trkpt>
      <trkpt lat="46.37594" lon="4.99314">
        <ele>208</ele>
        <time>2021-01-02T14:07:32.000Z</time>
      </trkpt>
      <trkpt lat="46.37597" lon="4.99315">
        <ele>208</ele>
        <time>2021-01-02T14:07:33.000Z</time>
      </trkpt>
      <trkpt lat="46.37601" lon="4.99316">
        <ele>208</ele>
        <time>2021-01-02T14:07:34.000Z</time>
      </trkpt>
      <trkpt lat="46.37605" lon="4.99318">
        <ele>208</ele>
        <time>2021-01-02T14:07:35.000Z</time>
      </trkpt>
      <trkpt lat="46.37608" lon="4.99319">
        <ele>208</ele>
        <time>2021-01-02T14:07:36.000Z</time>
      </trkpt>
      <trkpt lat="46.37611" lon="4.9932">
        <ele>208</ele>
        <time>2021-01-02T14:07:37.000Z</time>
      </trkpt>
      <trkpt lat="46.37615" lon="4.99321">
        <ele>208</ele>
        <time>2021-01-02T14:07:38.000Z</time>
      </trkpt>
      <trkpt lat="46.37618" lon="4.99322">
        <ele>207</ele>
        <time>2021-01-02T14:07:39.000Z</time>
      </trkpt>
      <trkpt lat="46.37621" lon="4.99323">
        <ele>207</ele>
        <time>2021-01-02T14:07:40.000Z</time>
      </trkpt>
      <trkpt lat="46.37625" lon="4.99324">
        <ele>207</ele>
        <time>2021-01-02T14:07:41.000Z</time>
      </trkpt>
      <trkpt lat="46.37628" lon="4.99326">
        <ele>207</ele>
        <time>2021-01-02T14:07:42.000Z</time>
      </trkpt>
      <trkpt lat="46.37631" lon="4.99327">
        <ele>207</ele>
        <time>2021-01-02T14:07:43.000Z</time>
      </trkpt>
      <trkpt lat="46.37635" lon="4.99328">
        <ele>207</ele>
        <time>2021-01-02T14:07:44.000Z</time>
      </trkpt>
      <trkpt lat="46.37638" lon="4.99329">
        <ele>206</ele>
        <time>2021-01-02T14:07:45.000Z</time>
      </trkpt>
      <trkpt lat="46.37641" lon="4.9933">
        <ele>206</ele>
        <time>2021-01-02T14:07:46.000Z</time>
      </trkpt>
      <trkpt lat="46.37645" lon="4.99331">
        <ele>206</ele>
        <time>2021-01-02T14:07:47.000Z</time>
      </trkpt>
      <trkpt lat="46.37648" lon="4.99332">
        <ele>206</ele>
        <time>2021-01-02T14:07:48.000Z</time>
      </trkpt>
      <trkpt lat="46.37651" lon="4.99333">
        <ele>206</ele>
        <time>2021-01-02T14:07:49.000Z</time>
      </trkpt>
      <trkpt lat="46.37654" lon="4.99334">
        <ele>206</ele>
        <time>2021-01-02T14:07:50.000Z</time>
      </trkpt>
      <trkpt lat="46.37658" lon="4.99335">
        <ele>206</ele>
        <time>2021-01-02T14:07:51.000Z</time>
      </trkpt>
      <trkpt lat="46.37661" lon="4.99337">
        <ele>205</ele>
        <time>2021-01-02T14:07:52.000Z</time>
      </trkpt>
      <trkpt lat="46.37664" lon="4.99338">
        <ele>205</ele>
        <time>2021-01-02T14:07:53.000Z</time>
      </trkpt>
      <trkpt lat="46.37667" lon="4.99339">
        <ele>205</ele>
        <time>2021-01-02T14:07:54.000Z</time>
      </trkpt>
      <trkpt lat="46.37671" lon="4.9934">
        <ele>205</ele>
        <time>2021-01-02T14:07:55.000Z</time>
      </trkpt>
      <trkpt lat="46.37674" lon="4.99341">
        <ele>205</ele>
        <time>2021-01-02T14:07:56.000Z</time>
      </trkpt>
      <trkpt lat="46.37677" lon="4.99341">
        <ele>205</ele>
        <time>2021-01-02T14:07:57.000Z</time>
      </trkpt>
      <trkpt lat="46.3768" lon="4.99342">
        <ele>205</ele>
        <time>2021-01-02T14:07:58.000Z</time>
      </trkpt>
      <trkpt lat="46.37683" lon="4.99344">
        <ele>204</ele>
        <time>2021-01-02T14:07:59.000Z</time>
      </trkpt>
      <trkpt lat="46.37686" lon="4.99345">
        <ele>204</ele>
        <time>2021-01-02T14:08:00.000Z</time>
      </trkpt>
      <trkpt lat="46.37689" lon="4.99345">
        <ele>204</ele>
        <time>2021-01-02T14:08:01.000Z</time>
      </trkpt>
      <trkpt lat="46.37692" lon="4.99346">
        <ele>204</ele>
        <time>2021-01-02T14:08:02.000Z</time>
      </trkpt>
      <trkpt lat="46.37695" lon="4.99347">
        <ele>204</ele>
        <time>2021-01-02T14:08:03.000Z</time>
      </trkpt>
      <trkpt lat="46.37698" lon="4.99348">
        <ele>204</ele>
        <time>2021-01-02T14:08:04.000Z</time>
      </trkpt>
      <trkpt lat="46.377" lon="4.99349">
        <ele>204</ele>
        <time>2021-01-02T14:08:05.000Z</time>
      </trkpt>
      <trkpt lat="46.37703" lon="4.9935">
        <ele>204</ele>
        <time>2021-01-02T14:08:06.000Z</time>
      </trkpt>
      <trkpt lat="46.37706" lon="4.99351">
        <ele>204</ele>
        <time>2021-01-02T14:08:07.000Z</time>
      </trkpt>
      <trkpt lat="46.37708" lon="4.99352">
        <ele>204</ele>
        <time>2021-01-02T14:08:08.000Z</time>
      </trkpt>
      <trkpt lat="46.37711" lon="4.99353">
        <ele>204</ele>
        <time>2021-01-02T14:08:09.000Z</time>
      </trkpt>
      <trkpt lat="46.37714" lon="4.99354">
        <ele>204</ele>
        <time>2021-01-02T14:08:10.000Z</time>
      </trkpt>
      <trkpt lat="46.37717" lon="4.99356">
        <ele>204</ele>
        <time>2021-01-02T14:08:11.000Z</time>
      </trkpt>
      <trkpt lat="46.3772" lon="4.99357">
        <ele>204</ele>
        <time>2021-01-02T14:08:12.000Z</time>
      </trkpt>
      <trkpt lat="46.37723" lon="4.99359">
        <ele>204</ele>
        <time>2021-01-02T14:08:13.000Z</time>
      </trkpt>
      <trkpt lat="46.37726" lon="4.9936">
        <ele>204</ele>
        <time>2021-01-02T14:08:14.000Z</time>
      </trkpt>
      <trkpt lat="46.37729" lon="4.99361">
        <ele>204</ele>
        <time>2021-01-02T14:08:15.000Z</time>
      </trkpt>
      <trkpt lat="46.37732" lon="4.99363">
        <ele>204</ele>
        <time>2021-01-02T14:08:16.000Z</time>
      </trkpt>
      <trkpt lat="46.37735" lon="4.99364">
        <ele>204</ele>
        <time>2021-01-02T14:08:17.000Z</time>
      </trkpt>
      <trkpt lat="46.37738" lon="4.99365">
        <ele>204</ele>
        <time>2021-01-02T14:08:18.000Z</time>
      </trkpt>
      <trkpt lat="46.37741" lon="4.99367">
        <ele>204</ele>
        <time>2021-01-02T14:08:19.000Z</time>
      </trkpt>
      <trkpt lat="46.37744" lon="4.99368">
        <ele>204</ele>
        <time>2021-01-02T14:08:20.000Z</time>
      </trkpt>
      <trkpt lat="46.37747" lon="4.99369">
        <ele>204</ele>
        <time>2021-01-02T14:08:21.000Z</time>
      </trkpt>
      <trkpt lat="46.3775" lon="4.9937">
        <ele>204</ele>
        <time>2021-01-02T14:08:22.000Z</time>
      </trkpt>
      <trkpt lat="46.37753" lon="4.99372">
        <ele>204</ele>
        <time>2021-01-02T14:08:23.000Z</time>
      </trkpt>
      <trkpt lat="46.37755" lon="4.99374">
        <ele>204</ele>
        <time>2021-01-02T14:08:24.000Z</time>
      </trkpt>
      <trkpt lat="46.37758" lon="4.99375">
        <ele>204</ele>
        <time>2021-01-02T14:08:25.000Z</time>
      </trkpt>
      <trkpt lat="46.37761" lon="4.99376">
        <ele>204</ele>
        <time>2021-01-02T14:08:26.000Z</time>
      </trkpt>
      <trkpt lat="46.37764" lon="4.99377">
        <ele>204</ele>
        <time>2021-01-02T14:08:27.000Z</time>
      </trkpt>
      <trkpt lat="46.37766" lon="4.99378">
        <ele>204</ele>
        <time>2021-01-02T14:08:28.000Z</time>
      </trkpt>
      <trkpt lat="46.37769" lon="4.9938">
        <ele>204</ele>
        <time>2021-01-02T14:08:29.000Z</time>
      </trkpt>
      <trkpt lat="46.37771" lon="4.99381">
        <ele>204</ele>
        <time>2021-01-02T14:08:30.000Z</time>
      </trkpt>
      <trkpt lat="46.37774" lon="4.99382">
        <ele>204</ele>
        <time>2021-01-02T14:08:31.000Z</time>
      </trkpt>
      <trkpt lat="46.37776" lon="4.99384">
        <ele>204</ele>
        <time>2021-01-02T14:08:32.000Z</time>
      </trkpt>
      <trkpt lat="46.37779" lon="4.99385">
        <ele>204</ele>
        <time>2021-01-02T14:08:33.000Z</time>
      </trkpt>
      <trkpt lat="46.37782" lon="4.99386">
        <ele>204</ele>
        <time>2021-01-02T14:08:34.000Z</time>
      </trkpt>
      <trkpt lat="46.37784" lon="4.99388">
        <ele>204</ele>
        <time>2021-01-02T14:08:35.000Z</time>
      </trkpt>
      <trkpt lat="46.37786" lon="4.99389">
        <ele>204</ele>
        <time>2021-01-02T14:08:36.000Z</time>
      </trkpt>
      <trkpt lat="46.37789" lon="4.9939">
        <ele>204</ele>
        <time>2021-01-02T14:08:37.000Z</time>
      </trkpt>
      <trkpt lat="46.37791" lon="4.99392">
        <ele>204</ele>
        <time>2021-01-02T14:08:38.000Z</time>
      </trkpt>
      <trkpt lat="46.37794" lon="4.99393">
        <ele>204</ele>
        <time>2021-01-02T14:08:39.000Z</time>
      </trkpt>
      <trkpt lat="46.37796" lon="4.99394">
        <ele>204</ele>
        <time>2021-01-02T14:08:40.000Z</time>
      </trkpt>
      <trkpt lat="46.37799" lon="4.99395">
        <ele>204</ele>
        <time>2021-01-02T14:08:41.000Z</time>
      </trkpt>
      <trkpt lat="46.37801" lon="4.99396">
        <ele>204</ele>
        <time>2021-01-02T14:08:42.000Z</time>
      </trkpt>
      <trkpt lat="46.37804" lon="4.99397">
        <ele>204</ele>
        <time>2021-01-02T14:08:43.000Z</time>
      </trkpt>
      <trkpt lat="46.37806" lon="4.99399">
        <ele>204</ele>
        <time>2021-01-02T14:08:44.000Z</time>
      </trkpt>
      <trkpt lat="46.37809" lon="4.994">
        <ele>204</ele>
        <time>2021-01-02T14:08:45.000Z</time>
      </trkpt>
      <trkpt lat="46.37812" lon="4.99401">
        <ele>204</ele>
        <time>2021-01-02T14:08:46.000Z</time>
      </trkpt>
      <trkpt lat="46.37814" lon="4.99402">
        <ele>204</ele>
        <time>2021-01-02T14:08:47.000Z</time>
      </trkpt>
      <trkpt lat="46.37817" lon="4.99403">
        <ele>204</ele>
        <time>2021-01-02T14:08:48.000Z</time>
      </trkpt>
      <trkpt lat="46.3782" lon="4.99405">
        <ele>204</ele>
        <time>2021-01-02T14:08:49.000Z</time>
      </trkpt>
      <trkpt lat="46.37822" lon="4.99405">
        <ele>204</ele>
        <time>2021-01-02T14:08:50.000Z</time>
      </trkpt>
      <trkpt lat="46.37825" lon="4.99406">
        <ele>204</ele>
        <time>2021-01-02T14:08:51.000Z</time>
      </trkpt>
      <trkpt lat="46.37827" lon="4.99407">
        <ele>204</ele>
        <time>2021-01-02T14:08:52.000Z</time>
      </trkpt>
      <trkpt lat="46.3783" lon="4.99408">
        <ele>204</ele>
        <time>2021-01-02T14:08:53.000Z</time>
      </trkpt>
      <trkpt lat="46.37833" lon="4.99409">
        <ele>203</ele>
        <time>2021-01-02T14:08:54.000Z</time>
      </trkpt>
      <trkpt lat="46.37835" lon="4.9941">
        <ele>203</ele>
        <time>2021-01-02T14:08:55.000Z</time>
      </trkpt>
      <trkpt lat="46.37838" lon="4.99411">
        <ele>203</ele>
        <time>2021-01-02T14:08:56.000Z</time>
      </trkpt>
      <trkpt lat="46.3784" lon="4.99412">
        <ele>203</ele>
        <time>2021-01-02T14:08:57.000Z</time>
      </trkpt>
      <trkpt lat="46.37843" lon="4.99413">
        <ele>203</ele>
        <time>2021-01-02T14:08:58.000Z</time>
      </trkpt>
      <trkpt lat="46.37846" lon="4.99413">
        <ele>203</ele>
        <time>2021-01-02T14:08:59.000Z</time>
      </trkpt>
      <trkpt lat="46.37849" lon="4.99414">
        <ele>203</ele>
        <time>2021-01-02T14:09:00.000Z</time>
      </trkpt>
      <trkpt lat="46.37852" lon="4.99414">
        <ele>203</ele>
        <time>2021-01-02T14:09:01.000Z</time>
      </trkpt>
      <trkpt lat="46.37855" lon="4.99414">
        <ele>203</ele>
        <time>2021-01-02T14:09:02.000Z</time>
      </trkpt>
      <trkpt lat="46.37858" lon="4.99415">
        <ele>203</ele>
        <time>2021-01-02T14:09:03.000Z</time>
      </trkpt>
      <trkpt lat="46.37861" lon="4.99415">
        <ele>203</ele>
        <time>2021-01-02T14:09:04.000Z</time>
      </trkpt>
      <trkpt lat="46.37864" lon="4.99415">
        <ele>203</ele>
        <time>2021-01-02T14:09:05.000Z</time>
      </trkpt>
      <trkpt lat="46.37866" lon="4.99415">
        <ele>203</ele>
        <time>2021-01-02T14:09:06.000Z</time>
      </trkpt>
      <trkpt lat="46.37869" lon="4.99415">
        <ele>203</ele>
        <time>2021-01-02T14:09:07.000Z</time>
      </trkpt>
      <trkpt lat="46.37872" lon="4.99415">
        <ele>203</ele>
        <time>2021-01-02T14:09:08.000Z</time>
      </trkpt>
      <trkpt lat="46.37875" lon="4.99414">
        <ele>203</ele>
        <time>2021-01-02T14:09:09.000Z</time>
      </trkpt>
      <trkpt lat="46.37878" lon="4.99414">
        <ele>203</ele>
        <time>2021-01-02T14:09:10.000Z</time>
      </trkpt>
      <trkpt lat="46.3788" lon="4.99414">
        <ele>203</ele>
        <time>2021-01-02T14:09:11.000Z</time>
      </trkpt>
      <trkpt lat="46.37883" lon="4.99414">
        <ele>203</ele>
        <time>2021-01-02T14:09:12.000Z</time>
      </trkpt>
      <trkpt lat="46.37885" lon="4.99414">
        <ele>203</ele>
        <time>2021-01-02T14:09:13.000Z</time>
      </trkpt>
      <trkpt lat="46.37888" lon="4.99414">
        <ele>203</ele>
        <time>2021-01-02T14:09:14.000Z</time>
      </trkpt>
      <trkpt lat="46.37891" lon="4.99413">
        <ele>203</ele>
        <time>2021-01-02T14:09:15.000Z</time>
      </trkpt>
      <trkpt lat="46.37893" lon="4.99413">
        <ele>203</ele>
        <time>2021-01-02T14:09:16.000Z</time>
      </trkpt>
      <trkpt lat="46.37896" lon="4.99413">
        <ele>203</ele>
        <time>2021-01-02T14:09:17.000Z</time>
      </trkpt>
      <trkpt lat="46.37899" lon="4.99413">
        <ele>203</ele>
        <time>2021-01-02T14:09:18.000Z</time>
      </trkpt>
      <trkpt lat="46.37901" lon="4.99413">
        <ele>203</ele>
        <time>2021-01-02T14:09:19.000Z</time>
      </trkpt>
      <trkpt lat="46.37904" lon="4.99413">
        <ele>203</ele>
        <time>2021-01-02T14:09:20.000Z</time>
      </trkpt>
      <trkpt lat="46.37907" lon="4.99413">
        <ele>203</ele>
        <time>2021-01-02T14:09:21.000Z</time>
      </trkpt>
      <trkpt lat="46.37909" lon="4.99414">
        <ele>203</ele>
        <time>2021-01-02T14:09:22.000Z</time>
      </trkpt>
      <trkpt lat="46.37912" lon="4.99414">
        <ele>203</ele>
        <time>2021-01-02T14:09:23.000Z</time>
      </trkpt>
      <trkpt lat="46.37914" lon="4.99415">
        <ele>203</ele>
        <time>2021-01-02T14:09:24.000Z</time>
      </trkpt>
      <trkpt lat="46.37917" lon="4.99416">
        <ele>203</ele>
        <time>2021-01-02T14:09:25.000Z</time>
      </trkpt>
      <trkpt lat="46.37919" lon="4.99417">
        <ele>203</ele>
        <time>2021-01-02T14:09:26.000Z</time>
      </trkpt>
      <trkpt lat="46.37922" lon="4.99418">
        <ele>203</ele>
        <time>2021-01-02T14:09:27.000Z</time>
      </trkpt>
      <trkpt lat="46.37925" lon="4.99419">
        <ele>203</ele>
        <time>2021-01-02T14:09:28.000Z</time>
      </trkpt>
      <trkpt lat="46.37928" lon="4.9942">
        <ele>203</ele>
        <time>2021-01-02T14:09:29.000Z</time>
      </trkpt>
      <trkpt lat="46.3793" lon="4.99421">
        <ele>202</ele>
        <time>2021-01-02T14:09:30.000Z</time>
      </trkpt>
      <trkpt lat="46.37933" lon="4.99423">
        <ele>202</ele>
        <time>2021-01-02T14:09:31.000Z</time>
      </trkpt>
      <trkpt lat="46.37936" lon="4.99426">
        <ele>202</ele>
        <time>2021-01-02T14:09:32.000Z</time>
      </trkpt>
      <trkpt lat="46.37938" lon="4.99428">
        <ele>202</ele>
        <time>2021-01-02T14:09:33.000Z</time>
      </trkpt>
      <trkpt lat="46.37941" lon="4.99431">
        <ele>202</ele>
        <time>2021-01-02T14:09:34.000Z</time>
      </trkpt>
      <trkpt lat="46.37944" lon="4.99433">
        <ele>202</ele>
        <time>2021-01-02T14:09:35.000Z</time>
      </trkpt>
      <trkpt lat="46.37946" lon="4.99436">
        <ele>202</ele>
        <time>2021-01-02T14:09:36.000Z</time>
      </trkpt>
      <trkpt lat="46.37949" lon="4.99438">
        <ele>202</ele>
        <time>2021-01-02T14:09:37.000Z</time>
      </trkpt>
      <trkpt lat="46.37951" lon="4.99442">
        <ele>202</ele>
        <time>2021-01-02T14:09:38.000Z</time>
      </trkpt>
      <trkpt lat="46.37953" lon="4.99446">
        <ele>202</ele>
        <time>2021-01-02T14:09:39.000Z</time>
      </trkpt>
      <trkpt lat="46.37956" lon="4.99449">
        <ele>202</ele>
        <time>2021-01-02T14:09:40.000Z</time>
      </trkpt>
      <trkpt lat="46.37958" lon="4.99453">
        <ele>202</ele>
        <time>2021-01-02T14:09:41.000Z</time>
      </trkpt>
      <trkpt lat="46.3796" lon="4.99457">
        <ele>202</ele>
        <time>2021-01-02T14:09:42.000Z</time>
      </trkpt>
      <trkpt lat="46.37963" lon="4.9946">
        <ele>202</ele>
        <time>2021-01-02T14:09:43.000Z</time>
      </trkpt>
      <trkpt lat="46.37965" lon="4.99464">
        <ele>202</ele>
        <time>2021-01-02T14:09:44.000Z</time>
      </trkpt>
      <trkpt lat="46.37967" lon="4.99468">
        <ele>202</ele>
        <time>2021-01-02T14:09:45.000Z</time>
      </trkpt>
      <trkpt lat="46.37969" lon="4.99471">
        <ele>202</ele>
        <time>2021-01-02T14:09:46.000Z</time>
      </trkpt>
      <trkpt lat="46.37971" lon="4.99474">
        <ele>202</ele>
        <time>2021-01-02T14:09:47.000Z</time>
      </trkpt>
      <trkpt lat="46.37973" lon="4.99477">
        <ele>202</ele>
        <time>2021-01-02T14:09:48.000Z</time>
      </trkpt>
      <trkpt lat="46.37974" lon="4.9948">
        <ele>203</ele>
        <time>2021-01-02T14:09:49.000Z</time>
      </trkpt>
      <trkpt lat="46.37976" lon="4.99484">
        <ele>203</ele>
        <time>2021-01-02T14:09:50.000Z</time>
      </trkpt>
      <trkpt lat="46.37978" lon="4.99487">
        <ele>203</ele>
        <time>2021-01-02T14:09:51.000Z</time>
      </trkpt>
      <trkpt lat="46.3798" lon="4.9949">
        <ele>203</ele>
        <time>2021-01-02T14:09:52.000Z</time>
      </trkpt>
      <trkpt lat="46.37982" lon="4.99493">
        <ele>203</ele>
        <time>2021-01-02T14:09:53.000Z</time>
      </trkpt>
      <trkpt lat="46.37984" lon="4.99496">
        <ele>203</ele>
        <time>2021-01-02T14:09:54.000Z</time>
      </trkpt>
      <trkpt lat="46.37987" lon="4.99499">
        <ele>203</ele>
        <time>2021-01-02T14:09:55.000Z</time>
      </trkpt>
      <trkpt lat="46.37989" lon="4.99501">
        <ele>203</ele>
        <time>2021-01-02T14:09:56.000Z</time>
      </trkpt>
      <trkpt lat="46.37992" lon="4.99503">
        <ele>203</ele>
        <time>2021-01-02T14:09:57.000Z</time>
      </trkpt>
      <trkpt lat="46.37994" lon="4.99506">
        <ele>203</ele>
        <time>2021-01-02T14:09:58.000Z</time>
      </trkpt>
      <trkpt lat="46.37997" lon="4.99508">
        <ele>203</ele>
        <time>2021-01-02T14:09:59.000Z</time>
      </trkpt>
      <trkpt lat="46.37999" lon="4.9951">
        <ele>203</ele>
        <time>2021-01-02T14:10:00.000Z</time>
      </trkpt>
      <trkpt lat="46.38002" lon="4.99512">
        <ele>203</ele>
        <time>2021-01-02T14:10:01.000Z</time>
      </trkpt>
      <trkpt lat="46.38004" lon="4.99514">
        <ele>203</ele>
        <time>2021-01-02T14:10:02.000Z</time>
      </trkpt>
      <trkpt lat="46.38007" lon="4.99516">
        <ele>203</ele>
        <time>2021-01-02T14:10:03.000Z</time>
      </trkpt>
      <trkpt lat="46.3801" lon="4.99518">
        <ele>203</ele>
        <time>2021-01-02T14:10:04.000Z</time>
      </trkpt>
      <trkpt lat="46.38012" lon="4.99519">
        <ele>203</ele>
        <time>2021-01-02T14:10:05.000Z</time>
      </trkpt>
      <trkpt lat="46.38015" lon="4.99521">
        <ele>203</ele>
        <time>2021-01-02T14:10:06.000Z</time>
      </trkpt>
      <trkpt lat="46.38018" lon="4.99523">
        <ele>203</ele>
        <time>2021-01-02T14:10:07.000Z</time>
      </trkpt>
      <trkpt lat="46.38021" lon="4.99524">
        <ele>203</ele>
        <time>2021-01-02T14:10:08.000Z</time>
      </trkpt>
      <trkpt lat="46.38024" lon="4.99526">
        <ele>203</ele>
        <time>2021-01-02T14:10:09.000Z</time>
      </trkpt>
      <trkpt lat="46.38026" lon="4.99528">
        <ele>203</ele>
        <time>2021-01-02T14:10:10.000Z</time>
      </trkpt>
      <trkpt lat="46.38029" lon="4.9953">
        <ele>203</ele>
        <time>2021-01-02T14:10:11.000Z</time>
      </trkpt>
      <trkpt lat="46.38032" lon="4.99532">
        <ele>203</ele>
        <time>2021-01-02T14:10:12.000Z</time>
      </trkpt>
      <trkpt lat="46.38034" lon="4.99534">
        <ele>203</ele>
        <time>2021-01-02T14:10:13.000Z</time>
      </trkpt>
      <trkpt lat="46.38037" lon="4.99536">
        <ele>203</ele>
        <time>2021-01-02T14:10:14.000Z</time>
      </trkpt>
      <trkpt lat="46.38039" lon="4.99538">
        <ele>203</ele>
        <time>2021-01-02T14:10:15.000Z</time>
      </trkpt>
      <trkpt lat="46.38041" lon="4.99541">
        <ele>203</ele>
        <time>2021-01-02T14:10:16.000Z</time>
      </trkpt>
      <trkpt lat="46.38044" lon="4.99543">
        <ele>203</ele>
        <time>2021-01-02T14:10:17.000Z</time>
      </trkpt>
      <trkpt lat="46.38046" lon="4.99546">
        <ele>203</ele>
        <time>2021-01-02T14:10:18.000Z</time>
      </trkpt>
      <trkpt lat="46.38049" lon="4.99549">
        <ele>203</ele>
        <time>2021-01-02T14:10:19.000Z</time>
      </trkpt>
      <trkpt lat="46.38051" lon="4.99552">
        <ele>203</ele>
        <time>2021-01-02T14:10:20.000Z</time>
      </trkpt>
      <trkpt lat="46.38054" lon="4.99555">
        <ele>202</ele>
        <time>2021-01-02T14:10:21.000Z</time>
      </trkpt>
      <trkpt lat="46.38057" lon="4.99559">
        <ele>202</ele>
        <time>2021-01-02T14:10:22.000Z</time>
      </trkpt>
      <trkpt lat="46.38059" lon="4.99563">
        <ele>202</ele>
        <time>2021-01-02T14:10:23.000Z</time>
      </trkpt>
      <trkpt lat="46.38062" lon="4.99567">
        <ele>202</ele>
        <time>2021-01-02T14:10:24.000Z</time>
      </trkpt>
      <trkpt lat="46.38065" lon="4.99571">
        <ele>202</ele>
        <time>2021-01-02T14:10:25.000Z</time>
      </trkpt>
      <trkpt lat="46.38068" lon="4.99576">
        <ele>202</ele>
        <time>2021-01-02T14:10:26.000Z</time>
      </trkpt>
      <trkpt lat="46.38071" lon="4.9958">
        <ele>202</ele>
        <time>2021-01-02T14:10:27.000Z</time>
      </trkpt>
      <trkpt lat="46.38075" lon="4.99584">
        <ele>202</ele>
        <time>2021-01-02T14:10:28.000Z</time>
      </trkpt>
      <trkpt lat="46.3808" lon="4.99586">
        <ele>202</ele>
        <time>2021-01-02T14:10:29.000Z</time>
      </trkpt>
      <trkpt lat="46.38084" lon="4.99587">
        <ele>202</ele>
        <time>2021-01-02T14:10:30.000Z</time>
      </trkpt>
      <trkpt lat="46.38088" lon="4.99587">
        <ele>202</ele>
        <time>2021-01-02T14:10:31.000Z</time>
      </trkpt>
      <trkpt lat="46.38091" lon="4.99588">
        <ele>202</ele>
        <time>2021-01-02T14:10:32.000Z</time>
      </trkpt>
      <trkpt lat="46.38094" lon="4.9959">
        <ele>202</ele>
        <time>2021-01-02T14:10:33.000Z</time>
      </trkpt>
      <trkpt lat="46.38097" lon="4.99592">
        <ele>202</ele>
        <time>2021-01-02T14:10:34.000Z</time>
      </trkpt>
      <trkpt lat="46.381" lon="4.99593">
        <ele>202</ele>
        <time>2021-01-02T14:10:35.000Z</time>
      </trkpt>
      <trkpt lat="46.38103" lon="4.99593">
        <ele>202</ele>
        <time>2021-01-02T14:10:36.000Z</time>
      </trkpt>
      <trkpt lat="46.38105" lon="4.99594">
        <ele>202</ele>
        <time>2021-01-02T14:10:37.000Z</time>
      </trkpt>
      <trkpt lat="46.38107" lon="4.99596">
        <ele>201</ele>
        <time>2021-01-02T14:10:38.000Z</time>
      </trkpt>
      <trkpt lat="46.38109" lon="4.99599">
        <ele>201</ele>
        <time>2021-01-02T14:10:39.000Z</time>
      </trkpt>
      <trkpt lat="46.3811" lon="4.99603">
        <ele>201</ele>
        <time>2021-01-02T14:10:40.000Z</time>
      </trkpt>
      <trkpt lat="46.3811" lon="4.99607">
        <ele>201</ele>
        <time>2021-01-02T14:10:41.000Z</time>
      </trkpt>
      <trkpt lat="46.3811" lon="4.9961">
        <ele>201</ele>
        <time>2021-01-02T14:10:42.000Z</time>
      </trkpt>
      <trkpt lat="46.3811" lon="4.99614">
        <ele>201</ele>
        <time>2021-01-02T14:10:43.000Z</time>
      </trkpt>
      <trkpt lat="46.38111" lon="4.99618">
        <ele>201</ele>
        <time>2021-01-02T14:10:44.000Z</time>
      </trkpt>
      <trkpt lat="46.38115" lon="4.99621">
        <ele>201</ele>
        <time>2021-01-02T14:10:45.000Z</time>
      </trkpt>
      <trkpt lat="46.38119" lon="4.99621">
        <ele>201</ele>
        <time>2021-01-02T14:10:46.000Z</time>
      </trkpt>
      <trkpt lat="46.38123" lon="4.99621">
        <ele>201</ele>
        <time>2021-01-02T14:10:47.000Z</time>
      </trkpt>
      <trkpt lat="46.38127" lon="4.99622">
        <ele>201</ele>
        <time>2021-01-02T14:10:48.000Z</time>
      </trkpt>
      <trkpt lat="46.38132" lon="4.99622">
        <ele>201</ele>
        <time>2021-01-02T14:10:49.000Z</time>
      </trkpt>
      <trkpt lat="46.38137" lon="4.99622">
        <ele>201</ele>
        <time>2021-01-02T14:10:50.000Z</time>
      </trkpt>
      <trkpt lat="46.38141" lon="4.99622">
        <ele>201</ele>
        <time>2021-01-02T14:10:51.000Z</time>
      </trkpt>
      <trkpt lat="46.38145" lon="4.99622">
        <ele>201</ele>
        <time>2021-01-02T14:10:52.000Z</time>
      </trkpt>
      <trkpt lat="46.38149" lon="4.99621">
        <ele>201</ele>
        <time>2021-01-02T14:10:53.000Z</time>
      </trkpt>
      <trkpt lat="46.38152" lon="4.99621">
        <ele>201</ele>
        <time>2021-01-02T14:10:54.000Z</time>
      </trkpt>
      <trkpt lat="46.38155" lon="4.99621">
        <ele>201</ele>
        <time>2021-01-02T14:10:55.000Z</time>
      </trkpt>
      <trkpt lat="46.38158" lon="4.99621">
        <ele>201</ele>
        <time>2021-01-02T14:10:56.000Z</time>
      </trkpt>
      <trkpt lat="46.38161" lon="4.99621">
        <ele>201</ele>
        <time>2021-01-02T14:10:57.000Z</time>
      </trkpt>
      <trkpt lat="46.38164" lon="4.9962">
        <ele>201</ele>
        <time>2021-01-02T14:10:58.000Z</time>
      </trkpt>
      <trkpt lat="46.38167" lon="4.9962">
        <ele>201</ele>
        <time>2021-01-02T14:10:59.000Z</time>
      </trkpt>
      <trkpt lat="46.38171" lon="4.99619">
        <ele>201</ele>
        <time>2021-01-02T14:11:00.000Z</time>
      </trkpt>
      <trkpt lat="46.38174" lon="4.99619">
        <ele>201</ele>
        <time>2021-01-02T14:11:01.000Z</time>
      </trkpt>
      <trkpt lat="46.38177" lon="4.99618">
        <ele>201</ele>
        <time>2021-01-02T14:11:02.000Z</time>
      </trkpt>
      <trkpt lat="46.38181" lon="4.99618">
        <ele>201</ele>
        <time>2021-01-02T14:11:03.000Z</time>
      </trkpt>
      <trkpt lat="46.38184" lon="4.99618">
        <ele>201</ele>
        <time>2021-01-02T14:11:04.000Z</time>
      </trkpt>
      <trkpt lat="46.38188" lon="4.99618">
        <ele>201</ele>
        <time>2021-01-02T14:11:05.000Z</time>
      </trkpt>
      <trkpt lat="46.38191" lon="4.99617">
        <ele>201</ele>
        <time>2021-01-02T14:11:06.000Z</time>
      </trkpt>
      <trkpt lat="46.38195" lon="4.99617">
        <ele>200</ele>
        <time>2021-01-02T14:11:07.000Z</time>
      </trkpt>
      <trkpt lat="46.38198" lon="4.99614">
        <ele>200</ele>
        <time>2021-01-02T14:11:08.000Z</time>
      </trkpt>
      <trkpt lat="46.38201" lon="4.99611">
        <ele>200</ele>
        <time>2021-01-02T14:11:09.000Z</time>
      </trkpt>
      <trkpt lat="46.38202" lon="4.99607">
        <ele>201</ele>
        <time>2021-01-02T14:11:10.000Z</time>
      </trkpt>
      <trkpt lat="46.38203" lon="4.99604">
        <ele>201</ele>
        <time>2021-01-02T14:11:11.000Z</time>
      </trkpt>
      <trkpt lat="46.38203" lon="4.99601">
        <ele>201</ele>
        <time>2021-01-02T14:11:12.000Z</time>
      </trkpt>
      <trkpt lat="46.38203" lon="4.99597">
        <ele>201</ele>
        <time>2021-01-02T14:11:13.000Z</time>
      </trkpt>
      <trkpt lat="46.38203" lon="4.99593">
        <ele>201</ele>
        <time>2021-01-02T14:11:14.000Z</time>
      </trkpt>
      <trkpt lat="46.38203" lon="4.9959">
        <ele>201</ele>
        <time>2021-01-02T14:11:15.000Z</time>
      </trkpt>
      <trkpt lat="46.38203" lon="4.99586">
        <ele>201</ele>
        <time>2021-01-02T14:11:16.000Z</time>
      </trkpt>
      <trkpt lat="46.38204" lon="4.99583">
        <ele>201</ele>
        <time>2021-01-02T14:11:17.000Z</time>
      </trkpt>
      <trkpt lat="46.38204" lon="4.99579">
        <ele>201</ele>
        <time>2021-01-02T14:11:18.000Z</time>
      </trkpt>
      <trkpt lat="46.38204" lon="4.99576">
        <ele>201</ele>
        <time>2021-01-02T14:11:19.000Z</time>
      </trkpt>
      <trkpt lat="46.38204" lon="4.99573">
        <ele>201</ele>
        <time>2021-01-02T14:11:20.000Z</time>
      </trkpt>
      <trkpt lat="46.38203" lon="4.99571">
        <ele>201</ele>
        <time>2021-01-02T14:11:21.000Z</time>
      </trkpt>
      <trkpt lat="46.38202" lon="4.99568">
        <ele>201</ele>
        <time>2021-01-02T14:11:22.000Z</time>
      </trkpt>
      <trkpt lat="46.38201" lon="4.99566">
        <ele>201</ele>
        <time>2021-01-02T14:11:23.000Z</time>
      </trkpt>
      <trkpt lat="46.382" lon="4.99565">
        <ele>201</ele>
        <time>2021-01-02T14:11:24.000Z</time>
      </trkpt>
      <trkpt lat="46.38198" lon="4.99565">
        <ele>201</ele>
        <time>2021-01-02T14:11:25.000Z</time>
      </trkpt>
      <trkpt lat="46.38197" lon="4.99564">
        <ele>201</ele>
        <time>2021-01-02T14:11:26.000Z</time>
      </trkpt>
      <trkpt lat="46.38196" lon="4.99564">
        <ele>201</ele>
        <time>2021-01-02T14:11:27.000Z</time>
      </trkpt>
      <trkpt lat="46.38195" lon="4.99564">
        <ele>201</ele>
        <time>2021-01-02T14:11:28.000Z</time>
      </trkpt>
      <trkpt lat="46.38196" lon="4.99565">
        <ele>202</ele>
        <time>2021-01-02T14:11:29.000Z</time>
      </trkpt>
      <trkpt lat="46.38196" lon="4.99565">
        <ele>202</ele>
        <time>2021-01-02T14:11:30.000Z</time>
      </trkpt>
      <trkpt lat="46.38196" lon="4.99565">
        <ele>202</ele>
        <time>2021-01-02T14:11:31.000Z</time>
      </trkpt>
      <trkpt lat="46.38196" lon="4.99565">
        <ele>202</ele>
        <time>2021-01-02T14:11:32.000Z</time>
      </trkpt>
      <trkpt lat="46.38196" lon="4.99565">
        <ele>202</ele>
        <time>2021-01-02T14:11:33.000Z</time>
      </trkpt>
      <trkpt lat="46.38196" lon="4.99565">
        <ele>202</ele>
        <time>2021-01-02T14:11:34.000Z</time>
      </trkpt>
      <trkpt lat="46.38196" lon="4.99565">
        <ele>202</ele>
        <time>2021-01-02T14:11:35.000Z</time>
      </trkpt>
      <trkpt lat="46.38196" lon="4.99565">
        <ele>202</ele>
        <time>2021-01-02T14:11:36.000Z</time>
      </trkpt>
      <trkpt lat="46.38196" lon="4.99565">
        <ele>202</ele>
        <time>2021-01-02T14:11:37.000Z</time>
      </trkpt>
      <trkpt lat="46.38196" lon="4.99565">
        <ele>202</ele>
        <time>2021-01-02T14:11:38.000Z</time>
      </trkpt>
      <trkpt lat="46.38196" lon="4.99565">
        <ele>202</ele>
        <time>2021-01-02T14:11:39.000Z</time>
      </trkpt>
      <trkpt lat="46.38196" lon="4.99565">
        <ele>202</ele>
        <time>2021-01-02T14:11:40.000Z</time>
      </trkpt>
      <trkpt lat="46.38195" lon="4.99564">
        <ele>202</ele>
        <time>2021-01-02T14:11:41.000Z</time>
      </trkpt>
      <trkpt lat="46.38195" lon="4.99565">
        <ele>202</ele>
        <time>2021-01-02T14:11:42.000Z</time>
      </trkpt>
      <trkpt lat="46.38195" lon="4.99564">
        <ele>202</ele>
        <time>2021-01-02T14:11:43.000Z</time>
      </trkpt>
      <trkpt lat="46.38195" lon="4.99565">
        <ele>202</ele>
        <time>2021-01-02T14:11:44.000Z</time>
      </trkpt>
      <trkpt lat="46.38195" lon="4.99565">
        <ele>202</ele>
        <time>2021-01-02T14:11:45.000Z</time>
      </trkpt>
      <trkpt lat="46.38195" lon="4.99565">
        <ele>202</ele>
        <time>2021-01-02T14:11:46.000Z</time>
      </trkpt>
      <trkpt lat="46.38195" lon="4.99565">
        <ele>202</ele>
        <time>2021-01-02T14:11:47.000Z</time>
      </trkpt>
    </trkseg>
  </trk>
</gpx>